<?xml version="1.0" encoding="UTF-8" standalone="no" ?>
<gpx xmlns="http://www.topografix.com/GPX/1/1" xmlns:xsi="http://www.w3.org/2001/XMLSchema-instance" xsi:schemaLocation="http://www.topografix.com/GPX/1/1 http://www.topografix.com/GPX/1/1/gpx.xsd" version="1.1" creator="VisuGPX - https://www.visugpx.com">
  <metadata>
    <name>Pornichet 29/08/2021</name>
    <desc><![CDATA[Sortie VTT dimanche 29 août 2021]]></desc>
  </metadata>
  <trk>
    <name><![CDATA[Pornichet Cyclisme]]></name>
    <trkseg>
      <trkpt lat="47.26405" lon="-2.31539">
        <ele>10.2</ele>
        <time>2021-08-29T06:54:12.000Z</time>
      </trkpt>
      <trkpt lat="47.26405" lon="-2.31553">
        <ele>9.7</ele>
        <time>2021-08-29T06:54:16.000Z</time>
      </trkpt>
      <trkpt lat="47.26406" lon="-2.31557">
        <ele>-0.20000000298023</ele>
        <time>2021-08-29T06:54:17.000Z</time>
      </trkpt>
      <trkpt lat="47.26406" lon="-2.3158">
        <ele>-0.20000000298023</ele>
        <time>2021-08-29T06:54:22.000Z</time>
      </trkpt>
      <trkpt lat="47.26408" lon="-2.31617">
        <ele>-0.20000000298023</ele>
        <time>2021-08-29T06:54:29.000Z</time>
      </trkpt>
      <trkpt lat="47.26406" lon="-2.31645">
        <ele>-0.20000000298023</ele>
        <time>2021-08-29T06:54:35.000Z</time>
      </trkpt>
      <trkpt lat="47.26393" lon="-2.31654">
        <ele>-0.20000000298023</ele>
        <time>2021-08-29T06:54:39.000Z</time>
      </trkpt>
      <trkpt lat="47.26369" lon="-2.31669">
        <ele>-0.20000000298023</ele>
        <time>2021-08-29T06:54:45.000Z</time>
      </trkpt>
      <trkpt lat="47.26347" lon="-2.31683">
        <ele>-1</ele>
        <time>2021-08-29T06:54:50.000Z</time>
      </trkpt>
      <trkpt lat="47.26342" lon="-2.31684">
        <ele>-1.3999999761581</ele>
        <time>2021-08-29T06:54:51.000Z</time>
      </trkpt>
      <trkpt lat="47.26338" lon="-2.31686">
        <ele>-1.7999999523163</ele>
        <time>2021-08-29T06:54:52.000Z</time>
      </trkpt>
      <trkpt lat="47.26333" lon="-2.31688">
        <ele>-2.2000000476837</ele>
        <time>2021-08-29T06:54:53.000Z</time>
      </trkpt>
      <trkpt lat="47.26312" lon="-2.31701">
        <ele>-2.2000000476837</ele>
        <time>2021-08-29T06:54:58.000Z</time>
      </trkpt>
      <trkpt lat="47.26306" lon="-2.31708">
        <ele>-2.5999999046326</ele>
        <time>2021-08-29T06:55:00.000Z</time>
      </trkpt>
      <trkpt lat="47.26305" lon="-2.31712">
        <ele>-3.2000000476837</ele>
        <time>2021-08-29T06:55:01.000Z</time>
      </trkpt>
      <trkpt lat="47.26305" lon="-2.31717">
        <ele>-3.5999999046326</ele>
        <time>2021-08-29T06:55:02.000Z</time>
      </trkpt>
      <trkpt lat="47.26306" lon="-2.31722">
        <ele>-4</ele>
        <time>2021-08-29T06:55:03.000Z</time>
      </trkpt>
      <trkpt lat="47.26306" lon="-2.31728">
        <ele>-4.4000000953674</ele>
        <time>2021-08-29T06:55:04.000Z</time>
      </trkpt>
      <trkpt lat="47.2631" lon="-2.31754">
        <ele>-4.4000000953674</ele>
        <time>2021-08-29T06:55:09.000Z</time>
      </trkpt>
      <trkpt lat="47.26311" lon="-2.31785">
        <ele>-4.4000000953674</ele>
        <time>2021-08-29T06:55:15.000Z</time>
      </trkpt>
      <trkpt lat="47.26309" lon="-2.31825">
        <ele>-4.4000000953674</ele>
        <time>2021-08-29T06:55:22.000Z</time>
      </trkpt>
      <trkpt lat="47.26308" lon="-2.31838">
        <ele>-4.4000000953674</ele>
        <time>2021-08-29T06:55:24.000Z</time>
      </trkpt>
      <trkpt lat="47.26304" lon="-2.31859">
        <ele>-4.4000000953674</ele>
        <time>2021-08-29T06:55:28.000Z</time>
      </trkpt>
      <trkpt lat="47.26286" lon="-2.31879">
        <ele>-4.4000000953674</ele>
        <time>2021-08-29T06:55:34.000Z</time>
      </trkpt>
      <trkpt lat="47.26267" lon="-2.31907">
        <ele>-4.4000000953674</ele>
        <time>2021-08-29T06:55:40.000Z</time>
      </trkpt>
      <trkpt lat="47.26253" lon="-2.31935">
        <ele>-4.4000000953674</ele>
        <time>2021-08-29T06:55:46.000Z</time>
      </trkpt>
      <trkpt lat="47.26241" lon="-2.31951">
        <ele>-4.4000000953674</ele>
        <time>2021-08-29T06:55:51.000Z</time>
      </trkpt>
      <trkpt lat="47.26226" lon="-2.31962">
        <ele>-4.4000000953674</ele>
        <time>2021-08-29T06:55:56.000Z</time>
      </trkpt>
      <trkpt lat="47.26224" lon="-2.31965">
        <ele>-4.4000000953674</ele>
        <time>2021-08-29T06:55:57.000Z</time>
      </trkpt>
      <trkpt lat="47.26209" lon="-2.31981">
        <ele>-4.4000000953674</ele>
        <time>2021-08-29T06:56:03.000Z</time>
      </trkpt>
      <trkpt lat="47.26208" lon="-2.31985">
        <ele>-4.4000000953674</ele>
        <time>2021-08-29T06:56:04.000Z</time>
      </trkpt>
      <trkpt lat="47.26207" lon="-2.31992">
        <ele>-4.4000000953674</ele>
        <time>2021-08-29T06:56:06.000Z</time>
      </trkpt>
      <trkpt lat="47.26199" lon="-2.32001">
        <ele>-4.4000000953674</ele>
        <time>2021-08-29T06:56:11.000Z</time>
      </trkpt>
      <trkpt lat="47.26193" lon="-2.31999">
        <ele>-4.4000000953674</ele>
        <time>2021-08-29T06:56:13.000Z</time>
      </trkpt>
      <trkpt lat="47.26186" lon="-2.31998">
        <ele>-4.4000000953674</ele>
        <time>2021-08-29T06:56:15.000Z</time>
      </trkpt>
      <trkpt lat="47.26164" lon="-2.32009">
        <ele>-4.4000000953674</ele>
        <time>2021-08-29T06:56:21.000Z</time>
      </trkpt>
      <trkpt lat="47.26159" lon="-2.32018">
        <ele>-4.4000000953674</ele>
        <time>2021-08-29T06:56:23.000Z</time>
      </trkpt>
      <trkpt lat="47.26156" lon="-2.32029">
        <ele>-4.4000000953674</ele>
        <time>2021-08-29T06:56:25.000Z</time>
      </trkpt>
      <trkpt lat="47.26148" lon="-2.32063">
        <ele>-4.4000000953674</ele>
        <time>2021-08-29T06:56:31.000Z</time>
      </trkpt>
      <trkpt lat="47.26134" lon="-2.32114">
        <ele>-4.4000000953674</ele>
        <time>2021-08-29T06:56:40.000Z</time>
      </trkpt>
      <trkpt lat="47.26132" lon="-2.32119">
        <ele>-4.4000000953674</ele>
        <time>2021-08-29T06:56:41.000Z</time>
      </trkpt>
      <trkpt lat="47.26119" lon="-2.32152">
        <ele>-4.4000000953674</ele>
        <time>2021-08-29T06:56:47.000Z</time>
      </trkpt>
      <trkpt lat="47.26104" lon="-2.32188">
        <ele>-4.4000000953674</ele>
        <time>2021-08-29T06:56:54.000Z</time>
      </trkpt>
      <trkpt lat="47.26085" lon="-2.32215">
        <ele>-4.4000000953674</ele>
        <time>2021-08-29T06:57:00.000Z</time>
      </trkpt>
      <trkpt lat="47.26063" lon="-2.32242">
        <ele>-4.4000000953674</ele>
        <time>2021-08-29T06:57:07.000Z</time>
      </trkpt>
      <trkpt lat="47.26038" lon="-2.32271">
        <ele>-4.4000000953674</ele>
        <time>2021-08-29T06:57:14.000Z</time>
      </trkpt>
      <trkpt lat="47.26027" lon="-2.32284">
        <ele>-4.4000000953674</ele>
        <time>2021-08-29T06:57:17.000Z</time>
      </trkpt>
      <trkpt lat="47.26018" lon="-2.32296">
        <ele>-4.4000000953674</ele>
        <time>2021-08-29T06:57:20.000Z</time>
      </trkpt>
      <trkpt lat="47.25994" lon="-2.32326">
        <ele>-4.4000000953674</ele>
        <time>2021-08-29T06:57:27.000Z</time>
      </trkpt>
      <trkpt lat="47.25968" lon="-2.3236">
        <ele>-4.4000000953674</ele>
        <time>2021-08-29T06:57:35.000Z</time>
      </trkpt>
      <trkpt lat="47.25965" lon="-2.32364">
        <ele>-4.4000000953674</ele>
        <time>2021-08-29T06:57:36.000Z</time>
      </trkpt>
      <trkpt lat="47.25942" lon="-2.32392">
        <ele>-4.4000000953674</ele>
        <time>2021-08-29T06:57:43.000Z</time>
      </trkpt>
      <trkpt lat="47.25914" lon="-2.3243">
        <ele>-4.4000000953674</ele>
        <time>2021-08-29T06:57:52.000Z</time>
      </trkpt>
      <trkpt lat="47.25891" lon="-2.32451">
        <ele>-4.4000000953674</ele>
        <time>2021-08-29T06:57:59.000Z</time>
      </trkpt>
      <trkpt lat="47.25865" lon="-2.32459">
        <ele>-4.4000000953674</ele>
        <time>2021-08-29T06:58:05.000Z</time>
      </trkpt>
      <trkpt lat="47.25839" lon="-2.32455">
        <ele>-4.4000000953674</ele>
        <time>2021-08-29T06:58:11.000Z</time>
      </trkpt>
      <trkpt lat="47.25811" lon="-2.32442">
        <ele>-4.4000000953674</ele>
        <time>2021-08-29T06:58:18.000Z</time>
      </trkpt>
      <trkpt lat="47.25804" lon="-2.32441">
        <ele>-4.4000000953674</ele>
        <time>2021-08-29T06:58:22.000Z</time>
      </trkpt>
      <trkpt lat="47.25793" lon="-2.32443">
        <ele>-4.4000000953674</ele>
        <time>2021-08-29T06:58:28.000Z</time>
      </trkpt>
      <trkpt lat="47.25789" lon="-2.32443">
        <ele>-4</ele>
        <time>2021-08-29T06:58:29.000Z</time>
      </trkpt>
      <trkpt lat="47.25786" lon="-2.32442">
        <ele>-3.4000000953674</ele>
        <time>2021-08-29T06:58:30.000Z</time>
      </trkpt>
      <trkpt lat="47.25783" lon="-2.32439">
        <ele>-3</ele>
        <time>2021-08-29T06:58:31.000Z</time>
      </trkpt>
      <trkpt lat="47.2578" lon="-2.32436">
        <ele>-2.2000000476837</ele>
        <time>2021-08-29T06:58:32.000Z</time>
      </trkpt>
      <trkpt lat="47.25766" lon="-2.32417">
        <ele>-2.2000000476837</ele>
        <time>2021-08-29T06:58:37.000Z</time>
      </trkpt>
      <trkpt lat="47.25749" lon="-2.32412">
        <ele>-2.2000000476837</ele>
        <time>2021-08-29T06:58:41.000Z</time>
      </trkpt>
      <trkpt lat="47.25744" lon="-2.32411">
        <ele>-2.2000000476837</ele>
        <time>2021-08-29T06:58:42.000Z</time>
      </trkpt>
      <trkpt lat="47.25713" lon="-2.3241">
        <ele>-2.2000000476837</ele>
        <time>2021-08-29T06:58:48.000Z</time>
      </trkpt>
      <trkpt lat="47.25676" lon="-2.32408">
        <ele>-2.2000000476837</ele>
        <time>2021-08-29T06:58:56.000Z</time>
      </trkpt>
      <trkpt lat="47.25663" lon="-2.32415">
        <ele>-2.2000000476837</ele>
        <time>2021-08-29T06:59:00.000Z</time>
      </trkpt>
      <trkpt lat="47.25664" lon="-2.32435">
        <ele>-2.2000000476837</ele>
        <time>2021-08-29T06:59:03.000Z</time>
      </trkpt>
      <trkpt lat="47.25666" lon="-2.32446">
        <ele>-2.2000000476837</ele>
        <time>2021-08-29T06:59:05.000Z</time>
      </trkpt>
      <trkpt lat="47.25673" lon="-2.32469">
        <ele>-2.2000000476837</ele>
        <time>2021-08-29T06:59:09.000Z</time>
      </trkpt>
      <trkpt lat="47.25679" lon="-2.3249">
        <ele>-1.7999999523163</ele>
        <time>2021-08-29T06:59:13.000Z</time>
      </trkpt>
      <trkpt lat="47.2568" lon="-2.32496">
        <ele>-1.3999999761581</ele>
        <time>2021-08-29T06:59:14.000Z</time>
      </trkpt>
      <trkpt lat="47.25681" lon="-2.32501">
        <ele>-1</ele>
        <time>2021-08-29T06:59:15.000Z</time>
      </trkpt>
      <trkpt lat="47.25683" lon="-2.32507">
        <ele>-0.40000000596046</ele>
        <time>2021-08-29T06:59:16.000Z</time>
      </trkpt>
      <trkpt lat="47.25685" lon="-2.32512">
        <ele>7.6</ele>
        <time>2021-08-29T06:59:17.000Z</time>
      </trkpt>
      <trkpt lat="47.25696" lon="-2.32546">
        <ele>8.6</ele>
        <time>2021-08-29T06:59:24.000Z</time>
      </trkpt>
      <trkpt lat="47.25704" lon="-2.32569">
        <ele>0.40000000596046</ele>
        <time>2021-08-29T06:59:29.000Z</time>
      </trkpt>
      <trkpt lat="47.25705" lon="-2.32574">
        <ele>0.80000001192093</ele>
        <time>2021-08-29T06:59:30.000Z</time>
      </trkpt>
      <trkpt lat="47.25706" lon="-2.32579">
        <ele>1.2000000476837</ele>
        <time>2021-08-29T06:59:31.000Z</time>
      </trkpt>
      <trkpt lat="47.25707" lon="-2.32585">
        <ele>1.6000000238419</ele>
        <time>2021-08-29T06:59:32.000Z</time>
      </trkpt>
      <trkpt lat="47.25708" lon="-2.3259">
        <ele>2</ele>
        <time>2021-08-29T06:59:33.000Z</time>
      </trkpt>
      <trkpt lat="47.25705" lon="-2.3261">
        <ele>2</ele>
        <time>2021-08-29T06:59:37.000Z</time>
      </trkpt>
      <trkpt lat="47.2569" lon="-2.32618">
        <ele>2</ele>
        <time>2021-08-29T06:59:41.000Z</time>
      </trkpt>
      <trkpt lat="47.25687" lon="-2.3262">
        <ele>2</ele>
        <time>2021-08-29T06:59:42.000Z</time>
      </trkpt>
      <trkpt lat="47.25661" lon="-2.32629">
        <ele>2</ele>
        <time>2021-08-29T06:59:49.000Z</time>
      </trkpt>
      <trkpt lat="47.25654" lon="-2.32632">
        <ele>2.4000000953674</ele>
        <time>2021-08-29T06:59:51.000Z</time>
      </trkpt>
      <trkpt lat="47.25651" lon="-2.32634">
        <ele>2.7999999523163</ele>
        <time>2021-08-29T06:59:52.000Z</time>
      </trkpt>
      <trkpt lat="47.25647" lon="-2.32636">
        <ele>3.2000000476837</ele>
        <time>2021-08-29T06:59:53.000Z</time>
      </trkpt>
      <trkpt lat="47.25643" lon="-2.32638">
        <ele>3.5999999046326</ele>
        <time>2021-08-29T06:59:54.000Z</time>
      </trkpt>
      <trkpt lat="47.2564" lon="-2.3264">
        <ele>4</ele>
        <time>2021-08-29T06:59:55.000Z</time>
      </trkpt>
      <trkpt lat="47.25636" lon="-2.32641">
        <ele>4</ele>
        <time>2021-08-29T06:59:56.000Z</time>
      </trkpt>
      <trkpt lat="47.25611" lon="-2.32651">
        <ele>4</ele>
        <time>2021-08-29T07:00:03.000Z</time>
      </trkpt>
      <trkpt lat="47.25577" lon="-2.32666">
        <ele>4</ele>
        <time>2021-08-29T07:00:12.000Z</time>
      </trkpt>
      <trkpt lat="47.25544" lon="-2.32682">
        <ele>4</ele>
        <time>2021-08-29T07:00:20.000Z</time>
      </trkpt>
      <trkpt lat="47.25511" lon="-2.32691">
        <ele>4</ele>
        <time>2021-08-29T07:00:27.000Z</time>
      </trkpt>
      <trkpt lat="47.25492" lon="-2.32692">
        <ele>4</ele>
        <time>2021-08-29T07:00:31.000Z</time>
      </trkpt>
      <trkpt lat="47.25483" lon="-2.32695">
        <ele>4</ele>
        <time>2021-08-29T07:00:33.000Z</time>
      </trkpt>
      <trkpt lat="47.25464" lon="-2.32714">
        <ele>4</ele>
        <time>2021-08-29T07:00:38.000Z</time>
      </trkpt>
      <trkpt lat="47.2544" lon="-2.32751">
        <ele>4</ele>
        <time>2021-08-29T07:00:45.000Z</time>
      </trkpt>
      <trkpt lat="47.25432" lon="-2.32769">
        <ele>4</ele>
        <time>2021-08-29T07:00:48.000Z</time>
      </trkpt>
      <trkpt lat="47.25427" lon="-2.32781">
        <ele>4</ele>
        <time>2021-08-29T07:00:50.000Z</time>
      </trkpt>
      <trkpt lat="47.25408" lon="-2.32814">
        <ele>4</ele>
        <time>2021-08-29T07:00:55.000Z</time>
      </trkpt>
      <trkpt lat="47.25366" lon="-2.32866">
        <ele>4</ele>
        <time>2021-08-29T07:01:04.000Z</time>
      </trkpt>
      <trkpt lat="47.25336" lon="-2.32896">
        <ele>4</ele>
        <time>2021-08-29T07:01:11.000Z</time>
      </trkpt>
      <trkpt lat="47.25318" lon="-2.32913">
        <ele>4</ele>
        <time>2021-08-29T07:01:15.000Z</time>
      </trkpt>
      <trkpt lat="47.25311" lon="-2.32922">
        <ele>4</ele>
        <time>2021-08-29T07:01:17.000Z</time>
      </trkpt>
      <trkpt lat="47.25309" lon="-2.32929">
        <ele>4</ele>
        <time>2021-08-29T07:01:18.000Z</time>
      </trkpt>
      <trkpt lat="47.2531" lon="-2.32952">
        <ele>4</ele>
        <time>2021-08-29T07:01:21.000Z</time>
      </trkpt>
      <trkpt lat="47.25317" lon="-2.32972">
        <ele>4</ele>
        <time>2021-08-29T07:01:23.000Z</time>
      </trkpt>
      <trkpt lat="47.25319" lon="-2.32978">
        <ele>3.5999999046326</ele>
        <time>2021-08-29T07:01:24.000Z</time>
      </trkpt>
      <trkpt lat="47.25322" lon="-2.32984">
        <ele>2.7999999523163</ele>
        <time>2021-08-29T07:01:25.000Z</time>
      </trkpt>
      <trkpt lat="47.25324" lon="-2.3299">
        <ele>2.4000000953674</ele>
        <time>2021-08-29T07:01:26.000Z</time>
      </trkpt>
      <trkpt lat="47.25327" lon="-2.32997">
        <ele>2</ele>
        <time>2021-08-29T07:01:27.000Z</time>
      </trkpt>
      <trkpt lat="47.25345" lon="-2.3304">
        <ele>2</ele>
        <time>2021-08-29T07:01:34.000Z</time>
      </trkpt>
      <trkpt lat="47.25366" lon="-2.33095">
        <ele>2</ele>
        <time>2021-08-29T07:01:43.000Z</time>
      </trkpt>
      <trkpt lat="47.25367" lon="-2.33099">
        <ele>2</ele>
        <time>2021-08-29T07:01:44.000Z</time>
      </trkpt>
      <trkpt lat="47.25369" lon="-2.33104">
        <ele>2</ele>
        <time>2021-08-29T07:01:49.000Z</time>
      </trkpt>
      <trkpt lat="47.25369" lon="-2.33104">
        <ele>2</ele>
        <time>2021-08-29T07:01:50.000Z</time>
      </trkpt>
      <trkpt lat="47.25372" lon="-2.33111">
        <ele>8</ele>
        <time>2021-08-29T07:05:28.000Z</time>
      </trkpt>
      <trkpt lat="47.25374" lon="-2.33116">
        <ele>8</ele>
        <time>2021-08-29T07:05:30.000Z</time>
      </trkpt>
      <trkpt lat="47.25382" lon="-2.33133">
        <ele>8</ele>
        <time>2021-08-29T07:05:35.000Z</time>
      </trkpt>
      <trkpt lat="47.25393" lon="-2.33131">
        <ele>8</ele>
        <time>2021-08-29T07:05:38.000Z</time>
      </trkpt>
      <trkpt lat="47.25407" lon="-2.33124">
        <ele>8</ele>
        <time>2021-08-29T07:05:42.000Z</time>
      </trkpt>
      <trkpt lat="47.25412" lon="-2.33122">
        <ele>8</ele>
        <time>2021-08-29T07:05:43.000Z</time>
      </trkpt>
      <trkpt lat="47.25425" lon="-2.33117">
        <ele>7.7</ele>
        <time>2021-08-29T07:05:46.000Z</time>
      </trkpt>
      <trkpt lat="47.25444" lon="-2.3311">
        <ele>7</ele>
        <time>2021-08-29T07:05:50.000Z</time>
      </trkpt>
      <trkpt lat="47.2548" lon="-2.33091">
        <ele>7.1</ele>
        <time>2021-08-29T07:05:58.000Z</time>
      </trkpt>
      <trkpt lat="47.25501" lon="-2.33072">
        <ele>7.5</ele>
        <time>2021-08-29T07:06:04.000Z</time>
      </trkpt>
      <trkpt lat="47.2552" lon="-2.33052">
        <ele>8</ele>
        <time>2021-08-29T07:06:10.000Z</time>
      </trkpt>
      <trkpt lat="47.25541" lon="-2.33041">
        <ele>8.5</ele>
        <time>2021-08-29T07:06:17.000Z</time>
      </trkpt>
      <trkpt lat="47.25562" lon="-2.33037">
        <ele>9.2</ele>
        <time>2021-08-29T07:06:23.000Z</time>
      </trkpt>
      <trkpt lat="47.25582" lon="-2.33031">
        <ele>10</ele>
        <time>2021-08-29T07:06:29.000Z</time>
      </trkpt>
      <trkpt lat="47.25607" lon="-2.33026">
        <ele>10.9</ele>
        <time>2021-08-29T07:06:36.000Z</time>
      </trkpt>
      <trkpt lat="47.25617" lon="-2.33017">
        <ele>11.2</ele>
        <time>2021-08-29T07:06:39.000Z</time>
      </trkpt>
      <trkpt lat="47.25616" lon="-2.33001">
        <ele>11.2</ele>
        <time>2021-08-29T07:06:42.000Z</time>
      </trkpt>
      <trkpt lat="47.25615" lon="-2.32996">
        <ele>11.1</ele>
        <time>2021-08-29T07:06:43.000Z</time>
      </trkpt>
      <trkpt lat="47.25607" lon="-2.32954">
        <ele>0.40000000596046</ele>
        <time>2021-08-29T07:06:50.000Z</time>
      </trkpt>
      <trkpt lat="47.25606" lon="-2.32948">
        <ele>0.80000001192093</ele>
        <time>2021-08-29T07:06:51.000Z</time>
      </trkpt>
      <trkpt lat="47.25605" lon="-2.32942">
        <ele>1.2000000476837</ele>
        <time>2021-08-29T07:06:52.000Z</time>
      </trkpt>
      <trkpt lat="47.25604" lon="-2.32936">
        <ele>1.6000000238419</ele>
        <time>2021-08-29T07:06:53.000Z</time>
      </trkpt>
      <trkpt lat="47.25603" lon="-2.3293">
        <ele>2</ele>
        <time>2021-08-29T07:06:54.000Z</time>
      </trkpt>
      <trkpt lat="47.256" lon="-2.32917">
        <ele>2</ele>
        <time>2021-08-29T07:06:56.000Z</time>
      </trkpt>
      <trkpt lat="47.25594" lon="-2.32869">
        <ele>2</ele>
        <time>2021-08-29T07:07:03.000Z</time>
      </trkpt>
      <trkpt lat="47.25591" lon="-2.32834">
        <ele>2</ele>
        <time>2021-08-29T07:07:08.000Z</time>
      </trkpt>
      <trkpt lat="47.25593" lon="-2.32813">
        <ele>2</ele>
        <time>2021-08-29T07:07:11.000Z</time>
      </trkpt>
      <trkpt lat="47.25594" lon="-2.32806">
        <ele>2</ele>
        <time>2021-08-29T07:07:12.000Z</time>
      </trkpt>
      <trkpt lat="47.25601" lon="-2.3276">
        <ele>2</ele>
        <time>2021-08-29T07:07:19.000Z</time>
      </trkpt>
      <trkpt lat="47.25602" lon="-2.3272">
        <ele>2</ele>
        <time>2021-08-29T07:07:26.000Z</time>
      </trkpt>
      <trkpt lat="47.25603" lon="-2.32675">
        <ele>2</ele>
        <time>2021-08-29T07:07:34.000Z</time>
      </trkpt>
      <trkpt lat="47.25604" lon="-2.32672">
        <ele>2</ele>
        <time>2021-08-29T07:07:35.000Z</time>
      </trkpt>
      <trkpt lat="47.25608" lon="-2.32666">
        <ele>2</ele>
        <time>2021-08-29T07:07:37.000Z</time>
      </trkpt>
      <trkpt lat="47.25627" lon="-2.32653">
        <ele>2</ele>
        <time>2021-08-29T07:07:42.000Z</time>
      </trkpt>
      <trkpt lat="47.25662" lon="-2.32637">
        <ele>2</ele>
        <time>2021-08-29T07:07:49.000Z</time>
      </trkpt>
      <trkpt lat="47.257" lon="-2.32622">
        <ele>2</ele>
        <time>2021-08-29T07:07:56.000Z</time>
      </trkpt>
      <trkpt lat="47.25705" lon="-2.32618">
        <ele>1.6000000238419</ele>
        <time>2021-08-29T07:07:57.000Z</time>
      </trkpt>
      <trkpt lat="47.25708" lon="-2.32612">
        <ele>1.2000000476837</ele>
        <time>2021-08-29T07:07:58.000Z</time>
      </trkpt>
      <trkpt lat="47.25709" lon="-2.32605">
        <ele>0.80000001192093</ele>
        <time>2021-08-29T07:07:59.000Z</time>
      </trkpt>
      <trkpt lat="47.25708" lon="-2.32597">
        <ele>-0.20000000298023</ele>
        <time>2021-08-29T07:08:00.000Z</time>
      </trkpt>
      <trkpt lat="47.25702" lon="-2.32575">
        <ele>-0.20000000298023</ele>
        <time>2021-08-29T07:08:03.000Z</time>
      </trkpt>
      <trkpt lat="47.25697" lon="-2.3256">
        <ele>-0.20000000298023</ele>
        <time>2021-08-29T07:08:05.000Z</time>
      </trkpt>
      <trkpt lat="47.25685" lon="-2.32521">
        <ele>-0.60000002384186</ele>
        <time>2021-08-29T07:08:10.000Z</time>
      </trkpt>
      <trkpt lat="47.25682" lon="-2.32512">
        <ele>-1</ele>
        <time>2021-08-29T07:08:11.000Z</time>
      </trkpt>
      <trkpt lat="47.25679" lon="-2.32504">
        <ele>-1.6000000238419</ele>
        <time>2021-08-29T07:08:12.000Z</time>
      </trkpt>
      <trkpt lat="47.25676" lon="-2.32496">
        <ele>-2</ele>
        <time>2021-08-29T07:08:13.000Z</time>
      </trkpt>
      <trkpt lat="47.25674" lon="-2.32488">
        <ele>-2.4000000953674</ele>
        <time>2021-08-29T07:08:14.000Z</time>
      </trkpt>
      <trkpt lat="47.2566" lon="-2.32438">
        <ele>-2.4000000953674</ele>
        <time>2021-08-29T07:08:20.000Z</time>
      </trkpt>
      <trkpt lat="47.25657" lon="-2.32424">
        <ele>-3</ele>
        <time>2021-08-29T07:08:22.000Z</time>
      </trkpt>
      <trkpt lat="47.25655" lon="-2.32417">
        <ele>-3.4000000953674</ele>
        <time>2021-08-29T07:08:23.000Z</time>
      </trkpt>
      <trkpt lat="47.25654" lon="-2.3241">
        <ele>-4</ele>
        <time>2021-08-29T07:08:24.000Z</time>
      </trkpt>
      <trkpt lat="47.25656" lon="-2.32405">
        <ele>-4.8000001907349</ele>
        <time>2021-08-29T07:08:25.000Z</time>
      </trkpt>
      <trkpt lat="47.25663" lon="-2.32402">
        <ele>-4.8000001907349</ele>
        <time>2021-08-29T07:08:27.000Z</time>
      </trkpt>
      <trkpt lat="47.25674" lon="-2.32414">
        <ele>-4.8000001907349</ele>
        <time>2021-08-29T07:08:30.000Z</time>
      </trkpt>
      <trkpt lat="47.2569" lon="-2.32421">
        <ele>-4.8000001907349</ele>
        <time>2021-08-29T07:08:33.000Z</time>
      </trkpt>
      <trkpt lat="47.25695" lon="-2.32422">
        <ele>-4.8000001907349</ele>
        <time>2021-08-29T07:08:34.000Z</time>
      </trkpt>
      <trkpt lat="47.25736" lon="-2.32426">
        <ele>-4.8000001907349</ele>
        <time>2021-08-29T07:08:41.000Z</time>
      </trkpt>
      <trkpt lat="47.25741" lon="-2.32426">
        <ele>-4.8000001907349</ele>
        <time>2021-08-29T07:08:42.000Z</time>
      </trkpt>
      <trkpt lat="47.25747" lon="-2.32426">
        <ele>-4.8000001907349</ele>
        <time>2021-08-29T07:08:43.000Z</time>
      </trkpt>
      <trkpt lat="47.25762" lon="-2.32422">
        <ele>-4.8000001907349</ele>
        <time>2021-08-29T07:08:46.000Z</time>
      </trkpt>
      <trkpt lat="47.25775" lon="-2.32416">
        <ele>-4.8000001907349</ele>
        <time>2021-08-29T07:08:49.000Z</time>
      </trkpt>
      <trkpt lat="47.25783" lon="-2.32419">
        <ele>-4.8000001907349</ele>
        <time>2021-08-29T07:08:51.000Z</time>
      </trkpt>
      <trkpt lat="47.25796" lon="-2.3244">
        <ele>-4.8000001907349</ele>
        <time>2021-08-29T07:08:55.000Z</time>
      </trkpt>
      <trkpt lat="47.25804" lon="-2.32452">
        <ele>-4.8000001907349</ele>
        <time>2021-08-29T07:08:57.000Z</time>
      </trkpt>
      <trkpt lat="47.25815" lon="-2.32461">
        <ele>-4.8000001907349</ele>
        <time>2021-08-29T07:08:59.000Z</time>
      </trkpt>
      <trkpt lat="47.25839" lon="-2.32473">
        <ele>-4.8000001907349</ele>
        <time>2021-08-29T07:09:03.000Z</time>
      </trkpt>
      <trkpt lat="47.25852" lon="-2.32476">
        <ele>-5.1999998092651</ele>
        <time>2021-08-29T07:09:05.000Z</time>
      </trkpt>
      <trkpt lat="47.25858" lon="-2.32476">
        <ele>-5.8000001907349</ele>
        <time>2021-08-29T07:09:06.000Z</time>
      </trkpt>
      <trkpt lat="47.25864" lon="-2.32476">
        <ele>-6.1999998092651</ele>
        <time>2021-08-29T07:09:07.000Z</time>
      </trkpt>
      <trkpt lat="47.2587" lon="-2.32475">
        <ele>-6.5999999046326</ele>
        <time>2021-08-29T07:09:08.000Z</time>
      </trkpt>
      <trkpt lat="47.25876" lon="-2.32474">
        <ele>-7</ele>
        <time>2021-08-29T07:09:09.000Z</time>
      </trkpt>
      <trkpt lat="47.25888" lon="-2.3247">
        <ele>-7</ele>
        <time>2021-08-29T07:09:11.000Z</time>
      </trkpt>
      <trkpt lat="47.2591" lon="-2.3245">
        <ele>-7</ele>
        <time>2021-08-29T07:09:15.000Z</time>
      </trkpt>
      <trkpt lat="47.25942" lon="-2.32407">
        <ele>-7</ele>
        <time>2021-08-29T07:09:22.000Z</time>
      </trkpt>
      <trkpt lat="47.2597" lon="-2.3237">
        <ele>-7</ele>
        <time>2021-08-29T07:09:28.000Z</time>
      </trkpt>
      <trkpt lat="47.26015" lon="-2.32312">
        <ele>-7</ele>
        <time>2021-08-29T07:09:38.000Z</time>
      </trkpt>
      <trkpt lat="47.26055" lon="-2.32265">
        <ele>-7</ele>
        <time>2021-08-29T07:09:47.000Z</time>
      </trkpt>
      <trkpt lat="47.26081" lon="-2.32234">
        <ele>-7</ele>
        <time>2021-08-29T07:09:53.000Z</time>
      </trkpt>
      <trkpt lat="47.26105" lon="-2.32196">
        <ele>-7</ele>
        <time>2021-08-29T07:09:59.000Z</time>
      </trkpt>
      <trkpt lat="47.26108" lon="-2.32189">
        <ele>-7</ele>
        <time>2021-08-29T07:10:00.000Z</time>
      </trkpt>
      <trkpt lat="47.26131" lon="-2.32128">
        <ele>-7</ele>
        <time>2021-08-29T07:10:08.000Z</time>
      </trkpt>
      <trkpt lat="47.26135" lon="-2.32113">
        <ele>-7.4000000953674</ele>
        <time>2021-08-29T07:10:10.000Z</time>
      </trkpt>
      <trkpt lat="47.26137" lon="-2.32106">
        <ele>-7.8000001907349</ele>
        <time>2021-08-29T07:10:11.000Z</time>
      </trkpt>
      <trkpt lat="47.26139" lon="-2.32099">
        <ele>-8.1999998092651</ele>
        <time>2021-08-29T07:10:12.000Z</time>
      </trkpt>
      <trkpt lat="47.26141" lon="-2.32092">
        <ele>-8.6000003814697</ele>
        <time>2021-08-29T07:10:13.000Z</time>
      </trkpt>
      <trkpt lat="47.26143" lon="-2.32085">
        <ele>-9</ele>
        <time>2021-08-29T07:10:14.000Z</time>
      </trkpt>
      <trkpt lat="47.26159" lon="-2.32036">
        <ele>-9</ele>
        <time>2021-08-29T07:10:21.000Z</time>
      </trkpt>
      <trkpt lat="47.26164" lon="-2.32025">
        <ele>-9</ele>
        <time>2021-08-29T07:10:23.000Z</time>
      </trkpt>
      <trkpt lat="47.26173" lon="-2.32019">
        <ele>-9</ele>
        <time>2021-08-29T07:10:26.000Z</time>
      </trkpt>
      <trkpt lat="47.26178" lon="-2.3202">
        <ele>-9</ele>
        <time>2021-08-29T07:10:29.000Z</time>
      </trkpt>
      <trkpt lat="47.26184" lon="-2.32021">
        <ele>-9</ele>
        <time>2021-08-29T07:10:32.000Z</time>
      </trkpt>
      <trkpt lat="47.26195" lon="-2.32022">
        <ele>-9</ele>
        <time>2021-08-29T07:10:38.000Z</time>
      </trkpt>
      <trkpt lat="47.26198" lon="-2.32008">
        <ele>-9</ele>
        <time>2021-08-29T07:10:42.000Z</time>
      </trkpt>
      <trkpt lat="47.26203" lon="-2.32001">
        <ele>-9</ele>
        <time>2021-08-29T07:10:45.000Z</time>
      </trkpt>
      <trkpt lat="47.26206" lon="-2.31998">
        <ele>-9</ele>
        <time>2021-08-29T07:10:46.000Z</time>
      </trkpt>
      <trkpt lat="47.26223" lon="-2.31978">
        <ele>-9</ele>
        <time>2021-08-29T07:10:52.000Z</time>
      </trkpt>
      <trkpt lat="47.26238" lon="-2.31967">
        <ele>-9</ele>
        <time>2021-08-29T07:10:56.000Z</time>
      </trkpt>
      <trkpt lat="47.26242" lon="-2.31956">
        <ele>-9</ele>
        <time>2021-08-29T07:10:58.000Z</time>
      </trkpt>
      <trkpt lat="47.26253" lon="-2.31937">
        <ele>-9</ele>
        <time>2021-08-29T07:11:02.000Z</time>
      </trkpt>
      <trkpt lat="47.26264" lon="-2.31921">
        <ele>-9</ele>
        <time>2021-08-29T07:11:06.000Z</time>
      </trkpt>
      <trkpt lat="47.26281" lon="-2.31901">
        <ele>-9</ele>
        <time>2021-08-29T07:11:11.000Z</time>
      </trkpt>
      <trkpt lat="47.2629" lon="-2.31896">
        <ele>-9</ele>
        <time>2021-08-29T07:11:14.000Z</time>
      </trkpt>
      <trkpt lat="47.26292" lon="-2.31898">
        <ele>-9</ele>
        <time>2021-08-29T07:11:15.000Z</time>
      </trkpt>
      <trkpt lat="47.26298" lon="-2.31914">
        <ele>-9</ele>
        <time>2021-08-29T07:11:19.000Z</time>
      </trkpt>
      <trkpt lat="47.26308" lon="-2.31933">
        <ele>-9</ele>
        <time>2021-08-29T07:11:23.000Z</time>
      </trkpt>
      <trkpt lat="47.26324" lon="-2.31933">
        <ele>-9</ele>
        <time>2021-08-29T07:11:28.000Z</time>
      </trkpt>
      <trkpt lat="47.26342" lon="-2.3194">
        <ele>-9</ele>
        <time>2021-08-29T07:11:33.000Z</time>
      </trkpt>
      <trkpt lat="47.26358" lon="-2.31972">
        <ele>-9</ele>
        <time>2021-08-29T07:11:39.000Z</time>
      </trkpt>
      <trkpt lat="47.26371" lon="-2.31983">
        <ele>-8.1999998092651</ele>
        <time>2021-08-29T07:11:43.000Z</time>
      </trkpt>
      <trkpt lat="47.26375" lon="-2.31984">
        <ele>-7.8000001907349</ele>
        <time>2021-08-29T07:11:44.000Z</time>
      </trkpt>
      <trkpt lat="47.26378" lon="-2.31984">
        <ele>-7.4000000953674</ele>
        <time>2021-08-29T07:11:45.000Z</time>
      </trkpt>
      <trkpt lat="47.26382" lon="-2.31984">
        <ele>-7</ele>
        <time>2021-08-29T07:11:46.000Z</time>
      </trkpt>
      <trkpt lat="47.26385" lon="-2.31984">
        <ele>-7</ele>
        <time>2021-08-29T07:11:47.000Z</time>
      </trkpt>
      <trkpt lat="47.26404" lon="-2.31987">
        <ele>-6.5999999046326</ele>
        <time>2021-08-29T07:11:53.000Z</time>
      </trkpt>
      <trkpt lat="47.26407" lon="-2.31988">
        <ele>-6.1999998092651</ele>
        <time>2021-08-29T07:11:54.000Z</time>
      </trkpt>
      <trkpt lat="47.26411" lon="-2.31989">
        <ele>-5.8000001907349</ele>
        <time>2021-08-29T07:11:55.000Z</time>
      </trkpt>
      <trkpt lat="47.26414" lon="-2.3199">
        <ele>-5.4000000953674</ele>
        <time>2021-08-29T07:11:56.000Z</time>
      </trkpt>
      <trkpt lat="47.26417" lon="-2.3199">
        <ele>-4.8000001907349</ele>
        <time>2021-08-29T07:11:57.000Z</time>
      </trkpt>
      <trkpt lat="47.26426" lon="-2.31992">
        <ele>-4.8000001907349</ele>
        <time>2021-08-29T07:12:00.000Z</time>
      </trkpt>
      <trkpt lat="47.26443" lon="-2.31995">
        <ele>-4.4000000953674</ele>
        <time>2021-08-29T07:12:05.000Z</time>
      </trkpt>
      <trkpt lat="47.26447" lon="-2.31995">
        <ele>-4</ele>
        <time>2021-08-29T07:12:06.000Z</time>
      </trkpt>
      <trkpt lat="47.2645" lon="-2.31996">
        <ele>-3.5999999046326</ele>
        <time>2021-08-29T07:12:07.000Z</time>
      </trkpt>
      <trkpt lat="47.26453" lon="-2.31997">
        <ele>-2.7999999523163</ele>
        <time>2021-08-29T07:12:08.000Z</time>
      </trkpt>
      <trkpt lat="47.26473" lon="-2.31996">
        <ele>-2.7999999523163</ele>
        <time>2021-08-29T07:12:14.000Z</time>
      </trkpt>
      <trkpt lat="47.26477" lon="-2.31996">
        <ele>-2.4000000953674</ele>
        <time>2021-08-29T07:12:15.000Z</time>
      </trkpt>
      <trkpt lat="47.2648" lon="-2.31996">
        <ele>-1.7999999523163</ele>
        <time>2021-08-29T07:12:16.000Z</time>
      </trkpt>
      <trkpt lat="47.26483" lon="-2.31995">
        <ele>-1.3999999761581</ele>
        <time>2021-08-29T07:12:17.000Z</time>
      </trkpt>
      <trkpt lat="47.26487" lon="-2.31995">
        <ele>-1</ele>
        <time>2021-08-29T07:12:18.000Z</time>
      </trkpt>
      <trkpt lat="47.2649" lon="-2.31995">
        <ele>-0.60000002384186</ele>
        <time>2021-08-29T07:12:19.000Z</time>
      </trkpt>
      <trkpt lat="47.26502" lon="-2.31995">
        <ele>-0.60000002384186</ele>
        <time>2021-08-29T07:12:22.000Z</time>
      </trkpt>
      <trkpt lat="47.26514" lon="-2.31994">
        <ele>16.2</ele>
        <time>2021-08-29T07:12:25.000Z</time>
      </trkpt>
      <trkpt lat="47.26517" lon="-2.31994">
        <ele>0.40000000596046</ele>
        <time>2021-08-29T07:12:26.000Z</time>
      </trkpt>
      <trkpt lat="47.2652" lon="-2.31994">
        <ele>1</ele>
        <time>2021-08-29T07:12:27.000Z</time>
      </trkpt>
      <trkpt lat="47.26523" lon="-2.31996">
        <ele>1.3999999761581</ele>
        <time>2021-08-29T07:12:28.000Z</time>
      </trkpt>
      <trkpt lat="47.26525" lon="-2.31997">
        <ele>1.7999999523163</ele>
        <time>2021-08-29T07:12:29.000Z</time>
      </trkpt>
      <trkpt lat="47.26533" lon="-2.32004">
        <ele>2.4000000953674</ele>
        <time>2021-08-29T07:12:32.000Z</time>
      </trkpt>
      <trkpt lat="47.26535" lon="-2.32008">
        <ele>2.7999999523163</ele>
        <time>2021-08-29T07:12:33.000Z</time>
      </trkpt>
      <trkpt lat="47.26537" lon="-2.32012">
        <ele>3.2000000476837</ele>
        <time>2021-08-29T07:12:34.000Z</time>
      </trkpt>
      <trkpt lat="47.26539" lon="-2.32014">
        <ele>3.5999999046326</ele>
        <time>2021-08-29T07:12:35.000Z</time>
      </trkpt>
      <trkpt lat="47.2654" lon="-2.32018">
        <ele>4</ele>
        <time>2021-08-29T07:12:36.000Z</time>
      </trkpt>
      <trkpt lat="47.26543" lon="-2.32029">
        <ele>4</ele>
        <time>2021-08-29T07:12:39.000Z</time>
      </trkpt>
      <trkpt lat="47.26545" lon="-2.32034">
        <ele>4</ele>
        <time>2021-08-29T07:12:41.000Z</time>
      </trkpt>
      <trkpt lat="47.26551" lon="-2.32036">
        <ele>4</ele>
        <time>2021-08-29T07:12:44.000Z</time>
      </trkpt>
      <trkpt lat="47.26554" lon="-2.32034">
        <ele>4</ele>
        <time>2021-08-29T07:12:45.000Z</time>
      </trkpt>
      <trkpt lat="47.26565" lon="-2.32029">
        <ele>4.4000000953674</ele>
        <time>2021-08-29T07:12:48.000Z</time>
      </trkpt>
      <trkpt lat="47.26568" lon="-2.32028">
        <ele>4.8000001907349</ele>
        <time>2021-08-29T07:12:49.000Z</time>
      </trkpt>
      <trkpt lat="47.26572" lon="-2.32027">
        <ele>5.4000000953674</ele>
        <time>2021-08-29T07:12:50.000Z</time>
      </trkpt>
      <trkpt lat="47.26575" lon="-2.32025">
        <ele>5.8000001907349</ele>
        <time>2021-08-29T07:12:51.000Z</time>
      </trkpt>
      <trkpt lat="47.26579" lon="-2.32024">
        <ele>6.1999998092651</ele>
        <time>2021-08-29T07:12:52.000Z</time>
      </trkpt>
      <trkpt lat="47.26588" lon="-2.3202">
        <ele>6.1999998092651</ele>
        <time>2021-08-29T07:12:55.000Z</time>
      </trkpt>
      <trkpt lat="47.26615" lon="-2.32013">
        <ele>6.5999999046326</ele>
        <time>2021-08-29T07:13:03.000Z</time>
      </trkpt>
      <trkpt lat="47.26618" lon="-2.32012">
        <ele>7</ele>
        <time>2021-08-29T07:13:04.000Z</time>
      </trkpt>
      <trkpt lat="47.26621" lon="-2.32011">
        <ele>7.4000000953674</ele>
        <time>2021-08-29T07:13:05.000Z</time>
      </trkpt>
      <trkpt lat="47.26624" lon="-2.3201">
        <ele>7.8000001907349</ele>
        <time>2021-08-29T07:13:06.000Z</time>
      </trkpt>
      <trkpt lat="47.26627" lon="-2.32009">
        <ele>8.1999998092651</ele>
        <time>2021-08-29T07:13:07.000Z</time>
      </trkpt>
      <trkpt lat="47.26632" lon="-2.32008">
        <ele>8.1999998092651</ele>
        <time>2021-08-29T07:13:09.000Z</time>
      </trkpt>
      <trkpt lat="47.2664" lon="-2.32006">
        <ele>8.1999998092651</ele>
        <time>2021-08-29T07:13:15.000Z</time>
      </trkpt>
      <trkpt lat="47.26643" lon="-2.32008">
        <ele>8.1999998092651</ele>
        <time>2021-08-29T07:13:29.000Z</time>
      </trkpt>
      <trkpt lat="47.26646" lon="-2.32015">
        <ele>8.1999998092651</ele>
        <time>2021-08-29T07:13:32.000Z</time>
      </trkpt>
      <trkpt lat="47.26648" lon="-2.32018">
        <ele>8.1999998092651</ele>
        <time>2021-08-29T07:13:33.000Z</time>
      </trkpt>
      <trkpt lat="47.26653" lon="-2.32038">
        <ele>8.1999998092651</ele>
        <time>2021-08-29T07:13:37.000Z</time>
      </trkpt>
      <trkpt lat="47.26666" lon="-2.32087">
        <ele>8.1999998092651</ele>
        <time>2021-08-29T07:13:46.000Z</time>
      </trkpt>
      <trkpt lat="47.26676" lon="-2.32121">
        <ele>8.1999998092651</ele>
        <time>2021-08-29T07:13:53.000Z</time>
      </trkpt>
      <trkpt lat="47.2668" lon="-2.32123">
        <ele>8.1999998092651</ele>
        <time>2021-08-29T07:13:55.000Z</time>
      </trkpt>
      <trkpt lat="47.26681" lon="-2.3212">
        <ele>8.1999998092651</ele>
        <time>2021-08-29T07:13:56.000Z</time>
      </trkpt>
      <trkpt lat="47.26684" lon="-2.32103">
        <ele>8.1999998092651</ele>
        <time>2021-08-29T07:14:00.000Z</time>
      </trkpt>
      <trkpt lat="47.26685" lon="-2.32067">
        <ele>8.1999998092651</ele>
        <time>2021-08-29T07:14:06.000Z</time>
      </trkpt>
      <trkpt lat="47.26688" lon="-2.32037">
        <ele>8.1999998092651</ele>
        <time>2021-08-29T07:14:12.000Z</time>
      </trkpt>
      <trkpt lat="47.26698" lon="-2.32013">
        <ele>8.1999998092651</ele>
        <time>2021-08-29T07:14:17.000Z</time>
      </trkpt>
      <trkpt lat="47.26707" lon="-2.32001">
        <ele>8.1999998092651</ele>
        <time>2021-08-29T07:14:20.000Z</time>
      </trkpt>
      <trkpt lat="47.26715" lon="-2.31995">
        <ele>8.1999998092651</ele>
        <time>2021-08-29T07:14:22.000Z</time>
      </trkpt>
      <trkpt lat="47.2672" lon="-2.31992">
        <ele>7.8000001907349</ele>
        <time>2021-08-29T07:14:23.000Z</time>
      </trkpt>
      <trkpt lat="47.26725" lon="-2.31988">
        <ele>7.4000000953674</ele>
        <time>2021-08-29T07:14:24.000Z</time>
      </trkpt>
      <trkpt lat="47.2673" lon="-2.31985">
        <ele>6.8000001907349</ele>
        <time>2021-08-29T07:14:25.000Z</time>
      </trkpt>
      <trkpt lat="47.26734" lon="-2.31982">
        <ele>6.4000000953674</ele>
        <time>2021-08-29T07:14:26.000Z</time>
      </trkpt>
      <trkpt lat="47.26739" lon="-2.31979">
        <ele>6</ele>
        <time>2021-08-29T07:14:27.000Z</time>
      </trkpt>
      <trkpt lat="47.26748" lon="-2.31971">
        <ele>6</ele>
        <time>2021-08-29T07:14:29.000Z</time>
      </trkpt>
      <trkpt lat="47.26754" lon="-2.31961">
        <ele>6</ele>
        <time>2021-08-29T07:14:31.000Z</time>
      </trkpt>
      <trkpt lat="47.26763" lon="-2.31947">
        <ele>6</ele>
        <time>2021-08-29T07:14:34.000Z</time>
      </trkpt>
      <trkpt lat="47.26766" lon="-2.31947">
        <ele>5.5999999046326</ele>
        <time>2021-08-29T07:14:35.000Z</time>
      </trkpt>
      <trkpt lat="47.26769" lon="-2.31949">
        <ele>5.1999998092651</ele>
        <time>2021-08-29T07:14:36.000Z</time>
      </trkpt>
      <trkpt lat="47.26773" lon="-2.31953">
        <ele>4.8000001907349</ele>
        <time>2021-08-29T07:14:37.000Z</time>
      </trkpt>
      <trkpt lat="47.26776" lon="-2.31958">
        <ele>4.4000000953674</ele>
        <time>2021-08-29T07:14:38.000Z</time>
      </trkpt>
      <trkpt lat="47.26779" lon="-2.31964">
        <ele>4</ele>
        <time>2021-08-29T07:14:39.000Z</time>
      </trkpt>
      <trkpt lat="47.26786" lon="-2.31978">
        <ele>4</ele>
        <time>2021-08-29T07:14:41.000Z</time>
      </trkpt>
      <trkpt lat="47.26807" lon="-2.32018">
        <ele>3.5999999046326</ele>
        <time>2021-08-29T07:14:46.000Z</time>
      </trkpt>
      <trkpt lat="47.26811" lon="-2.32027">
        <ele>3</ele>
        <time>2021-08-29T07:14:47.000Z</time>
      </trkpt>
      <trkpt lat="47.26814" lon="-2.32036">
        <ele>2.5999999046326</ele>
        <time>2021-08-29T07:14:48.000Z</time>
      </trkpt>
      <trkpt lat="47.26816" lon="-2.32046">
        <ele>2.2000000476837</ele>
        <time>2021-08-29T07:14:49.000Z</time>
      </trkpt>
      <trkpt lat="47.26818" lon="-2.32055">
        <ele>1.7999999523163</ele>
        <time>2021-08-29T07:14:50.000Z</time>
      </trkpt>
      <trkpt lat="47.26826" lon="-2.32083">
        <ele>1.7999999523163</ele>
        <time>2021-08-29T07:14:53.000Z</time>
      </trkpt>
      <trkpt lat="47.26829" lon="-2.32101">
        <ele>1.3999999761581</ele>
        <time>2021-08-29T07:14:55.000Z</time>
      </trkpt>
      <trkpt lat="47.26832" lon="-2.32109">
        <ele>1</ele>
        <time>2021-08-29T07:14:56.000Z</time>
      </trkpt>
      <trkpt lat="47.26834" lon="-2.32118">
        <ele>0.60000002384186</ele>
        <time>2021-08-29T07:14:57.000Z</time>
      </trkpt>
      <trkpt lat="47.26836" lon="-2.32128">
        <ele>0.20000000298023</ele>
        <time>2021-08-29T07:14:58.000Z</time>
      </trkpt>
      <trkpt lat="47.26838" lon="-2.32137">
        <ele>-0.20000000298023</ele>
        <time>2021-08-29T07:14:59.000Z</time>
      </trkpt>
      <trkpt lat="47.26852" lon="-2.32179">
        <ele>-0.20000000298023</ele>
        <time>2021-08-29T07:15:04.000Z</time>
      </trkpt>
      <trkpt lat="47.26863" lon="-2.32204">
        <ele>-0.60000002384186</ele>
        <time>2021-08-29T07:15:07.000Z</time>
      </trkpt>
      <trkpt lat="47.26867" lon="-2.32212">
        <ele>-1</ele>
        <time>2021-08-29T07:15:08.000Z</time>
      </trkpt>
      <trkpt lat="47.26871" lon="-2.3222">
        <ele>-1.3999999761581</ele>
        <time>2021-08-29T07:15:09.000Z</time>
      </trkpt>
      <trkpt lat="47.26874" lon="-2.32228">
        <ele>-1.7999999523163</ele>
        <time>2021-08-29T07:15:10.000Z</time>
      </trkpt>
      <trkpt lat="47.26878" lon="-2.32235">
        <ele>-2.2000000476837</ele>
        <time>2021-08-29T07:15:11.000Z</time>
      </trkpt>
      <trkpt lat="47.26905" lon="-2.32283">
        <ele>-2.5999999046326</ele>
        <time>2021-08-29T07:15:17.000Z</time>
      </trkpt>
      <trkpt lat="47.26909" lon="-2.32292">
        <ele>-3</ele>
        <time>2021-08-29T07:15:18.000Z</time>
      </trkpt>
      <trkpt lat="47.26913" lon="-2.32301">
        <ele>-3.4000000953674</ele>
        <time>2021-08-29T07:15:19.000Z</time>
      </trkpt>
      <trkpt lat="47.26916" lon="-2.3231">
        <ele>-3.7999999523163</ele>
        <time>2021-08-29T07:15:20.000Z</time>
      </trkpt>
      <trkpt lat="47.26919" lon="-2.32318">
        <ele>-4.1999998092651</ele>
        <time>2021-08-29T07:15:21.000Z</time>
      </trkpt>
      <trkpt lat="47.2692" lon="-2.32326">
        <ele>-4.1999998092651</ele>
        <time>2021-08-29T07:15:22.000Z</time>
      </trkpt>
      <trkpt lat="47.26922" lon="-2.32333">
        <ele>-4.5999999046326</ele>
        <time>2021-08-29T07:15:23.000Z</time>
      </trkpt>
      <trkpt lat="47.26924" lon="-2.3234">
        <ele>-5.5999999046326</ele>
        <time>2021-08-29T07:15:24.000Z</time>
      </trkpt>
      <trkpt lat="47.26928" lon="-2.32346">
        <ele>-6</ele>
        <time>2021-08-29T07:15:25.000Z</time>
      </trkpt>
      <trkpt lat="47.26932" lon="-2.32352">
        <ele>-6.4000000953674</ele>
        <time>2021-08-29T07:15:26.000Z</time>
      </trkpt>
      <trkpt lat="47.26939" lon="-2.32365">
        <ele>-6.4000000953674</ele>
        <time>2021-08-29T07:15:28.000Z</time>
      </trkpt>
      <trkpt lat="47.26946" lon="-2.32387">
        <ele>-6.4000000953674</ele>
        <time>2021-08-29T07:15:31.000Z</time>
      </trkpt>
      <trkpt lat="47.26964" lon="-2.32433">
        <ele>-6.4000000953674</ele>
        <time>2021-08-29T07:15:37.000Z</time>
      </trkpt>
      <trkpt lat="47.26979" lon="-2.32452">
        <ele>-6.8000001907349</ele>
        <time>2021-08-29T07:15:40.000Z</time>
      </trkpt>
      <trkpt lat="47.26983" lon="-2.32458">
        <ele>-7.1999998092651</ele>
        <time>2021-08-29T07:15:41.000Z</time>
      </trkpt>
      <trkpt lat="47.26987" lon="-2.32465">
        <ele>-7.5999999046326</ele>
        <time>2021-08-29T07:15:42.000Z</time>
      </trkpt>
      <trkpt lat="47.2699" lon="-2.32472">
        <ele>-8</ele>
        <time>2021-08-29T07:15:43.000Z</time>
      </trkpt>
      <trkpt lat="47.26993" lon="-2.32479">
        <ele>-8.3999996185303</ele>
        <time>2021-08-29T07:15:44.000Z</time>
      </trkpt>
      <trkpt lat="47.27005" lon="-2.32505">
        <ele>-8.3999996185303</ele>
        <time>2021-08-29T07:15:48.000Z</time>
      </trkpt>
      <trkpt lat="47.27008" lon="-2.32508">
        <ele>-8.3999996185303</ele>
        <time>2021-08-29T07:15:49.000Z</time>
      </trkpt>
      <trkpt lat="47.27023" lon="-2.32505">
        <ele>-8.3999996185303</ele>
        <time>2021-08-29T07:15:52.000Z</time>
      </trkpt>
      <trkpt lat="47.27027" lon="-2.325">
        <ele>-8.8000001907349</ele>
        <time>2021-08-29T07:15:53.000Z</time>
      </trkpt>
      <trkpt lat="47.27029" lon="-2.32493">
        <ele>-9.1999998092651</ele>
        <time>2021-08-29T07:15:54.000Z</time>
      </trkpt>
      <trkpt lat="47.2703" lon="-2.32484">
        <ele>-9.6000003814697</ele>
        <time>2021-08-29T07:15:55.000Z</time>
      </trkpt>
      <trkpt lat="47.27031" lon="-2.32474">
        <ele>-10</ele>
        <time>2021-08-29T07:15:56.000Z</time>
      </trkpt>
      <trkpt lat="47.27031" lon="-2.32465">
        <ele>-10.39999961853</ele>
        <time>2021-08-29T07:15:57.000Z</time>
      </trkpt>
      <trkpt lat="47.2703" lon="-2.32455">
        <ele>-10.39999961853</ele>
        <time>2021-08-29T07:15:58.000Z</time>
      </trkpt>
      <trkpt lat="47.27029" lon="-2.32435">
        <ele>-10.39999961853</ele>
        <time>2021-08-29T07:16:00.000Z</time>
      </trkpt>
      <trkpt lat="47.27022" lon="-2.3236">
        <ele>-10.39999961853</ele>
        <time>2021-08-29T07:16:08.000Z</time>
      </trkpt>
      <trkpt lat="47.27018" lon="-2.32301">
        <ele>-10.39999961853</ele>
        <time>2021-08-29T07:16:14.000Z</time>
      </trkpt>
      <trkpt lat="47.27019" lon="-2.32249">
        <ele>-10.39999961853</ele>
        <time>2021-08-29T07:16:20.000Z</time>
      </trkpt>
      <trkpt lat="47.27017" lon="-2.32234">
        <ele>-10.39999961853</ele>
        <time>2021-08-29T07:16:22.000Z</time>
      </trkpt>
      <trkpt lat="47.27013" lon="-2.32212">
        <ele>-10.39999961853</ele>
        <time>2021-08-29T07:16:25.000Z</time>
      </trkpt>
      <trkpt lat="47.27012" lon="-2.32204">
        <ele>-10.39999961853</ele>
        <time>2021-08-29T07:16:26.000Z</time>
      </trkpt>
      <trkpt lat="47.26998" lon="-2.32174">
        <ele>-10.39999961853</ele>
        <time>2021-08-29T07:16:30.000Z</time>
      </trkpt>
      <trkpt lat="47.26994" lon="-2.32168">
        <ele>-10.39999961853</ele>
        <time>2021-08-29T07:16:31.000Z</time>
      </trkpt>
      <trkpt lat="47.26989" lon="-2.32154">
        <ele>-10.39999961853</ele>
        <time>2021-08-29T07:16:33.000Z</time>
      </trkpt>
      <trkpt lat="47.26988" lon="-2.32147">
        <ele>-10.39999961853</ele>
        <time>2021-08-29T07:16:34.000Z</time>
      </trkpt>
      <trkpt lat="47.26994" lon="-2.32131">
        <ele>-10.39999961853</ele>
        <time>2021-08-29T07:16:37.000Z</time>
      </trkpt>
      <trkpt lat="47.27001" lon="-2.32124">
        <ele>-10.39999961853</ele>
        <time>2021-08-29T07:16:39.000Z</time>
      </trkpt>
      <trkpt lat="47.27007" lon="-2.32116">
        <ele>-10.39999961853</ele>
        <time>2021-08-29T07:16:41.000Z</time>
      </trkpt>
      <trkpt lat="47.27009" lon="-2.3211">
        <ele>-10.39999961853</ele>
        <time>2021-08-29T07:16:42.000Z</time>
      </trkpt>
      <trkpt lat="47.27012" lon="-2.32093">
        <ele>-10.39999961853</ele>
        <time>2021-08-29T07:16:45.000Z</time>
      </trkpt>
      <trkpt lat="47.27013" lon="-2.32079">
        <ele>-10.39999961853</ele>
        <time>2021-08-29T07:16:47.000Z</time>
      </trkpt>
      <trkpt lat="47.27013" lon="-2.32045">
        <ele>-10.39999961853</ele>
        <time>2021-08-29T07:16:52.000Z</time>
      </trkpt>
      <trkpt lat="47.27013" lon="-2.32039">
        <ele>-10.39999961853</ele>
        <time>2021-08-29T07:16:53.000Z</time>
      </trkpt>
      <trkpt lat="47.27008" lon="-2.32014">
        <ele>-10</ele>
        <time>2021-08-29T07:16:57.000Z</time>
      </trkpt>
      <trkpt lat="47.27006" lon="-2.32008">
        <ele>-9.6000003814697</ele>
        <time>2021-08-29T07:16:58.000Z</time>
      </trkpt>
      <trkpt lat="47.27005" lon="-2.32002">
        <ele>-9.1999998092651</ele>
        <time>2021-08-29T07:16:59.000Z</time>
      </trkpt>
      <trkpt lat="47.27004" lon="-2.31996">
        <ele>-8.8000001907349</ele>
        <time>2021-08-29T07:17:00.000Z</time>
      </trkpt>
      <trkpt lat="47.27003" lon="-2.31991">
        <ele>-8.3999996185303</ele>
        <time>2021-08-29T07:17:01.000Z</time>
      </trkpt>
      <trkpt lat="47.27004" lon="-2.31986">
        <ele>-8.3999996185303</ele>
        <time>2021-08-29T07:17:02.000Z</time>
      </trkpt>
      <trkpt lat="47.27006" lon="-2.31982">
        <ele>-8.3999996185303</ele>
        <time>2021-08-29T07:17:03.000Z</time>
      </trkpt>
      <trkpt lat="47.27016" lon="-2.31974">
        <ele>-8.3999996185303</ele>
        <time>2021-08-29T07:17:06.000Z</time>
      </trkpt>
      <trkpt lat="47.2702" lon="-2.31972">
        <ele>-8.3999996185303</ele>
        <time>2021-08-29T07:17:07.000Z</time>
      </trkpt>
      <trkpt lat="47.27037" lon="-2.31961">
        <ele>-8.3999996185303</ele>
        <time>2021-08-29T07:17:13.000Z</time>
      </trkpt>
      <trkpt lat="47.27043" lon="-2.31959">
        <ele>-8.3999996185303</ele>
        <time>2021-08-29T07:17:16.000Z</time>
      </trkpt>
      <trkpt lat="47.27047" lon="-2.3196">
        <ele>-8.3999996185303</ele>
        <time>2021-08-29T07:17:18.000Z</time>
      </trkpt>
      <trkpt lat="47.27051" lon="-2.3196">
        <ele>-8.3999996185303</ele>
        <time>2021-08-29T07:17:20.000Z</time>
      </trkpt>
      <trkpt lat="47.27059" lon="-2.3196">
        <ele>-8.3999996185303</ele>
        <time>2021-08-29T07:17:25.000Z</time>
      </trkpt>
      <trkpt lat="47.27068" lon="-2.31959">
        <ele>-8.3999996185303</ele>
        <time>2021-08-29T07:17:32.000Z</time>
      </trkpt>
      <trkpt lat="47.27072" lon="-2.31955">
        <ele>-8.3999996185303</ele>
        <time>2021-08-29T07:17:34.000Z</time>
      </trkpt>
      <trkpt lat="47.27075" lon="-2.31946">
        <ele>-8.3999996185303</ele>
        <time>2021-08-29T07:17:37.000Z</time>
      </trkpt>
      <trkpt lat="47.27075" lon="-2.31925">
        <ele>-8.3999996185303</ele>
        <time>2021-08-29T07:17:42.000Z</time>
      </trkpt>
      <trkpt lat="47.27072" lon="-2.31909">
        <ele>-8.3999996185303</ele>
        <time>2021-08-29T07:17:46.000Z</time>
      </trkpt>
      <trkpt lat="47.27072" lon="-2.31904">
        <ele>-8.3999996185303</ele>
        <time>2021-08-29T07:17:47.000Z</time>
      </trkpt>
      <trkpt lat="47.27074" lon="-2.31877">
        <ele>-8.3999996185303</ele>
        <time>2021-08-29T07:17:53.000Z</time>
      </trkpt>
      <trkpt lat="47.27076" lon="-2.31866">
        <ele>-8.3999996185303</ele>
        <time>2021-08-29T07:17:56.000Z</time>
      </trkpt>
      <trkpt lat="47.27072" lon="-2.3186">
        <ele>-8.3999996185303</ele>
        <time>2021-08-29T07:17:58.000Z</time>
      </trkpt>
      <trkpt lat="47.27066" lon="-2.31856">
        <ele>-8.3999996185303</ele>
        <time>2021-08-29T07:18:00.000Z</time>
      </trkpt>
      <trkpt lat="47.27062" lon="-2.31849">
        <ele>-8.3999996185303</ele>
        <time>2021-08-29T07:18:02.000Z</time>
      </trkpt>
      <trkpt lat="47.27059" lon="-2.31839">
        <ele>-8</ele>
        <time>2021-08-29T07:18:04.000Z</time>
      </trkpt>
      <trkpt lat="47.27059" lon="-2.31833">
        <ele>-7.5999999046326</ele>
        <time>2021-08-29T07:18:05.000Z</time>
      </trkpt>
      <trkpt lat="47.27058" lon="-2.31827">
        <ele>-7</ele>
        <time>2021-08-29T07:18:06.000Z</time>
      </trkpt>
      <trkpt lat="47.27057" lon="-2.31821">
        <ele>-6.5999999046326</ele>
        <time>2021-08-29T07:18:07.000Z</time>
      </trkpt>
      <trkpt lat="47.27057" lon="-2.31816">
        <ele>-6.1999998092651</ele>
        <time>2021-08-29T07:18:08.000Z</time>
      </trkpt>
      <trkpt lat="47.27055" lon="-2.31789">
        <ele>-6.1999998092651</ele>
        <time>2021-08-29T07:18:13.000Z</time>
      </trkpt>
      <trkpt lat="47.27051" lon="-2.31764">
        <ele>-6.1999998092651</ele>
        <time>2021-08-29T07:18:19.000Z</time>
      </trkpt>
      <trkpt lat="47.2705" lon="-2.31746">
        <ele>-6.1999998092651</ele>
        <time>2021-08-29T07:18:25.000Z</time>
      </trkpt>
      <trkpt lat="47.27049" lon="-2.31735">
        <ele>-5.8000001907349</ele>
        <time>2021-08-29T07:18:28.000Z</time>
      </trkpt>
      <trkpt lat="47.27048" lon="-2.31733">
        <ele>-5.4000000953674</ele>
        <time>2021-08-29T07:18:29.000Z</time>
      </trkpt>
      <trkpt lat="47.27046" lon="-2.31731">
        <ele>-5</ele>
        <time>2021-08-29T07:18:30.000Z</time>
      </trkpt>
      <trkpt lat="47.27043" lon="-2.31729">
        <ele>-4.4000000953674</ele>
        <time>2021-08-29T07:18:31.000Z</time>
      </trkpt>
      <trkpt lat="47.27041" lon="-2.31728">
        <ele>-4</ele>
        <time>2021-08-29T07:18:32.000Z</time>
      </trkpt>
      <trkpt lat="47.2703" lon="-2.31719">
        <ele>-4</ele>
        <time>2021-08-29T07:18:38.000Z</time>
      </trkpt>
      <trkpt lat="47.27025" lon="-2.31714">
        <ele>-4</ele>
        <time>2021-08-29T07:18:41.000Z</time>
      </trkpt>
      <trkpt lat="47.27026" lon="-2.31708">
        <ele>-4</ele>
        <time>2021-08-29T07:18:43.000Z</time>
      </trkpt>
      <trkpt lat="47.2703" lon="-2.31679">
        <ele>-3.5999999046326</ele>
        <time>2021-08-29T07:18:49.000Z</time>
      </trkpt>
      <trkpt lat="47.27031" lon="-2.31674">
        <ele>-3.2000000476837</ele>
        <time>2021-08-29T07:18:50.000Z</time>
      </trkpt>
      <trkpt lat="47.27031" lon="-2.31668">
        <ele>-2.7999999523163</ele>
        <time>2021-08-29T07:18:51.000Z</time>
      </trkpt>
      <trkpt lat="47.27032" lon="-2.31663">
        <ele>-2.4000000953674</ele>
        <time>2021-08-29T07:18:52.000Z</time>
      </trkpt>
      <trkpt lat="47.27032" lon="-2.31657">
        <ele>-2</ele>
        <time>2021-08-29T07:18:53.000Z</time>
      </trkpt>
      <trkpt lat="47.27031" lon="-2.31644">
        <ele>-2</ele>
        <time>2021-08-29T07:18:55.000Z</time>
      </trkpt>
      <trkpt lat="47.27026" lon="-2.31609">
        <ele>-2</ele>
        <time>2021-08-29T07:19:02.000Z</time>
      </trkpt>
      <trkpt lat="47.27025" lon="-2.31605">
        <ele>-1.6000000238419</ele>
        <time>2021-08-29T07:19:03.000Z</time>
      </trkpt>
      <trkpt lat="47.27025" lon="-2.31601">
        <ele>-1.2000000476837</ele>
        <time>2021-08-29T07:19:04.000Z</time>
      </trkpt>
      <trkpt lat="47.27024" lon="-2.31597">
        <ele>-0.80000001192093</ele>
        <time>2021-08-29T07:19:05.000Z</time>
      </trkpt>
      <trkpt lat="47.27022" lon="-2.31592">
        <ele>-0.40000000596046</ele>
        <time>2021-08-29T07:19:06.000Z</time>
      </trkpt>
      <trkpt lat="47.27021" lon="-2.31588">
        <ele>20.1</ele>
        <time>2021-08-29T07:19:07.000Z</time>
      </trkpt>
      <trkpt lat="47.27017" lon="-2.31579">
        <ele>20.7</ele>
        <time>2021-08-29T07:19:09.000Z</time>
      </trkpt>
      <trkpt lat="47.27016" lon="-2.31575">
        <ele>0.60000002384186</ele>
        <time>2021-08-29T07:19:10.000Z</time>
      </trkpt>
      <trkpt lat="47.27014" lon="-2.31571">
        <ele>1</ele>
        <time>2021-08-29T07:19:11.000Z</time>
      </trkpt>
      <trkpt lat="47.27012" lon="-2.31566">
        <ele>1.3999999761581</ele>
        <time>2021-08-29T07:19:12.000Z</time>
      </trkpt>
      <trkpt lat="47.27011" lon="-2.31561">
        <ele>1.7999999523163</ele>
        <time>2021-08-29T07:19:13.000Z</time>
      </trkpt>
      <trkpt lat="47.27009" lon="-2.31557">
        <ele>2.2000000476837</ele>
        <time>2021-08-29T07:19:14.000Z</time>
      </trkpt>
      <trkpt lat="47.27006" lon="-2.31546">
        <ele>2.2000000476837</ele>
        <time>2021-08-29T07:19:16.000Z</time>
      </trkpt>
      <trkpt lat="47.27002" lon="-2.31532">
        <ele>2.5999999046326</ele>
        <time>2021-08-29T07:19:19.000Z</time>
      </trkpt>
      <trkpt lat="47.27001" lon="-2.31527">
        <ele>3</ele>
        <time>2021-08-29T07:19:20.000Z</time>
      </trkpt>
      <trkpt lat="47.27" lon="-2.31521">
        <ele>3.4000000953674</ele>
        <time>2021-08-29T07:19:21.000Z</time>
      </trkpt>
      <trkpt lat="47.26999" lon="-2.31515">
        <ele>4</ele>
        <time>2021-08-29T07:19:22.000Z</time>
      </trkpt>
      <trkpt lat="47.26998" lon="-2.3151">
        <ele>4.4000000953674</ele>
        <time>2021-08-29T07:19:23.000Z</time>
      </trkpt>
      <trkpt lat="47.26992" lon="-2.31486">
        <ele>4.8000001907349</ele>
        <time>2021-08-29T07:19:28.000Z</time>
      </trkpt>
      <trkpt lat="47.26991" lon="-2.31481">
        <ele>5.1999998092651</ele>
        <time>2021-08-29T07:19:29.000Z</time>
      </trkpt>
      <trkpt lat="47.2699" lon="-2.31477">
        <ele>5.5999999046326</ele>
        <time>2021-08-29T07:19:30.000Z</time>
      </trkpt>
      <trkpt lat="47.26988" lon="-2.31472">
        <ele>6</ele>
        <time>2021-08-29T07:19:31.000Z</time>
      </trkpt>
      <trkpt lat="47.26987" lon="-2.31468">
        <ele>6.4000000953674</ele>
        <time>2021-08-29T07:19:32.000Z</time>
      </trkpt>
      <trkpt lat="47.26984" lon="-2.31449">
        <ele>6.4000000953674</ele>
        <time>2021-08-29T07:19:36.000Z</time>
      </trkpt>
      <trkpt lat="47.26983" lon="-2.31423">
        <ele>6.4000000953674</ele>
        <time>2021-08-29T07:19:41.000Z</time>
      </trkpt>
      <trkpt lat="47.26982" lon="-2.31393">
        <ele>6.8000001907349</ele>
        <time>2021-08-29T07:19:47.000Z</time>
      </trkpt>
      <trkpt lat="47.26982" lon="-2.31387">
        <ele>7.1999998092651</ele>
        <time>2021-08-29T07:19:48.000Z</time>
      </trkpt>
      <trkpt lat="47.26982" lon="-2.31382">
        <ele>7.8000001907349</ele>
        <time>2021-08-29T07:19:49.000Z</time>
      </trkpt>
      <trkpt lat="47.26982" lon="-2.31377">
        <ele>8.1999998092651</ele>
        <time>2021-08-29T07:19:50.000Z</time>
      </trkpt>
      <trkpt lat="47.26982" lon="-2.31372">
        <ele>8.6000003814697</ele>
        <time>2021-08-29T07:19:51.000Z</time>
      </trkpt>
      <trkpt lat="47.2698" lon="-2.3135">
        <ele>8.6000003814697</ele>
        <time>2021-08-29T07:19:55.000Z</time>
      </trkpt>
      <trkpt lat="47.26975" lon="-2.31317">
        <ele>9</ele>
        <time>2021-08-29T07:20:01.000Z</time>
      </trkpt>
      <trkpt lat="47.26974" lon="-2.31312">
        <ele>9.3999996185303</ele>
        <time>2021-08-29T07:20:02.000Z</time>
      </trkpt>
      <trkpt lat="47.26974" lon="-2.31309">
        <ele>9.8000001907349</ele>
        <time>2021-08-29T07:20:03.000Z</time>
      </trkpt>
      <trkpt lat="47.26974" lon="-2.31305">
        <ele>10.199999809265</ele>
        <time>2021-08-29T07:20:04.000Z</time>
      </trkpt>
      <trkpt lat="47.26973" lon="-2.31301">
        <ele>10.60000038147</ele>
        <time>2021-08-29T07:20:05.000Z</time>
      </trkpt>
      <trkpt lat="47.26973" lon="-2.31294">
        <ele>10.60000038147</ele>
        <time>2021-08-29T07:20:07.000Z</time>
      </trkpt>
      <trkpt lat="47.26973" lon="-2.31283">
        <ele>10.60000038147</ele>
        <time>2021-08-29T07:20:12.000Z</time>
      </trkpt>
      <trkpt lat="47.26973" lon="-2.31279">
        <ele>10.60000038147</ele>
        <time>2021-08-29T07:21:09.000Z</time>
      </trkpt>
      <trkpt lat="47.26973" lon="-2.31268">
        <ele>10.60000038147</ele>
        <time>2021-08-29T07:21:12.000Z</time>
      </trkpt>
      <trkpt lat="47.26972" lon="-2.31242">
        <ele>10.60000038147</ele>
        <time>2021-08-29T07:21:18.000Z</time>
      </trkpt>
      <trkpt lat="47.26978" lon="-2.3121">
        <ele>10.60000038147</ele>
        <time>2021-08-29T07:21:23.000Z</time>
      </trkpt>
      <trkpt lat="47.26984" lon="-2.31168">
        <ele>9.8000001907349</ele>
        <time>2021-08-29T07:21:26.000Z</time>
      </trkpt>
      <trkpt lat="47.26985" lon="-2.3116">
        <ele>9.3999996185303</ele>
        <time>2021-08-29T07:21:29.000Z</time>
      </trkpt>
      <trkpt lat="47.26986" lon="-2.31151">
        <ele>9</ele>
        <time>2021-08-29T07:21:30.000Z</time>
      </trkpt>
      <trkpt lat="47.26987" lon="-2.31141">
        <ele>8.6000003814697</ele>
        <time>2021-08-29T07:21:31.000Z</time>
      </trkpt>
      <trkpt lat="47.2699" lon="-2.31106">
        <ele>7.8000001907349</ele>
        <time>2021-08-29T07:21:35.000Z</time>
      </trkpt>
      <trkpt lat="47.26989" lon="-2.31098">
        <ele>7.4000000953674</ele>
        <time>2021-08-29T07:21:36.000Z</time>
      </trkpt>
      <trkpt lat="47.26989" lon="-2.3109">
        <ele>7</ele>
        <time>2021-08-29T07:21:37.000Z</time>
      </trkpt>
      <trkpt lat="47.26988" lon="-2.31084">
        <ele>6.5999999046326</ele>
        <time>2021-08-29T07:21:38.000Z</time>
      </trkpt>
      <trkpt lat="47.26987" lon="-2.31075">
        <ele>6.5999999046326</ele>
        <time>2021-08-29T07:21:40.000Z</time>
      </trkpt>
      <trkpt lat="47.26994" lon="-2.31062">
        <ele>6.1999998092651</ele>
        <time>2021-08-29T07:21:45.000Z</time>
      </trkpt>
      <trkpt lat="47.26996" lon="-2.31059">
        <ele>5.8000001907349</ele>
        <time>2021-08-29T07:21:46.000Z</time>
      </trkpt>
      <trkpt lat="47.26999" lon="-2.31057">
        <ele>5.4000000953674</ele>
        <time>2021-08-29T07:21:47.000Z</time>
      </trkpt>
      <trkpt lat="47.27002" lon="-2.31056">
        <ele>5</ele>
        <time>2021-08-29T07:21:48.000Z</time>
      </trkpt>
      <trkpt lat="47.27005" lon="-2.31053">
        <ele>4.4000000953674</ele>
        <time>2021-08-29T07:21:49.000Z</time>
      </trkpt>
      <trkpt lat="47.27011" lon="-2.31048">
        <ele>4.4000000953674</ele>
        <time>2021-08-29T07:21:51.000Z</time>
      </trkpt>
      <trkpt lat="47.27032" lon="-2.31026">
        <ele>4.4000000953674</ele>
        <time>2021-08-29T07:21:57.000Z</time>
      </trkpt>
      <trkpt lat="47.27035" lon="-2.31023">
        <ele>4</ele>
        <time>2021-08-29T07:21:58.000Z</time>
      </trkpt>
      <trkpt lat="47.27039" lon="-2.3102">
        <ele>3.2000000476837</ele>
        <time>2021-08-29T07:21:59.000Z</time>
      </trkpt>
      <trkpt lat="47.27042" lon="-2.31016">
        <ele>2.5999999046326</ele>
        <time>2021-08-29T07:22:00.000Z</time>
      </trkpt>
      <trkpt lat="47.27045" lon="-2.3101">
        <ele>2.2000000476837</ele>
        <time>2021-08-29T07:22:01.000Z</time>
      </trkpt>
      <trkpt lat="47.27047" lon="-2.30986">
        <ele>2.2000000476837</ele>
        <time>2021-08-29T07:22:05.000Z</time>
      </trkpt>
      <trkpt lat="47.27048" lon="-2.3098">
        <ele>2.2000000476837</ele>
        <time>2021-08-29T07:22:06.000Z</time>
      </trkpt>
      <trkpt lat="47.2705" lon="-2.30953">
        <ele>2.2000000476837</ele>
        <time>2021-08-29T07:22:11.000Z</time>
      </trkpt>
      <trkpt lat="47.27045" lon="-2.30933">
        <ele>2.2000000476837</ele>
        <time>2021-08-29T07:22:15.000Z</time>
      </trkpt>
      <trkpt lat="47.2704" lon="-2.3091">
        <ele>2.2000000476837</ele>
        <time>2021-08-29T07:22:20.000Z</time>
      </trkpt>
      <trkpt lat="47.27037" lon="-2.30898">
        <ele>2.2000000476837</ele>
        <time>2021-08-29T07:22:22.000Z</time>
      </trkpt>
      <trkpt lat="47.27031" lon="-2.30885">
        <ele>2.2000000476837</ele>
        <time>2021-08-29T07:22:24.000Z</time>
      </trkpt>
      <trkpt lat="47.27024" lon="-2.30873">
        <ele>2.2000000476837</ele>
        <time>2021-08-29T07:22:26.000Z</time>
      </trkpt>
      <trkpt lat="47.27015" lon="-2.30858">
        <ele>2.2000000476837</ele>
        <time>2021-08-29T07:22:29.000Z</time>
      </trkpt>
      <trkpt lat="47.27007" lon="-2.30845">
        <ele>2.2000000476837</ele>
        <time>2021-08-29T07:22:31.000Z</time>
      </trkpt>
      <trkpt lat="47.26997" lon="-2.30825">
        <ele>2.2000000476837</ele>
        <time>2021-08-29T07:22:34.000Z</time>
      </trkpt>
      <trkpt lat="47.2699" lon="-2.30813">
        <ele>2.5999999046326</ele>
        <time>2021-08-29T07:22:36.000Z</time>
      </trkpt>
      <trkpt lat="47.26986" lon="-2.30808">
        <ele>3</ele>
        <time>2021-08-29T07:22:37.000Z</time>
      </trkpt>
      <trkpt lat="47.26984" lon="-2.30802">
        <ele>3.5999999046326</ele>
        <time>2021-08-29T07:22:38.000Z</time>
      </trkpt>
      <trkpt lat="47.26981" lon="-2.30797">
        <ele>4</ele>
        <time>2021-08-29T07:22:39.000Z</time>
      </trkpt>
      <trkpt lat="47.26978" lon="-2.30792">
        <ele>4.4000000953674</ele>
        <time>2021-08-29T07:22:40.000Z</time>
      </trkpt>
      <trkpt lat="47.26956" lon="-2.30759">
        <ele>4.4000000953674</ele>
        <time>2021-08-29T07:22:47.000Z</time>
      </trkpt>
      <trkpt lat="47.26953" lon="-2.30755">
        <ele>4.8000001907349</ele>
        <time>2021-08-29T07:22:48.000Z</time>
      </trkpt>
      <trkpt lat="47.2695" lon="-2.30751">
        <ele>5.5999999046326</ele>
        <time>2021-08-29T07:22:49.000Z</time>
      </trkpt>
      <trkpt lat="47.26947" lon="-2.30746">
        <ele>6</ele>
        <time>2021-08-29T07:22:50.000Z</time>
      </trkpt>
      <trkpt lat="47.26944" lon="-2.30742">
        <ele>6.4000000953674</ele>
        <time>2021-08-29T07:22:51.000Z</time>
      </trkpt>
      <trkpt lat="47.26941" lon="-2.30737">
        <ele>6.4000000953674</ele>
        <time>2021-08-29T07:22:52.000Z</time>
      </trkpt>
      <trkpt lat="47.26929" lon="-2.30718">
        <ele>6.8000001907349</ele>
        <time>2021-08-29T07:22:56.000Z</time>
      </trkpt>
      <trkpt lat="47.26926" lon="-2.30713">
        <ele>7.1999998092651</ele>
        <time>2021-08-29T07:22:57.000Z</time>
      </trkpt>
      <trkpt lat="47.26923" lon="-2.30708">
        <ele>7.5999999046326</ele>
        <time>2021-08-29T07:22:58.000Z</time>
      </trkpt>
      <trkpt lat="47.2692" lon="-2.30703">
        <ele>8</ele>
        <time>2021-08-29T07:22:59.000Z</time>
      </trkpt>
      <trkpt lat="47.26916" lon="-2.30698">
        <ele>8.3999996185303</ele>
        <time>2021-08-29T07:23:00.000Z</time>
      </trkpt>
      <trkpt lat="47.26913" lon="-2.30695">
        <ele>8.3999996185303</ele>
        <time>2021-08-29T07:23:01.000Z</time>
      </trkpt>
      <trkpt lat="47.26907" lon="-2.30686">
        <ele>8.3999996185303</ele>
        <time>2021-08-29T07:23:03.000Z</time>
      </trkpt>
      <trkpt lat="47.269" lon="-2.30668">
        <ele>8.3999996185303</ele>
        <time>2021-08-29T07:23:07.000Z</time>
      </trkpt>
      <trkpt lat="47.269" lon="-2.30664">
        <ele>8.3999996185303</ele>
        <time>2021-08-29T07:23:08.000Z</time>
      </trkpt>
      <trkpt lat="47.26911" lon="-2.30648">
        <ele>8.3999996185303</ele>
        <time>2021-08-29T07:23:12.000Z</time>
      </trkpt>
      <trkpt lat="47.26914" lon="-2.30644">
        <ele>8.3999996185303</ele>
        <time>2021-08-29T07:23:13.000Z</time>
      </trkpt>
      <trkpt lat="47.26922" lon="-2.30638">
        <ele>8.3999996185303</ele>
        <time>2021-08-29T07:23:15.000Z</time>
      </trkpt>
      <trkpt lat="47.26932" lon="-2.30634">
        <ele>8.3999996185303</ele>
        <time>2021-08-29T07:23:17.000Z</time>
      </trkpt>
      <trkpt lat="47.26937" lon="-2.30633">
        <ele>8.3999996185303</ele>
        <time>2021-08-29T07:23:18.000Z</time>
      </trkpt>
      <trkpt lat="47.26954" lon="-2.30628">
        <ele>8.3999996185303</ele>
        <time>2021-08-29T07:23:21.000Z</time>
      </trkpt>
      <trkpt lat="47.26988" lon="-2.30611">
        <ele>8.3999996185303</ele>
        <time>2021-08-29T07:23:27.000Z</time>
      </trkpt>
      <trkpt lat="47.27007" lon="-2.30595">
        <ele>8.3999996185303</ele>
        <time>2021-08-29T07:23:31.000Z</time>
      </trkpt>
      <trkpt lat="47.2701" lon="-2.30588">
        <ele>8.3999996185303</ele>
        <time>2021-08-29T07:23:32.000Z</time>
      </trkpt>
      <trkpt lat="47.27017" lon="-2.30566">
        <ele>8.3999996185303</ele>
        <time>2021-08-29T07:23:35.000Z</time>
      </trkpt>
      <trkpt lat="47.2702" lon="-2.30551">
        <ele>8.3999996185303</ele>
        <time>2021-08-29T07:23:37.000Z</time>
      </trkpt>
      <trkpt lat="47.27034" lon="-2.30493">
        <ele>8.3999996185303</ele>
        <time>2021-08-29T07:23:45.000Z</time>
      </trkpt>
      <trkpt lat="47.27041" lon="-2.30471">
        <ele>8.3999996185303</ele>
        <time>2021-08-29T07:23:50.000Z</time>
      </trkpt>
      <trkpt lat="47.27043" lon="-2.3047">
        <ele>8.3999996185303</ele>
        <time>2021-08-29T07:23:51.000Z</time>
      </trkpt>
      <trkpt lat="47.27046" lon="-2.30471">
        <ele>8</ele>
        <time>2021-08-29T07:23:52.000Z</time>
      </trkpt>
      <trkpt lat="47.27048" lon="-2.30471">
        <ele>7.5999999046326</ele>
        <time>2021-08-29T07:23:53.000Z</time>
      </trkpt>
      <trkpt lat="47.2705" lon="-2.30473">
        <ele>7.1999998092651</ele>
        <time>2021-08-29T07:23:54.000Z</time>
      </trkpt>
      <trkpt lat="47.27053" lon="-2.30474">
        <ele>6.5999999046326</ele>
        <time>2021-08-29T07:23:55.000Z</time>
      </trkpt>
      <trkpt lat="47.27057" lon="-2.30475">
        <ele>6.1999998092651</ele>
        <time>2021-08-29T07:23:56.000Z</time>
      </trkpt>
      <trkpt lat="47.27061" lon="-2.30475">
        <ele>6.1999998092651</ele>
        <time>2021-08-29T07:23:57.000Z</time>
      </trkpt>
      <trkpt lat="47.27084" lon="-2.30482">
        <ele>6.1999998092651</ele>
        <time>2021-08-29T07:24:03.000Z</time>
      </trkpt>
      <trkpt lat="47.27109" lon="-2.3049">
        <ele>5.8000001907349</ele>
        <time>2021-08-29T07:24:09.000Z</time>
      </trkpt>
      <trkpt lat="47.27113" lon="-2.30492">
        <ele>5.4000000953674</ele>
        <time>2021-08-29T07:24:10.000Z</time>
      </trkpt>
      <trkpt lat="47.27118" lon="-2.30494">
        <ele>5</ele>
        <time>2021-08-29T07:24:11.000Z</time>
      </trkpt>
      <trkpt lat="47.27122" lon="-2.30495">
        <ele>4.5999999046326</ele>
        <time>2021-08-29T07:24:12.000Z</time>
      </trkpt>
      <trkpt lat="47.27126" lon="-2.30497">
        <ele>4.1999998092651</ele>
        <time>2021-08-29T07:24:13.000Z</time>
      </trkpt>
      <trkpt lat="47.2713" lon="-2.30498">
        <ele>4.1999998092651</ele>
        <time>2021-08-29T07:24:14.000Z</time>
      </trkpt>
      <trkpt lat="47.27134" lon="-2.305">
        <ele>3.7999999523163</ele>
        <time>2021-08-29T07:24:15.000Z</time>
      </trkpt>
      <trkpt lat="47.27137" lon="-2.30501">
        <ele>3.4000000953674</ele>
        <time>2021-08-29T07:24:16.000Z</time>
      </trkpt>
      <trkpt lat="47.27141" lon="-2.30504">
        <ele>3</ele>
        <time>2021-08-29T07:24:17.000Z</time>
      </trkpt>
      <trkpt lat="47.27144" lon="-2.30506">
        <ele>2.5999999046326</ele>
        <time>2021-08-29T07:24:18.000Z</time>
      </trkpt>
      <trkpt lat="47.27148" lon="-2.3051">
        <ele>2.2000000476837</ele>
        <time>2021-08-29T07:24:19.000Z</time>
      </trkpt>
      <trkpt lat="47.2715" lon="-2.30513">
        <ele>2.2000000476837</ele>
        <time>2021-08-29T07:24:20.000Z</time>
      </trkpt>
      <trkpt lat="47.2717" lon="-2.30529">
        <ele>2.2000000476837</ele>
        <time>2021-08-29T07:24:26.000Z</time>
      </trkpt>
      <trkpt lat="47.27184" lon="-2.30534">
        <ele>1.7999999523163</ele>
        <time>2021-08-29T07:24:31.000Z</time>
      </trkpt>
      <trkpt lat="47.27186" lon="-2.30535">
        <ele>1.3999999761581</ele>
        <time>2021-08-29T07:24:32.000Z</time>
      </trkpt>
      <trkpt lat="47.27189" lon="-2.30536">
        <ele>1</ele>
        <time>2021-08-29T07:24:33.000Z</time>
      </trkpt>
      <trkpt lat="47.27192" lon="-2.30537">
        <ele>0.60000002384186</ele>
        <time>2021-08-29T07:24:34.000Z</time>
      </trkpt>
      <trkpt lat="47.27195" lon="-2.30538">
        <ele>0.20000000298023</ele>
        <time>2021-08-29T07:24:35.000Z</time>
      </trkpt>
      <trkpt lat="47.27203" lon="-2.3054">
        <ele>0.20000000298023</ele>
        <time>2021-08-29T07:24:38.000Z</time>
      </trkpt>
      <trkpt lat="47.27216" lon="-2.30538">
        <ele>0.20000000298023</ele>
        <time>2021-08-29T07:24:42.000Z</time>
      </trkpt>
      <trkpt lat="47.27219" lon="-2.30538">
        <ele>0.20000000298023</ele>
        <time>2021-08-29T07:24:43.000Z</time>
      </trkpt>
      <trkpt lat="47.27244" lon="-2.30541">
        <ele>0.20000000298023</ele>
        <time>2021-08-29T07:24:49.000Z</time>
      </trkpt>
      <trkpt lat="47.27258" lon="-2.30541">
        <ele>-0.80000001192093</ele>
        <time>2021-08-29T07:24:53.000Z</time>
      </trkpt>
      <trkpt lat="47.27262" lon="-2.30542">
        <ele>-1.2000000476837</ele>
        <time>2021-08-29T07:24:54.000Z</time>
      </trkpt>
      <trkpt lat="47.27265" lon="-2.30542">
        <ele>-1.6000000238419</ele>
        <time>2021-08-29T07:24:55.000Z</time>
      </trkpt>
      <trkpt lat="47.27268" lon="-2.30541">
        <ele>-2</ele>
        <time>2021-08-29T07:24:56.000Z</time>
      </trkpt>
      <trkpt lat="47.2728" lon="-2.30536">
        <ele>-2</ele>
        <time>2021-08-29T07:25:00.000Z</time>
      </trkpt>
      <trkpt lat="47.27295" lon="-2.30527">
        <ele>-2</ele>
        <time>2021-08-29T07:25:05.000Z</time>
      </trkpt>
      <trkpt lat="47.27303" lon="-2.30521">
        <ele>-2</ele>
        <time>2021-08-29T07:25:09.000Z</time>
      </trkpt>
      <trkpt lat="47.27309" lon="-2.30519">
        <ele>-2</ele>
        <time>2021-08-29T07:25:11.000Z</time>
      </trkpt>
      <trkpt lat="47.27321" lon="-2.30516">
        <ele>-2</ele>
        <time>2021-08-29T07:25:14.000Z</time>
      </trkpt>
      <trkpt lat="47.27342" lon="-2.30511">
        <ele>-2</ele>
        <time>2021-08-29T07:25:20.000Z</time>
      </trkpt>
      <trkpt lat="47.27353" lon="-2.30507">
        <ele>-2</ele>
        <time>2021-08-29T07:25:25.000Z</time>
      </trkpt>
      <trkpt lat="47.27366" lon="-2.30498">
        <ele>-2</ele>
        <time>2021-08-29T07:25:30.000Z</time>
      </trkpt>
      <trkpt lat="47.27384" lon="-2.30483">
        <ele>-2</ele>
        <time>2021-08-29T07:25:36.000Z</time>
      </trkpt>
      <trkpt lat="47.27399" lon="-2.30467">
        <ele>-2</ele>
        <time>2021-08-29T07:25:41.000Z</time>
      </trkpt>
      <trkpt lat="47.27409" lon="-2.30459">
        <ele>-2</ele>
        <time>2021-08-29T07:25:46.000Z</time>
      </trkpt>
      <trkpt lat="47.27412" lon="-2.30459">
        <ele>-2</ele>
        <time>2021-08-29T07:25:49.000Z</time>
      </trkpt>
      <trkpt lat="47.27417" lon="-2.30454">
        <ele>-2</ele>
        <time>2021-08-29T07:25:53.000Z</time>
      </trkpt>
      <trkpt lat="47.27419" lon="-2.30452">
        <ele>-2</ele>
        <time>2021-08-29T07:25:54.000Z</time>
      </trkpt>
      <trkpt lat="47.27424" lon="-2.30447">
        <ele>-2</ele>
        <time>2021-08-29T07:25:57.000Z</time>
      </trkpt>
      <trkpt lat="47.27427" lon="-2.30447">
        <ele>-2</ele>
        <time>2021-08-29T07:25:58.000Z</time>
      </trkpt>
      <trkpt lat="47.27438" lon="-2.30447">
        <ele>-2</ele>
        <time>2021-08-29T07:26:01.000Z</time>
      </trkpt>
      <trkpt lat="47.27443" lon="-2.30447">
        <ele>-2</ele>
        <time>2021-08-29T07:26:02.000Z</time>
      </trkpt>
      <trkpt lat="47.27482" lon="-2.30442">
        <ele>-2</ele>
        <time>2021-08-29T07:26:08.000Z</time>
      </trkpt>
      <trkpt lat="47.27498" lon="-2.30428">
        <ele>-2</ele>
        <time>2021-08-29T07:26:12.000Z</time>
      </trkpt>
      <trkpt lat="47.27499" lon="-2.30409">
        <ele>-2</ele>
        <time>2021-08-29T07:26:15.000Z</time>
      </trkpt>
      <trkpt lat="47.27498" lon="-2.30395">
        <ele>-2</ele>
        <time>2021-08-29T07:26:17.000Z</time>
      </trkpt>
      <trkpt lat="47.27496" lon="-2.30387">
        <ele>-1.6000000238419</ele>
        <time>2021-08-29T07:26:18.000Z</time>
      </trkpt>
      <trkpt lat="47.27495" lon="-2.30379">
        <ele>-1</ele>
        <time>2021-08-29T07:26:19.000Z</time>
      </trkpt>
      <trkpt lat="47.27493" lon="-2.30371">
        <ele>-0.60000002384186</ele>
        <time>2021-08-29T07:26:20.000Z</time>
      </trkpt>
      <trkpt lat="47.27492" lon="-2.30363">
        <ele>-0.20000000298023</ele>
        <time>2021-08-29T07:26:21.000Z</time>
      </trkpt>
      <trkpt lat="47.2749" lon="-2.30354">
        <ele>0.20000000298023</ele>
        <time>2021-08-29T07:26:22.000Z</time>
      </trkpt>
      <trkpt lat="47.27482" lon="-2.30319">
        <ele>0.20000000298023</ele>
        <time>2021-08-29T07:26:27.000Z</time>
      </trkpt>
      <trkpt lat="47.27476" lon="-2.30292">
        <ele>0.60000002384186</ele>
        <time>2021-08-29T07:26:31.000Z</time>
      </trkpt>
      <trkpt lat="47.27475" lon="-2.30284">
        <ele>1.6000000238419</ele>
        <time>2021-08-29T07:26:32.000Z</time>
      </trkpt>
      <trkpt lat="47.27474" lon="-2.30278">
        <ele>2</ele>
        <time>2021-08-29T07:26:33.000Z</time>
      </trkpt>
      <trkpt lat="47.27472" lon="-2.3027">
        <ele>2.4000000953674</ele>
        <time>2021-08-29T07:26:34.000Z</time>
      </trkpt>
      <trkpt lat="47.27465" lon="-2.30242">
        <ele>2.4000000953674</ele>
        <time>2021-08-29T07:26:39.000Z</time>
      </trkpt>
      <trkpt lat="47.2746" lon="-2.30222">
        <ele>2.4000000953674</ele>
        <time>2021-08-29T07:26:44.000Z</time>
      </trkpt>
      <trkpt lat="47.27459" lon="-2.30218">
        <ele>2.4000000953674</ele>
        <time>2021-08-29T07:26:46.000Z</time>
      </trkpt>
      <trkpt lat="47.27457" lon="-2.30217">
        <ele>2.7999999523163</ele>
        <time>2021-08-29T07:26:47.000Z</time>
      </trkpt>
      <trkpt lat="47.27456" lon="-2.30217">
        <ele>3.2000000476837</ele>
        <time>2021-08-29T07:26:48.000Z</time>
      </trkpt>
      <trkpt lat="47.27454" lon="-2.30217">
        <ele>3.5999999046326</ele>
        <time>2021-08-29T07:26:49.000Z</time>
      </trkpt>
      <trkpt lat="47.27452" lon="-2.30218">
        <ele>4</ele>
        <time>2021-08-29T07:26:50.000Z</time>
      </trkpt>
      <trkpt lat="47.2745" lon="-2.30219">
        <ele>4.4000000953674</ele>
        <time>2021-08-29T07:26:51.000Z</time>
      </trkpt>
      <trkpt lat="47.27444" lon="-2.30222">
        <ele>4.4000000953674</ele>
        <time>2021-08-29T07:26:53.000Z</time>
      </trkpt>
      <trkpt lat="47.27433" lon="-2.30226">
        <ele>4.4000000953674</ele>
        <time>2021-08-29T07:26:56.000Z</time>
      </trkpt>
      <trkpt lat="47.27424" lon="-2.30231">
        <ele>4.4000000953674</ele>
        <time>2021-08-29T07:26:58.000Z</time>
      </trkpt>
      <trkpt lat="47.27397" lon="-2.30243">
        <ele>4.4000000953674</ele>
        <time>2021-08-29T07:27:04.000Z</time>
      </trkpt>
      <trkpt lat="47.27394" lon="-2.30246">
        <ele>4.4000000953674</ele>
        <time>2021-08-29T07:27:05.000Z</time>
      </trkpt>
      <trkpt lat="47.27389" lon="-2.30247">
        <ele>4.4000000953674</ele>
        <time>2021-08-29T07:27:06.000Z</time>
      </trkpt>
      <trkpt lat="47.27367" lon="-2.30255">
        <ele>4.4000000953674</ele>
        <time>2021-08-29T07:27:11.000Z</time>
      </trkpt>
      <trkpt lat="47.27362" lon="-2.30256">
        <ele>4.4000000953674</ele>
        <time>2021-08-29T07:27:12.000Z</time>
      </trkpt>
      <trkpt lat="47.27337" lon="-2.30257">
        <ele>4.4000000953674</ele>
        <time>2021-08-29T07:27:17.000Z</time>
      </trkpt>
      <trkpt lat="47.273" lon="-2.30262">
        <ele>4.4000000953674</ele>
        <time>2021-08-29T07:27:23.000Z</time>
      </trkpt>
      <trkpt lat="47.27288" lon="-2.30262">
        <ele>4.4000000953674</ele>
        <time>2021-08-29T07:27:25.000Z</time>
      </trkpt>
      <trkpt lat="47.27262" lon="-2.30265">
        <ele>4.4000000953674</ele>
        <time>2021-08-29T07:27:29.000Z</time>
      </trkpt>
      <trkpt lat="47.27256" lon="-2.30268">
        <ele>4.4000000953674</ele>
        <time>2021-08-29T07:27:30.000Z</time>
      </trkpt>
      <trkpt lat="47.27242" lon="-2.3027">
        <ele>4.4000000953674</ele>
        <time>2021-08-29T07:27:33.000Z</time>
      </trkpt>
      <trkpt lat="47.27235" lon="-2.30266">
        <ele>4</ele>
        <time>2021-08-29T07:27:35.000Z</time>
      </trkpt>
      <trkpt lat="47.27231" lon="-2.30265">
        <ele>3.5999999046326</ele>
        <time>2021-08-29T07:27:36.000Z</time>
      </trkpt>
      <trkpt lat="47.27227" lon="-2.30265">
        <ele>3.2000000476837</ele>
        <time>2021-08-29T07:27:37.000Z</time>
      </trkpt>
      <trkpt lat="47.27223" lon="-2.30265">
        <ele>2.7999999523163</ele>
        <time>2021-08-29T07:27:38.000Z</time>
      </trkpt>
      <trkpt lat="47.2722" lon="-2.30265">
        <ele>2.4000000953674</ele>
        <time>2021-08-29T07:27:39.000Z</time>
      </trkpt>
      <trkpt lat="47.27209" lon="-2.30259">
        <ele>2.4000000953674</ele>
        <time>2021-08-29T07:27:42.000Z</time>
      </trkpt>
      <trkpt lat="47.27191" lon="-2.30266">
        <ele>2.4000000953674</ele>
        <time>2021-08-29T07:27:47.000Z</time>
      </trkpt>
      <trkpt lat="47.27181" lon="-2.30267">
        <ele>2.4000000953674</ele>
        <time>2021-08-29T07:27:50.000Z</time>
      </trkpt>
      <trkpt lat="47.27179" lon="-2.30263">
        <ele>2.4000000953674</ele>
        <time>2021-08-29T07:27:51.000Z</time>
      </trkpt>
      <trkpt lat="47.27166" lon="-2.3025">
        <ele>2.4000000953674</ele>
        <time>2021-08-29T07:27:55.000Z</time>
      </trkpt>
      <trkpt lat="47.27153" lon="-2.30248">
        <ele>2.4000000953674</ele>
        <time>2021-08-29T07:27:58.000Z</time>
      </trkpt>
      <trkpt lat="47.27147" lon="-2.30248">
        <ele>2.4000000953674</ele>
        <time>2021-08-29T07:28:00.000Z</time>
      </trkpt>
      <trkpt lat="47.27144" lon="-2.30247">
        <ele>2.4000000953674</ele>
        <time>2021-08-29T07:28:02.000Z</time>
      </trkpt>
      <trkpt lat="47.27142" lon="-2.30246">
        <ele>2.4000000953674</ele>
        <time>2021-08-29T07:28:05.000Z</time>
      </trkpt>
      <trkpt lat="47.27134" lon="-2.30249">
        <ele>2.4000000953674</ele>
        <time>2021-08-29T07:28:18.000Z</time>
      </trkpt>
      <trkpt lat="47.27131" lon="-2.3025">
        <ele>2.4000000953674</ele>
        <time>2021-08-29T07:28:20.000Z</time>
      </trkpt>
      <trkpt lat="47.27114" lon="-2.30257">
        <ele>2.4000000953674</ele>
        <time>2021-08-29T07:28:26.000Z</time>
      </trkpt>
      <trkpt lat="47.27091" lon="-2.30267">
        <ele>2.4000000953674</ele>
        <time>2021-08-29T07:28:33.000Z</time>
      </trkpt>
      <trkpt lat="47.27085" lon="-2.30273">
        <ele>2.7999999523163</ele>
        <time>2021-08-29T07:28:36.000Z</time>
      </trkpt>
      <trkpt lat="47.27083" lon="-2.30274">
        <ele>3.2000000476837</ele>
        <time>2021-08-29T07:28:37.000Z</time>
      </trkpt>
      <trkpt lat="47.27081" lon="-2.30275">
        <ele>3.5999999046326</ele>
        <time>2021-08-29T07:28:38.000Z</time>
      </trkpt>
      <trkpt lat="47.2708" lon="-2.30277">
        <ele>4</ele>
        <time>2021-08-29T07:28:39.000Z</time>
      </trkpt>
      <trkpt lat="47.27079" lon="-2.30279">
        <ele>4.4000000953674</ele>
        <time>2021-08-29T07:28:40.000Z</time>
      </trkpt>
      <trkpt lat="47.27075" lon="-2.30289">
        <ele>4.4000000953674</ele>
        <time>2021-08-29T07:28:44.000Z</time>
      </trkpt>
      <trkpt lat="47.2707" lon="-2.30317">
        <ele>4.4000000953674</ele>
        <time>2021-08-29T07:28:51.000Z</time>
      </trkpt>
      <trkpt lat="47.27065" lon="-2.30345">
        <ele>4.4000000953674</ele>
        <time>2021-08-29T07:28:58.000Z</time>
      </trkpt>
      <trkpt lat="47.27059" lon="-2.30372">
        <ele>4.4000000953674</ele>
        <time>2021-08-29T07:29:04.000Z</time>
      </trkpt>
      <trkpt lat="47.27054" lon="-2.30408">
        <ele>4.4000000953674</ele>
        <time>2021-08-29T07:29:10.000Z</time>
      </trkpt>
      <trkpt lat="47.27048" lon="-2.30452">
        <ele>4.4000000953674</ele>
        <time>2021-08-29T07:29:17.000Z</time>
      </trkpt>
      <trkpt lat="47.27045" lon="-2.30464">
        <ele>4.4000000953674</ele>
        <time>2021-08-29T07:29:19.000Z</time>
      </trkpt>
      <trkpt lat="47.27039" lon="-2.30492">
        <ele>4.4000000953674</ele>
        <time>2021-08-29T07:29:24.000Z</time>
      </trkpt>
      <trkpt lat="47.27031" lon="-2.30524">
        <ele>4.4000000953674</ele>
        <time>2021-08-29T07:29:30.000Z</time>
      </trkpt>
      <trkpt lat="47.27024" lon="-2.30548">
        <ele>4.4000000953674</ele>
        <time>2021-08-29T07:29:35.000Z</time>
      </trkpt>
      <trkpt lat="47.27014" lon="-2.30584">
        <ele>4.4000000953674</ele>
        <time>2021-08-29T07:29:42.000Z</time>
      </trkpt>
      <trkpt lat="47.27" lon="-2.30603">
        <ele>4.4000000953674</ele>
        <time>2021-08-29T07:29:47.000Z</time>
      </trkpt>
      <trkpt lat="47.2697" lon="-2.30621">
        <ele>4.4000000953674</ele>
        <time>2021-08-29T07:29:54.000Z</time>
      </trkpt>
      <trkpt lat="47.26947" lon="-2.3063">
        <ele>4.4000000953674</ele>
        <time>2021-08-29T07:30:01.000Z</time>
      </trkpt>
      <trkpt lat="47.26932" lon="-2.30634">
        <ele>4.4000000953674</ele>
        <time>2021-08-29T07:30:06.000Z</time>
      </trkpt>
      <trkpt lat="47.26925" lon="-2.30632">
        <ele>4.8000001907349</ele>
        <time>2021-08-29T07:30:09.000Z</time>
      </trkpt>
      <trkpt lat="47.26923" lon="-2.30632">
        <ele>5.1999998092651</ele>
        <time>2021-08-29T07:30:10.000Z</time>
      </trkpt>
      <trkpt lat="47.26921" lon="-2.30631">
        <ele>5.5999999046326</ele>
        <time>2021-08-29T07:30:11.000Z</time>
      </trkpt>
      <trkpt lat="47.26919" lon="-2.3063">
        <ele>6</ele>
        <time>2021-08-29T07:30:12.000Z</time>
      </trkpt>
      <trkpt lat="47.26917" lon="-2.3063">
        <ele>6.4000000953674</ele>
        <time>2021-08-29T07:30:13.000Z</time>
      </trkpt>
      <trkpt lat="47.26914" lon="-2.30631">
        <ele>6.4000000953674</ele>
        <time>2021-08-29T07:30:15.000Z</time>
      </trkpt>
      <trkpt lat="47.26913" lon="-2.30633">
        <ele>6.4000000953674</ele>
        <time>2021-08-29T07:30:17.000Z</time>
      </trkpt>
      <trkpt lat="47.26913" lon="-2.30633">
        <ele>6.4000000953674</ele>
        <time>2021-08-29T07:30:19.000Z</time>
      </trkpt>
      <trkpt lat="47.26918" lon="-2.3063">
        <ele>6.4000000953674</ele>
        <time>2021-08-29T07:33:22.000Z</time>
      </trkpt>
      <trkpt lat="47.26918" lon="-2.30626">
        <ele>6.4000000953674</ele>
        <time>2021-08-29T07:33:23.000Z</time>
      </trkpt>
      <trkpt lat="47.26922" lon="-2.306">
        <ele>6.4000000953674</ele>
        <time>2021-08-29T07:33:27.000Z</time>
      </trkpt>
      <trkpt lat="47.26923" lon="-2.30583">
        <ele>6.4000000953674</ele>
        <time>2021-08-29T07:33:29.000Z</time>
      </trkpt>
      <trkpt lat="47.26919" lon="-2.30562">
        <ele>6.4000000953674</ele>
        <time>2021-08-29T07:33:32.000Z</time>
      </trkpt>
      <trkpt lat="47.26918" lon="-2.30554">
        <ele>6.4000000953674</ele>
        <time>2021-08-29T07:33:33.000Z</time>
      </trkpt>
      <trkpt lat="47.26911" lon="-2.30524">
        <ele>6.4000000953674</ele>
        <time>2021-08-29T07:33:37.000Z</time>
      </trkpt>
      <trkpt lat="47.2691" lon="-2.30516">
        <ele>6.4000000953674</ele>
        <time>2021-08-29T07:33:38.000Z</time>
      </trkpt>
      <trkpt lat="47.2691" lon="-2.305">
        <ele>6.4000000953674</ele>
        <time>2021-08-29T07:33:40.000Z</time>
      </trkpt>
      <trkpt lat="47.26912" lon="-2.30475">
        <ele>6.8000001907349</ele>
        <time>2021-08-29T07:33:43.000Z</time>
      </trkpt>
      <trkpt lat="47.26913" lon="-2.30467">
        <ele>7.1999998092651</ele>
        <time>2021-08-29T07:33:44.000Z</time>
      </trkpt>
      <trkpt lat="47.26913" lon="-2.30459">
        <ele>7.5999999046326</ele>
        <time>2021-08-29T07:33:45.000Z</time>
      </trkpt>
      <trkpt lat="47.26913" lon="-2.30451">
        <ele>8</ele>
        <time>2021-08-29T07:33:46.000Z</time>
      </trkpt>
      <trkpt lat="47.26912" lon="-2.30442">
        <ele>8.3999996185303</ele>
        <time>2021-08-29T07:33:47.000Z</time>
      </trkpt>
      <trkpt lat="47.2691" lon="-2.30425">
        <ele>8.3999996185303</ele>
        <time>2021-08-29T07:33:49.000Z</time>
      </trkpt>
      <trkpt lat="47.26908" lon="-2.30417">
        <ele>8.3999996185303</ele>
        <time>2021-08-29T07:33:50.000Z</time>
      </trkpt>
      <trkpt lat="47.26899" lon="-2.30368">
        <ele>8.3999996185303</ele>
        <time>2021-08-29T07:33:56.000Z</time>
      </trkpt>
      <trkpt lat="47.26894" lon="-2.30319">
        <ele>8.3999996185303</ele>
        <time>2021-08-29T07:34:02.000Z</time>
      </trkpt>
      <trkpt lat="47.26885" lon="-2.30253">
        <ele>8.3999996185303</ele>
        <time>2021-08-29T07:34:10.000Z</time>
      </trkpt>
      <trkpt lat="47.26874" lon="-2.30201">
        <ele>8.3999996185303</ele>
        <time>2021-08-29T07:34:17.000Z</time>
      </trkpt>
      <trkpt lat="47.26868" lon="-2.30175">
        <ele>8.3999996185303</ele>
        <time>2021-08-29T07:34:21.000Z</time>
      </trkpt>
      <trkpt lat="47.26869" lon="-2.30169">
        <ele>8.3999996185303</ele>
        <time>2021-08-29T07:34:22.000Z</time>
      </trkpt>
      <trkpt lat="47.26879" lon="-2.30156">
        <ele>8.3999996185303</ele>
        <time>2021-08-29T07:34:25.000Z</time>
      </trkpt>
      <trkpt lat="47.26888" lon="-2.30147">
        <ele>8.3999996185303</ele>
        <time>2021-08-29T07:34:27.000Z</time>
      </trkpt>
      <trkpt lat="47.26897" lon="-2.30137">
        <ele>8.8000001907349</ele>
        <time>2021-08-29T07:34:29.000Z</time>
      </trkpt>
      <trkpt lat="47.26902" lon="-2.30133">
        <ele>9.1999998092651</ele>
        <time>2021-08-29T07:34:30.000Z</time>
      </trkpt>
      <trkpt lat="47.26907" lon="-2.30128">
        <ele>9.8000001907349</ele>
        <time>2021-08-29T07:34:31.000Z</time>
      </trkpt>
      <trkpt lat="47.26912" lon="-2.30124">
        <ele>10.199999809265</ele>
        <time>2021-08-29T07:34:32.000Z</time>
      </trkpt>
      <trkpt lat="47.26918" lon="-2.3012">
        <ele>10.60000038147</ele>
        <time>2021-08-29T07:34:33.000Z</time>
      </trkpt>
      <trkpt lat="47.26941" lon="-2.30105">
        <ele>10.60000038147</ele>
        <time>2021-08-29T07:34:37.000Z</time>
      </trkpt>
      <trkpt lat="47.26977" lon="-2.30084">
        <ele>10.60000038147</ele>
        <time>2021-08-29T07:34:43.000Z</time>
      </trkpt>
      <trkpt lat="47.27008" lon="-2.30054">
        <ele>10.60000038147</ele>
        <time>2021-08-29T07:34:49.000Z</time>
      </trkpt>
      <trkpt lat="47.2701" lon="-2.30046">
        <ele>10.60000038147</ele>
        <time>2021-08-29T07:34:50.000Z</time>
      </trkpt>
      <trkpt lat="47.27022" lon="-2.30009">
        <ele>10.60000038147</ele>
        <time>2021-08-29T07:34:55.000Z</time>
      </trkpt>
      <trkpt lat="47.27041" lon="-2.29967">
        <ele>10.60000038147</ele>
        <time>2021-08-29T07:35:01.000Z</time>
      </trkpt>
      <trkpt lat="47.27056" lon="-2.29934">
        <ele>10.60000038147</ele>
        <time>2021-08-29T07:35:06.000Z</time>
      </trkpt>
      <trkpt lat="47.27061" lon="-2.29927">
        <ele>10.60000038147</ele>
        <time>2021-08-29T07:35:07.000Z</time>
      </trkpt>
      <trkpt lat="47.27085" lon="-2.29896">
        <ele>10.60000038147</ele>
        <time>2021-08-29T07:35:12.000Z</time>
      </trkpt>
      <trkpt lat="47.27088" lon="-2.29889">
        <ele>10.60000038147</ele>
        <time>2021-08-29T07:35:13.000Z</time>
      </trkpt>
      <trkpt lat="47.27094" lon="-2.29875">
        <ele>10.60000038147</ele>
        <time>2021-08-29T07:35:15.000Z</time>
      </trkpt>
      <trkpt lat="47.27101" lon="-2.29855">
        <ele>10.60000038147</ele>
        <time>2021-08-29T07:35:18.000Z</time>
      </trkpt>
      <trkpt lat="47.27106" lon="-2.29833">
        <ele>10.60000038147</ele>
        <time>2021-08-29T07:35:21.000Z</time>
      </trkpt>
      <trkpt lat="47.27108" lon="-2.29819">
        <ele>10.60000038147</ele>
        <time>2021-08-29T07:35:23.000Z</time>
      </trkpt>
      <trkpt lat="47.2711" lon="-2.29785">
        <ele>10.60000038147</ele>
        <time>2021-08-29T07:35:27.000Z</time>
      </trkpt>
      <trkpt lat="47.27111" lon="-2.29777">
        <ele>10.60000038147</ele>
        <time>2021-08-29T07:35:28.000Z</time>
      </trkpt>
      <trkpt lat="47.27115" lon="-2.29712">
        <ele>10.60000038147</ele>
        <time>2021-08-29T07:35:36.000Z</time>
      </trkpt>
      <trkpt lat="47.27115" lon="-2.29666">
        <ele>10.60000038147</ele>
        <time>2021-08-29T07:35:43.000Z</time>
      </trkpt>
      <trkpt lat="47.2712" lon="-2.29649">
        <ele>10.60000038147</ele>
        <time>2021-08-29T07:35:48.000Z</time>
      </trkpt>
      <trkpt lat="47.27129" lon="-2.29644">
        <ele>10.60000038147</ele>
        <time>2021-08-29T07:35:50.000Z</time>
      </trkpt>
      <trkpt lat="47.27134" lon="-2.29644">
        <ele>10.60000038147</ele>
        <time>2021-08-29T07:35:51.000Z</time>
      </trkpt>
      <trkpt lat="47.27155" lon="-2.29639">
        <ele>10.60000038147</ele>
        <time>2021-08-29T07:35:55.000Z</time>
      </trkpt>
      <trkpt lat="47.2716" lon="-2.29635">
        <ele>10.60000038147</ele>
        <time>2021-08-29T07:35:56.000Z</time>
      </trkpt>
      <trkpt lat="47.27192" lon="-2.29611">
        <ele>10.60000038147</ele>
        <time>2021-08-29T07:36:02.000Z</time>
      </trkpt>
      <trkpt lat="47.27213" lon="-2.29594">
        <ele>10.199999809265</ele>
        <time>2021-08-29T07:36:06.000Z</time>
      </trkpt>
      <trkpt lat="47.27217" lon="-2.29589">
        <ele>9.6000003814697</ele>
        <time>2021-08-29T07:36:07.000Z</time>
      </trkpt>
      <trkpt lat="47.27222" lon="-2.29585">
        <ele>9.1999998092651</ele>
        <time>2021-08-29T07:36:08.000Z</time>
      </trkpt>
      <trkpt lat="47.27227" lon="-2.29584">
        <ele>8.8000001907349</ele>
        <time>2021-08-29T07:36:09.000Z</time>
      </trkpt>
      <trkpt lat="47.27232" lon="-2.2958">
        <ele>8.3999996185303</ele>
        <time>2021-08-29T07:36:10.000Z</time>
      </trkpt>
      <trkpt lat="47.27243" lon="-2.29563">
        <ele>8.3999996185303</ele>
        <time>2021-08-29T07:36:13.000Z</time>
      </trkpt>
      <trkpt lat="47.27246" lon="-2.29543">
        <ele>8.3999996185303</ele>
        <time>2021-08-29T07:36:16.000Z</time>
      </trkpt>
      <trkpt lat="47.2724" lon="-2.29521">
        <ele>8.3999996185303</ele>
        <time>2021-08-29T07:36:19.000Z</time>
      </trkpt>
      <trkpt lat="47.27226" lon="-2.29483">
        <ele>8.3999996185303</ele>
        <time>2021-08-29T07:36:24.000Z</time>
      </trkpt>
      <trkpt lat="47.27212" lon="-2.29441">
        <ele>8.3999996185303</ele>
        <time>2021-08-29T07:36:29.000Z</time>
      </trkpt>
      <trkpt lat="47.27207" lon="-2.29423">
        <ele>8.3999996185303</ele>
        <time>2021-08-29T07:36:31.000Z</time>
      </trkpt>
      <trkpt lat="47.27191" lon="-2.29377">
        <ele>8.3999996185303</ele>
        <time>2021-08-29T07:36:36.000Z</time>
      </trkpt>
      <trkpt lat="47.27184" lon="-2.29361">
        <ele>8.3999996185303</ele>
        <time>2021-08-29T07:36:38.000Z</time>
      </trkpt>
      <trkpt lat="47.2717" lon="-2.29341">
        <ele>8.3999996185303</ele>
        <time>2021-08-29T07:36:41.000Z</time>
      </trkpt>
      <trkpt lat="47.27152" lon="-2.29312">
        <ele>8.3999996185303</ele>
        <time>2021-08-29T07:36:46.000Z</time>
      </trkpt>
      <trkpt lat="47.27152" lon="-2.29306">
        <ele>8.3999996185303</ele>
        <time>2021-08-29T07:36:47.000Z</time>
      </trkpt>
      <trkpt lat="47.27157" lon="-2.29281">
        <ele>8.3999996185303</ele>
        <time>2021-08-29T07:36:51.000Z</time>
      </trkpt>
      <trkpt lat="47.27165" lon="-2.29258">
        <ele>8.3999996185303</ele>
        <time>2021-08-29T07:36:54.000Z</time>
      </trkpt>
      <trkpt lat="47.27169" lon="-2.29241">
        <ele>8.3999996185303</ele>
        <time>2021-08-29T07:36:56.000Z</time>
      </trkpt>
      <trkpt lat="47.27168" lon="-2.2923">
        <ele>8</ele>
        <time>2021-08-29T07:36:58.000Z</time>
      </trkpt>
      <trkpt lat="47.27167" lon="-2.29225">
        <ele>7.5999999046326</ele>
        <time>2021-08-29T07:36:59.000Z</time>
      </trkpt>
      <trkpt lat="47.27164" lon="-2.29222">
        <ele>7.1999998092651</ele>
        <time>2021-08-29T07:37:00.000Z</time>
      </trkpt>
      <trkpt lat="47.27162" lon="-2.29217">
        <ele>6.8000001907349</ele>
        <time>2021-08-29T07:37:01.000Z</time>
      </trkpt>
      <trkpt lat="47.2716" lon="-2.29212">
        <ele>6.4000000953674</ele>
        <time>2021-08-29T07:37:02.000Z</time>
      </trkpt>
      <trkpt lat="47.27158" lon="-2.29207">
        <ele>6.4000000953674</ele>
        <time>2021-08-29T07:37:03.000Z</time>
      </trkpt>
      <trkpt lat="47.27148" lon="-2.29183">
        <ele>6.4000000953674</ele>
        <time>2021-08-29T07:37:09.000Z</time>
      </trkpt>
      <trkpt lat="47.27148" lon="-2.2918">
        <ele>6.4000000953674</ele>
        <time>2021-08-29T07:37:12.000Z</time>
      </trkpt>
      <trkpt lat="47.27147" lon="-2.29173">
        <ele>6.4000000953674</ele>
        <time>2021-08-29T07:37:39.000Z</time>
      </trkpt>
      <trkpt lat="47.27153" lon="-2.29155">
        <ele>6.4000000953674</ele>
        <time>2021-08-29T07:37:44.000Z</time>
      </trkpt>
      <trkpt lat="47.27169" lon="-2.29136">
        <ele>6.4000000953674</ele>
        <time>2021-08-29T07:37:49.000Z</time>
      </trkpt>
      <trkpt lat="47.27173" lon="-2.29132">
        <ele>6.4000000953674</ele>
        <time>2021-08-29T07:37:50.000Z</time>
      </trkpt>
      <trkpt lat="47.27179" lon="-2.29126">
        <ele>6.4000000953674</ele>
        <time>2021-08-29T07:37:51.000Z</time>
      </trkpt>
      <trkpt lat="47.27193" lon="-2.29106">
        <ele>6.4000000953674</ele>
        <time>2021-08-29T07:37:55.000Z</time>
      </trkpt>
      <trkpt lat="47.27197" lon="-2.29103">
        <ele>6.4000000953674</ele>
        <time>2021-08-29T07:37:56.000Z</time>
      </trkpt>
      <trkpt lat="47.2721" lon="-2.29091">
        <ele>6.4000000953674</ele>
        <time>2021-08-29T07:37:59.000Z</time>
      </trkpt>
      <trkpt lat="47.27214" lon="-2.29087">
        <ele>6.4000000953674</ele>
        <time>2021-08-29T07:38:00.000Z</time>
      </trkpt>
      <trkpt lat="47.27229" lon="-2.29071">
        <ele>6</ele>
        <time>2021-08-29T07:38:04.000Z</time>
      </trkpt>
      <trkpt lat="47.27234" lon="-2.29068">
        <ele>5.5999999046326</ele>
        <time>2021-08-29T07:38:05.000Z</time>
      </trkpt>
      <trkpt lat="47.27238" lon="-2.29065">
        <ele>5.1999998092651</ele>
        <time>2021-08-29T07:38:06.000Z</time>
      </trkpt>
      <trkpt lat="47.27241" lon="-2.29062">
        <ele>4.8000001907349</ele>
        <time>2021-08-29T07:38:07.000Z</time>
      </trkpt>
      <trkpt lat="47.27245" lon="-2.29058">
        <ele>4.1999998092651</ele>
        <time>2021-08-29T07:38:08.000Z</time>
      </trkpt>
      <trkpt lat="47.27249" lon="-2.29054">
        <ele>4.1999998092651</ele>
        <time>2021-08-29T07:38:09.000Z</time>
      </trkpt>
      <trkpt lat="47.27263" lon="-2.29031">
        <ele>4.1999998092651</ele>
        <time>2021-08-29T07:38:14.000Z</time>
      </trkpt>
      <trkpt lat="47.27273" lon="-2.29008">
        <ele>4.1999998092651</ele>
        <time>2021-08-29T07:38:18.000Z</time>
      </trkpt>
      <trkpt lat="47.27279" lon="-2.28999">
        <ele>4.1999998092651</ele>
        <time>2021-08-29T07:38:20.000Z</time>
      </trkpt>
      <trkpt lat="47.27297" lon="-2.28978">
        <ele>4.1999998092651</ele>
        <time>2021-08-29T07:38:24.000Z</time>
      </trkpt>
      <trkpt lat="47.27303" lon="-2.28969">
        <ele>4.1999998092651</ele>
        <time>2021-08-29T07:38:26.000Z</time>
      </trkpt>
      <trkpt lat="47.27309" lon="-2.28955">
        <ele>4.1999998092651</ele>
        <time>2021-08-29T07:38:29.000Z</time>
      </trkpt>
      <trkpt lat="47.27315" lon="-2.28949">
        <ele>4.1999998092651</ele>
        <time>2021-08-29T07:38:31.000Z</time>
      </trkpt>
      <trkpt lat="47.27324" lon="-2.28949">
        <ele>4.1999998092651</ele>
        <time>2021-08-29T07:38:33.000Z</time>
      </trkpt>
      <trkpt lat="47.27331" lon="-2.28955">
        <ele>4.1999998092651</ele>
        <time>2021-08-29T07:38:35.000Z</time>
      </trkpt>
      <trkpt lat="47.27337" lon="-2.28952">
        <ele>4.1999998092651</ele>
        <time>2021-08-29T07:38:36.000Z</time>
      </trkpt>
      <trkpt lat="47.2734" lon="-2.28949">
        <ele>4.1999998092651</ele>
        <time>2021-08-29T07:38:37.000Z</time>
      </trkpt>
      <trkpt lat="47.27346" lon="-2.28934">
        <ele>4.1999998092651</ele>
        <time>2021-08-29T07:38:41.000Z</time>
      </trkpt>
      <trkpt lat="47.27347" lon="-2.28927">
        <ele>4.1999998092651</ele>
        <time>2021-08-29T07:38:42.000Z</time>
      </trkpt>
      <trkpt lat="47.27349" lon="-2.28903">
        <ele>4.1999998092651</ele>
        <time>2021-08-29T07:38:45.000Z</time>
      </trkpt>
      <trkpt lat="47.27356" lon="-2.28852">
        <ele>4.1999998092651</ele>
        <time>2021-08-29T07:38:51.000Z</time>
      </trkpt>
      <trkpt lat="47.27362" lon="-2.2882">
        <ele>4.1999998092651</ele>
        <time>2021-08-29T07:38:55.000Z</time>
      </trkpt>
      <trkpt lat="47.27365" lon="-2.28812">
        <ele>4.1999998092651</ele>
        <time>2021-08-29T07:38:56.000Z</time>
      </trkpt>
      <trkpt lat="47.27387" lon="-2.28762">
        <ele>4.1999998092651</ele>
        <time>2021-08-29T07:39:02.000Z</time>
      </trkpt>
      <trkpt lat="47.27408" lon="-2.28717">
        <ele>4.1999998092651</ele>
        <time>2021-08-29T07:39:08.000Z</time>
      </trkpt>
      <trkpt lat="47.27422" lon="-2.28688">
        <ele>4.1999998092651</ele>
        <time>2021-08-29T07:39:12.000Z</time>
      </trkpt>
      <trkpt lat="47.27429" lon="-2.28672">
        <ele>4.1999998092651</ele>
        <time>2021-08-29T07:39:14.000Z</time>
      </trkpt>
      <trkpt lat="47.27432" lon="-2.28665">
        <ele>4.1999998092651</ele>
        <time>2021-08-29T07:39:15.000Z</time>
      </trkpt>
      <trkpt lat="47.27443" lon="-2.28645">
        <ele>4.1999998092651</ele>
        <time>2021-08-29T07:39:18.000Z</time>
      </trkpt>
      <trkpt lat="47.27464" lon="-2.28611">
        <ele>4.1999998092651</ele>
        <time>2021-08-29T07:39:24.000Z</time>
      </trkpt>
      <trkpt lat="47.27473" lon="-2.28612">
        <ele>4.1999998092651</ele>
        <time>2021-08-29T07:39:26.000Z</time>
      </trkpt>
      <trkpt lat="47.27481" lon="-2.28624">
        <ele>4.1999998092651</ele>
        <time>2021-08-29T07:39:28.000Z</time>
      </trkpt>
      <trkpt lat="47.27486" lon="-2.28639">
        <ele>4.1999998092651</ele>
        <time>2021-08-29T07:39:30.000Z</time>
      </trkpt>
      <trkpt lat="47.27502" lon="-2.28673">
        <ele>4.1999998092651</ele>
        <time>2021-08-29T07:39:35.000Z</time>
      </trkpt>
      <trkpt lat="47.27506" lon="-2.28679">
        <ele>4.1999998092651</ele>
        <time>2021-08-29T07:39:36.000Z</time>
      </trkpt>
      <trkpt lat="47.27526" lon="-2.28706">
        <ele>4.1999998092651</ele>
        <time>2021-08-29T07:39:41.000Z</time>
      </trkpt>
      <trkpt lat="47.2753" lon="-2.28711">
        <ele>4.1999998092651</ele>
        <time>2021-08-29T07:39:42.000Z</time>
      </trkpt>
      <trkpt lat="47.27551" lon="-2.28724">
        <ele>4.1999998092651</ele>
        <time>2021-08-29T07:39:46.000Z</time>
      </trkpt>
      <trkpt lat="47.27557" lon="-2.28728">
        <ele>4.1999998092651</ele>
        <time>2021-08-29T07:39:47.000Z</time>
      </trkpt>
      <trkpt lat="47.27594" lon="-2.28748">
        <ele>4.1999998092651</ele>
        <time>2021-08-29T07:39:53.000Z</time>
      </trkpt>
      <trkpt lat="47.27633" lon="-2.28758">
        <ele>4.1999998092651</ele>
        <time>2021-08-29T07:39:59.000Z</time>
      </trkpt>
      <trkpt lat="47.27657" lon="-2.28765">
        <ele>4.1999998092651</ele>
        <time>2021-08-29T07:40:03.000Z</time>
      </trkpt>
      <trkpt lat="47.27673" lon="-2.28769">
        <ele>4.1999998092651</ele>
        <time>2021-08-29T07:40:06.000Z</time>
      </trkpt>
      <trkpt lat="47.27678" lon="-2.28773">
        <ele>3.4000000953674</ele>
        <time>2021-08-29T07:40:07.000Z</time>
      </trkpt>
      <trkpt lat="47.27683" lon="-2.28779">
        <ele>3</ele>
        <time>2021-08-29T07:40:08.000Z</time>
      </trkpt>
      <trkpt lat="47.27687" lon="-2.28787">
        <ele>2.5999999046326</ele>
        <time>2021-08-29T07:40:09.000Z</time>
      </trkpt>
      <trkpt lat="47.2769" lon="-2.28794">
        <ele>2.2000000476837</ele>
        <time>2021-08-29T07:40:10.000Z</time>
      </trkpt>
      <trkpt lat="47.27694" lon="-2.28802">
        <ele>2.2000000476837</ele>
        <time>2021-08-29T07:40:11.000Z</time>
      </trkpt>
      <trkpt lat="47.27705" lon="-2.28811">
        <ele>2.2000000476837</ele>
        <time>2021-08-29T07:40:13.000Z</time>
      </trkpt>
      <trkpt lat="47.27722" lon="-2.28809">
        <ele>2.2000000476837</ele>
        <time>2021-08-29T07:40:16.000Z</time>
      </trkpt>
      <trkpt lat="47.27766" lon="-2.28795">
        <ele>2.2000000476837</ele>
        <time>2021-08-29T07:40:23.000Z</time>
      </trkpt>
      <trkpt lat="47.27778" lon="-2.28792">
        <ele>2.2000000476837</ele>
        <time>2021-08-29T07:40:25.000Z</time>
      </trkpt>
      <trkpt lat="47.27799" lon="-2.28793">
        <ele>2.2000000476837</ele>
        <time>2021-08-29T07:40:28.000Z</time>
      </trkpt>
      <trkpt lat="47.27831" lon="-2.28796">
        <ele>2.2000000476837</ele>
        <time>2021-08-29T07:40:33.000Z</time>
      </trkpt>
      <trkpt lat="47.27837" lon="-2.28799">
        <ele>2.2000000476837</ele>
        <time>2021-08-29T07:40:34.000Z</time>
      </trkpt>
      <trkpt lat="47.27858" lon="-2.28814">
        <ele>2.2000000476837</ele>
        <time>2021-08-29T07:40:38.000Z</time>
      </trkpt>
      <trkpt lat="47.27862" lon="-2.28815">
        <ele>2.2000000476837</ele>
        <time>2021-08-29T07:40:39.000Z</time>
      </trkpt>
      <trkpt lat="47.27871" lon="-2.28807">
        <ele>2.2000000476837</ele>
        <time>2021-08-29T07:40:42.000Z</time>
      </trkpt>
      <trkpt lat="47.27875" lon="-2.28789">
        <ele>2.2000000476837</ele>
        <time>2021-08-29T07:40:45.000Z</time>
      </trkpt>
      <trkpt lat="47.27876" lon="-2.28783">
        <ele>2.2000000476837</ele>
        <time>2021-08-29T07:40:46.000Z</time>
      </trkpt>
      <trkpt lat="47.27887" lon="-2.28768">
        <ele>2.2000000476837</ele>
        <time>2021-08-29T07:40:49.000Z</time>
      </trkpt>
      <trkpt lat="47.27898" lon="-2.28765">
        <ele>2.2000000476837</ele>
        <time>2021-08-29T07:40:51.000Z</time>
      </trkpt>
      <trkpt lat="47.27908" lon="-2.28761">
        <ele>2.2000000476837</ele>
        <time>2021-08-29T07:40:53.000Z</time>
      </trkpt>
      <trkpt lat="47.27936" lon="-2.28752">
        <ele>2.2000000476837</ele>
        <time>2021-08-29T07:40:58.000Z</time>
      </trkpt>
      <trkpt lat="47.27971" lon="-2.28744">
        <ele>2.2000000476837</ele>
        <time>2021-08-29T07:41:04.000Z</time>
      </trkpt>
      <trkpt lat="47.27978" lon="-2.28745">
        <ele>2.2000000476837</ele>
        <time>2021-08-29T07:41:05.000Z</time>
      </trkpt>
      <trkpt lat="47.28014" lon="-2.28753">
        <ele>2.2000000476837</ele>
        <time>2021-08-29T07:41:11.000Z</time>
      </trkpt>
      <trkpt lat="47.28061" lon="-2.28763">
        <ele>2.2000000476837</ele>
        <time>2021-08-29T07:41:19.000Z</time>
      </trkpt>
      <trkpt lat="47.281" lon="-2.28781">
        <ele>2.2000000476837</ele>
        <time>2021-08-29T07:41:26.000Z</time>
      </trkpt>
      <trkpt lat="47.28121" lon="-2.28794">
        <ele>2.2000000476837</ele>
        <time>2021-08-29T07:41:30.000Z</time>
      </trkpt>
      <trkpt lat="47.28131" lon="-2.28802">
        <ele>2.2000000476837</ele>
        <time>2021-08-29T07:41:32.000Z</time>
      </trkpt>
      <trkpt lat="47.28145" lon="-2.28813">
        <ele>2.5999999046326</ele>
        <time>2021-08-29T07:41:35.000Z</time>
      </trkpt>
      <trkpt lat="47.28149" lon="-2.28816">
        <ele>3.2000000476837</ele>
        <time>2021-08-29T07:41:36.000Z</time>
      </trkpt>
      <trkpt lat="47.28154" lon="-2.2882">
        <ele>3.5999999046326</ele>
        <time>2021-08-29T07:41:37.000Z</time>
      </trkpt>
      <trkpt lat="47.28159" lon="-2.28824">
        <ele>4</ele>
        <time>2021-08-29T07:41:38.000Z</time>
      </trkpt>
      <trkpt lat="47.28163" lon="-2.28828">
        <ele>4.5999999046326</ele>
        <time>2021-08-29T07:41:39.000Z</time>
      </trkpt>
      <trkpt lat="47.28168" lon="-2.28832">
        <ele>4.5999999046326</ele>
        <time>2021-08-29T07:41:40.000Z</time>
      </trkpt>
      <trkpt lat="47.28177" lon="-2.28841">
        <ele>4.5999999046326</ele>
        <time>2021-08-29T07:41:42.000Z</time>
      </trkpt>
      <trkpt lat="47.2819" lon="-2.28854">
        <ele>4.5999999046326</ele>
        <time>2021-08-29T07:41:45.000Z</time>
      </trkpt>
      <trkpt lat="47.28209" lon="-2.28868">
        <ele>4.5999999046326</ele>
        <time>2021-08-29T07:41:49.000Z</time>
      </trkpt>
      <trkpt lat="47.28219" lon="-2.28867">
        <ele>4.5999999046326</ele>
        <time>2021-08-29T07:41:51.000Z</time>
      </trkpt>
      <trkpt lat="47.28224" lon="-2.28863">
        <ele>5</ele>
        <time>2021-08-29T07:41:52.000Z</time>
      </trkpt>
      <trkpt lat="47.28227" lon="-2.28858">
        <ele>5.4000000953674</ele>
        <time>2021-08-29T07:41:53.000Z</time>
      </trkpt>
      <trkpt lat="47.2823" lon="-2.28851">
        <ele>5.8000001907349</ele>
        <time>2021-08-29T07:41:54.000Z</time>
      </trkpt>
      <trkpt lat="47.28232" lon="-2.28843">
        <ele>6.1999998092651</ele>
        <time>2021-08-29T07:41:55.000Z</time>
      </trkpt>
      <trkpt lat="47.28233" lon="-2.28836">
        <ele>6.8000001907349</ele>
        <time>2021-08-29T07:41:56.000Z</time>
      </trkpt>
      <trkpt lat="47.28237" lon="-2.28814">
        <ele>6.8000001907349</ele>
        <time>2021-08-29T07:41:59.000Z</time>
      </trkpt>
      <trkpt lat="47.28244" lon="-2.28765">
        <ele>6.8000001907349</ele>
        <time>2021-08-29T07:42:05.000Z</time>
      </trkpt>
      <trkpt lat="47.28259" lon="-2.28688">
        <ele>6.8000001907349</ele>
        <time>2021-08-29T07:42:14.000Z</time>
      </trkpt>
      <trkpt lat="47.2826" lon="-2.28679">
        <ele>6.8000001907349</ele>
        <time>2021-08-29T07:42:15.000Z</time>
      </trkpt>
      <trkpt lat="47.28272" lon="-2.28622">
        <ele>6.8000001907349</ele>
        <time>2021-08-29T07:42:22.000Z</time>
      </trkpt>
      <trkpt lat="47.28286" lon="-2.28552">
        <ele>6.8000001907349</ele>
        <time>2021-08-29T07:42:30.000Z</time>
      </trkpt>
      <trkpt lat="47.28293" lon="-2.285">
        <ele>6.8000001907349</ele>
        <time>2021-08-29T07:42:36.000Z</time>
      </trkpt>
      <trkpt lat="47.28306" lon="-2.28436">
        <ele>6.8000001907349</ele>
        <time>2021-08-29T07:42:44.000Z</time>
      </trkpt>
      <trkpt lat="47.2832" lon="-2.2838">
        <ele>6.8000001907349</ele>
        <time>2021-08-29T07:42:51.000Z</time>
      </trkpt>
      <trkpt lat="47.28321" lon="-2.28372">
        <ele>7.1999998092651</ele>
        <time>2021-08-29T07:42:52.000Z</time>
      </trkpt>
      <trkpt lat="47.28322" lon="-2.28363">
        <ele>7.5999999046326</ele>
        <time>2021-08-29T07:42:53.000Z</time>
      </trkpt>
      <trkpt lat="47.28323" lon="-2.28355">
        <ele>8</ele>
        <time>2021-08-29T07:42:54.000Z</time>
      </trkpt>
      <trkpt lat="47.28324" lon="-2.28347">
        <ele>8.6000003814697</ele>
        <time>2021-08-29T07:42:55.000Z</time>
      </trkpt>
      <trkpt lat="47.28324" lon="-2.28339">
        <ele>9</ele>
        <time>2021-08-29T07:42:56.000Z</time>
      </trkpt>
      <trkpt lat="47.28324" lon="-2.28331">
        <ele>9</ele>
        <time>2021-08-29T07:42:57.000Z</time>
      </trkpt>
      <trkpt lat="47.28324" lon="-2.28272">
        <ele>9</ele>
        <time>2021-08-29T07:43:04.000Z</time>
      </trkpt>
      <trkpt lat="47.28324" lon="-2.28245">
        <ele>8.6000003814697</ele>
        <time>2021-08-29T07:43:07.000Z</time>
      </trkpt>
      <trkpt lat="47.28324" lon="-2.28236">
        <ele>8.1999998092651</ele>
        <time>2021-08-29T07:43:08.000Z</time>
      </trkpt>
      <trkpt lat="47.28324" lon="-2.28226">
        <ele>7.5999999046326</ele>
        <time>2021-08-29T07:43:09.000Z</time>
      </trkpt>
      <trkpt lat="47.28324" lon="-2.28217">
        <ele>7.1999998092651</ele>
        <time>2021-08-29T07:43:10.000Z</time>
      </trkpt>
      <trkpt lat="47.28324" lon="-2.28208">
        <ele>6.8000001907349</ele>
        <time>2021-08-29T07:43:11.000Z</time>
      </trkpt>
      <trkpt lat="47.28324" lon="-2.28199">
        <ele>6.8000001907349</ele>
        <time>2021-08-29T07:43:12.000Z</time>
      </trkpt>
      <trkpt lat="47.28324" lon="-2.2819">
        <ele>6.4000000953674</ele>
        <time>2021-08-29T07:43:13.000Z</time>
      </trkpt>
      <trkpt lat="47.28324" lon="-2.2818">
        <ele>6</ele>
        <time>2021-08-29T07:43:14.000Z</time>
      </trkpt>
      <trkpt lat="47.28324" lon="-2.2817">
        <ele>5.5999999046326</ele>
        <time>2021-08-29T07:43:15.000Z</time>
      </trkpt>
      <trkpt lat="47.28324" lon="-2.28161">
        <ele>5</ele>
        <time>2021-08-29T07:43:16.000Z</time>
      </trkpt>
      <trkpt lat="47.28324" lon="-2.28151">
        <ele>4.5999999046326</ele>
        <time>2021-08-29T07:43:17.000Z</time>
      </trkpt>
      <trkpt lat="47.28324" lon="-2.28142">
        <ele>4</ele>
        <time>2021-08-29T07:43:18.000Z</time>
      </trkpt>
      <trkpt lat="47.28324" lon="-2.28132">
        <ele>3.5999999046326</ele>
        <time>2021-08-29T07:43:19.000Z</time>
      </trkpt>
      <trkpt lat="47.28324" lon="-2.28124">
        <ele>3</ele>
        <time>2021-08-29T07:43:20.000Z</time>
      </trkpt>
      <trkpt lat="47.28324" lon="-2.28116">
        <ele>2.5999999046326</ele>
        <time>2021-08-29T07:43:21.000Z</time>
      </trkpt>
      <trkpt lat="47.28325" lon="-2.28109">
        <ele>2</ele>
        <time>2021-08-29T07:43:22.000Z</time>
      </trkpt>
      <trkpt lat="47.28325" lon="-2.28102">
        <ele>1</ele>
        <time>2021-08-29T07:43:23.000Z</time>
      </trkpt>
      <trkpt lat="47.28325" lon="-2.28094">
        <ele>0.40000000596046</ele>
        <time>2021-08-29T07:43:24.000Z</time>
      </trkpt>
      <trkpt lat="47.28325" lon="-2.28087">
        <ele>0.40000000596046</ele>
        <time>2021-08-29T07:43:25.000Z</time>
      </trkpt>
      <trkpt lat="47.28325" lon="-2.28074">
        <ele>0.40000000596046</ele>
        <time>2021-08-29T07:43:27.000Z</time>
      </trkpt>
      <trkpt lat="47.28324" lon="-2.2804">
        <ele>0.40000000596046</ele>
        <time>2021-08-29T07:43:33.000Z</time>
      </trkpt>
      <trkpt lat="47.28323" lon="-2.28005">
        <ele>0.80000001192093</ele>
        <time>2021-08-29T07:43:40.000Z</time>
      </trkpt>
      <trkpt lat="47.28321" lon="-2.28001">
        <ele>1.3999999761581</ele>
        <time>2021-08-29T07:43:41.000Z</time>
      </trkpt>
      <trkpt lat="47.2832" lon="-2.27997">
        <ele>1.7999999523163</ele>
        <time>2021-08-29T07:43:42.000Z</time>
      </trkpt>
      <trkpt lat="47.28318" lon="-2.27993">
        <ele>2.2000000476837</ele>
        <time>2021-08-29T07:43:43.000Z</time>
      </trkpt>
      <trkpt lat="47.28317" lon="-2.27988">
        <ele>2.5999999046326</ele>
        <time>2021-08-29T07:43:44.000Z</time>
      </trkpt>
      <trkpt lat="47.28317" lon="-2.27983">
        <ele>2.5999999046326</ele>
        <time>2021-08-29T07:43:45.000Z</time>
      </trkpt>
      <trkpt lat="47.28318" lon="-2.27979">
        <ele>3</ele>
        <time>2021-08-29T07:43:46.000Z</time>
      </trkpt>
      <trkpt lat="47.28319" lon="-2.27975">
        <ele>3.4000000953674</ele>
        <time>2021-08-29T07:43:47.000Z</time>
      </trkpt>
      <trkpt lat="47.28319" lon="-2.2797">
        <ele>4.1999998092651</ele>
        <time>2021-08-29T07:43:48.000Z</time>
      </trkpt>
      <trkpt lat="47.2832" lon="-2.27964">
        <ele>4.5999999046326</ele>
        <time>2021-08-29T07:43:49.000Z</time>
      </trkpt>
      <trkpt lat="47.28321" lon="-2.27926">
        <ele>4.5999999046326</ele>
        <time>2021-08-29T07:43:55.000Z</time>
      </trkpt>
      <trkpt lat="47.28324" lon="-2.27891">
        <ele>5</ele>
        <time>2021-08-29T07:44:00.000Z</time>
      </trkpt>
      <trkpt lat="47.28325" lon="-2.27883">
        <ele>5.4000000953674</ele>
        <time>2021-08-29T07:44:01.000Z</time>
      </trkpt>
      <trkpt lat="47.28326" lon="-2.27877">
        <ele>5.8000001907349</ele>
        <time>2021-08-29T07:44:02.000Z</time>
      </trkpt>
      <trkpt lat="47.28326" lon="-2.2787">
        <ele>6.4000000953674</ele>
        <time>2021-08-29T07:44:03.000Z</time>
      </trkpt>
      <trkpt lat="47.28327" lon="-2.27862">
        <ele>6.8000001907349</ele>
        <time>2021-08-29T07:44:04.000Z</time>
      </trkpt>
      <trkpt lat="47.28329" lon="-2.2784">
        <ele>6.8000001907349</ele>
        <time>2021-08-29T07:44:07.000Z</time>
      </trkpt>
      <trkpt lat="47.28334" lon="-2.27782">
        <ele>6.8000001907349</ele>
        <time>2021-08-29T07:44:14.000Z</time>
      </trkpt>
      <trkpt lat="47.28339" lon="-2.27733">
        <ele>6.8000001907349</ele>
        <time>2021-08-29T07:44:20.000Z</time>
      </trkpt>
      <trkpt lat="47.28339" lon="-2.27725">
        <ele>6.8000001907349</ele>
        <time>2021-08-29T07:44:21.000Z</time>
      </trkpt>
      <trkpt lat="47.2834" lon="-2.27712">
        <ele>6.4000000953674</ele>
        <time>2021-08-29T07:44:23.000Z</time>
      </trkpt>
      <trkpt lat="47.2834" lon="-2.27705">
        <ele>6</ele>
        <time>2021-08-29T07:44:24.000Z</time>
      </trkpt>
      <trkpt lat="47.28341" lon="-2.27699">
        <ele>5.5999999046326</ele>
        <time>2021-08-29T07:44:25.000Z</time>
      </trkpt>
      <trkpt lat="47.28342" lon="-2.27694">
        <ele>5.1999998092651</ele>
        <time>2021-08-29T07:44:26.000Z</time>
      </trkpt>
      <trkpt lat="47.28343" lon="-2.27689">
        <ele>4.8000001907349</ele>
        <time>2021-08-29T07:44:27.000Z</time>
      </trkpt>
      <trkpt lat="47.28346" lon="-2.27649">
        <ele>4.8000001907349</ele>
        <time>2021-08-29T07:44:34.000Z</time>
      </trkpt>
      <trkpt lat="47.28348" lon="-2.27628">
        <ele>5.1999998092651</ele>
        <time>2021-08-29T07:44:38.000Z</time>
      </trkpt>
      <trkpt lat="47.28348" lon="-2.27622">
        <ele>5.5999999046326</ele>
        <time>2021-08-29T07:44:39.000Z</time>
      </trkpt>
      <trkpt lat="47.28348" lon="-2.27617">
        <ele>6</ele>
        <time>2021-08-29T07:44:40.000Z</time>
      </trkpt>
      <trkpt lat="47.28349" lon="-2.27611">
        <ele>6.5999999046326</ele>
        <time>2021-08-29T07:44:41.000Z</time>
      </trkpt>
      <trkpt lat="47.28349" lon="-2.27605">
        <ele>7</ele>
        <time>2021-08-29T07:44:42.000Z</time>
      </trkpt>
      <trkpt lat="47.28349" lon="-2.27579">
        <ele>7</ele>
        <time>2021-08-29T07:44:47.000Z</time>
      </trkpt>
      <trkpt lat="47.28353" lon="-2.27551">
        <ele>7</ele>
        <time>2021-08-29T07:44:52.000Z</time>
      </trkpt>
      <trkpt lat="47.28354" lon="-2.27544">
        <ele>7</ele>
        <time>2021-08-29T07:44:53.000Z</time>
      </trkpt>
      <trkpt lat="47.28358" lon="-2.27517">
        <ele>7</ele>
        <time>2021-08-29T07:44:57.000Z</time>
      </trkpt>
      <trkpt lat="47.28361" lon="-2.27503">
        <ele>7</ele>
        <time>2021-08-29T07:44:59.000Z</time>
      </trkpt>
      <trkpt lat="47.28364" lon="-2.2749">
        <ele>7</ele>
        <time>2021-08-29T07:45:01.000Z</time>
      </trkpt>
      <trkpt lat="47.28369" lon="-2.2746">
        <ele>7</ele>
        <time>2021-08-29T07:45:05.000Z</time>
      </trkpt>
      <trkpt lat="47.28377" lon="-2.27402">
        <ele>7</ele>
        <time>2021-08-29T07:45:13.000Z</time>
      </trkpt>
      <trkpt lat="47.28382" lon="-2.27374">
        <ele>6.5999999046326</ele>
        <time>2021-08-29T07:45:17.000Z</time>
      </trkpt>
      <trkpt lat="47.28383" lon="-2.27369">
        <ele>6</ele>
        <time>2021-08-29T07:45:18.000Z</time>
      </trkpt>
      <trkpt lat="47.28384" lon="-2.27364">
        <ele>5.5999999046326</ele>
        <time>2021-08-29T07:45:19.000Z</time>
      </trkpt>
      <trkpt lat="47.28385" lon="-2.2736">
        <ele>5</ele>
        <time>2021-08-29T07:45:20.000Z</time>
      </trkpt>
      <trkpt lat="47.28387" lon="-2.27358">
        <ele>4.1999998092651</ele>
        <time>2021-08-29T07:45:21.000Z</time>
      </trkpt>
      <trkpt lat="47.28389" lon="-2.27357">
        <ele>3.5999999046326</ele>
        <time>2021-08-29T07:45:22.000Z</time>
      </trkpt>
      <trkpt lat="47.28393" lon="-2.27357">
        <ele>3</ele>
        <time>2021-08-29T07:45:23.000Z</time>
      </trkpt>
      <trkpt lat="47.28397" lon="-2.27358">
        <ele>2.4000000953674</ele>
        <time>2021-08-29T07:45:24.000Z</time>
      </trkpt>
      <trkpt lat="47.28407" lon="-2.2736">
        <ele>2.4000000953674</ele>
        <time>2021-08-29T07:45:27.000Z</time>
      </trkpt>
      <trkpt lat="47.28427" lon="-2.27359">
        <ele>2.4000000953674</ele>
        <time>2021-08-29T07:45:32.000Z</time>
      </trkpt>
      <trkpt lat="47.28432" lon="-2.27357">
        <ele>2.4000000953674</ele>
        <time>2021-08-29T07:45:33.000Z</time>
      </trkpt>
      <trkpt lat="47.28456" lon="-2.27356">
        <ele>2.4000000953674</ele>
        <time>2021-08-29T07:45:37.000Z</time>
      </trkpt>
      <trkpt lat="47.28461" lon="-2.27357">
        <ele>2.4000000953674</ele>
        <time>2021-08-29T07:45:38.000Z</time>
      </trkpt>
      <trkpt lat="47.28468" lon="-2.27358">
        <ele>2.4000000953674</ele>
        <time>2021-08-29T07:45:39.000Z</time>
      </trkpt>
      <trkpt lat="47.2848" lon="-2.2736">
        <ele>2</ele>
        <time>2021-08-29T07:45:41.000Z</time>
      </trkpt>
      <trkpt lat="47.28485" lon="-2.2736">
        <ele>1.6000000238419</ele>
        <time>2021-08-29T07:45:42.000Z</time>
      </trkpt>
      <trkpt lat="47.28489" lon="-2.27361">
        <ele>1</ele>
        <time>2021-08-29T07:45:43.000Z</time>
      </trkpt>
      <trkpt lat="47.28494" lon="-2.27361">
        <ele>0.60000002384186</ele>
        <time>2021-08-29T07:45:44.000Z</time>
      </trkpt>
      <trkpt lat="47.28498" lon="-2.27362">
        <ele>0.20000000298023</ele>
        <time>2021-08-29T07:45:45.000Z</time>
      </trkpt>
      <trkpt lat="47.28511" lon="-2.27363">
        <ele>-0.20000000298023</ele>
        <time>2021-08-29T07:45:48.000Z</time>
      </trkpt>
      <trkpt lat="47.28515" lon="-2.27363">
        <ele>-0.60000002384186</ele>
        <time>2021-08-29T07:45:49.000Z</time>
      </trkpt>
      <trkpt lat="47.28518" lon="-2.27363">
        <ele>-1</ele>
        <time>2021-08-29T07:45:50.000Z</time>
      </trkpt>
      <trkpt lat="47.28522" lon="-2.27363">
        <ele>-1.3999999761581</ele>
        <time>2021-08-29T07:45:51.000Z</time>
      </trkpt>
      <trkpt lat="47.28526" lon="-2.27363">
        <ele>-1.7999999523163</ele>
        <time>2021-08-29T07:45:52.000Z</time>
      </trkpt>
      <trkpt lat="47.28548" lon="-2.27365">
        <ele>-1.7999999523163</ele>
        <time>2021-08-29T07:45:57.000Z</time>
      </trkpt>
      <trkpt lat="47.28566" lon="-2.2736">
        <ele>-1.7999999523163</ele>
        <time>2021-08-29T07:46:01.000Z</time>
      </trkpt>
      <trkpt lat="47.28571" lon="-2.27358">
        <ele>-1.7999999523163</ele>
        <time>2021-08-29T07:46:02.000Z</time>
      </trkpt>
      <trkpt lat="47.2859" lon="-2.27344">
        <ele>-1.7999999523163</ele>
        <time>2021-08-29T07:46:08.000Z</time>
      </trkpt>
      <trkpt lat="47.28593" lon="-2.27342">
        <ele>-2.2000000476837</ele>
        <time>2021-08-29T07:46:09.000Z</time>
      </trkpt>
      <trkpt lat="47.28596" lon="-2.27341">
        <ele>-2.5999999046326</ele>
        <time>2021-08-29T07:46:10.000Z</time>
      </trkpt>
      <trkpt lat="47.28598" lon="-2.27341">
        <ele>-3</ele>
        <time>2021-08-29T07:46:11.000Z</time>
      </trkpt>
      <trkpt lat="47.28602" lon="-2.27342">
        <ele>-3.5999999046326</ele>
        <time>2021-08-29T07:46:12.000Z</time>
      </trkpt>
      <trkpt lat="47.28605" lon="-2.27344">
        <ele>-4</ele>
        <time>2021-08-29T07:46:13.000Z</time>
      </trkpt>
      <trkpt lat="47.28608" lon="-2.27348">
        <ele>-4</ele>
        <time>2021-08-29T07:46:14.000Z</time>
      </trkpt>
      <trkpt lat="47.28617" lon="-2.27363">
        <ele>-4</ele>
        <time>2021-08-29T07:46:17.000Z</time>
      </trkpt>
      <trkpt lat="47.28639" lon="-2.27402">
        <ele>-4</ele>
        <time>2021-08-29T07:46:24.000Z</time>
      </trkpt>
      <trkpt lat="47.28652" lon="-2.27424">
        <ele>-4</ele>
        <time>2021-08-29T07:46:28.000Z</time>
      </trkpt>
      <trkpt lat="47.28654" lon="-2.27435">
        <ele>-4</ele>
        <time>2021-08-29T07:46:30.000Z</time>
      </trkpt>
      <trkpt lat="47.2865" lon="-2.27444">
        <ele>-4.4000000953674</ele>
        <time>2021-08-29T07:46:32.000Z</time>
      </trkpt>
      <trkpt lat="47.28646" lon="-2.27446">
        <ele>-4.8000001907349</ele>
        <time>2021-08-29T07:46:33.000Z</time>
      </trkpt>
      <trkpt lat="47.28643" lon="-2.27449">
        <ele>-5.1999998092651</ele>
        <time>2021-08-29T07:46:34.000Z</time>
      </trkpt>
      <trkpt lat="47.28639" lon="-2.27452">
        <ele>-5.5999999046326</ele>
        <time>2021-08-29T07:46:35.000Z</time>
      </trkpt>
      <trkpt lat="47.28635" lon="-2.27455">
        <ele>-6</ele>
        <time>2021-08-29T07:46:36.000Z</time>
      </trkpt>
      <trkpt lat="47.28628" lon="-2.27461">
        <ele>-6</ele>
        <time>2021-08-29T07:46:38.000Z</time>
      </trkpt>
      <trkpt lat="47.28605" lon="-2.27477">
        <ele>-6</ele>
        <time>2021-08-29T07:46:44.000Z</time>
      </trkpt>
      <trkpt lat="47.28601" lon="-2.27479">
        <ele>-6</ele>
        <time>2021-08-29T07:46:45.000Z</time>
      </trkpt>
      <trkpt lat="47.28594" lon="-2.27492">
        <ele>-6</ele>
        <time>2021-08-29T07:46:48.000Z</time>
      </trkpt>
      <trkpt lat="47.28594" lon="-2.27508">
        <ele>-6</ele>
        <time>2021-08-29T07:46:51.000Z</time>
      </trkpt>
      <trkpt lat="47.28595" lon="-2.27514">
        <ele>-6</ele>
        <time>2021-08-29T07:46:52.000Z</time>
      </trkpt>
      <trkpt lat="47.28599" lon="-2.27538">
        <ele>-6</ele>
        <time>2021-08-29T07:46:55.000Z</time>
      </trkpt>
      <trkpt lat="47.28602" lon="-2.27554">
        <ele>-6</ele>
        <time>2021-08-29T07:46:57.000Z</time>
      </trkpt>
      <trkpt lat="47.28613" lon="-2.27603">
        <ele>-6</ele>
        <time>2021-08-29T07:47:03.000Z</time>
      </trkpt>
      <trkpt lat="47.28622" lon="-2.27652">
        <ele>-6</ele>
        <time>2021-08-29T07:47:09.000Z</time>
      </trkpt>
      <trkpt lat="47.28625" lon="-2.27706">
        <ele>-6</ele>
        <time>2021-08-29T07:47:15.000Z</time>
      </trkpt>
      <trkpt lat="47.28622" lon="-2.27722">
        <ele>-6</ele>
        <time>2021-08-29T07:47:17.000Z</time>
      </trkpt>
      <trkpt lat="47.28616" lon="-2.27744">
        <ele>-6</ele>
        <time>2021-08-29T07:47:20.000Z</time>
      </trkpt>
      <trkpt lat="47.286" lon="-2.27794">
        <ele>-6</ele>
        <time>2021-08-29T07:47:27.000Z</time>
      </trkpt>
      <trkpt lat="47.28599" lon="-2.27802">
        <ele>-6</ele>
        <time>2021-08-29T07:47:28.000Z</time>
      </trkpt>
      <trkpt lat="47.28597" lon="-2.27832">
        <ele>-6</ele>
        <time>2021-08-29T07:47:32.000Z</time>
      </trkpt>
      <trkpt lat="47.28603" lon="-2.27849">
        <ele>-6</ele>
        <time>2021-08-29T07:47:35.000Z</time>
      </trkpt>
      <trkpt lat="47.28606" lon="-2.27855">
        <ele>-6</ele>
        <time>2021-08-29T07:47:36.000Z</time>
      </trkpt>
      <trkpt lat="47.28613" lon="-2.27865">
        <ele>-6</ele>
        <time>2021-08-29T07:47:38.000Z</time>
      </trkpt>
      <trkpt lat="47.28621" lon="-2.27873">
        <ele>-6</ele>
        <time>2021-08-29T07:47:40.000Z</time>
      </trkpt>
      <trkpt lat="47.28625" lon="-2.27877">
        <ele>-6</ele>
        <time>2021-08-29T07:47:41.000Z</time>
      </trkpt>
      <trkpt lat="47.28631" lon="-2.27885">
        <ele>-6</ele>
        <time>2021-08-29T07:47:43.000Z</time>
      </trkpt>
      <trkpt lat="47.28635" lon="-2.27896">
        <ele>-6</ele>
        <time>2021-08-29T07:47:45.000Z</time>
      </trkpt>
      <trkpt lat="47.28634" lon="-2.27914">
        <ele>-6</ele>
        <time>2021-08-29T07:47:48.000Z</time>
      </trkpt>
      <trkpt lat="47.28633" lon="-2.27919">
        <ele>-6</ele>
        <time>2021-08-29T07:47:49.000Z</time>
      </trkpt>
      <trkpt lat="47.28627" lon="-2.27942">
        <ele>-6</ele>
        <time>2021-08-29T07:47:54.000Z</time>
      </trkpt>
      <trkpt lat="47.28615" lon="-2.27961">
        <ele>-6</ele>
        <time>2021-08-29T07:47:59.000Z</time>
      </trkpt>
      <trkpt lat="47.28608" lon="-2.27992">
        <ele>-6</ele>
        <time>2021-08-29T07:48:05.000Z</time>
      </trkpt>
      <trkpt lat="47.28594" lon="-2.2802">
        <ele>-6</ele>
        <time>2021-08-29T07:48:11.000Z</time>
      </trkpt>
      <trkpt lat="47.2858" lon="-2.28039">
        <ele>-6</ele>
        <time>2021-08-29T07:48:16.000Z</time>
      </trkpt>
      <trkpt lat="47.28574" lon="-2.28045">
        <ele>-6</ele>
        <time>2021-08-29T07:48:19.000Z</time>
      </trkpt>
      <trkpt lat="47.28571" lon="-2.28046">
        <ele>-6</ele>
        <time>2021-08-29T07:48:20.000Z</time>
      </trkpt>
      <trkpt lat="47.2856" lon="-2.28052">
        <ele>-6</ele>
        <time>2021-08-29T07:48:24.000Z</time>
      </trkpt>
      <trkpt lat="47.28552" lon="-2.28051">
        <ele>-6</ele>
        <time>2021-08-29T07:48:27.000Z</time>
      </trkpt>
      <trkpt lat="47.28546" lon="-2.2805">
        <ele>-6</ele>
        <time>2021-08-29T07:48:29.000Z</time>
      </trkpt>
      <trkpt lat="47.28539" lon="-2.2805">
        <ele>-5.5999999046326</ele>
        <time>2021-08-29T07:48:32.000Z</time>
      </trkpt>
      <trkpt lat="47.28537" lon="-2.28049">
        <ele>-5</ele>
        <time>2021-08-29T07:48:33.000Z</time>
      </trkpt>
      <trkpt lat="47.28535" lon="-2.28048">
        <ele>-4.5999999046326</ele>
        <time>2021-08-29T07:48:34.000Z</time>
      </trkpt>
      <trkpt lat="47.28533" lon="-2.28047">
        <ele>-4.1999998092651</ele>
        <time>2021-08-29T07:48:35.000Z</time>
      </trkpt>
      <trkpt lat="47.2853" lon="-2.28047">
        <ele>-3.5999999046326</ele>
        <time>2021-08-29T07:48:36.000Z</time>
      </trkpt>
      <trkpt lat="47.28527" lon="-2.28048">
        <ele>-3.2000000476837</ele>
        <time>2021-08-29T07:48:37.000Z</time>
      </trkpt>
      <trkpt lat="47.28523" lon="-2.28047">
        <ele>-2.7999999523163</ele>
        <time>2021-08-29T07:48:38.000Z</time>
      </trkpt>
      <trkpt lat="47.28519" lon="-2.28046">
        <ele>-2.4000000953674</ele>
        <time>2021-08-29T07:48:39.000Z</time>
      </trkpt>
      <trkpt lat="47.28516" lon="-2.28044">
        <ele>-2</ele>
        <time>2021-08-29T07:48:40.000Z</time>
      </trkpt>
      <trkpt lat="47.28513" lon="-2.28043">
        <ele>-1.6000000238419</ele>
        <time>2021-08-29T07:48:41.000Z</time>
      </trkpt>
      <trkpt lat="47.28508" lon="-2.28038">
        <ele>-1.2000000476837</ele>
        <time>2021-08-29T07:48:43.000Z</time>
      </trkpt>
      <trkpt lat="47.28506" lon="-2.28036">
        <ele>-0.40000000596046</ele>
        <time>2021-08-29T07:48:44.000Z</time>
      </trkpt>
      <trkpt lat="47.28504" lon="-2.28035">
        <ele>25.7</ele>
        <time>2021-08-29T07:48:45.000Z</time>
      </trkpt>
      <trkpt lat="47.28501" lon="-2.28033">
        <ele>0.40000000596046</ele>
        <time>2021-08-29T07:48:46.000Z</time>
      </trkpt>
      <trkpt lat="47.28497" lon="-2.28035">
        <ele>0.40000000596046</ele>
        <time>2021-08-29T07:48:48.000Z</time>
      </trkpt>
      <trkpt lat="47.28492" lon="-2.28038">
        <ele>0.40000000596046</ele>
        <time>2021-08-29T07:48:50.000Z</time>
      </trkpt>
      <trkpt lat="47.28483" lon="-2.2805">
        <ele>0.40000000596046</ele>
        <time>2021-08-29T07:48:55.000Z</time>
      </trkpt>
      <trkpt lat="47.28487" lon="-2.2807">
        <ele>0.40000000596046</ele>
        <time>2021-08-29T07:49:00.000Z</time>
      </trkpt>
      <trkpt lat="47.28489" lon="-2.28076">
        <ele>0.40000000596046</ele>
        <time>2021-08-29T07:49:02.000Z</time>
      </trkpt>
      <trkpt lat="47.28488" lon="-2.28083">
        <ele>0.40000000596046</ele>
        <time>2021-08-29T07:49:04.000Z</time>
      </trkpt>
      <trkpt lat="47.28473" lon="-2.28094">
        <ele>0.40000000596046</ele>
        <time>2021-08-29T07:49:09.000Z</time>
      </trkpt>
      <trkpt lat="47.2846" lon="-2.28091">
        <ele>0.40000000596046</ele>
        <time>2021-08-29T07:49:13.000Z</time>
      </trkpt>
      <trkpt lat="47.2845" lon="-2.28089">
        <ele>0.40000000596046</ele>
        <time>2021-08-29T07:49:17.000Z</time>
      </trkpt>
      <trkpt lat="47.28447" lon="-2.28087">
        <ele>0.40000000596046</ele>
        <time>2021-08-29T07:49:18.000Z</time>
      </trkpt>
      <trkpt lat="47.28441" lon="-2.28087">
        <ele>0.40000000596046</ele>
        <time>2021-08-29T07:49:21.000Z</time>
      </trkpt>
      <trkpt lat="47.28429" lon="-2.28086">
        <ele>0.40000000596046</ele>
        <time>2021-08-29T07:49:26.000Z</time>
      </trkpt>
      <trkpt lat="47.28419" lon="-2.28085">
        <ele>0.40000000596046</ele>
        <time>2021-08-29T07:49:30.000Z</time>
      </trkpt>
      <trkpt lat="47.28413" lon="-2.28084">
        <ele>0.40000000596046</ele>
        <time>2021-08-29T07:49:32.000Z</time>
      </trkpt>
      <trkpt lat="47.28403" lon="-2.28079">
        <ele>0.40000000596046</ele>
        <time>2021-08-29T07:49:36.000Z</time>
      </trkpt>
      <trkpt lat="47.28391" lon="-2.28077">
        <ele>23.8</ele>
        <time>2021-08-29T07:49:40.000Z</time>
      </trkpt>
      <trkpt lat="47.28389" lon="-2.28077">
        <ele>-0.40000000596046</ele>
        <time>2021-08-29T07:49:41.000Z</time>
      </trkpt>
      <trkpt lat="47.28386" lon="-2.28077">
        <ele>-0.80000001192093</ele>
        <time>2021-08-29T07:49:42.000Z</time>
      </trkpt>
      <trkpt lat="47.28383" lon="-2.28077">
        <ele>-1.2000000476837</ele>
        <time>2021-08-29T07:49:43.000Z</time>
      </trkpt>
      <trkpt lat="47.28382" lon="-2.28077">
        <ele>-1.6000000238419</ele>
        <time>2021-08-29T07:49:44.000Z</time>
      </trkpt>
      <trkpt lat="47.28375" lon="-2.28076">
        <ele>-1.6000000238419</ele>
        <time>2021-08-29T07:49:49.000Z</time>
      </trkpt>
      <trkpt lat="47.28374" lon="-2.28074">
        <ele>-1.6000000238419</ele>
        <time>2021-08-29T07:49:51.000Z</time>
      </trkpt>
      <trkpt lat="47.28375" lon="-2.28066">
        <ele>-1.6000000238419</ele>
        <time>2021-08-29T07:49:55.000Z</time>
      </trkpt>
      <trkpt lat="47.28374" lon="-2.28059">
        <ele>-1.6000000238419</ele>
        <time>2021-08-29T07:49:57.000Z</time>
      </trkpt>
      <trkpt lat="47.28372" lon="-2.28058">
        <ele>-1.6000000238419</ele>
        <time>2021-08-29T07:49:59.000Z</time>
      </trkpt>
      <trkpt lat="47.2837" lon="-2.28062">
        <ele>-1.6000000238419</ele>
        <time>2021-08-29T07:50:01.000Z</time>
      </trkpt>
      <trkpt lat="47.28366" lon="-2.2808">
        <ele>-1.6000000238419</ele>
        <time>2021-08-29T07:50:06.000Z</time>
      </trkpt>
      <trkpt lat="47.28365" lon="-2.28102">
        <ele>-1.6000000238419</ele>
        <time>2021-08-29T07:50:10.000Z</time>
      </trkpt>
      <trkpt lat="47.28366" lon="-2.2814">
        <ele>-1.6000000238419</ele>
        <time>2021-08-29T07:50:16.000Z</time>
      </trkpt>
      <trkpt lat="47.28368" lon="-2.28183">
        <ele>-1.2000000476837</ele>
        <time>2021-08-29T07:50:23.000Z</time>
      </trkpt>
      <trkpt lat="47.28368" lon="-2.28189">
        <ele>-0.20000000298023</ele>
        <time>2021-08-29T07:50:24.000Z</time>
      </trkpt>
      <trkpt lat="47.28368" lon="-2.28195">
        <ele>0.20000000298023</ele>
        <time>2021-08-29T07:50:25.000Z</time>
      </trkpt>
      <trkpt lat="47.28368" lon="-2.28202">
        <ele>0.60000002384186</ele>
        <time>2021-08-29T07:50:26.000Z</time>
      </trkpt>
      <trkpt lat="47.28368" lon="-2.28221">
        <ele>1.2000000476837</ele>
        <time>2021-08-29T07:50:29.000Z</time>
      </trkpt>
      <trkpt lat="47.28368" lon="-2.28228">
        <ele>1.6000000238419</ele>
        <time>2021-08-29T07:50:30.000Z</time>
      </trkpt>
      <trkpt lat="47.28368" lon="-2.28234">
        <ele>2</ele>
        <time>2021-08-29T07:50:31.000Z</time>
      </trkpt>
      <trkpt lat="47.28368" lon="-2.2824">
        <ele>2.4000000953674</ele>
        <time>2021-08-29T07:50:32.000Z</time>
      </trkpt>
      <trkpt lat="47.28368" lon="-2.28247">
        <ele>2.7999999523163</ele>
        <time>2021-08-29T07:50:33.000Z</time>
      </trkpt>
      <trkpt lat="47.28369" lon="-2.28279">
        <ele>3.2000000476837</ele>
        <time>2021-08-29T07:50:38.000Z</time>
      </trkpt>
      <trkpt lat="47.28369" lon="-2.28285">
        <ele>3.5999999046326</ele>
        <time>2021-08-29T07:50:39.000Z</time>
      </trkpt>
      <trkpt lat="47.28369" lon="-2.2829">
        <ele>4</ele>
        <time>2021-08-29T07:50:40.000Z</time>
      </trkpt>
      <trkpt lat="47.28369" lon="-2.28296">
        <ele>4.4000000953674</ele>
        <time>2021-08-29T07:50:41.000Z</time>
      </trkpt>
      <trkpt lat="47.28369" lon="-2.28303">
        <ele>4.8000001907349</ele>
        <time>2021-08-29T07:50:42.000Z</time>
      </trkpt>
      <trkpt lat="47.2837" lon="-2.28323">
        <ele>4.8000001907349</ele>
        <time>2021-08-29T07:50:45.000Z</time>
      </trkpt>
      <trkpt lat="47.2837" lon="-2.28344">
        <ele>4.8000001907349</ele>
        <time>2021-08-29T07:50:48.000Z</time>
      </trkpt>
      <trkpt lat="47.28371" lon="-2.28373">
        <ele>4.8000001907349</ele>
        <time>2021-08-29T07:50:52.000Z</time>
      </trkpt>
      <trkpt lat="47.28372" lon="-2.28418">
        <ele>4.8000001907349</ele>
        <time>2021-08-29T07:50:58.000Z</time>
      </trkpt>
      <trkpt lat="47.28372" lon="-2.28426">
        <ele>5.1999998092651</ele>
        <time>2021-08-29T07:50:59.000Z</time>
      </trkpt>
      <trkpt lat="47.28373" lon="-2.28434">
        <ele>5.5999999046326</ele>
        <time>2021-08-29T07:51:00.000Z</time>
      </trkpt>
      <trkpt lat="47.28373" lon="-2.28442">
        <ele>6</ele>
        <time>2021-08-29T07:51:01.000Z</time>
      </trkpt>
      <trkpt lat="47.28374" lon="-2.2845">
        <ele>6.4000000953674</ele>
        <time>2021-08-29T07:51:02.000Z</time>
      </trkpt>
      <trkpt lat="47.28375" lon="-2.28457">
        <ele>6.8000001907349</ele>
        <time>2021-08-29T07:51:03.000Z</time>
      </trkpt>
      <trkpt lat="47.28376" lon="-2.28473">
        <ele>6.8000001907349</ele>
        <time>2021-08-29T07:51:05.000Z</time>
      </trkpt>
      <trkpt lat="47.28378" lon="-2.28526">
        <ele>6.8000001907349</ele>
        <time>2021-08-29T07:51:12.000Z</time>
      </trkpt>
      <trkpt lat="47.2838" lon="-2.28588">
        <ele>6.8000001907349</ele>
        <time>2021-08-29T07:51:20.000Z</time>
      </trkpt>
      <trkpt lat="47.28383" lon="-2.28652">
        <ele>6.8000001907349</ele>
        <time>2021-08-29T07:51:28.000Z</time>
      </trkpt>
      <trkpt lat="47.28385" lon="-2.28712">
        <ele>6.8000001907349</ele>
        <time>2021-08-29T07:51:35.000Z</time>
      </trkpt>
      <trkpt lat="47.28388" lon="-2.28781">
        <ele>6.8000001907349</ele>
        <time>2021-08-29T07:51:43.000Z</time>
      </trkpt>
      <trkpt lat="47.28391" lon="-2.28848">
        <ele>6.8000001907349</ele>
        <time>2021-08-29T07:51:51.000Z</time>
      </trkpt>
      <trkpt lat="47.28394" lon="-2.28903">
        <ele>6.4000000953674</ele>
        <time>2021-08-29T07:51:57.000Z</time>
      </trkpt>
      <trkpt lat="47.28394" lon="-2.28913">
        <ele>6</ele>
        <time>2021-08-29T07:51:58.000Z</time>
      </trkpt>
      <trkpt lat="47.28395" lon="-2.28922">
        <ele>5.5999999046326</ele>
        <time>2021-08-29T07:51:59.000Z</time>
      </trkpt>
      <trkpt lat="47.28395" lon="-2.28931">
        <ele>5.1999998092651</ele>
        <time>2021-08-29T07:52:00.000Z</time>
      </trkpt>
      <trkpt lat="47.28396" lon="-2.28939">
        <ele>4.8000001907349</ele>
        <time>2021-08-29T07:52:01.000Z</time>
      </trkpt>
      <trkpt lat="47.28396" lon="-2.28954">
        <ele>4.8000001907349</ele>
        <time>2021-08-29T07:52:03.000Z</time>
      </trkpt>
      <trkpt lat="47.28397" lon="-2.28987">
        <ele>4.8000001907349</ele>
        <time>2021-08-29T07:52:09.000Z</time>
      </trkpt>
      <trkpt lat="47.28397" lon="-2.28989">
        <ele>4.8000001907349</ele>
        <time>2021-08-29T07:52:10.000Z</time>
      </trkpt>
      <trkpt lat="47.284" lon="-2.28992">
        <ele>4.8000001907349</ele>
        <time>2021-08-29T07:52:12.000Z</time>
      </trkpt>
      <trkpt lat="47.28409" lon="-2.28995">
        <ele>4.8000001907349</ele>
        <time>2021-08-29T07:52:15.000Z</time>
      </trkpt>
      <trkpt lat="47.28413" lon="-2.28996">
        <ele>4.8000001907349</ele>
        <time>2021-08-29T07:52:16.000Z</time>
      </trkpt>
      <trkpt lat="47.28424" lon="-2.28995">
        <ele>4.8000001907349</ele>
        <time>2021-08-29T07:52:19.000Z</time>
      </trkpt>
      <trkpt lat="47.28428" lon="-2.28995">
        <ele>4.8000001907349</ele>
        <time>2021-08-29T07:52:20.000Z</time>
      </trkpt>
      <trkpt lat="47.28438" lon="-2.28995">
        <ele>4.1999998092651</ele>
        <time>2021-08-29T07:52:22.000Z</time>
      </trkpt>
      <trkpt lat="47.28442" lon="-2.28995">
        <ele>3.7999999523163</ele>
        <time>2021-08-29T07:52:23.000Z</time>
      </trkpt>
      <trkpt lat="47.28447" lon="-2.28996">
        <ele>3.4000000953674</ele>
        <time>2021-08-29T07:52:24.000Z</time>
      </trkpt>
      <trkpt lat="47.28451" lon="-2.28997">
        <ele>3</ele>
        <time>2021-08-29T07:52:25.000Z</time>
      </trkpt>
      <trkpt lat="47.28456" lon="-2.28998">
        <ele>2.5999999046326</ele>
        <time>2021-08-29T07:52:26.000Z</time>
      </trkpt>
      <trkpt lat="47.28476" lon="-2.29003">
        <ele>2.2000000476837</ele>
        <time>2021-08-29T07:52:29.000Z</time>
      </trkpt>
      <trkpt lat="47.28482" lon="-2.29005">
        <ele>1.7999999523163</ele>
        <time>2021-08-29T07:52:30.000Z</time>
      </trkpt>
      <trkpt lat="47.28488" lon="-2.29007">
        <ele>1.3999999761581</ele>
        <time>2021-08-29T07:52:31.000Z</time>
      </trkpt>
      <trkpt lat="47.28494" lon="-2.29009">
        <ele>1</ele>
        <time>2021-08-29T07:52:32.000Z</time>
      </trkpt>
      <trkpt lat="47.28499" lon="-2.29011">
        <ele>0.60000002384186</ele>
        <time>2021-08-29T07:52:33.000Z</time>
      </trkpt>
      <trkpt lat="47.28516" lon="-2.29019">
        <ele>0.60000002384186</ele>
        <time>2021-08-29T07:52:36.000Z</time>
      </trkpt>
      <trkpt lat="47.28521" lon="-2.29021">
        <ele>0.60000002384186</ele>
        <time>2021-08-29T07:52:37.000Z</time>
      </trkpt>
      <trkpt lat="47.28534" lon="-2.29021">
        <ele>0.60000002384186</ele>
        <time>2021-08-29T07:52:40.000Z</time>
      </trkpt>
      <trkpt lat="47.28549" lon="-2.29025">
        <ele>0.20000000298023</ele>
        <time>2021-08-29T07:52:44.000Z</time>
      </trkpt>
      <trkpt lat="47.28553" lon="-2.29026">
        <ele>-0.20000000298023</ele>
        <time>2021-08-29T07:52:45.000Z</time>
      </trkpt>
      <trkpt lat="47.28558" lon="-2.29027">
        <ele>-0.60000002384186</ele>
        <time>2021-08-29T07:52:46.000Z</time>
      </trkpt>
      <trkpt lat="47.28563" lon="-2.29028">
        <ele>-1</ele>
        <time>2021-08-29T07:52:47.000Z</time>
      </trkpt>
      <trkpt lat="47.28569" lon="-2.29029">
        <ele>-1.3999999761581</ele>
        <time>2021-08-29T07:52:48.000Z</time>
      </trkpt>
      <trkpt lat="47.2858" lon="-2.29032">
        <ele>-1.3999999761581</ele>
        <time>2021-08-29T07:52:50.000Z</time>
      </trkpt>
      <trkpt lat="47.28598" lon="-2.29051">
        <ele>-1.3999999761581</ele>
        <time>2021-08-29T07:52:54.000Z</time>
      </trkpt>
      <trkpt lat="47.286" lon="-2.29082">
        <ele>-1.3999999761581</ele>
        <time>2021-08-29T07:52:58.000Z</time>
      </trkpt>
      <trkpt lat="47.28592" lon="-2.29113">
        <ele>-1.3999999761581</ele>
        <time>2021-08-29T07:53:02.000Z</time>
      </trkpt>
      <trkpt lat="47.28584" lon="-2.29135">
        <ele>-1.3999999761581</ele>
        <time>2021-08-29T07:53:05.000Z</time>
      </trkpt>
      <trkpt lat="47.28575" lon="-2.29154">
        <ele>-1.3999999761581</ele>
        <time>2021-08-29T07:53:08.000Z</time>
      </trkpt>
      <trkpt lat="47.28556" lon="-2.29172">
        <ele>-1.3999999761581</ele>
        <time>2021-08-29T07:53:12.000Z</time>
      </trkpt>
      <trkpt lat="47.28524" lon="-2.292">
        <ele>-1.3999999761581</ele>
        <time>2021-08-29T07:53:19.000Z</time>
      </trkpt>
      <trkpt lat="47.2852" lon="-2.29206">
        <ele>-1.3999999761581</ele>
        <time>2021-08-29T07:53:20.000Z</time>
      </trkpt>
      <trkpt lat="47.28519" lon="-2.29221">
        <ele>-1.3999999761581</ele>
        <time>2021-08-29T07:53:22.000Z</time>
      </trkpt>
      <trkpt lat="47.28519" lon="-2.29235">
        <ele>-1.3999999761581</ele>
        <time>2021-08-29T07:53:24.000Z</time>
      </trkpt>
      <trkpt lat="47.28521" lon="-2.29258">
        <ele>-1.3999999761581</ele>
        <time>2021-08-29T07:53:28.000Z</time>
      </trkpt>
      <trkpt lat="47.28523" lon="-2.29282">
        <ele>-1.3999999761581</ele>
        <time>2021-08-29T07:53:34.000Z</time>
      </trkpt>
      <trkpt lat="47.28522" lon="-2.29286">
        <ele>-1.3999999761581</ele>
        <time>2021-08-29T07:53:36.000Z</time>
      </trkpt>
      <trkpt lat="47.2852" lon="-2.29289">
        <ele>-1.3999999761581</ele>
        <time>2021-08-29T07:53:38.000Z</time>
      </trkpt>
      <trkpt lat="47.28515" lon="-2.29298">
        <ele>-1.3999999761581</ele>
        <time>2021-08-29T07:53:42.000Z</time>
      </trkpt>
      <trkpt lat="47.28508" lon="-2.29303">
        <ele>-1.3999999761581</ele>
        <time>2021-08-29T07:53:45.000Z</time>
      </trkpt>
      <trkpt lat="47.28497" lon="-2.29309">
        <ele>-1.3999999761581</ele>
        <time>2021-08-29T07:53:49.000Z</time>
      </trkpt>
      <trkpt lat="47.28481" lon="-2.29317">
        <ele>-1.3999999761581</ele>
        <time>2021-08-29T07:53:56.000Z</time>
      </trkpt>
      <trkpt lat="47.28466" lon="-2.29325">
        <ele>-1.3999999761581</ele>
        <time>2021-08-29T07:54:03.000Z</time>
      </trkpt>
      <trkpt lat="47.28462" lon="-2.29327">
        <ele>-1</ele>
        <time>2021-08-29T07:54:05.000Z</time>
      </trkpt>
      <trkpt lat="47.28459" lon="-2.29328">
        <ele>-0.60000002384186</ele>
        <time>2021-08-29T07:54:06.000Z</time>
      </trkpt>
      <trkpt lat="47.28457" lon="-2.29327">
        <ele>0.20000000298023</ele>
        <time>2021-08-29T07:54:07.000Z</time>
      </trkpt>
      <trkpt lat="47.28455" lon="-2.29328">
        <ele>0.60000002384186</ele>
        <time>2021-08-29T07:54:08.000Z</time>
      </trkpt>
      <trkpt lat="47.28453" lon="-2.29329">
        <ele>0.60000002384186</ele>
        <time>2021-08-29T07:54:09.000Z</time>
      </trkpt>
      <trkpt lat="47.28432" lon="-2.29335">
        <ele>0.60000002384186</ele>
        <time>2021-08-29T07:54:16.000Z</time>
      </trkpt>
      <trkpt lat="47.28415" lon="-2.29343">
        <ele>0.60000002384186</ele>
        <time>2021-08-29T07:54:22.000Z</time>
      </trkpt>
      <trkpt lat="47.28413" lon="-2.29347">
        <ele>0.60000002384186</ele>
        <time>2021-08-29T07:54:24.000Z</time>
      </trkpt>
      <trkpt lat="47.28413" lon="-2.29352">
        <ele>0.60000002384186</ele>
        <time>2021-08-29T07:54:26.000Z</time>
      </trkpt>
      <trkpt lat="47.28414" lon="-2.2936">
        <ele>0.60000002384186</ele>
        <time>2021-08-29T07:54:28.000Z</time>
      </trkpt>
      <trkpt lat="47.28414" lon="-2.29373">
        <ele>0.60000002384186</ele>
        <time>2021-08-29T07:54:31.000Z</time>
      </trkpt>
      <trkpt lat="47.28417" lon="-2.29403">
        <ele>0.60000002384186</ele>
        <time>2021-08-29T07:54:37.000Z</time>
      </trkpt>
      <trkpt lat="47.28419" lon="-2.29444">
        <ele>0.60000002384186</ele>
        <time>2021-08-29T07:54:43.000Z</time>
      </trkpt>
      <trkpt lat="47.2842" lon="-2.29495">
        <ele>0.60000002384186</ele>
        <time>2021-08-29T07:54:50.000Z</time>
      </trkpt>
      <trkpt lat="47.28423" lon="-2.29499">
        <ele>0.60000002384186</ele>
        <time>2021-08-29T07:54:51.000Z</time>
      </trkpt>
      <trkpt lat="47.28435" lon="-2.29502">
        <ele>0.60000002384186</ele>
        <time>2021-08-29T07:54:54.000Z</time>
      </trkpt>
      <trkpt lat="47.28439" lon="-2.29502">
        <ele>0.60000002384186</ele>
        <time>2021-08-29T07:54:55.000Z</time>
      </trkpt>
      <trkpt lat="47.28473" lon="-2.29503">
        <ele>0.60000002384186</ele>
        <time>2021-08-29T07:55:02.000Z</time>
      </trkpt>
      <trkpt lat="47.28509" lon="-2.29503">
        <ele>0.60000002384186</ele>
        <time>2021-08-29T07:55:09.000Z</time>
      </trkpt>
      <trkpt lat="47.28534" lon="-2.29496">
        <ele>0.60000002384186</ele>
        <time>2021-08-29T07:55:14.000Z</time>
      </trkpt>
      <trkpt lat="47.28538" lon="-2.29491">
        <ele>0.60000002384186</ele>
        <time>2021-08-29T07:55:15.000Z</time>
      </trkpt>
      <trkpt lat="47.28546" lon="-2.29483">
        <ele>0.60000002384186</ele>
        <time>2021-08-29T07:55:17.000Z</time>
      </trkpt>
      <trkpt lat="47.28555" lon="-2.29479">
        <ele>0.60000002384186</ele>
        <time>2021-08-29T07:55:19.000Z</time>
      </trkpt>
      <trkpt lat="47.28565" lon="-2.29477">
        <ele>0.60000002384186</ele>
        <time>2021-08-29T07:55:21.000Z</time>
      </trkpt>
      <trkpt lat="47.28577" lon="-2.29471">
        <ele>0.60000002384186</ele>
        <time>2021-08-29T07:55:24.000Z</time>
      </trkpt>
      <trkpt lat="47.28582" lon="-2.29471">
        <ele>0.60000002384186</ele>
        <time>2021-08-29T07:55:26.000Z</time>
      </trkpt>
      <trkpt lat="47.28583" lon="-2.29472">
        <ele>0.20000000298023</ele>
        <time>2021-08-29T07:55:27.000Z</time>
      </trkpt>
      <trkpt lat="47.28585" lon="-2.29473">
        <ele>-0.20000000298023</ele>
        <time>2021-08-29T07:55:28.000Z</time>
      </trkpt>
      <trkpt lat="47.28587" lon="-2.29476">
        <ele>-0.60000002384186</ele>
        <time>2021-08-29T07:55:29.000Z</time>
      </trkpt>
      <trkpt lat="47.28589" lon="-2.29478">
        <ele>-1</ele>
        <time>2021-08-29T07:55:31.000Z</time>
      </trkpt>
      <trkpt lat="47.2859" lon="-2.2948">
        <ele>-1.3999999761581</ele>
        <time>2021-08-29T07:55:32.000Z</time>
      </trkpt>
      <trkpt lat="47.28591" lon="-2.29483">
        <ele>-1.3999999761581</ele>
        <time>2021-08-29T07:55:33.000Z</time>
      </trkpt>
      <trkpt lat="47.28592" lon="-2.29486">
        <ele>-1.3999999761581</ele>
        <time>2021-08-29T07:55:34.000Z</time>
      </trkpt>
      <trkpt lat="47.28595" lon="-2.29497">
        <ele>-1.3999999761581</ele>
        <time>2021-08-29T07:55:40.000Z</time>
      </trkpt>
      <trkpt lat="47.28598" lon="-2.29511">
        <ele>-1.3999999761581</ele>
        <time>2021-08-29T07:55:47.000Z</time>
      </trkpt>
      <trkpt lat="47.28598" lon="-2.29528">
        <ele>-1.3999999761581</ele>
        <time>2021-08-29T07:55:52.000Z</time>
      </trkpt>
      <trkpt lat="47.28597" lon="-2.29558">
        <ele>-1.3999999761581</ele>
        <time>2021-08-29T07:55:58.000Z</time>
      </trkpt>
      <trkpt lat="47.28598" lon="-2.29564">
        <ele>-1.3999999761581</ele>
        <time>2021-08-29T07:55:59.000Z</time>
      </trkpt>
      <trkpt lat="47.28597" lon="-2.29599">
        <ele>-1.3999999761581</ele>
        <time>2021-08-29T07:56:04.000Z</time>
      </trkpt>
      <trkpt lat="47.28598" lon="-2.2962">
        <ele>-1.3999999761581</ele>
        <time>2021-08-29T07:56:08.000Z</time>
      </trkpt>
      <trkpt lat="47.28598" lon="-2.29627">
        <ele>-1.3999999761581</ele>
        <time>2021-08-29T07:56:10.000Z</time>
      </trkpt>
      <trkpt lat="47.28596" lon="-2.29632">
        <ele>-1.3999999761581</ele>
        <time>2021-08-29T07:56:12.000Z</time>
      </trkpt>
      <trkpt lat="47.28595" lon="-2.29633">
        <ele>-1.7999999523163</ele>
        <time>2021-08-29T07:56:13.000Z</time>
      </trkpt>
      <trkpt lat="47.28594" lon="-2.29632">
        <ele>-2.2000000476837</ele>
        <time>2021-08-29T07:56:14.000Z</time>
      </trkpt>
      <trkpt lat="47.28594" lon="-2.29631">
        <ele>-2.5999999046326</ele>
        <time>2021-08-29T07:56:15.000Z</time>
      </trkpt>
      <trkpt lat="47.28593" lon="-2.29628">
        <ele>-3</ele>
        <time>2021-08-29T07:56:16.000Z</time>
      </trkpt>
      <trkpt lat="47.28594" lon="-2.29626">
        <ele>-3.5999999046326</ele>
        <time>2021-08-29T07:56:17.000Z</time>
      </trkpt>
      <trkpt lat="47.28594" lon="-2.29623">
        <ele>-3.5999999046326</ele>
        <time>2021-08-29T07:56:18.000Z</time>
      </trkpt>
      <trkpt lat="47.28592" lon="-2.29616">
        <ele>-3.5999999046326</ele>
        <time>2021-08-29T07:56:21.000Z</time>
      </trkpt>
      <trkpt lat="47.28591" lon="-2.29616">
        <ele>-3.5999999046326</ele>
        <time>2021-08-29T07:56:22.000Z</time>
      </trkpt>
      <trkpt lat="47.28586" lon="-2.29623">
        <ele>-3.5999999046326</ele>
        <time>2021-08-29T07:56:26.000Z</time>
      </trkpt>
      <trkpt lat="47.28587" lon="-2.29643">
        <ele>-3.5999999046326</ele>
        <time>2021-08-29T07:56:29.000Z</time>
      </trkpt>
      <trkpt lat="47.28589" lon="-2.2965">
        <ele>-3.5999999046326</ele>
        <time>2021-08-29T07:56:30.000Z</time>
      </trkpt>
      <trkpt lat="47.28587" lon="-2.29678">
        <ele>-3.5999999046326</ele>
        <time>2021-08-29T07:56:35.000Z</time>
      </trkpt>
      <trkpt lat="47.28583" lon="-2.29682">
        <ele>-3.5999999046326</ele>
        <time>2021-08-29T07:56:36.000Z</time>
      </trkpt>
      <trkpt lat="47.28575" lon="-2.29689">
        <ele>-3.5999999046326</ele>
        <time>2021-08-29T07:56:38.000Z</time>
      </trkpt>
      <trkpt lat="47.28539" lon="-2.29709">
        <ele>-3.5999999046326</ele>
        <time>2021-08-29T07:56:45.000Z</time>
      </trkpt>
      <trkpt lat="47.28534" lon="-2.29711">
        <ele>-4</ele>
        <time>2021-08-29T07:56:46.000Z</time>
      </trkpt>
      <trkpt lat="47.28531" lon="-2.29712">
        <ele>-4.4000000953674</ele>
        <time>2021-08-29T07:56:47.000Z</time>
      </trkpt>
      <trkpt lat="47.28527" lon="-2.29714">
        <ele>-4.8000001907349</ele>
        <time>2021-08-29T07:56:48.000Z</time>
      </trkpt>
      <trkpt lat="47.28524" lon="-2.29716">
        <ele>-5.1999998092651</ele>
        <time>2021-08-29T07:56:49.000Z</time>
      </trkpt>
      <trkpt lat="47.2852" lon="-2.29717">
        <ele>-5.5999999046326</ele>
        <time>2021-08-29T07:56:50.000Z</time>
      </trkpt>
      <trkpt lat="47.28515" lon="-2.29716">
        <ele>-5.5999999046326</ele>
        <time>2021-08-29T07:56:51.000Z</time>
      </trkpt>
      <trkpt lat="47.2851" lon="-2.29715">
        <ele>-5.5999999046326</ele>
        <time>2021-08-29T07:56:52.000Z</time>
      </trkpt>
      <trkpt lat="47.28473" lon="-2.29706">
        <ele>-5.5999999046326</ele>
        <time>2021-08-29T07:56:58.000Z</time>
      </trkpt>
      <trkpt lat="47.2844" lon="-2.29699">
        <ele>-5.5999999046326</ele>
        <time>2021-08-29T07:57:04.000Z</time>
      </trkpt>
      <trkpt lat="47.28438" lon="-2.29703">
        <ele>-5.5999999046326</ele>
        <time>2021-08-29T07:57:05.000Z</time>
      </trkpt>
      <trkpt lat="47.28442" lon="-2.29718">
        <ele>-5.5999999046326</ele>
        <time>2021-08-29T07:57:08.000Z</time>
      </trkpt>
      <trkpt lat="47.28458" lon="-2.29757">
        <ele>-5.5999999046326</ele>
        <time>2021-08-29T07:57:16.000Z</time>
      </trkpt>
      <trkpt lat="47.2846" lon="-2.29774">
        <ele>-5.5999999046326</ele>
        <time>2021-08-29T07:57:19.000Z</time>
      </trkpt>
      <trkpt lat="47.2846" lon="-2.29785">
        <ele>-5.5999999046326</ele>
        <time>2021-08-29T07:57:21.000Z</time>
      </trkpt>
      <trkpt lat="47.28463" lon="-2.29801">
        <ele>-5.5999999046326</ele>
        <time>2021-08-29T07:57:25.000Z</time>
      </trkpt>
      <trkpt lat="47.28469" lon="-2.29819">
        <ele>-5.5999999046326</ele>
        <time>2021-08-29T07:57:30.000Z</time>
      </trkpt>
      <trkpt lat="47.28473" lon="-2.2984">
        <ele>-5.5999999046326</ele>
        <time>2021-08-29T07:57:35.000Z</time>
      </trkpt>
      <trkpt lat="47.28481" lon="-2.29856">
        <ele>-5.5999999046326</ele>
        <time>2021-08-29T07:57:39.000Z</time>
      </trkpt>
      <trkpt lat="47.2849" lon="-2.29867">
        <ele>-5.5999999046326</ele>
        <time>2021-08-29T07:57:44.000Z</time>
      </trkpt>
      <trkpt lat="47.28496" lon="-2.29872">
        <ele>-7.5999999046326</ele>
        <time>2021-08-29T07:59:15.000Z</time>
      </trkpt>
      <trkpt lat="47.28499" lon="-2.29874">
        <ele>-7.5999999046326</ele>
        <time>2021-08-29T07:59:18.000Z</time>
      </trkpt>
      <trkpt lat="47.28501" lon="-2.29874">
        <ele>-7.5999999046326</ele>
        <time>2021-08-29T07:59:19.000Z</time>
      </trkpt>
      <trkpt lat="47.28509" lon="-2.29873">
        <ele>-7.5999999046326</ele>
        <time>2021-08-29T07:59:23.000Z</time>
      </trkpt>
      <trkpt lat="47.28519" lon="-2.29873">
        <ele>-7.1999998092651</ele>
        <time>2021-08-29T07:59:28.000Z</time>
      </trkpt>
      <trkpt lat="47.28523" lon="-2.29873">
        <ele>-6.5999999046326</ele>
        <time>2021-08-29T07:59:29.000Z</time>
      </trkpt>
      <trkpt lat="47.28526" lon="-2.29873">
        <ele>-6.1999998092651</ele>
        <time>2021-08-29T07:59:30.000Z</time>
      </trkpt>
      <trkpt lat="47.28529" lon="-2.29873">
        <ele>-5.8000001907349</ele>
        <time>2021-08-29T07:59:31.000Z</time>
      </trkpt>
      <trkpt lat="47.28533" lon="-2.29873">
        <ele>-5.4000000953674</ele>
        <time>2021-08-29T07:59:32.000Z</time>
      </trkpt>
      <trkpt lat="47.28545" lon="-2.29876">
        <ele>-5.4000000953674</ele>
        <time>2021-08-29T07:59:36.000Z</time>
      </trkpt>
      <trkpt lat="47.28552" lon="-2.29877">
        <ele>-5.4000000953674</ele>
        <time>2021-08-29T07:59:39.000Z</time>
      </trkpt>
      <trkpt lat="47.28556" lon="-2.29882">
        <ele>-5.4000000953674</ele>
        <time>2021-08-29T07:59:42.000Z</time>
      </trkpt>
      <trkpt lat="47.28561" lon="-2.29894">
        <ele>-5.4000000953674</ele>
        <time>2021-08-29T07:59:48.000Z</time>
      </trkpt>
      <trkpt lat="47.28567" lon="-2.29907">
        <ele>-5.4000000953674</ele>
        <time>2021-08-29T07:59:54.000Z</time>
      </trkpt>
      <trkpt lat="47.28574" lon="-2.29924">
        <ele>-5.4000000953674</ele>
        <time>2021-08-29T08:00:00.000Z</time>
      </trkpt>
      <trkpt lat="47.28589" lon="-2.29943">
        <ele>-5.4000000953674</ele>
        <time>2021-08-29T08:00:07.000Z</time>
      </trkpt>
      <trkpt lat="47.28605" lon="-2.29948">
        <ele>-5.4000000953674</ele>
        <time>2021-08-29T08:00:13.000Z</time>
      </trkpt>
      <trkpt lat="47.28623" lon="-2.29939">
        <ele>-5.4000000953674</ele>
        <time>2021-08-29T08:00:18.000Z</time>
      </trkpt>
      <trkpt lat="47.28638" lon="-2.29922">
        <ele>-5.4000000953674</ele>
        <time>2021-08-29T08:00:24.000Z</time>
      </trkpt>
      <trkpt lat="47.28652" lon="-2.29909">
        <ele>-5.4000000953674</ele>
        <time>2021-08-29T08:00:30.000Z</time>
      </trkpt>
      <trkpt lat="47.28669" lon="-2.29908">
        <ele>-5.4000000953674</ele>
        <time>2021-08-29T08:00:35.000Z</time>
      </trkpt>
      <trkpt lat="47.28676" lon="-2.29913">
        <ele>-5.4000000953674</ele>
        <time>2021-08-29T08:00:37.000Z</time>
      </trkpt>
      <trkpt lat="47.28688" lon="-2.29919">
        <ele>-5.4000000953674</ele>
        <time>2021-08-29T08:00:40.000Z</time>
      </trkpt>
      <trkpt lat="47.28702" lon="-2.2992">
        <ele>-5.4000000953674</ele>
        <time>2021-08-29T08:00:44.000Z</time>
      </trkpt>
      <trkpt lat="47.28711" lon="-2.29922">
        <ele>-5.4000000953674</ele>
        <time>2021-08-29T08:00:46.000Z</time>
      </trkpt>
      <trkpt lat="47.28719" lon="-2.29931">
        <ele>-5.4000000953674</ele>
        <time>2021-08-29T08:00:48.000Z</time>
      </trkpt>
      <trkpt lat="47.28727" lon="-2.29947">
        <ele>-5.4000000953674</ele>
        <time>2021-08-29T08:00:50.000Z</time>
      </trkpt>
      <trkpt lat="47.28732" lon="-2.29953">
        <ele>-5.4000000953674</ele>
        <time>2021-08-29T08:00:51.000Z</time>
      </trkpt>
      <trkpt lat="47.28737" lon="-2.29959">
        <ele>-5.8000001907349</ele>
        <time>2021-08-29T08:00:52.000Z</time>
      </trkpt>
      <trkpt lat="47.28743" lon="-2.29964">
        <ele>-6.4000000953674</ele>
        <time>2021-08-29T08:00:53.000Z</time>
      </trkpt>
      <trkpt lat="47.28748" lon="-2.2997">
        <ele>-6.8000001907349</ele>
        <time>2021-08-29T08:00:54.000Z</time>
      </trkpt>
      <trkpt lat="47.28753" lon="-2.29976">
        <ele>-7.1999998092651</ele>
        <time>2021-08-29T08:00:55.000Z</time>
      </trkpt>
      <trkpt lat="47.28759" lon="-2.29982">
        <ele>-7.5999999046326</ele>
        <time>2021-08-29T08:00:56.000Z</time>
      </trkpt>
      <trkpt lat="47.28764" lon="-2.29988">
        <ele>-7.5999999046326</ele>
        <time>2021-08-29T08:00:57.000Z</time>
      </trkpt>
      <trkpt lat="47.28777" lon="-2.29995">
        <ele>-7.5999999046326</ele>
        <time>2021-08-29T08:00:59.000Z</time>
      </trkpt>
      <trkpt lat="47.2879" lon="-2.30003">
        <ele>-7.5999999046326</ele>
        <time>2021-08-29T08:01:01.000Z</time>
      </trkpt>
      <trkpt lat="47.28802" lon="-2.30028">
        <ele>-8</ele>
        <time>2021-08-29T08:01:04.000Z</time>
      </trkpt>
      <trkpt lat="47.28807" lon="-2.30037">
        <ele>-8.3999996185303</ele>
        <time>2021-08-29T08:01:05.000Z</time>
      </trkpt>
      <trkpt lat="47.28813" lon="-2.30045">
        <ele>-8.8000001907349</ele>
        <time>2021-08-29T08:01:06.000Z</time>
      </trkpt>
      <trkpt lat="47.28818" lon="-2.30054">
        <ele>-9.1999998092651</ele>
        <time>2021-08-29T08:01:07.000Z</time>
      </trkpt>
      <trkpt lat="47.28824" lon="-2.30062">
        <ele>-9.6000003814697</ele>
        <time>2021-08-29T08:01:08.000Z</time>
      </trkpt>
      <trkpt lat="47.28831" lon="-2.3007">
        <ele>-9.6000003814697</ele>
        <time>2021-08-29T08:01:09.000Z</time>
      </trkpt>
      <trkpt lat="47.28875" lon="-2.30123">
        <ele>-9.6000003814697</ele>
        <time>2021-08-29T08:01:16.000Z</time>
      </trkpt>
      <trkpt lat="47.28881" lon="-2.3013">
        <ele>-10</ele>
        <time>2021-08-29T08:01:17.000Z</time>
      </trkpt>
      <trkpt lat="47.28887" lon="-2.30137">
        <ele>-10.39999961853</ele>
        <time>2021-08-29T08:01:18.000Z</time>
      </trkpt>
      <trkpt lat="47.28892" lon="-2.30144">
        <ele>-10.800000190735</ele>
        <time>2021-08-29T08:01:19.000Z</time>
      </trkpt>
      <trkpt lat="47.28899" lon="-2.30151">
        <ele>-11.39999961853</ele>
        <time>2021-08-29T08:01:20.000Z</time>
      </trkpt>
      <trkpt lat="47.28904" lon="-2.30158">
        <ele>-11.800000190735</ele>
        <time>2021-08-29T08:01:21.000Z</time>
      </trkpt>
      <trkpt lat="47.28916" lon="-2.30172">
        <ele>-11.800000190735</ele>
        <time>2021-08-29T08:01:23.000Z</time>
      </trkpt>
      <trkpt lat="47.28934" lon="-2.30193">
        <ele>-12.199999809265</ele>
        <time>2021-08-29T08:01:26.000Z</time>
      </trkpt>
      <trkpt lat="47.2894" lon="-2.302">
        <ele>-12.60000038147</ele>
        <time>2021-08-29T08:01:27.000Z</time>
      </trkpt>
      <trkpt lat="47.28945" lon="-2.30207">
        <ele>-13.60000038147</ele>
        <time>2021-08-29T08:01:28.000Z</time>
      </trkpt>
      <trkpt lat="47.28952" lon="-2.30214">
        <ele>-14</ele>
        <time>2021-08-29T08:01:29.000Z</time>
      </trkpt>
      <trkpt lat="47.28972" lon="-2.30232">
        <ele>-14</ele>
        <time>2021-08-29T08:01:32.000Z</time>
      </trkpt>
      <trkpt lat="47.28986" lon="-2.30239">
        <ele>-14</ele>
        <time>2021-08-29T08:01:34.000Z</time>
      </trkpt>
      <trkpt lat="47.29016" lon="-2.30241">
        <ele>-14</ele>
        <time>2021-08-29T08:01:38.000Z</time>
      </trkpt>
      <trkpt lat="47.2903" lon="-2.30245">
        <ele>-14</ele>
        <time>2021-08-29T08:01:40.000Z</time>
      </trkpt>
      <trkpt lat="47.29044" lon="-2.30244">
        <ele>-14</ele>
        <time>2021-08-29T08:01:42.000Z</time>
      </trkpt>
      <trkpt lat="47.29071" lon="-2.30232">
        <ele>-14</ele>
        <time>2021-08-29T08:01:46.000Z</time>
      </trkpt>
      <trkpt lat="47.29111" lon="-2.3021">
        <ele>-14</ele>
        <time>2021-08-29T08:01:52.000Z</time>
      </trkpt>
      <trkpt lat="47.29162" lon="-2.30183">
        <ele>-14</ele>
        <time>2021-08-29T08:02:00.000Z</time>
      </trkpt>
      <trkpt lat="47.29182" lon="-2.30173">
        <ele>-14.39999961853</ele>
        <time>2021-08-29T08:02:03.000Z</time>
      </trkpt>
      <trkpt lat="47.29188" lon="-2.3017">
        <ele>-14.800000190735</ele>
        <time>2021-08-29T08:02:04.000Z</time>
      </trkpt>
      <trkpt lat="47.29195" lon="-2.30167">
        <ele>-15.199999809265</ele>
        <time>2021-08-29T08:02:05.000Z</time>
      </trkpt>
      <trkpt lat="47.292" lon="-2.30164">
        <ele>-15.60000038147</ele>
        <time>2021-08-29T08:02:06.000Z</time>
      </trkpt>
      <trkpt lat="47.29206" lon="-2.3016">
        <ele>-16.200000762939</ele>
        <time>2021-08-29T08:02:07.000Z</time>
      </trkpt>
      <trkpt lat="47.29233" lon="-2.30147">
        <ele>-16.200000762939</ele>
        <time>2021-08-29T08:02:12.000Z</time>
      </trkpt>
      <trkpt lat="47.29244" lon="-2.30143">
        <ele>-16.200000762939</ele>
        <time>2021-08-29T08:02:14.000Z</time>
      </trkpt>
      <trkpt lat="47.29258" lon="-2.30139">
        <ele>-16.200000762939</ele>
        <time>2021-08-29T08:02:17.000Z</time>
      </trkpt>
      <trkpt lat="47.29267" lon="-2.30138">
        <ele>-16.60000038147</ele>
        <time>2021-08-29T08:02:19.000Z</time>
      </trkpt>
      <trkpt lat="47.29271" lon="-2.30135">
        <ele>-17</ele>
        <time>2021-08-29T08:02:20.000Z</time>
      </trkpt>
      <trkpt lat="47.29275" lon="-2.30134">
        <ele>-17.39999961853</ele>
        <time>2021-08-29T08:02:21.000Z</time>
      </trkpt>
      <trkpt lat="47.29279" lon="-2.30133">
        <ele>-17.799999237061</ele>
        <time>2021-08-29T08:02:22.000Z</time>
      </trkpt>
      <trkpt lat="47.29283" lon="-2.30132">
        <ele>-18.200000762939</ele>
        <time>2021-08-29T08:02:23.000Z</time>
      </trkpt>
      <trkpt lat="47.29288" lon="-2.30132">
        <ele>-18.200000762939</ele>
        <time>2021-08-29T08:02:24.000Z</time>
      </trkpt>
      <trkpt lat="47.29302" lon="-2.30133">
        <ele>-18.200000762939</ele>
        <time>2021-08-29T08:02:27.000Z</time>
      </trkpt>
      <trkpt lat="47.29307" lon="-2.30133">
        <ele>-18.200000762939</ele>
        <time>2021-08-29T08:02:28.000Z</time>
      </trkpt>
      <trkpt lat="47.29312" lon="-2.30133">
        <ele>-18.200000762939</ele>
        <time>2021-08-29T08:02:29.000Z</time>
      </trkpt>
      <trkpt lat="47.29328" lon="-2.30128">
        <ele>-18.200000762939</ele>
        <time>2021-08-29T08:02:33.000Z</time>
      </trkpt>
      <trkpt lat="47.29336" lon="-2.30106">
        <ele>-18.200000762939</ele>
        <time>2021-08-29T08:02:37.000Z</time>
      </trkpt>
      <trkpt lat="47.29338" lon="-2.30091">
        <ele>-18.200000762939</ele>
        <time>2021-08-29T08:02:39.000Z</time>
      </trkpt>
      <trkpt lat="47.29339" lon="-2.30083">
        <ele>-18.200000762939</ele>
        <time>2021-08-29T08:02:40.000Z</time>
      </trkpt>
      <trkpt lat="47.29341" lon="-2.30067">
        <ele>-18.200000762939</ele>
        <time>2021-08-29T08:02:42.000Z</time>
      </trkpt>
      <trkpt lat="47.29345" lon="-2.3001">
        <ele>-18.200000762939</ele>
        <time>2021-08-29T08:02:50.000Z</time>
      </trkpt>
      <trkpt lat="47.29349" lon="-2.30001">
        <ele>-18.200000762939</ele>
        <time>2021-08-29T08:02:53.000Z</time>
      </trkpt>
      <trkpt lat="47.29361" lon="-2.30007">
        <ele>-18.200000762939</ele>
        <time>2021-08-29T08:02:56.000Z</time>
      </trkpt>
      <trkpt lat="47.29388" lon="-2.3002">
        <ele>-18.200000762939</ele>
        <time>2021-08-29T08:03:01.000Z</time>
      </trkpt>
      <trkpt lat="47.29394" lon="-2.30021">
        <ele>-18.200000762939</ele>
        <time>2021-08-29T08:03:02.000Z</time>
      </trkpt>
      <trkpt lat="47.29418" lon="-2.30028">
        <ele>-18.200000762939</ele>
        <time>2021-08-29T08:03:06.000Z</time>
      </trkpt>
      <trkpt lat="47.29464" lon="-2.30026">
        <ele>-18.200000762939</ele>
        <time>2021-08-29T08:03:13.000Z</time>
      </trkpt>
      <trkpt lat="47.29502" lon="-2.30023">
        <ele>-18.200000762939</ele>
        <time>2021-08-29T08:03:19.000Z</time>
      </trkpt>
      <trkpt lat="47.29513" lon="-2.30022">
        <ele>-18.200000762939</ele>
        <time>2021-08-29T08:03:21.000Z</time>
      </trkpt>
      <trkpt lat="47.29525" lon="-2.30026">
        <ele>-18.200000762939</ele>
        <time>2021-08-29T08:03:23.000Z</time>
      </trkpt>
      <trkpt lat="47.29532" lon="-2.30026">
        <ele>-18.200000762939</ele>
        <time>2021-08-29T08:03:24.000Z</time>
      </trkpt>
      <trkpt lat="47.29544" lon="-2.30022">
        <ele>-18.60000038147</ele>
        <time>2021-08-29T08:03:26.000Z</time>
      </trkpt>
      <trkpt lat="47.2955" lon="-2.30019">
        <ele>-19</ele>
        <time>2021-08-29T08:03:27.000Z</time>
      </trkpt>
      <trkpt lat="47.29556" lon="-2.30017">
        <ele>-19.39999961853</ele>
        <time>2021-08-29T08:03:28.000Z</time>
      </trkpt>
      <trkpt lat="47.29561" lon="-2.30014">
        <ele>-19.799999237061</ele>
        <time>2021-08-29T08:03:29.000Z</time>
      </trkpt>
      <trkpt lat="47.29567" lon="-2.30012">
        <ele>-20.200000762939</ele>
        <time>2021-08-29T08:03:30.000Z</time>
      </trkpt>
      <trkpt lat="47.29584" lon="-2.30009">
        <ele>-20.200000762939</ele>
        <time>2021-08-29T08:03:33.000Z</time>
      </trkpt>
      <trkpt lat="47.29625" lon="-2.29997">
        <ele>-20.200000762939</ele>
        <time>2021-08-29T08:03:40.000Z</time>
      </trkpt>
      <trkpt lat="47.2963" lon="-2.29993">
        <ele>-20.200000762939</ele>
        <time>2021-08-29T08:03:41.000Z</time>
      </trkpt>
      <trkpt lat="47.2964" lon="-2.29986">
        <ele>-20.200000762939</ele>
        <time>2021-08-29T08:03:43.000Z</time>
      </trkpt>
      <trkpt lat="47.29644" lon="-2.29982">
        <ele>-20.200000762939</ele>
        <time>2021-08-29T08:03:44.000Z</time>
      </trkpt>
      <trkpt lat="47.29651" lon="-2.29984">
        <ele>-20.200000762939</ele>
        <time>2021-08-29T08:03:46.000Z</time>
      </trkpt>
      <trkpt lat="47.29656" lon="-2.29989">
        <ele>-20.200000762939</ele>
        <time>2021-08-29T08:03:47.000Z</time>
      </trkpt>
      <trkpt lat="47.29678" lon="-2.30002">
        <ele>-20.200000762939</ele>
        <time>2021-08-29T08:03:51.000Z</time>
      </trkpt>
      <trkpt lat="47.29693" lon="-2.30001">
        <ele>-20.200000762939</ele>
        <time>2021-08-29T08:03:53.000Z</time>
      </trkpt>
      <trkpt lat="47.29714" lon="-2.29998">
        <ele>-20.200000762939</ele>
        <time>2021-08-29T08:03:56.000Z</time>
      </trkpt>
      <trkpt lat="47.29721" lon="-2.29996">
        <ele>-20.200000762939</ele>
        <time>2021-08-29T08:03:57.000Z</time>
      </trkpt>
      <trkpt lat="47.29741" lon="-2.29985">
        <ele>-20.200000762939</ele>
        <time>2021-08-29T08:04:00.000Z</time>
      </trkpt>
      <trkpt lat="47.29784" lon="-2.29953">
        <ele>-20.200000762939</ele>
        <time>2021-08-29T08:04:07.000Z</time>
      </trkpt>
      <trkpt lat="47.29796" lon="-2.2995">
        <ele>-20.200000762939</ele>
        <time>2021-08-29T08:04:09.000Z</time>
      </trkpt>
      <trkpt lat="47.2981" lon="-2.29952">
        <ele>-20.200000762939</ele>
        <time>2021-08-29T08:04:11.000Z</time>
      </trkpt>
      <trkpt lat="47.29823" lon="-2.29953">
        <ele>-20.200000762939</ele>
        <time>2021-08-29T08:04:13.000Z</time>
      </trkpt>
      <trkpt lat="47.29844" lon="-2.29951">
        <ele>-20.200000762939</ele>
        <time>2021-08-29T08:04:16.000Z</time>
      </trkpt>
      <trkpt lat="47.2985" lon="-2.29949">
        <ele>-20.200000762939</ele>
        <time>2021-08-29T08:04:17.000Z</time>
      </trkpt>
      <trkpt lat="47.29897" lon="-2.29938">
        <ele>-20.200000762939</ele>
        <time>2021-08-29T08:04:24.000Z</time>
      </trkpt>
      <trkpt lat="47.29903" lon="-2.29934">
        <ele>-20.200000762939</ele>
        <time>2021-08-29T08:04:25.000Z</time>
      </trkpt>
      <trkpt lat="47.29908" lon="-2.29921">
        <ele>-20.200000762939</ele>
        <time>2021-08-29T08:04:27.000Z</time>
      </trkpt>
      <trkpt lat="47.29906" lon="-2.29898">
        <ele>-20.200000762939</ele>
        <time>2021-08-29T08:04:30.000Z</time>
      </trkpt>
      <trkpt lat="47.29905" lon="-2.2989">
        <ele>-20.200000762939</ele>
        <time>2021-08-29T08:04:31.000Z</time>
      </trkpt>
      <trkpt lat="47.29902" lon="-2.29847">
        <ele>-20.200000762939</ele>
        <time>2021-08-29T08:04:37.000Z</time>
      </trkpt>
      <trkpt lat="47.29903" lon="-2.29841">
        <ele>-20.200000762939</ele>
        <time>2021-08-29T08:04:38.000Z</time>
      </trkpt>
      <trkpt lat="47.29914" lon="-2.29825">
        <ele>-20.200000762939</ele>
        <time>2021-08-29T08:04:42.000Z</time>
      </trkpt>
      <trkpt lat="47.29922" lon="-2.2982">
        <ele>-20.200000762939</ele>
        <time>2021-08-29T08:04:44.000Z</time>
      </trkpt>
      <trkpt lat="47.29933" lon="-2.29814">
        <ele>-20.200000762939</ele>
        <time>2021-08-29T08:04:47.000Z</time>
      </trkpt>
      <trkpt lat="47.29935" lon="-2.29812">
        <ele>-20.200000762939</ele>
        <time>2021-08-29T08:04:48.000Z</time>
      </trkpt>
      <trkpt lat="47.29946" lon="-2.29793">
        <ele>-20.200000762939</ele>
        <time>2021-08-29T08:04:53.000Z</time>
      </trkpt>
      <trkpt lat="47.29946" lon="-2.29788">
        <ele>-20.200000762939</ele>
        <time>2021-08-29T08:04:54.000Z</time>
      </trkpt>
      <trkpt lat="47.29944" lon="-2.29777">
        <ele>-20.200000762939</ele>
        <time>2021-08-29T08:04:56.000Z</time>
      </trkpt>
      <trkpt lat="47.29942" lon="-2.29772">
        <ele>-20.200000762939</ele>
        <time>2021-08-29T08:04:57.000Z</time>
      </trkpt>
      <trkpt lat="47.29935" lon="-2.29748">
        <ele>-20.200000762939</ele>
        <time>2021-08-29T08:05:01.000Z</time>
      </trkpt>
      <trkpt lat="47.29918" lon="-2.29696">
        <ele>-20.200000762939</ele>
        <time>2021-08-29T08:05:10.000Z</time>
      </trkpt>
      <trkpt lat="47.29915" lon="-2.29669">
        <ele>-20.200000762939</ele>
        <time>2021-08-29T08:05:15.000Z</time>
      </trkpt>
      <trkpt lat="47.29916" lon="-2.29664">
        <ele>-20.200000762939</ele>
        <time>2021-08-29T08:05:16.000Z</time>
      </trkpt>
      <trkpt lat="47.29921" lon="-2.29656">
        <ele>-20.200000762939</ele>
        <time>2021-08-29T08:05:18.000Z</time>
      </trkpt>
      <trkpt lat="47.29929" lon="-2.2965">
        <ele>-20.200000762939</ele>
        <time>2021-08-29T08:05:20.000Z</time>
      </trkpt>
      <trkpt lat="47.29947" lon="-2.29638">
        <ele>-20.200000762939</ele>
        <time>2021-08-29T08:05:24.000Z</time>
      </trkpt>
      <trkpt lat="47.29977" lon="-2.29629">
        <ele>-20.200000762939</ele>
        <time>2021-08-29T08:05:30.000Z</time>
      </trkpt>
      <trkpt lat="47.30007" lon="-2.29628">
        <ele>-20.200000762939</ele>
        <time>2021-08-29T08:05:36.000Z</time>
      </trkpt>
      <trkpt lat="47.30049" lon="-2.29627">
        <ele>-20.200000762939</ele>
        <time>2021-08-29T08:05:44.000Z</time>
      </trkpt>
      <trkpt lat="47.30083" lon="-2.29638">
        <ele>-20.200000762939</ele>
        <time>2021-08-29T08:05:51.000Z</time>
      </trkpt>
      <trkpt lat="47.30131" lon="-2.29652">
        <ele>-20.200000762939</ele>
        <time>2021-08-29T08:06:00.000Z</time>
      </trkpt>
      <trkpt lat="47.30157" lon="-2.29661">
        <ele>-20.200000762939</ele>
        <time>2021-08-29T08:06:05.000Z</time>
      </trkpt>
      <trkpt lat="47.30162" lon="-2.29664">
        <ele>-20.799999237061</ele>
        <time>2021-08-29T08:06:06.000Z</time>
      </trkpt>
      <trkpt lat="47.30167" lon="-2.29667">
        <ele>-21.200000762939</ele>
        <time>2021-08-29T08:06:07.000Z</time>
      </trkpt>
      <trkpt lat="47.30171" lon="-2.2967">
        <ele>-21.60000038147</ele>
        <time>2021-08-29T08:06:08.000Z</time>
      </trkpt>
      <trkpt lat="47.30176" lon="-2.29672">
        <ele>-22</ele>
        <time>2021-08-29T08:06:09.000Z</time>
      </trkpt>
      <trkpt lat="47.3018" lon="-2.29674">
        <ele>-22.39999961853</ele>
        <time>2021-08-29T08:06:10.000Z</time>
      </trkpt>
      <trkpt lat="47.30189" lon="-2.29678">
        <ele>-22.39999961853</ele>
        <time>2021-08-29T08:06:12.000Z</time>
      </trkpt>
      <trkpt lat="47.30199" lon="-2.29684">
        <ele>-22.39999961853</ele>
        <time>2021-08-29T08:06:14.000Z</time>
      </trkpt>
      <trkpt lat="47.30213" lon="-2.29692">
        <ele>-22.39999961853</ele>
        <time>2021-08-29T08:06:17.000Z</time>
      </trkpt>
      <trkpt lat="47.30218" lon="-2.29695">
        <ele>-22.39999961853</ele>
        <time>2021-08-29T08:06:18.000Z</time>
      </trkpt>
      <trkpt lat="47.30239" lon="-2.29706">
        <ele>-22.39999961853</ele>
        <time>2021-08-29T08:06:23.000Z</time>
      </trkpt>
      <trkpt lat="47.30247" lon="-2.29711">
        <ele>-22.39999961853</ele>
        <time>2021-08-29T08:06:27.000Z</time>
      </trkpt>
      <trkpt lat="47.30248" lon="-2.29713">
        <ele>-22.39999961853</ele>
        <time>2021-08-29T08:06:28.000Z</time>
      </trkpt>
      <trkpt lat="47.30246" lon="-2.29718">
        <ele>-22.39999961853</ele>
        <time>2021-08-29T08:06:31.000Z</time>
      </trkpt>
      <trkpt lat="47.30245" lon="-2.2972">
        <ele>-22.39999961853</ele>
        <time>2021-08-29T08:06:32.000Z</time>
      </trkpt>
      <trkpt lat="47.30237" lon="-2.29734">
        <ele>-22.799999237061</ele>
        <time>2021-08-29T08:06:38.000Z</time>
      </trkpt>
      <trkpt lat="47.30235" lon="-2.29735">
        <ele>-23.200000762939</ele>
        <time>2021-08-29T08:06:39.000Z</time>
      </trkpt>
      <trkpt lat="47.30234" lon="-2.29737">
        <ele>-23.60000038147</ele>
        <time>2021-08-29T08:06:40.000Z</time>
      </trkpt>
      <trkpt lat="47.30233" lon="-2.29739">
        <ele>-24</ele>
        <time>2021-08-29T08:06:41.000Z</time>
      </trkpt>
      <trkpt lat="47.30232" lon="-2.29741">
        <ele>-24.39999961853</ele>
        <time>2021-08-29T08:06:42.000Z</time>
      </trkpt>
      <trkpt lat="47.3023" lon="-2.29746">
        <ele>-24.39999961853</ele>
        <time>2021-08-29T08:06:44.000Z</time>
      </trkpt>
      <trkpt lat="47.30217" lon="-2.29769">
        <ele>-24.39999961853</ele>
        <time>2021-08-29T08:06:50.000Z</time>
      </trkpt>
      <trkpt lat="47.30207" lon="-2.29783">
        <ele>-24.39999961853</ele>
        <time>2021-08-29T08:06:54.000Z</time>
      </trkpt>
      <trkpt lat="47.30194" lon="-2.298">
        <ele>-24.39999961853</ele>
        <time>2021-08-29T08:06:59.000Z</time>
      </trkpt>
      <trkpt lat="47.30182" lon="-2.29819">
        <ele>-24.39999961853</ele>
        <time>2021-08-29T08:07:05.000Z</time>
      </trkpt>
      <trkpt lat="47.30171" lon="-2.29836">
        <ele>-24.39999961853</ele>
        <time>2021-08-29T08:07:11.000Z</time>
      </trkpt>
      <trkpt lat="47.3016" lon="-2.29856">
        <ele>-24.39999961853</ele>
        <time>2021-08-29T08:07:16.000Z</time>
      </trkpt>
      <trkpt lat="47.30142" lon="-2.29871">
        <ele>-24.39999961853</ele>
        <time>2021-08-29T08:07:21.000Z</time>
      </trkpt>
      <trkpt lat="47.30125" lon="-2.29886">
        <ele>-24.39999961853</ele>
        <time>2021-08-29T08:07:26.000Z</time>
      </trkpt>
      <trkpt lat="47.30105" lon="-2.29906">
        <ele>-24.39999961853</ele>
        <time>2021-08-29T08:07:31.000Z</time>
      </trkpt>
      <trkpt lat="47.30095" lon="-2.29914">
        <ele>-24.39999961853</ele>
        <time>2021-08-29T08:07:35.000Z</time>
      </trkpt>
      <trkpt lat="47.30096" lon="-2.29927">
        <ele>-24.39999961853</ele>
        <time>2021-08-29T08:07:39.000Z</time>
      </trkpt>
      <trkpt lat="47.30105" lon="-2.29944">
        <ele>-24.39999961853</ele>
        <time>2021-08-29T08:07:44.000Z</time>
      </trkpt>
      <trkpt lat="47.30106" lon="-2.29961">
        <ele>-24.39999961853</ele>
        <time>2021-08-29T08:07:48.000Z</time>
      </trkpt>
      <trkpt lat="47.30111" lon="-2.29979">
        <ele>-24.39999961853</ele>
        <time>2021-08-29T08:07:52.000Z</time>
      </trkpt>
      <trkpt lat="47.3012" lon="-2.29991">
        <ele>-24.39999961853</ele>
        <time>2021-08-29T08:07:56.000Z</time>
      </trkpt>
      <trkpt lat="47.30131" lon="-2.30004">
        <ele>-24.39999961853</ele>
        <time>2021-08-29T08:08:00.000Z</time>
      </trkpt>
      <trkpt lat="47.30137" lon="-2.30014">
        <ele>-24.39999961853</ele>
        <time>2021-08-29T08:08:02.000Z</time>
      </trkpt>
      <trkpt lat="47.3015" lon="-2.30043">
        <ele>-24.39999961853</ele>
        <time>2021-08-29T08:08:07.000Z</time>
      </trkpt>
      <trkpt lat="47.30156" lon="-2.30054">
        <ele>-24</ele>
        <time>2021-08-29T08:08:09.000Z</time>
      </trkpt>
      <trkpt lat="47.3016" lon="-2.3006">
        <ele>-23.60000038147</ele>
        <time>2021-08-29T08:08:10.000Z</time>
      </trkpt>
      <trkpt lat="47.30162" lon="-2.30067">
        <ele>-23.200000762939</ele>
        <time>2021-08-29T08:08:11.000Z</time>
      </trkpt>
      <trkpt lat="47.30165" lon="-2.30074">
        <ele>-22.799999237061</ele>
        <time>2021-08-29T08:08:12.000Z</time>
      </trkpt>
      <trkpt lat="47.30167" lon="-2.30082">
        <ele>-22.39999961853</ele>
        <time>2021-08-29T08:08:13.000Z</time>
      </trkpt>
      <trkpt lat="47.30177" lon="-2.30115">
        <ele>-22.39999961853</ele>
        <time>2021-08-29T08:08:18.000Z</time>
      </trkpt>
      <trkpt lat="47.3019" lon="-2.30153">
        <ele>-22.39999961853</ele>
        <time>2021-08-29T08:08:24.000Z</time>
      </trkpt>
      <trkpt lat="47.30201" lon="-2.30188">
        <ele>-22.39999961853</ele>
        <time>2021-08-29T08:08:30.000Z</time>
      </trkpt>
      <trkpt lat="47.30204" lon="-2.30217">
        <ele>-22.39999961853</ele>
        <time>2021-08-29T08:08:35.000Z</time>
      </trkpt>
      <trkpt lat="47.30192" lon="-2.30235">
        <ele>-22.39999961853</ele>
        <time>2021-08-29T08:08:39.000Z</time>
      </trkpt>
      <trkpt lat="47.30178" lon="-2.30241">
        <ele>-22.39999961853</ele>
        <time>2021-08-29T08:08:42.000Z</time>
      </trkpt>
      <trkpt lat="47.30169" lon="-2.30245">
        <ele>-22.39999961853</ele>
        <time>2021-08-29T08:08:44.000Z</time>
      </trkpt>
      <trkpt lat="47.30135" lon="-2.30258">
        <ele>-22.39999961853</ele>
        <time>2021-08-29T08:08:51.000Z</time>
      </trkpt>
      <trkpt lat="47.3012" lon="-2.30263">
        <ele>-22.39999961853</ele>
        <time>2021-08-29T08:08:54.000Z</time>
      </trkpt>
      <trkpt lat="47.30112" lon="-2.30269">
        <ele>-22.39999961853</ele>
        <time>2021-08-29T08:08:56.000Z</time>
      </trkpt>
      <trkpt lat="47.30109" lon="-2.30274">
        <ele>-22.39999961853</ele>
        <time>2021-08-29T08:08:57.000Z</time>
      </trkpt>
      <trkpt lat="47.30105" lon="-2.30293">
        <ele>-22.39999961853</ele>
        <time>2021-08-29T08:09:00.000Z</time>
      </trkpt>
      <trkpt lat="47.3011" lon="-2.30319">
        <ele>-22.39999961853</ele>
        <time>2021-08-29T08:09:04.000Z</time>
      </trkpt>
      <trkpt lat="47.30111" lon="-2.30326">
        <ele>-22.39999961853</ele>
        <time>2021-08-29T08:09:05.000Z</time>
      </trkpt>
      <trkpt lat="47.30122" lon="-2.30366">
        <ele>-22.39999961853</ele>
        <time>2021-08-29T08:09:12.000Z</time>
      </trkpt>
      <trkpt lat="47.30131" lon="-2.30398">
        <ele>-22.39999961853</ele>
        <time>2021-08-29T08:09:18.000Z</time>
      </trkpt>
      <trkpt lat="47.30133" lon="-2.30404">
        <ele>-22.39999961853</ele>
        <time>2021-08-29T08:09:19.000Z</time>
      </trkpt>
      <trkpt lat="47.30137" lon="-2.30416">
        <ele>-22.39999961853</ele>
        <time>2021-08-29T08:09:21.000Z</time>
      </trkpt>
      <trkpt lat="47.3014" lon="-2.30428">
        <ele>-22.39999961853</ele>
        <time>2021-08-29T08:09:23.000Z</time>
      </trkpt>
      <trkpt lat="47.30156" lon="-2.30464">
        <ele>-22.39999961853</ele>
        <time>2021-08-29T08:09:30.000Z</time>
      </trkpt>
      <trkpt lat="47.30165" lon="-2.30479">
        <ele>-22.39999961853</ele>
        <time>2021-08-29T08:09:33.000Z</time>
      </trkpt>
      <trkpt lat="47.30172" lon="-2.30489">
        <ele>-22.39999961853</ele>
        <time>2021-08-29T08:09:35.000Z</time>
      </trkpt>
      <trkpt lat="47.30175" lon="-2.30494">
        <ele>-22.39999961853</ele>
        <time>2021-08-29T08:09:36.000Z</time>
      </trkpt>
      <trkpt lat="47.302" lon="-2.30516">
        <ele>-22.39999961853</ele>
        <time>2021-08-29T08:09:42.000Z</time>
      </trkpt>
      <trkpt lat="47.30204" lon="-2.3052">
        <ele>-22.39999961853</ele>
        <time>2021-08-29T08:09:43.000Z</time>
      </trkpt>
      <trkpt lat="47.3022" lon="-2.30534">
        <ele>-22.39999961853</ele>
        <time>2021-08-29T08:09:47.000Z</time>
      </trkpt>
      <trkpt lat="47.30223" lon="-2.30539">
        <ele>-22.39999961853</ele>
        <time>2021-08-29T08:09:48.000Z</time>
      </trkpt>
      <trkpt lat="47.3023" lon="-2.30565">
        <ele>-22.39999961853</ele>
        <time>2021-08-29T08:09:52.000Z</time>
      </trkpt>
      <trkpt lat="47.30224" lon="-2.30585">
        <ele>-22.39999961853</ele>
        <time>2021-08-29T08:09:55.000Z</time>
      </trkpt>
      <trkpt lat="47.3021" lon="-2.30596">
        <ele>-22.39999961853</ele>
        <time>2021-08-29T08:09:58.000Z</time>
      </trkpt>
      <trkpt lat="47.30205" lon="-2.306">
        <ele>-22.39999961853</ele>
        <time>2021-08-29T08:09:59.000Z</time>
      </trkpt>
      <trkpt lat="47.30201" lon="-2.30605">
        <ele>-22.39999961853</ele>
        <time>2021-08-29T08:10:00.000Z</time>
      </trkpt>
      <trkpt lat="47.3019" lon="-2.30619">
        <ele>-22.39999961853</ele>
        <time>2021-08-29T08:10:03.000Z</time>
      </trkpt>
      <trkpt lat="47.30183" lon="-2.30627">
        <ele>-22.39999961853</ele>
        <time>2021-08-29T08:10:05.000Z</time>
      </trkpt>
      <trkpt lat="47.30172" lon="-2.30636">
        <ele>-22.39999961853</ele>
        <time>2021-08-29T08:10:08.000Z</time>
      </trkpt>
      <trkpt lat="47.30164" lon="-2.30653">
        <ele>-22.39999961853</ele>
        <time>2021-08-29T08:10:11.000Z</time>
      </trkpt>
      <trkpt lat="47.30163" lon="-2.30674">
        <ele>-22.39999961853</ele>
        <time>2021-08-29T08:10:14.000Z</time>
      </trkpt>
      <trkpt lat="47.30164" lon="-2.30681">
        <ele>-22.39999961853</ele>
        <time>2021-08-29T08:10:15.000Z</time>
      </trkpt>
      <trkpt lat="47.3017" lon="-2.30735">
        <ele>-22.39999961853</ele>
        <time>2021-08-29T08:10:22.000Z</time>
      </trkpt>
      <trkpt lat="47.30176" lon="-2.30748">
        <ele>-22.39999961853</ele>
        <time>2021-08-29T08:10:25.000Z</time>
      </trkpt>
      <trkpt lat="47.30178" lon="-2.30765">
        <ele>-22.39999961853</ele>
        <time>2021-08-29T08:10:28.000Z</time>
      </trkpt>
      <trkpt lat="47.30178" lon="-2.30772">
        <ele>-22.39999961853</ele>
        <time>2021-08-29T08:10:29.000Z</time>
      </trkpt>
      <trkpt lat="47.30178" lon="-2.30795">
        <ele>-22.39999961853</ele>
        <time>2021-08-29T08:10:32.000Z</time>
      </trkpt>
      <trkpt lat="47.30179" lon="-2.30803">
        <ele>-22.39999961853</ele>
        <time>2021-08-29T08:10:33.000Z</time>
      </trkpt>
      <trkpt lat="47.30187" lon="-2.3082">
        <ele>-22.39999961853</ele>
        <time>2021-08-29T08:10:36.000Z</time>
      </trkpt>
      <trkpt lat="47.30191" lon="-2.30824">
        <ele>-22.39999961853</ele>
        <time>2021-08-29T08:10:37.000Z</time>
      </trkpt>
      <trkpt lat="47.30213" lon="-2.30848">
        <ele>-22.39999961853</ele>
        <time>2021-08-29T08:10:42.000Z</time>
      </trkpt>
      <trkpt lat="47.30242" lon="-2.30878">
        <ele>-22</ele>
        <time>2021-08-29T08:10:48.000Z</time>
      </trkpt>
      <trkpt lat="47.30247" lon="-2.30883">
        <ele>-21.39999961853</ele>
        <time>2021-08-29T08:10:49.000Z</time>
      </trkpt>
      <trkpt lat="47.30252" lon="-2.30888">
        <ele>-21</ele>
        <time>2021-08-29T08:10:50.000Z</time>
      </trkpt>
      <trkpt lat="47.30256" lon="-2.30894">
        <ele>-20.60000038147</ele>
        <time>2021-08-29T08:10:51.000Z</time>
      </trkpt>
      <trkpt lat="47.3026" lon="-2.30899">
        <ele>-20.200000762939</ele>
        <time>2021-08-29T08:10:52.000Z</time>
      </trkpt>
      <trkpt lat="47.30272" lon="-2.30916">
        <ele>-20.200000762939</ele>
        <time>2021-08-29T08:10:55.000Z</time>
      </trkpt>
      <trkpt lat="47.30283" lon="-2.30931">
        <ele>-19.799999237061</ele>
        <time>2021-08-29T08:10:58.000Z</time>
      </trkpt>
      <trkpt lat="47.30287" lon="-2.30936">
        <ele>-19.39999961853</ele>
        <time>2021-08-29T08:10:59.000Z</time>
      </trkpt>
      <trkpt lat="47.3029" lon="-2.30942">
        <ele>-19</ele>
        <time>2021-08-29T08:11:00.000Z</time>
      </trkpt>
      <trkpt lat="47.30293" lon="-2.30947">
        <ele>-18.60000038147</ele>
        <time>2021-08-29T08:11:01.000Z</time>
      </trkpt>
      <trkpt lat="47.30297" lon="-2.30953">
        <ele>-18.200000762939</ele>
        <time>2021-08-29T08:11:02.000Z</time>
      </trkpt>
      <trkpt lat="47.30314" lon="-2.30979">
        <ele>-18.200000762939</ele>
        <time>2021-08-29T08:11:07.000Z</time>
      </trkpt>
      <trkpt lat="47.30318" lon="-2.30984">
        <ele>-17.799999237061</ele>
        <time>2021-08-29T08:11:08.000Z</time>
      </trkpt>
      <trkpt lat="47.30321" lon="-2.30988">
        <ele>-17.39999961853</ele>
        <time>2021-08-29T08:11:09.000Z</time>
      </trkpt>
      <trkpt lat="47.30324" lon="-2.30992">
        <ele>-17</ele>
        <time>2021-08-29T08:11:10.000Z</time>
      </trkpt>
      <trkpt lat="47.30328" lon="-2.30997">
        <ele>-16.39999961853</ele>
        <time>2021-08-29T08:11:11.000Z</time>
      </trkpt>
      <trkpt lat="47.3033" lon="-2.31001">
        <ele>-16</ele>
        <time>2021-08-29T08:11:12.000Z</time>
      </trkpt>
      <trkpt lat="47.30336" lon="-2.31009">
        <ele>-16</ele>
        <time>2021-08-29T08:11:14.000Z</time>
      </trkpt>
      <trkpt lat="47.30352" lon="-2.3103">
        <ele>-15.60000038147</ele>
        <time>2021-08-29T08:11:19.000Z</time>
      </trkpt>
      <trkpt lat="47.30356" lon="-2.31035">
        <ele>-14.800000190735</ele>
        <time>2021-08-29T08:11:20.000Z</time>
      </trkpt>
      <trkpt lat="47.3036" lon="-2.31039">
        <ele>-14.39999961853</ele>
        <time>2021-08-29T08:11:21.000Z</time>
      </trkpt>
      <trkpt lat="47.30364" lon="-2.31044">
        <ele>-14</ele>
        <time>2021-08-29T08:11:22.000Z</time>
      </trkpt>
      <trkpt lat="47.30386" lon="-2.31075">
        <ele>-14</ele>
        <time>2021-08-29T08:11:28.000Z</time>
      </trkpt>
      <trkpt lat="47.3039" lon="-2.3108">
        <ele>-14</ele>
        <time>2021-08-29T08:11:29.000Z</time>
      </trkpt>
      <trkpt lat="47.30399" lon="-2.31089">
        <ele>-13.39999961853</ele>
        <time>2021-08-29T08:11:31.000Z</time>
      </trkpt>
      <trkpt lat="47.30403" lon="-2.31093">
        <ele>-13</ele>
        <time>2021-08-29T08:11:32.000Z</time>
      </trkpt>
      <trkpt lat="47.30408" lon="-2.31097">
        <ele>-12.60000038147</ele>
        <time>2021-08-29T08:11:33.000Z</time>
      </trkpt>
      <trkpt lat="47.30413" lon="-2.311">
        <ele>-12</ele>
        <time>2021-08-29T08:11:34.000Z</time>
      </trkpt>
      <trkpt lat="47.30418" lon="-2.31104">
        <ele>-11.60000038147</ele>
        <time>2021-08-29T08:11:35.000Z</time>
      </trkpt>
      <trkpt lat="47.3044" lon="-2.31123">
        <ele>-11.60000038147</ele>
        <time>2021-08-29T08:11:40.000Z</time>
      </trkpt>
      <trkpt lat="47.30443" lon="-2.31129">
        <ele>-11.60000038147</ele>
        <time>2021-08-29T08:11:41.000Z</time>
      </trkpt>
      <trkpt lat="47.3045" lon="-2.31149">
        <ele>-11.60000038147</ele>
        <time>2021-08-29T08:11:44.000Z</time>
      </trkpt>
      <trkpt lat="47.30452" lon="-2.31157">
        <ele>-11.60000038147</ele>
        <time>2021-08-29T08:11:45.000Z</time>
      </trkpt>
      <trkpt lat="47.30459" lon="-2.31177">
        <ele>-11.60000038147</ele>
        <time>2021-08-29T08:11:48.000Z</time>
      </trkpt>
      <trkpt lat="47.30463" lon="-2.31192">
        <ele>-11.60000038147</ele>
        <time>2021-08-29T08:11:50.000Z</time>
      </trkpt>
      <trkpt lat="47.30484" lon="-2.31243">
        <ele>-11.60000038147</ele>
        <time>2021-08-29T08:11:57.000Z</time>
      </trkpt>
      <trkpt lat="47.30511" lon="-2.31289">
        <ele>-11.60000038147</ele>
        <time>2021-08-29T08:12:04.000Z</time>
      </trkpt>
      <trkpt lat="47.30539" lon="-2.31334">
        <ele>-11.60000038147</ele>
        <time>2021-08-29T08:12:11.000Z</time>
      </trkpt>
      <trkpt lat="47.3055" lon="-2.31352">
        <ele>-11.60000038147</ele>
        <time>2021-08-29T08:12:14.000Z</time>
      </trkpt>
      <trkpt lat="47.30566" lon="-2.31374">
        <ele>-11.60000038147</ele>
        <time>2021-08-29T08:12:18.000Z</time>
      </trkpt>
      <trkpt lat="47.30587" lon="-2.31416">
        <ele>-11.60000038147</ele>
        <time>2021-08-29T08:12:25.000Z</time>
      </trkpt>
      <trkpt lat="47.3061" lon="-2.31475">
        <ele>-11.60000038147</ele>
        <time>2021-08-29T08:12:34.000Z</time>
      </trkpt>
      <trkpt lat="47.30623" lon="-2.31507">
        <ele>-11.60000038147</ele>
        <time>2021-08-29T08:12:39.000Z</time>
      </trkpt>
      <trkpt lat="47.30628" lon="-2.3152">
        <ele>-11.60000038147</ele>
        <time>2021-08-29T08:12:41.000Z</time>
      </trkpt>
      <trkpt lat="47.30644" lon="-2.31562">
        <ele>-11.60000038147</ele>
        <time>2021-08-29T08:12:47.000Z</time>
      </trkpt>
      <trkpt lat="47.30666" lon="-2.31607">
        <ele>-12</ele>
        <time>2021-08-29T08:12:53.000Z</time>
      </trkpt>
      <trkpt lat="47.3067" lon="-2.31615">
        <ele>-12.39999961853</ele>
        <time>2021-08-29T08:12:54.000Z</time>
      </trkpt>
      <trkpt lat="47.30674" lon="-2.31624">
        <ele>-12.800000190735</ele>
        <time>2021-08-29T08:12:55.000Z</time>
      </trkpt>
      <trkpt lat="47.30678" lon="-2.31634">
        <ele>-13.199999809265</ele>
        <time>2021-08-29T08:12:56.000Z</time>
      </trkpt>
      <trkpt lat="47.30682" lon="-2.31644">
        <ele>-13.60000038147</ele>
        <time>2021-08-29T08:12:57.000Z</time>
      </trkpt>
      <trkpt lat="47.30685" lon="-2.31655">
        <ele>-13.60000038147</ele>
        <time>2021-08-29T08:12:58.000Z</time>
      </trkpt>
      <trkpt lat="47.30693" lon="-2.31674">
        <ele>-13.60000038147</ele>
        <time>2021-08-29T08:13:00.000Z</time>
      </trkpt>
      <trkpt lat="47.30701" lon="-2.31691">
        <ele>-13.60000038147</ele>
        <time>2021-08-29T08:13:02.000Z</time>
      </trkpt>
      <trkpt lat="47.30719" lon="-2.3174">
        <ele>-13.60000038147</ele>
        <time>2021-08-29T08:13:08.000Z</time>
      </trkpt>
      <trkpt lat="47.30722" lon="-2.31748">
        <ele>-13.60000038147</ele>
        <time>2021-08-29T08:13:09.000Z</time>
      </trkpt>
      <trkpt lat="47.3073" lon="-2.31758">
        <ele>-13.60000038147</ele>
        <time>2021-08-29T08:13:11.000Z</time>
      </trkpt>
      <trkpt lat="47.30743" lon="-2.31758">
        <ele>-13.60000038147</ele>
        <time>2021-08-29T08:13:14.000Z</time>
      </trkpt>
      <trkpt lat="47.30755" lon="-2.31749">
        <ele>-13.60000038147</ele>
        <time>2021-08-29T08:13:17.000Z</time>
      </trkpt>
      <trkpt lat="47.30758" lon="-2.31746">
        <ele>-13.60000038147</ele>
        <time>2021-08-29T08:13:18.000Z</time>
      </trkpt>
      <trkpt lat="47.30769" lon="-2.31733">
        <ele>-13.60000038147</ele>
        <time>2021-08-29T08:13:21.000Z</time>
      </trkpt>
      <trkpt lat="47.30776" lon="-2.31724">
        <ele>-13.60000038147</ele>
        <time>2021-08-29T08:13:23.000Z</time>
      </trkpt>
      <trkpt lat="47.3078" lon="-2.31719">
        <ele>-13.60000038147</ele>
        <time>2021-08-29T08:13:24.000Z</time>
      </trkpt>
      <trkpt lat="47.30806" lon="-2.31688">
        <ele>-13.199999809265</ele>
        <time>2021-08-29T08:13:31.000Z</time>
      </trkpt>
      <trkpt lat="47.30809" lon="-2.31684">
        <ele>-12.800000190735</ele>
        <time>2021-08-29T08:13:32.000Z</time>
      </trkpt>
      <trkpt lat="47.30813" lon="-2.31679">
        <ele>-12.39999961853</ele>
        <time>2021-08-29T08:13:33.000Z</time>
      </trkpt>
      <trkpt lat="47.30817" lon="-2.31675">
        <ele>-12</ele>
        <time>2021-08-29T08:13:34.000Z</time>
      </trkpt>
      <trkpt lat="47.30821" lon="-2.3167">
        <ele>-11.39999961853</ele>
        <time>2021-08-29T08:13:35.000Z</time>
      </trkpt>
      <trkpt lat="47.30829" lon="-2.31661">
        <ele>-11.39999961853</ele>
        <time>2021-08-29T08:13:37.000Z</time>
      </trkpt>
      <trkpt lat="47.30843" lon="-2.31646">
        <ele>-11.39999961853</ele>
        <time>2021-08-29T08:13:41.000Z</time>
      </trkpt>
      <trkpt lat="47.30848" lon="-2.31646">
        <ele>-11.39999961853</ele>
        <time>2021-08-29T08:13:42.000Z</time>
      </trkpt>
      <trkpt lat="47.30859" lon="-2.31654">
        <ele>-11.39999961853</ele>
        <time>2021-08-29T08:13:45.000Z</time>
      </trkpt>
      <trkpt lat="47.30866" lon="-2.31665">
        <ele>-11.39999961853</ele>
        <time>2021-08-29T08:13:47.000Z</time>
      </trkpt>
      <trkpt lat="47.30883" lon="-2.31686">
        <ele>-11.39999961853</ele>
        <time>2021-08-29T08:13:51.000Z</time>
      </trkpt>
      <trkpt lat="47.30887" lon="-2.31692">
        <ele>-11</ele>
        <time>2021-08-29T08:13:52.000Z</time>
      </trkpt>
      <trkpt lat="47.30891" lon="-2.31698">
        <ele>-10.60000038147</ele>
        <time>2021-08-29T08:13:53.000Z</time>
      </trkpt>
      <trkpt lat="47.30895" lon="-2.31703">
        <ele>-10.199999809265</ele>
        <time>2021-08-29T08:13:54.000Z</time>
      </trkpt>
      <trkpt lat="47.309" lon="-2.31709">
        <ele>-9.8000001907349</ele>
        <time>2021-08-29T08:13:55.000Z</time>
      </trkpt>
      <trkpt lat="47.30904" lon="-2.31714">
        <ele>-9.3999996185303</ele>
        <time>2021-08-29T08:13:56.000Z</time>
      </trkpt>
      <trkpt lat="47.30918" lon="-2.3173">
        <ele>-9.3999996185303</ele>
        <time>2021-08-29T08:13:59.000Z</time>
      </trkpt>
      <trkpt lat="47.30954" lon="-2.31772">
        <ele>-9.3999996185303</ele>
        <time>2021-08-29T08:14:07.000Z</time>
      </trkpt>
      <trkpt lat="47.30991" lon="-2.31813">
        <ele>-9.3999996185303</ele>
        <time>2021-08-29T08:14:15.000Z</time>
      </trkpt>
      <trkpt lat="47.30999" lon="-2.31822">
        <ele>-9.3999996185303</ele>
        <time>2021-08-29T08:14:17.000Z</time>
      </trkpt>
      <trkpt lat="47.31002" lon="-2.31834">
        <ele>-9.3999996185303</ele>
        <time>2021-08-29T08:14:19.000Z</time>
      </trkpt>
      <trkpt lat="47.31" lon="-2.31847">
        <ele>-9.3999996185303</ele>
        <time>2021-08-29T08:14:21.000Z</time>
      </trkpt>
      <trkpt lat="47.30998" lon="-2.31861">
        <ele>-9.3999996185303</ele>
        <time>2021-08-29T08:14:23.000Z</time>
      </trkpt>
      <trkpt lat="47.30995" lon="-2.31877">
        <ele>-9.8000001907349</ele>
        <time>2021-08-29T08:14:25.000Z</time>
      </trkpt>
      <trkpt lat="47.30993" lon="-2.31886">
        <ele>-10.199999809265</ele>
        <time>2021-08-29T08:14:26.000Z</time>
      </trkpt>
      <trkpt lat="47.30992" lon="-2.31894">
        <ele>-10.60000038147</ele>
        <time>2021-08-29T08:14:27.000Z</time>
      </trkpt>
      <trkpt lat="47.30991" lon="-2.31902">
        <ele>-11</ele>
        <time>2021-08-29T08:14:28.000Z</time>
      </trkpt>
      <trkpt lat="47.3099" lon="-2.3191">
        <ele>-11.39999961853</ele>
        <time>2021-08-29T08:14:29.000Z</time>
      </trkpt>
      <trkpt lat="47.30986" lon="-2.31925">
        <ele>-11.39999961853</ele>
        <time>2021-08-29T08:14:31.000Z</time>
      </trkpt>
      <trkpt lat="47.3098" lon="-2.31939">
        <ele>-11.39999961853</ele>
        <time>2021-08-29T08:14:33.000Z</time>
      </trkpt>
      <trkpt lat="47.30977" lon="-2.31946">
        <ele>-11.39999961853</ele>
        <time>2021-08-29T08:14:34.000Z</time>
      </trkpt>
      <trkpt lat="47.30976" lon="-2.31973">
        <ele>-11.39999961853</ele>
        <time>2021-08-29T08:14:37.000Z</time>
      </trkpt>
      <trkpt lat="47.3098" lon="-2.31995">
        <ele>-11.39999961853</ele>
        <time>2021-08-29T08:14:40.000Z</time>
      </trkpt>
      <trkpt lat="47.30982" lon="-2.32002">
        <ele>-11.39999961853</ele>
        <time>2021-08-29T08:14:41.000Z</time>
      </trkpt>
      <trkpt lat="47.30997" lon="-2.32046">
        <ele>-11.39999961853</ele>
        <time>2021-08-29T08:14:48.000Z</time>
      </trkpt>
      <trkpt lat="47.31013" lon="-2.32072">
        <ele>-11.39999961853</ele>
        <time>2021-08-29T08:14:53.000Z</time>
      </trkpt>
      <trkpt lat="47.31016" lon="-2.32077">
        <ele>-11</ele>
        <time>2021-08-29T08:14:54.000Z</time>
      </trkpt>
      <trkpt lat="47.31019" lon="-2.32082">
        <ele>-10.60000038147</ele>
        <time>2021-08-29T08:14:55.000Z</time>
      </trkpt>
      <trkpt lat="47.31022" lon="-2.32087">
        <ele>-10.199999809265</ele>
        <time>2021-08-29T08:14:56.000Z</time>
      </trkpt>
      <trkpt lat="47.31025" lon="-2.32093">
        <ele>-9.8000001907349</ele>
        <time>2021-08-29T08:14:57.000Z</time>
      </trkpt>
      <trkpt lat="47.31029" lon="-2.32098">
        <ele>-9.3999996185303</ele>
        <time>2021-08-29T08:14:58.000Z</time>
      </trkpt>
      <trkpt lat="47.31044" lon="-2.3212">
        <ele>-9.3999996185303</ele>
        <time>2021-08-29T08:15:02.000Z</time>
      </trkpt>
      <trkpt lat="47.31057" lon="-2.3214">
        <ele>-9.3999996185303</ele>
        <time>2021-08-29T08:15:06.000Z</time>
      </trkpt>
      <trkpt lat="47.31063" lon="-2.32152">
        <ele>-9</ele>
        <time>2021-08-29T08:15:08.000Z</time>
      </trkpt>
      <trkpt lat="47.31066" lon="-2.32158">
        <ele>-8.6000003814697</ele>
        <time>2021-08-29T08:15:09.000Z</time>
      </trkpt>
      <trkpt lat="47.3107" lon="-2.32164">
        <ele>-8.1999998092651</ele>
        <time>2021-08-29T08:15:10.000Z</time>
      </trkpt>
      <trkpt lat="47.31073" lon="-2.32169">
        <ele>-7.8000001907349</ele>
        <time>2021-08-29T08:15:11.000Z</time>
      </trkpt>
      <trkpt lat="47.31076" lon="-2.32174">
        <ele>-7.1999998092651</ele>
        <time>2021-08-29T08:15:12.000Z</time>
      </trkpt>
      <trkpt lat="47.31088" lon="-2.32197">
        <ele>-7.1999998092651</ele>
        <time>2021-08-29T08:15:16.000Z</time>
      </trkpt>
      <trkpt lat="47.31102" lon="-2.32237">
        <ele>-7.1999998092651</ele>
        <time>2021-08-29T08:15:23.000Z</time>
      </trkpt>
      <trkpt lat="47.31104" lon="-2.32242">
        <ele>-6.8000001907349</ele>
        <time>2021-08-29T08:15:24.000Z</time>
      </trkpt>
      <trkpt lat="47.31106" lon="-2.32247">
        <ele>-6.4000000953674</ele>
        <time>2021-08-29T08:15:25.000Z</time>
      </trkpt>
      <trkpt lat="47.31108" lon="-2.32251">
        <ele>-6</ele>
        <time>2021-08-29T08:15:26.000Z</time>
      </trkpt>
      <trkpt lat="47.3111" lon="-2.32256">
        <ele>-5</ele>
        <time>2021-08-29T08:15:27.000Z</time>
      </trkpt>
      <trkpt lat="47.31113" lon="-2.3226">
        <ele>-5</ele>
        <time>2021-08-29T08:15:28.000Z</time>
      </trkpt>
      <trkpt lat="47.31124" lon="-2.32279">
        <ele>-4.5999999046326</ele>
        <time>2021-08-29T08:15:32.000Z</time>
      </trkpt>
      <trkpt lat="47.31127" lon="-2.32285">
        <ele>-4.1999998092651</ele>
        <time>2021-08-29T08:15:33.000Z</time>
      </trkpt>
      <trkpt lat="47.31129" lon="-2.32289">
        <ele>-3.7999999523163</ele>
        <time>2021-08-29T08:15:34.000Z</time>
      </trkpt>
      <trkpt lat="47.31132" lon="-2.32294">
        <ele>-3.4000000953674</ele>
        <time>2021-08-29T08:15:35.000Z</time>
      </trkpt>
      <trkpt lat="47.31134" lon="-2.323">
        <ele>-2.7999999523163</ele>
        <time>2021-08-29T08:15:36.000Z</time>
      </trkpt>
      <trkpt lat="47.31141" lon="-2.32325">
        <ele>-2.7999999523163</ele>
        <time>2021-08-29T08:15:40.000Z</time>
      </trkpt>
      <trkpt lat="47.31144" lon="-2.32345">
        <ele>-2.7999999523163</ele>
        <time>2021-08-29T08:15:43.000Z</time>
      </trkpt>
      <trkpt lat="47.31145" lon="-2.32359">
        <ele>-2.7999999523163</ele>
        <time>2021-08-29T08:15:45.000Z</time>
      </trkpt>
      <trkpt lat="47.31146" lon="-2.32365">
        <ele>-2.7999999523163</ele>
        <time>2021-08-29T08:15:46.000Z</time>
      </trkpt>
      <trkpt lat="47.31146" lon="-2.32397">
        <ele>-2.4000000953674</ele>
        <time>2021-08-29T08:15:51.000Z</time>
      </trkpt>
      <trkpt lat="47.31146" lon="-2.32404">
        <ele>-1.6000000238419</ele>
        <time>2021-08-29T08:15:52.000Z</time>
      </trkpt>
      <trkpt lat="47.31148" lon="-2.3241">
        <ele>-1.2000000476837</ele>
        <time>2021-08-29T08:15:53.000Z</time>
      </trkpt>
      <trkpt lat="47.31151" lon="-2.32414">
        <ele>-0.60000002384186</ele>
        <time>2021-08-29T08:15:54.000Z</time>
      </trkpt>
      <trkpt lat="47.31158" lon="-2.32419">
        <ele>-0.60000002384186</ele>
        <time>2021-08-29T08:15:56.000Z</time>
      </trkpt>
      <trkpt lat="47.31164" lon="-2.3242">
        <ele>-0.60000002384186</ele>
        <time>2021-08-29T08:15:58.000Z</time>
      </trkpt>
      <trkpt lat="47.31175" lon="-2.32427">
        <ele>-0.60000002384186</ele>
        <time>2021-08-29T08:16:01.000Z</time>
      </trkpt>
      <trkpt lat="47.31179" lon="-2.32433">
        <ele>-0.60000002384186</ele>
        <time>2021-08-29T08:16:05.000Z</time>
      </trkpt>
      <trkpt lat="47.3118" lon="-2.32439">
        <ele>-0.60000002384186</ele>
        <time>2021-08-29T08:16:25.000Z</time>
      </trkpt>
      <trkpt lat="47.31179" lon="-2.32449">
        <ele>-0.60000002384186</ele>
        <time>2021-08-29T08:16:28.000Z</time>
      </trkpt>
      <trkpt lat="47.31178" lon="-2.32453">
        <ele>-0.60000002384186</ele>
        <time>2021-08-29T08:16:29.000Z</time>
      </trkpt>
      <trkpt lat="47.3118" lon="-2.32479">
        <ele>-0.60000002384186</ele>
        <time>2021-08-29T08:16:34.000Z</time>
      </trkpt>
      <trkpt lat="47.31179" lon="-2.32526">
        <ele>-0.60000002384186</ele>
        <time>2021-08-29T08:16:41.000Z</time>
      </trkpt>
      <trkpt lat="47.31179" lon="-2.32545">
        <ele>-0.60000002384186</ele>
        <time>2021-08-29T08:16:44.000Z</time>
      </trkpt>
      <trkpt lat="47.31178" lon="-2.32565">
        <ele>-0.60000002384186</ele>
        <time>2021-08-29T08:16:47.000Z</time>
      </trkpt>
      <trkpt lat="47.31178" lon="-2.32579">
        <ele>-0.20000000298023</ele>
        <time>2021-08-29T08:16:49.000Z</time>
      </trkpt>
      <trkpt lat="47.31178" lon="-2.32586">
        <ele>0.20000000298023</ele>
        <time>2021-08-29T08:16:50.000Z</time>
      </trkpt>
      <trkpt lat="47.31178" lon="-2.32593">
        <ele>0.60000002384186</ele>
        <time>2021-08-29T08:16:51.000Z</time>
      </trkpt>
      <trkpt lat="47.31179" lon="-2.32599">
        <ele>1</ele>
        <time>2021-08-29T08:16:52.000Z</time>
      </trkpt>
      <trkpt lat="47.31179" lon="-2.32606">
        <ele>1.3999999761581</ele>
        <time>2021-08-29T08:16:53.000Z</time>
      </trkpt>
      <trkpt lat="47.3118" lon="-2.3262">
        <ele>1.3999999761581</ele>
        <time>2021-08-29T08:16:55.000Z</time>
      </trkpt>
      <trkpt lat="47.31181" lon="-2.32627">
        <ele>1.3999999761581</ele>
        <time>2021-08-29T08:16:56.000Z</time>
      </trkpt>
      <trkpt lat="47.31182" lon="-2.32634">
        <ele>1.3999999761581</ele>
        <time>2021-08-29T08:16:57.000Z</time>
      </trkpt>
      <trkpt lat="47.31188" lon="-2.32653">
        <ele>1.3999999761581</ele>
        <time>2021-08-29T08:17:00.000Z</time>
      </trkpt>
      <trkpt lat="47.31191" lon="-2.3266">
        <ele>1.3999999761581</ele>
        <time>2021-08-29T08:17:01.000Z</time>
      </trkpt>
      <trkpt lat="47.31204" lon="-2.32699">
        <ele>1.3999999761581</ele>
        <time>2021-08-29T08:17:07.000Z</time>
      </trkpt>
      <trkpt lat="47.31211" lon="-2.32725">
        <ele>1.3999999761581</ele>
        <time>2021-08-29T08:17:11.000Z</time>
      </trkpt>
      <trkpt lat="47.31217" lon="-2.32734">
        <ele>1.3999999761581</ele>
        <time>2021-08-29T08:17:13.000Z</time>
      </trkpt>
      <trkpt lat="47.31226" lon="-2.3274">
        <ele>1.3999999761581</ele>
        <time>2021-08-29T08:17:15.000Z</time>
      </trkpt>
      <trkpt lat="47.3123" lon="-2.32743">
        <ele>1.3999999761581</ele>
        <time>2021-08-29T08:17:16.000Z</time>
      </trkpt>
      <trkpt lat="47.3124" lon="-2.32749">
        <ele>1.3999999761581</ele>
        <time>2021-08-29T08:17:18.000Z</time>
      </trkpt>
      <trkpt lat="47.31272" lon="-2.32769">
        <ele>1.3999999761581</ele>
        <time>2021-08-29T08:17:24.000Z</time>
      </trkpt>
      <trkpt lat="47.31278" lon="-2.32773">
        <ele>1.3999999761581</ele>
        <time>2021-08-29T08:17:25.000Z</time>
      </trkpt>
      <trkpt lat="47.31291" lon="-2.32793">
        <ele>1.3999999761581</ele>
        <time>2021-08-29T08:17:28.000Z</time>
      </trkpt>
      <trkpt lat="47.31295" lon="-2.32801">
        <ele>1.3999999761581</ele>
        <time>2021-08-29T08:17:29.000Z</time>
      </trkpt>
      <trkpt lat="47.31322" lon="-2.32844">
        <ele>1.3999999761581</ele>
        <time>2021-08-29T08:17:35.000Z</time>
      </trkpt>
      <trkpt lat="47.31353" lon="-2.32885">
        <ele>1.3999999761581</ele>
        <time>2021-08-29T08:17:42.000Z</time>
      </trkpt>
      <trkpt lat="47.31356" lon="-2.32891">
        <ele>1.3999999761581</ele>
        <time>2021-08-29T08:17:43.000Z</time>
      </trkpt>
      <trkpt lat="47.31358" lon="-2.32905">
        <ele>1.3999999761581</ele>
        <time>2021-08-29T08:17:45.000Z</time>
      </trkpt>
      <trkpt lat="47.31353" lon="-2.32922">
        <ele>1.3999999761581</ele>
        <time>2021-08-29T08:17:48.000Z</time>
      </trkpt>
      <trkpt lat="47.3135" lon="-2.32928">
        <ele>1.3999999761581</ele>
        <time>2021-08-29T08:17:49.000Z</time>
      </trkpt>
      <trkpt lat="47.31337" lon="-2.32948">
        <ele>1.3999999761581</ele>
        <time>2021-08-29T08:17:52.000Z</time>
      </trkpt>
      <trkpt lat="47.31305" lon="-2.33007">
        <ele>1.3999999761581</ele>
        <time>2021-08-29T08:18:00.000Z</time>
      </trkpt>
      <trkpt lat="47.31283" lon="-2.3304">
        <ele>1.3999999761581</ele>
        <time>2021-08-29T08:18:05.000Z</time>
      </trkpt>
      <trkpt lat="47.3128" lon="-2.33045">
        <ele>1.3999999761581</ele>
        <time>2021-08-29T08:18:06.000Z</time>
      </trkpt>
      <trkpt lat="47.31259" lon="-2.33091">
        <ele>1.3999999761581</ele>
        <time>2021-08-29T08:18:13.000Z</time>
      </trkpt>
      <trkpt lat="47.31242" lon="-2.33128">
        <ele>1.3999999761581</ele>
        <time>2021-08-29T08:18:19.000Z</time>
      </trkpt>
      <trkpt lat="47.3124" lon="-2.33134">
        <ele>1.3999999761581</ele>
        <time>2021-08-29T08:18:20.000Z</time>
      </trkpt>
      <trkpt lat="47.31241" lon="-2.33144">
        <ele>1.3999999761581</ele>
        <time>2021-08-29T08:18:22.000Z</time>
      </trkpt>
      <trkpt lat="47.31249" lon="-2.33151">
        <ele>1.3999999761581</ele>
        <time>2021-08-29T08:18:25.000Z</time>
      </trkpt>
      <trkpt lat="47.31253" lon="-2.33151">
        <ele>1.3999999761581</ele>
        <time>2021-08-29T08:18:26.000Z</time>
      </trkpt>
      <trkpt lat="47.31276" lon="-2.33158">
        <ele>1.3999999761581</ele>
        <time>2021-08-29T08:18:31.000Z</time>
      </trkpt>
      <trkpt lat="47.3129" lon="-2.33165">
        <ele>1.3999999761581</ele>
        <time>2021-08-29T08:18:34.000Z</time>
      </trkpt>
      <trkpt lat="47.31303" lon="-2.33175">
        <ele>1.3999999761581</ele>
        <time>2021-08-29T08:18:37.000Z</time>
      </trkpt>
      <trkpt lat="47.31308" lon="-2.33178">
        <ele>1.3999999761581</ele>
        <time>2021-08-29T08:18:38.000Z</time>
      </trkpt>
      <trkpt lat="47.31329" lon="-2.332">
        <ele>1.3999999761581</ele>
        <time>2021-08-29T08:18:43.000Z</time>
      </trkpt>
      <trkpt lat="47.31333" lon="-2.33204">
        <ele>1.3999999761581</ele>
        <time>2021-08-29T08:18:44.000Z</time>
      </trkpt>
      <trkpt lat="47.31356" lon="-2.33223">
        <ele>1.3999999761581</ele>
        <time>2021-08-29T08:18:49.000Z</time>
      </trkpt>
      <trkpt lat="47.31365" lon="-2.33229">
        <ele>1.7999999523163</ele>
        <time>2021-08-29T08:18:51.000Z</time>
      </trkpt>
      <trkpt lat="47.3137" lon="-2.33233">
        <ele>2.2000000476837</ele>
        <time>2021-08-29T08:18:52.000Z</time>
      </trkpt>
      <trkpt lat="47.31375" lon="-2.33236">
        <ele>2.5999999046326</ele>
        <time>2021-08-29T08:18:53.000Z</time>
      </trkpt>
      <trkpt lat="47.3138" lon="-2.33239">
        <ele>3</ele>
        <time>2021-08-29T08:18:54.000Z</time>
      </trkpt>
      <trkpt lat="47.31385" lon="-2.33242">
        <ele>3.4000000953674</ele>
        <time>2021-08-29T08:18:55.000Z</time>
      </trkpt>
      <trkpt lat="47.31399" lon="-2.33253">
        <ele>3.4000000953674</ele>
        <time>2021-08-29T08:18:58.000Z</time>
      </trkpt>
      <trkpt lat="47.31438" lon="-2.33285">
        <ele>3.4000000953674</ele>
        <time>2021-08-29T08:19:06.000Z</time>
      </trkpt>
      <trkpt lat="47.31453" lon="-2.33307">
        <ele>3.4000000953674</ele>
        <time>2021-08-29T08:19:10.000Z</time>
      </trkpt>
      <trkpt lat="47.31459" lon="-2.3332">
        <ele>3.4000000953674</ele>
        <time>2021-08-29T08:19:12.000Z</time>
      </trkpt>
      <trkpt lat="47.31482" lon="-2.33365">
        <ele>3.4000000953674</ele>
        <time>2021-08-29T08:19:19.000Z</time>
      </trkpt>
      <trkpt lat="47.31492" lon="-2.33365">
        <ele>3.4000000953674</ele>
        <time>2021-08-29T08:19:21.000Z</time>
      </trkpt>
      <trkpt lat="47.31497" lon="-2.33363">
        <ele>3.7999999523163</ele>
        <time>2021-08-29T08:19:22.000Z</time>
      </trkpt>
      <trkpt lat="47.31502" lon="-2.33361">
        <ele>4.4000000953674</ele>
        <time>2021-08-29T08:19:23.000Z</time>
      </trkpt>
      <trkpt lat="47.31507" lon="-2.33358">
        <ele>4.8000001907349</ele>
        <time>2021-08-29T08:19:24.000Z</time>
      </trkpt>
      <trkpt lat="47.31512" lon="-2.33355">
        <ele>5.1999998092651</ele>
        <time>2021-08-29T08:19:25.000Z</time>
      </trkpt>
      <trkpt lat="47.31517" lon="-2.33351">
        <ele>5.5999999046326</ele>
        <time>2021-08-29T08:19:26.000Z</time>
      </trkpt>
      <trkpt lat="47.31562" lon="-2.33329">
        <ele>5.5999999046326</ele>
        <time>2021-08-29T08:19:35.000Z</time>
      </trkpt>
      <trkpt lat="47.31592" lon="-2.33314">
        <ele>5.5999999046326</ele>
        <time>2021-08-29T08:19:41.000Z</time>
      </trkpt>
      <trkpt lat="47.3163" lon="-2.33293">
        <ele>5.5999999046326</ele>
        <time>2021-08-29T08:19:48.000Z</time>
      </trkpt>
      <trkpt lat="47.31661" lon="-2.33276">
        <ele>5.5999999046326</ele>
        <time>2021-08-29T08:19:54.000Z</time>
      </trkpt>
      <trkpt lat="47.31684" lon="-2.33267">
        <ele>5.5999999046326</ele>
        <time>2021-08-29T08:19:58.000Z</time>
      </trkpt>
      <trkpt lat="47.31695" lon="-2.33262">
        <ele>5.5999999046326</ele>
        <time>2021-08-29T08:20:00.000Z</time>
      </trkpt>
      <trkpt lat="47.31724" lon="-2.3325">
        <ele>5</ele>
        <time>2021-08-29T08:20:05.000Z</time>
      </trkpt>
      <trkpt lat="47.3173" lon="-2.33247">
        <ele>4.5999999046326</ele>
        <time>2021-08-29T08:20:06.000Z</time>
      </trkpt>
      <trkpt lat="47.31736" lon="-2.33245">
        <ele>4.1999998092651</ele>
        <time>2021-08-29T08:20:07.000Z</time>
      </trkpt>
      <trkpt lat="47.31741" lon="-2.33245">
        <ele>3.7999999523163</ele>
        <time>2021-08-29T08:20:08.000Z</time>
      </trkpt>
      <trkpt lat="47.31745" lon="-2.33247">
        <ele>3.2000000476837</ele>
        <time>2021-08-29T08:20:09.000Z</time>
      </trkpt>
      <trkpt lat="47.31751" lon="-2.33254">
        <ele>2.7999999523163</ele>
        <time>2021-08-29T08:20:11.000Z</time>
      </trkpt>
      <trkpt lat="47.31754" lon="-2.33259">
        <ele>2.4000000953674</ele>
        <time>2021-08-29T08:20:12.000Z</time>
      </trkpt>
      <trkpt lat="47.31756" lon="-2.33264">
        <ele>2</ele>
        <time>2021-08-29T08:20:13.000Z</time>
      </trkpt>
      <trkpt lat="47.31757" lon="-2.33269">
        <ele>1.6000000238419</ele>
        <time>2021-08-29T08:20:14.000Z</time>
      </trkpt>
      <trkpt lat="47.31759" lon="-2.33275">
        <ele>1.2000000476837</ele>
        <time>2021-08-29T08:20:15.000Z</time>
      </trkpt>
      <trkpt lat="47.31763" lon="-2.33289">
        <ele>1.2000000476837</ele>
        <time>2021-08-29T08:20:17.000Z</time>
      </trkpt>
      <trkpt lat="47.31772" lon="-2.33311">
        <ele>1.2000000476837</ele>
        <time>2021-08-29T08:20:20.000Z</time>
      </trkpt>
      <trkpt lat="47.31779" lon="-2.33319">
        <ele>1.2000000476837</ele>
        <time>2021-08-29T08:20:22.000Z</time>
      </trkpt>
      <trkpt lat="47.31788" lon="-2.33315">
        <ele>0.80000001192093</ele>
        <time>2021-08-29T08:20:24.000Z</time>
      </trkpt>
      <trkpt lat="47.31793" lon="-2.33312">
        <ele>0.40000000596046</ele>
        <time>2021-08-29T08:20:25.000Z</time>
      </trkpt>
      <trkpt lat="47.31798" lon="-2.33309">
        <ele>24</ele>
        <time>2021-08-29T08:20:26.000Z</time>
      </trkpt>
      <trkpt lat="47.31803" lon="-2.33306">
        <ele>-0.40000000596046</ele>
        <time>2021-08-29T08:20:27.000Z</time>
      </trkpt>
      <trkpt lat="47.31809" lon="-2.33302">
        <ele>-0.80000001192093</ele>
        <time>2021-08-29T08:20:28.000Z</time>
      </trkpt>
      <trkpt lat="47.31814" lon="-2.33298">
        <ele>-1.3999999761581</ele>
        <time>2021-08-29T08:20:29.000Z</time>
      </trkpt>
      <trkpt lat="47.3182" lon="-2.33293">
        <ele>-1.7999999523163</ele>
        <time>2021-08-29T08:20:30.000Z</time>
      </trkpt>
      <trkpt lat="47.31825" lon="-2.33289">
        <ele>-2.2000000476837</ele>
        <time>2021-08-29T08:20:31.000Z</time>
      </trkpt>
      <trkpt lat="47.3183" lon="-2.33285">
        <ele>-2.7999999523163</ele>
        <time>2021-08-29T08:20:32.000Z</time>
      </trkpt>
      <trkpt lat="47.31834" lon="-2.33279">
        <ele>-3.2000000476837</ele>
        <time>2021-08-29T08:20:33.000Z</time>
      </trkpt>
      <trkpt lat="47.31843" lon="-2.33266">
        <ele>-3.2000000476837</ele>
        <time>2021-08-29T08:20:35.000Z</time>
      </trkpt>
      <trkpt lat="47.31851" lon="-2.33251">
        <ele>-3.5999999046326</ele>
        <time>2021-08-29T08:20:37.000Z</time>
      </trkpt>
      <trkpt lat="47.31854" lon="-2.33244">
        <ele>-4</ele>
        <time>2021-08-29T08:20:38.000Z</time>
      </trkpt>
      <trkpt lat="47.31856" lon="-2.33236">
        <ele>-4.4000000953674</ele>
        <time>2021-08-29T08:20:39.000Z</time>
      </trkpt>
      <trkpt lat="47.31859" lon="-2.33227">
        <ele>-4.8000001907349</ele>
        <time>2021-08-29T08:20:40.000Z</time>
      </trkpt>
      <trkpt lat="47.31861" lon="-2.33219">
        <ele>-5.1999998092651</ele>
        <time>2021-08-29T08:20:41.000Z</time>
      </trkpt>
      <trkpt lat="47.31863" lon="-2.33209">
        <ele>-5.1999998092651</ele>
        <time>2021-08-29T08:20:42.000Z</time>
      </trkpt>
      <trkpt lat="47.31867" lon="-2.33189">
        <ele>-5.1999998092651</ele>
        <time>2021-08-29T08:20:44.000Z</time>
      </trkpt>
      <trkpt lat="47.31874" lon="-2.3315">
        <ele>-6</ele>
        <time>2021-08-29T08:20:48.000Z</time>
      </trkpt>
      <trkpt lat="47.31876" lon="-2.33139">
        <ele>-6.4000000953674</ele>
        <time>2021-08-29T08:20:49.000Z</time>
      </trkpt>
      <trkpt lat="47.31878" lon="-2.33128">
        <ele>-7</ele>
        <time>2021-08-29T08:20:50.000Z</time>
      </trkpt>
      <trkpt lat="47.3188" lon="-2.33116">
        <ele>-7.4000000953674</ele>
        <time>2021-08-29T08:20:51.000Z</time>
      </trkpt>
      <trkpt lat="47.31884" lon="-2.33094">
        <ele>-7.8000001907349</ele>
        <time>2021-08-29T08:20:53.000Z</time>
      </trkpt>
      <trkpt lat="47.31886" lon="-2.33082">
        <ele>-8.1999998092651</ele>
        <time>2021-08-29T08:20:54.000Z</time>
      </trkpt>
      <trkpt lat="47.31887" lon="-2.3307">
        <ele>-8.6000003814697</ele>
        <time>2021-08-29T08:20:55.000Z</time>
      </trkpt>
      <trkpt lat="47.31888" lon="-2.33058">
        <ele>-9</ele>
        <time>2021-08-29T08:20:56.000Z</time>
      </trkpt>
      <trkpt lat="47.31889" lon="-2.33047">
        <ele>-9.3999996185303</ele>
        <time>2021-08-29T08:20:57.000Z</time>
      </trkpt>
      <trkpt lat="47.31889" lon="-2.33026">
        <ele>-9.3999996185303</ele>
        <time>2021-08-29T08:20:59.000Z</time>
      </trkpt>
      <trkpt lat="47.31886" lon="-2.33008">
        <ele>-9.3999996185303</ele>
        <time>2021-08-29T08:21:01.000Z</time>
      </trkpt>
      <trkpt lat="47.31884" lon="-2.32989">
        <ele>-10</ele>
        <time>2021-08-29T08:21:03.000Z</time>
      </trkpt>
      <trkpt lat="47.31885" lon="-2.3298">
        <ele>-10.39999961853</ele>
        <time>2021-08-29T08:21:04.000Z</time>
      </trkpt>
      <trkpt lat="47.31886" lon="-2.32971">
        <ele>-10.800000190735</ele>
        <time>2021-08-29T08:21:05.000Z</time>
      </trkpt>
      <trkpt lat="47.31887" lon="-2.32961">
        <ele>-11.199999809265</ele>
        <time>2021-08-29T08:21:06.000Z</time>
      </trkpt>
      <trkpt lat="47.31889" lon="-2.32952">
        <ele>-11.800000190735</ele>
        <time>2021-08-29T08:21:07.000Z</time>
      </trkpt>
      <trkpt lat="47.31892" lon="-2.32908">
        <ele>-11.39999961853</ele>
        <time>2021-08-29T08:21:12.000Z</time>
      </trkpt>
      <trkpt lat="47.31891" lon="-2.32898">
        <ele>-10.39999961853</ele>
        <time>2021-08-29T08:21:13.000Z</time>
      </trkpt>
      <trkpt lat="47.31891" lon="-2.32888">
        <ele>-10</ele>
        <time>2021-08-29T08:21:14.000Z</time>
      </trkpt>
      <trkpt lat="47.31892" lon="-2.32879">
        <ele>-9.3999996185303</ele>
        <time>2021-08-29T08:21:15.000Z</time>
      </trkpt>
      <trkpt lat="47.31891" lon="-2.32858">
        <ele>-9.3999996185303</ele>
        <time>2021-08-29T08:21:17.000Z</time>
      </trkpt>
      <trkpt lat="47.31887" lon="-2.32789">
        <ele>-9.3999996185303</ele>
        <time>2021-08-29T08:21:25.000Z</time>
      </trkpt>
      <trkpt lat="47.31884" lon="-2.32764">
        <ele>-9.3999996185303</ele>
        <time>2021-08-29T08:21:28.000Z</time>
      </trkpt>
      <trkpt lat="47.31882" lon="-2.32757">
        <ele>-9.3999996185303</ele>
        <time>2021-08-29T08:21:29.000Z</time>
      </trkpt>
      <trkpt lat="47.31869" lon="-2.32728">
        <ele>-9.3999996185303</ele>
        <time>2021-08-29T08:21:33.000Z</time>
      </trkpt>
      <trkpt lat="47.31866" lon="-2.32721">
        <ele>-9.3999996185303</ele>
        <time>2021-08-29T08:21:34.000Z</time>
      </trkpt>
      <trkpt lat="47.31849" lon="-2.32684">
        <ele>-9.3999996185303</ele>
        <time>2021-08-29T08:21:40.000Z</time>
      </trkpt>
      <trkpt lat="47.31841" lon="-2.32662">
        <ele>-9</ele>
        <time>2021-08-29T08:21:43.000Z</time>
      </trkpt>
      <trkpt lat="47.31839" lon="-2.32654">
        <ele>-8.6000003814697</ele>
        <time>2021-08-29T08:21:44.000Z</time>
      </trkpt>
      <trkpt lat="47.31837" lon="-2.32646">
        <ele>-8.1999998092651</ele>
        <time>2021-08-29T08:21:45.000Z</time>
      </trkpt>
      <trkpt lat="47.31835" lon="-2.32639">
        <ele>-7.8000001907349</ele>
        <time>2021-08-29T08:21:46.000Z</time>
      </trkpt>
      <trkpt lat="47.31833" lon="-2.32631">
        <ele>-7.4000000953674</ele>
        <time>2021-08-29T08:21:47.000Z</time>
      </trkpt>
      <trkpt lat="47.31821" lon="-2.32579">
        <ele>-7.4000000953674</ele>
        <time>2021-08-29T08:21:54.000Z</time>
      </trkpt>
      <trkpt lat="47.31814" lon="-2.32552">
        <ele>-7</ele>
        <time>2021-08-29T08:21:58.000Z</time>
      </trkpt>
      <trkpt lat="47.31812" lon="-2.32546">
        <ele>-6.5999999046326</ele>
        <time>2021-08-29T08:21:59.000Z</time>
      </trkpt>
      <trkpt lat="47.31811" lon="-2.3254">
        <ele>-6.1999998092651</ele>
        <time>2021-08-29T08:22:00.000Z</time>
      </trkpt>
      <trkpt lat="47.3181" lon="-2.32534">
        <ele>-5.8000001907349</ele>
        <time>2021-08-29T08:22:01.000Z</time>
      </trkpt>
      <trkpt lat="47.31808" lon="-2.32528">
        <ele>-5.4000000953674</ele>
        <time>2021-08-29T08:22:02.000Z</time>
      </trkpt>
      <trkpt lat="47.31802" lon="-2.32496">
        <ele>-5.4000000953674</ele>
        <time>2021-08-29T08:22:07.000Z</time>
      </trkpt>
      <trkpt lat="47.31798" lon="-2.3248">
        <ele>-5</ele>
        <time>2021-08-29T08:22:10.000Z</time>
      </trkpt>
      <trkpt lat="47.31797" lon="-2.32476">
        <ele>-4.5999999046326</ele>
        <time>2021-08-29T08:22:11.000Z</time>
      </trkpt>
      <trkpt lat="47.31796" lon="-2.32472">
        <ele>-4</ele>
        <time>2021-08-29T08:22:12.000Z</time>
      </trkpt>
      <trkpt lat="47.31794" lon="-2.32469">
        <ele>-3.5999999046326</ele>
        <time>2021-08-29T08:22:13.000Z</time>
      </trkpt>
      <trkpt lat="47.31792" lon="-2.32465">
        <ele>-3.2000000476837</ele>
        <time>2021-08-29T08:22:14.000Z</time>
      </trkpt>
      <trkpt lat="47.31791" lon="-2.3246">
        <ele>-2.7999999523163</ele>
        <time>2021-08-29T08:22:15.000Z</time>
      </trkpt>
      <trkpt lat="47.31789" lon="-2.32453">
        <ele>-2.4000000953674</ele>
        <time>2021-08-29T08:22:16.000Z</time>
      </trkpt>
      <trkpt lat="47.31788" lon="-2.32447">
        <ele>-2</ele>
        <time>2021-08-29T08:22:17.000Z</time>
      </trkpt>
      <trkpt lat="47.31788" lon="-2.32441">
        <ele>-1.6000000238419</ele>
        <time>2021-08-29T08:22:18.000Z</time>
      </trkpt>
      <trkpt lat="47.31787" lon="-2.32435">
        <ele>-1.2000000476837</ele>
        <time>2021-08-29T08:22:19.000Z</time>
      </trkpt>
      <trkpt lat="47.31779" lon="-2.32395">
        <ele>-0.80000001192093</ele>
        <time>2021-08-29T08:22:26.000Z</time>
      </trkpt>
      <trkpt lat="47.31778" lon="-2.3239">
        <ele>-0.20000000298023</ele>
        <time>2021-08-29T08:22:27.000Z</time>
      </trkpt>
      <trkpt lat="47.31777" lon="-2.32385">
        <ele>0.60000002384186</ele>
        <time>2021-08-29T08:22:28.000Z</time>
      </trkpt>
      <trkpt lat="47.31776" lon="-2.3238">
        <ele>1</ele>
        <time>2021-08-29T08:22:29.000Z</time>
      </trkpt>
      <trkpt lat="47.31772" lon="-2.3236">
        <ele>1</ele>
        <time>2021-08-29T08:22:33.000Z</time>
      </trkpt>
      <trkpt lat="47.31763" lon="-2.32315">
        <ele>1</ele>
        <time>2021-08-29T08:22:41.000Z</time>
      </trkpt>
      <trkpt lat="47.31756" lon="-2.32275">
        <ele>1</ele>
        <time>2021-08-29T08:22:48.000Z</time>
      </trkpt>
      <trkpt lat="47.31752" lon="-2.32256">
        <ele>1.3999999761581</ele>
        <time>2021-08-29T08:22:52.000Z</time>
      </trkpt>
      <trkpt lat="47.31751" lon="-2.32252">
        <ele>2.2000000476837</ele>
        <time>2021-08-29T08:22:53.000Z</time>
      </trkpt>
      <trkpt lat="47.3175" lon="-2.32248">
        <ele>2.7999999523163</ele>
        <time>2021-08-29T08:22:54.000Z</time>
      </trkpt>
      <trkpt lat="47.3175" lon="-2.32244">
        <ele>3.2000000476837</ele>
        <time>2021-08-29T08:22:55.000Z</time>
      </trkpt>
      <trkpt lat="47.31751" lon="-2.32236">
        <ele>3.2000000476837</ele>
        <time>2021-08-29T08:22:58.000Z</time>
      </trkpt>
      <trkpt lat="47.31752" lon="-2.32235">
        <ele>3.2000000476837</ele>
        <time>2021-08-29T08:22:59.000Z</time>
      </trkpt>
      <trkpt lat="47.31765" lon="-2.3223">
        <ele>3.2000000476837</ele>
        <time>2021-08-29T08:23:03.000Z</time>
      </trkpt>
      <trkpt lat="47.31786" lon="-2.32226">
        <ele>3.2000000476837</ele>
        <time>2021-08-29T08:23:08.000Z</time>
      </trkpt>
      <trkpt lat="47.31796" lon="-2.32225">
        <ele>3.2000000476837</ele>
        <time>2021-08-29T08:23:10.000Z</time>
      </trkpt>
      <trkpt lat="47.31801" lon="-2.32224">
        <ele>3.2000000476837</ele>
        <time>2021-08-29T08:23:11.000Z</time>
      </trkpt>
      <trkpt lat="47.31826" lon="-2.3222">
        <ele>2.7999999523163</ele>
        <time>2021-08-29T08:23:16.000Z</time>
      </trkpt>
      <trkpt lat="47.31832" lon="-2.32218">
        <ele>2</ele>
        <time>2021-08-29T08:23:17.000Z</time>
      </trkpt>
      <trkpt lat="47.31838" lon="-2.32216">
        <ele>1.6000000238419</ele>
        <time>2021-08-29T08:23:18.000Z</time>
      </trkpt>
      <trkpt lat="47.31844" lon="-2.32214">
        <ele>1</ele>
        <time>2021-08-29T08:23:19.000Z</time>
      </trkpt>
      <trkpt lat="47.31858" lon="-2.32209">
        <ele>0.60000002384186</ele>
        <time>2021-08-29T08:23:21.000Z</time>
      </trkpt>
      <trkpt lat="47.31866" lon="-2.32206">
        <ele>0.20000000298023</ele>
        <time>2021-08-29T08:23:22.000Z</time>
      </trkpt>
      <trkpt lat="47.31874" lon="-2.32204">
        <ele>-0.20000000298023</ele>
        <time>2021-08-29T08:23:23.000Z</time>
      </trkpt>
      <trkpt lat="47.31882" lon="-2.32203">
        <ele>-0.60000002384186</ele>
        <time>2021-08-29T08:23:24.000Z</time>
      </trkpt>
      <trkpt lat="47.3189" lon="-2.32202">
        <ele>-1.2000000476837</ele>
        <time>2021-08-29T08:23:25.000Z</time>
      </trkpt>
      <trkpt lat="47.31905" lon="-2.32202">
        <ele>-1.6000000238419</ele>
        <time>2021-08-29T08:23:27.000Z</time>
      </trkpt>
      <trkpt lat="47.31913" lon="-2.32203">
        <ele>-2</ele>
        <time>2021-08-29T08:23:28.000Z</time>
      </trkpt>
      <trkpt lat="47.31922" lon="-2.32204">
        <ele>-2.4000000953674</ele>
        <time>2021-08-29T08:23:29.000Z</time>
      </trkpt>
      <trkpt lat="47.3193" lon="-2.32206">
        <ele>-3</ele>
        <time>2021-08-29T08:23:30.000Z</time>
      </trkpt>
      <trkpt lat="47.31937" lon="-2.32208">
        <ele>-3.5999999046326</ele>
        <time>2021-08-29T08:23:31.000Z</time>
      </trkpt>
      <trkpt lat="47.31943" lon="-2.3221">
        <ele>-4.1999998092651</ele>
        <time>2021-08-29T08:23:32.000Z</time>
      </trkpt>
      <trkpt lat="47.31949" lon="-2.32212">
        <ele>-4.8000001907349</ele>
        <time>2021-08-29T08:23:33.000Z</time>
      </trkpt>
      <trkpt lat="47.31952" lon="-2.32216">
        <ele>-5.4000000953674</ele>
        <time>2021-08-29T08:23:34.000Z</time>
      </trkpt>
      <trkpt lat="47.31954" lon="-2.32221">
        <ele>-6.1999998092651</ele>
        <time>2021-08-29T08:23:35.000Z</time>
      </trkpt>
      <trkpt lat="47.31954" lon="-2.32226">
        <ele>-6.8000001907349</ele>
        <time>2021-08-29T08:23:36.000Z</time>
      </trkpt>
      <trkpt lat="47.31953" lon="-2.32231">
        <ele>-7.4000000953674</ele>
        <time>2021-08-29T08:23:37.000Z</time>
      </trkpt>
      <trkpt lat="47.31951" lon="-2.32236">
        <ele>-8.1999998092651</ele>
        <time>2021-08-29T08:23:38.000Z</time>
      </trkpt>
      <trkpt lat="47.31949" lon="-2.32241">
        <ele>-8.1999998092651</ele>
        <time>2021-08-29T08:23:39.000Z</time>
      </trkpt>
      <trkpt lat="47.31947" lon="-2.32257">
        <ele>-8.1999998092651</ele>
        <time>2021-08-29T08:23:42.000Z</time>
      </trkpt>
      <trkpt lat="47.31949" lon="-2.32261">
        <ele>-8.1999998092651</ele>
        <time>2021-08-29T08:23:43.000Z</time>
      </trkpt>
      <trkpt lat="47.31953" lon="-2.32263">
        <ele>-8.6000003814697</ele>
        <time>2021-08-29T08:23:44.000Z</time>
      </trkpt>
      <trkpt lat="47.31956" lon="-2.3226">
        <ele>-9</ele>
        <time>2021-08-29T08:23:45.000Z</time>
      </trkpt>
      <trkpt lat="47.3196" lon="-2.32253">
        <ele>-9.3999996185303</ele>
        <time>2021-08-29T08:23:46.000Z</time>
      </trkpt>
      <trkpt lat="47.31964" lon="-2.32246">
        <ele>-9.8000001907349</ele>
        <time>2021-08-29T08:23:47.000Z</time>
      </trkpt>
      <trkpt lat="47.31969" lon="-2.32238">
        <ele>-10.199999809265</ele>
        <time>2021-08-29T08:23:48.000Z</time>
      </trkpt>
      <trkpt lat="47.31995" lon="-2.32207">
        <ele>-10.60000038147</ele>
        <time>2021-08-29T08:23:52.000Z</time>
      </trkpt>
      <trkpt lat="47.32001" lon="-2.32199">
        <ele>-11.199999809265</ele>
        <time>2021-08-29T08:23:53.000Z</time>
      </trkpt>
      <trkpt lat="47.32008" lon="-2.32191">
        <ele>-11.60000038147</ele>
        <time>2021-08-29T08:23:54.000Z</time>
      </trkpt>
      <trkpt lat="47.32031" lon="-2.32179">
        <ele>-12.39999961853</ele>
        <time>2021-08-29T08:23:57.000Z</time>
      </trkpt>
      <trkpt lat="47.32039" lon="-2.32178">
        <ele>-12.39999961853</ele>
        <time>2021-08-29T08:23:58.000Z</time>
      </trkpt>
      <trkpt lat="47.32054" lon="-2.32179">
        <ele>-12.800000190735</ele>
        <time>2021-08-29T08:24:00.000Z</time>
      </trkpt>
      <trkpt lat="47.32062" lon="-2.32179">
        <ele>-13.199999809265</ele>
        <time>2021-08-29T08:24:01.000Z</time>
      </trkpt>
      <trkpt lat="47.3207" lon="-2.3218">
        <ele>-13.800000190735</ele>
        <time>2021-08-29T08:24:02.000Z</time>
      </trkpt>
      <trkpt lat="47.32077" lon="-2.3218">
        <ele>-14.199999809265</ele>
        <time>2021-08-29T08:24:03.000Z</time>
      </trkpt>
      <trkpt lat="47.32085" lon="-2.32179">
        <ele>-14.60000038147</ele>
        <time>2021-08-29T08:24:04.000Z</time>
      </trkpt>
      <trkpt lat="47.32092" lon="-2.32179">
        <ele>-14.60000038147</ele>
        <time>2021-08-29T08:24:05.000Z</time>
      </trkpt>
      <trkpt lat="47.32138" lon="-2.32163">
        <ele>-15</ele>
        <time>2021-08-29T08:24:11.000Z</time>
      </trkpt>
      <trkpt lat="47.32145" lon="-2.32158">
        <ele>-15.39999961853</ele>
        <time>2021-08-29T08:24:12.000Z</time>
      </trkpt>
      <trkpt lat="47.32152" lon="-2.32152">
        <ele>-15.800000190735</ele>
        <time>2021-08-29T08:24:13.000Z</time>
      </trkpt>
      <trkpt lat="47.32158" lon="-2.32146">
        <ele>-16.200000762939</ele>
        <time>2021-08-29T08:24:14.000Z</time>
      </trkpt>
      <trkpt lat="47.32165" lon="-2.32141">
        <ele>-16.799999237061</ele>
        <time>2021-08-29T08:24:15.000Z</time>
      </trkpt>
      <trkpt lat="47.32171" lon="-2.32135">
        <ele>-16.799999237061</ele>
        <time>2021-08-29T08:24:16.000Z</time>
      </trkpt>
      <trkpt lat="47.32199" lon="-2.32114">
        <ele>-16.799999237061</ele>
        <time>2021-08-29T08:24:21.000Z</time>
      </trkpt>
      <trkpt lat="47.32204" lon="-2.32113">
        <ele>-16.799999237061</ele>
        <time>2021-08-29T08:24:22.000Z</time>
      </trkpt>
      <trkpt lat="47.32219" lon="-2.3211">
        <ele>-16.799999237061</ele>
        <time>2021-08-29T08:24:25.000Z</time>
      </trkpt>
      <trkpt lat="47.32229" lon="-2.32107">
        <ele>-16.799999237061</ele>
        <time>2021-08-29T08:24:27.000Z</time>
      </trkpt>
      <trkpt lat="47.32246" lon="-2.32104">
        <ele>-16.799999237061</ele>
        <time>2021-08-29T08:24:30.000Z</time>
      </trkpt>
      <trkpt lat="47.32283" lon="-2.32099">
        <ele>-16.799999237061</ele>
        <time>2021-08-29T08:24:36.000Z</time>
      </trkpt>
      <trkpt lat="47.32324" lon="-2.32099">
        <ele>-16.799999237061</ele>
        <time>2021-08-29T08:24:43.000Z</time>
      </trkpt>
      <trkpt lat="47.32339" lon="-2.32101">
        <ele>-16.799999237061</ele>
        <time>2021-08-29T08:24:46.000Z</time>
      </trkpt>
      <trkpt lat="47.32345" lon="-2.32101">
        <ele>-16.799999237061</ele>
        <time>2021-08-29T08:24:48.000Z</time>
      </trkpt>
      <trkpt lat="47.32347" lon="-2.32101">
        <ele>-16.799999237061</ele>
        <time>2021-08-29T08:24:52.000Z</time>
      </trkpt>
      <trkpt lat="47.32348" lon="-2.321">
        <ele>-16.799999237061</ele>
        <time>2021-08-29T08:24:54.000Z</time>
      </trkpt>
      <trkpt lat="47.32355" lon="-2.32101">
        <ele>-16.799999237061</ele>
        <time>2021-08-29T08:24:57.000Z</time>
      </trkpt>
      <trkpt lat="47.32366" lon="-2.32103">
        <ele>-16.799999237061</ele>
        <time>2021-08-29T08:25:00.000Z</time>
      </trkpt>
      <trkpt lat="47.32376" lon="-2.32101">
        <ele>-16.799999237061</ele>
        <time>2021-08-29T08:25:02.000Z</time>
      </trkpt>
      <trkpt lat="47.32404" lon="-2.32099">
        <ele>-16.799999237061</ele>
        <time>2021-08-29T08:25:07.000Z</time>
      </trkpt>
      <trkpt lat="47.32446" lon="-2.32096">
        <ele>-16.799999237061</ele>
        <time>2021-08-29T08:25:14.000Z</time>
      </trkpt>
      <trkpt lat="47.3248" lon="-2.32094">
        <ele>-16.799999237061</ele>
        <time>2021-08-29T08:25:20.000Z</time>
      </trkpt>
      <trkpt lat="47.32496" lon="-2.32088">
        <ele>-16.799999237061</ele>
        <time>2021-08-29T08:25:24.000Z</time>
      </trkpt>
      <trkpt lat="47.32502" lon="-2.32066">
        <ele>-16.799999237061</ele>
        <time>2021-08-29T08:25:28.000Z</time>
      </trkpt>
      <trkpt lat="47.32502" lon="-2.32051">
        <ele>-16.799999237061</ele>
        <time>2021-08-29T08:25:30.000Z</time>
      </trkpt>
      <trkpt lat="47.32503" lon="-2.32024">
        <ele>-16.799999237061</ele>
        <time>2021-08-29T08:25:33.000Z</time>
      </trkpt>
      <trkpt lat="47.32506" lon="-2.31958">
        <ele>-16.799999237061</ele>
        <time>2021-08-29T08:25:40.000Z</time>
      </trkpt>
      <trkpt lat="47.32514" lon="-2.31901">
        <ele>-16.799999237061</ele>
        <time>2021-08-29T08:25:46.000Z</time>
      </trkpt>
      <trkpt lat="47.32517" lon="-2.31874">
        <ele>-16.39999961853</ele>
        <time>2021-08-29T08:25:49.000Z</time>
      </trkpt>
      <trkpt lat="47.32518" lon="-2.31865">
        <ele>-16</ele>
        <time>2021-08-29T08:25:50.000Z</time>
      </trkpt>
      <trkpt lat="47.32518" lon="-2.31856">
        <ele>-15.39999961853</ele>
        <time>2021-08-29T08:25:51.000Z</time>
      </trkpt>
      <trkpt lat="47.32519" lon="-2.31847">
        <ele>-15</ele>
        <time>2021-08-29T08:25:52.000Z</time>
      </trkpt>
      <trkpt lat="47.32519" lon="-2.31837">
        <ele>-14.60000038147</ele>
        <time>2021-08-29T08:25:53.000Z</time>
      </trkpt>
      <trkpt lat="47.32516" lon="-2.31802">
        <ele>-14.60000038147</ele>
        <time>2021-08-29T08:25:57.000Z</time>
      </trkpt>
      <trkpt lat="47.32512" lon="-2.31743">
        <ele>-14.60000038147</ele>
        <time>2021-08-29T08:26:04.000Z</time>
      </trkpt>
      <trkpt lat="47.32507" lon="-2.31684">
        <ele>-14.60000038147</ele>
        <time>2021-08-29T08:26:11.000Z</time>
      </trkpt>
      <trkpt lat="47.32509" lon="-2.31649">
        <ele>-14.60000038147</ele>
        <time>2021-08-29T08:26:15.000Z</time>
      </trkpt>
      <trkpt lat="47.32511" lon="-2.31641">
        <ele>-14.60000038147</ele>
        <time>2021-08-29T08:26:16.000Z</time>
      </trkpt>
      <trkpt lat="47.32525" lon="-2.31621">
        <ele>-14.60000038147</ele>
        <time>2021-08-29T08:26:19.000Z</time>
      </trkpt>
      <trkpt lat="47.3253" lon="-2.31614">
        <ele>-14.60000038147</ele>
        <time>2021-08-29T08:26:20.000Z</time>
      </trkpt>
      <trkpt lat="47.32545" lon="-2.31596">
        <ele>-14.60000038147</ele>
        <time>2021-08-29T08:26:23.000Z</time>
      </trkpt>
      <trkpt lat="47.32554" lon="-2.31584">
        <ele>-14.60000038147</ele>
        <time>2021-08-29T08:26:25.000Z</time>
      </trkpt>
      <trkpt lat="47.32556" lon="-2.31575">
        <ele>-14.60000038147</ele>
        <time>2021-08-29T08:26:26.000Z</time>
      </trkpt>
      <trkpt lat="47.32556" lon="-2.31549">
        <ele>-14.60000038147</ele>
        <time>2021-08-29T08:26:29.000Z</time>
      </trkpt>
      <trkpt lat="47.32556" lon="-2.31495">
        <ele>-14.60000038147</ele>
        <time>2021-08-29T08:26:35.000Z</time>
      </trkpt>
      <trkpt lat="47.32554" lon="-2.31444">
        <ele>-14.60000038147</ele>
        <time>2021-08-29T08:26:41.000Z</time>
      </trkpt>
      <trkpt lat="47.32549" lon="-2.31409">
        <ele>-14.60000038147</ele>
        <time>2021-08-29T08:26:46.000Z</time>
      </trkpt>
      <trkpt lat="47.3255" lon="-2.31402">
        <ele>-14.60000038147</ele>
        <time>2021-08-29T08:26:48.000Z</time>
      </trkpt>
      <trkpt lat="47.32552" lon="-2.31392">
        <ele>-14.60000038147</ele>
        <time>2021-08-29T08:26:50.000Z</time>
      </trkpt>
      <trkpt lat="47.32554" lon="-2.31377">
        <ele>-14.60000038147</ele>
        <time>2021-08-29T08:26:52.000Z</time>
      </trkpt>
      <trkpt lat="47.32556" lon="-2.31361">
        <ele>-14.60000038147</ele>
        <time>2021-08-29T08:26:54.000Z</time>
      </trkpt>
      <trkpt lat="47.32558" lon="-2.31335">
        <ele>-14.60000038147</ele>
        <time>2021-08-29T08:26:57.000Z</time>
      </trkpt>
      <trkpt lat="47.32563" lon="-2.31319">
        <ele>-14.60000038147</ele>
        <time>2021-08-29T08:26:59.000Z</time>
      </trkpt>
      <trkpt lat="47.32569" lon="-2.31302">
        <ele>-14.60000038147</ele>
        <time>2021-08-29T08:27:01.000Z</time>
      </trkpt>
      <trkpt lat="47.32571" lon="-2.31284">
        <ele>-14.60000038147</ele>
        <time>2021-08-29T08:27:03.000Z</time>
      </trkpt>
      <trkpt lat="47.32572" lon="-2.31263">
        <ele>-14.60000038147</ele>
        <time>2021-08-29T08:27:05.000Z</time>
      </trkpt>
      <trkpt lat="47.32573" lon="-2.31225">
        <ele>-14.60000038147</ele>
        <time>2021-08-29T08:27:09.000Z</time>
      </trkpt>
      <trkpt lat="47.32572" lon="-2.31216">
        <ele>-14.60000038147</ele>
        <time>2021-08-29T08:27:10.000Z</time>
      </trkpt>
      <trkpt lat="47.32564" lon="-2.31203">
        <ele>-14.60000038147</ele>
        <time>2021-08-29T08:27:12.000Z</time>
      </trkpt>
      <trkpt lat="47.32557" lon="-2.31171">
        <ele>-14.60000038147</ele>
        <time>2021-08-29T08:27:16.000Z</time>
      </trkpt>
      <trkpt lat="47.32557" lon="-2.31162">
        <ele>-14.60000038147</ele>
        <time>2021-08-29T08:27:17.000Z</time>
      </trkpt>
      <trkpt lat="47.32558" lon="-2.31154">
        <ele>-14.60000038147</ele>
        <time>2021-08-29T08:27:18.000Z</time>
      </trkpt>
      <trkpt lat="47.32562" lon="-2.31119">
        <ele>-14.60000038147</ele>
        <time>2021-08-29T08:27:22.000Z</time>
      </trkpt>
      <trkpt lat="47.32567" lon="-2.3108">
        <ele>-14.60000038147</ele>
        <time>2021-08-29T08:27:27.000Z</time>
      </trkpt>
      <trkpt lat="47.32565" lon="-2.31041">
        <ele>-14.60000038147</ele>
        <time>2021-08-29T08:27:32.000Z</time>
      </trkpt>
      <trkpt lat="47.32564" lon="-2.31034">
        <ele>-14.60000038147</ele>
        <time>2021-08-29T08:27:33.000Z</time>
      </trkpt>
      <trkpt lat="47.32561" lon="-2.31013">
        <ele>-14.199999809265</ele>
        <time>2021-08-29T08:27:36.000Z</time>
      </trkpt>
      <trkpt lat="47.32561" lon="-2.31005">
        <ele>-13.800000190735</ele>
        <time>2021-08-29T08:27:37.000Z</time>
      </trkpt>
      <trkpt lat="47.32561" lon="-2.30996">
        <ele>-13.39999961853</ele>
        <time>2021-08-29T08:27:38.000Z</time>
      </trkpt>
      <trkpt lat="47.32561" lon="-2.30988">
        <ele>-13</ele>
        <time>2021-08-29T08:27:39.000Z</time>
      </trkpt>
      <trkpt lat="47.32561" lon="-2.30979">
        <ele>-12.60000038147</ele>
        <time>2021-08-29T08:27:40.000Z</time>
      </trkpt>
      <trkpt lat="47.32563" lon="-2.30935">
        <ele>-12.60000038147</ele>
        <time>2021-08-29T08:27:45.000Z</time>
      </trkpt>
      <trkpt lat="47.32566" lon="-2.30877">
        <ele>-12.60000038147</ele>
        <time>2021-08-29T08:27:51.000Z</time>
      </trkpt>
      <trkpt lat="47.32564" lon="-2.30816">
        <ele>-12.60000038147</ele>
        <time>2021-08-29T08:27:57.000Z</time>
      </trkpt>
      <trkpt lat="47.32555" lon="-2.30749">
        <ele>-12.60000038147</ele>
        <time>2021-08-29T08:28:04.000Z</time>
      </trkpt>
      <trkpt lat="47.32547" lon="-2.30695">
        <ele>-12.60000038147</ele>
        <time>2021-08-29T08:28:10.000Z</time>
      </trkpt>
      <trkpt lat="47.32542" lon="-2.30651">
        <ele>-12.60000038147</ele>
        <time>2021-08-29T08:28:15.000Z</time>
      </trkpt>
      <trkpt lat="47.3254" lon="-2.30643">
        <ele>-12.60000038147</ele>
        <time>2021-08-29T08:28:16.000Z</time>
      </trkpt>
      <trkpt lat="47.32531" lon="-2.30601">
        <ele>-12.60000038147</ele>
        <time>2021-08-29T08:28:21.000Z</time>
      </trkpt>
      <trkpt lat="47.32523" lon="-2.30551">
        <ele>-12.60000038147</ele>
        <time>2021-08-29T08:28:27.000Z</time>
      </trkpt>
      <trkpt lat="47.32515" lon="-2.30504">
        <ele>-12.60000038147</ele>
        <time>2021-08-29T08:28:33.000Z</time>
      </trkpt>
      <trkpt lat="47.32506" lon="-2.3046">
        <ele>-12.60000038147</ele>
        <time>2021-08-29T08:28:39.000Z</time>
      </trkpt>
      <trkpt lat="47.32499" lon="-2.30419">
        <ele>-12.60000038147</ele>
        <time>2021-08-29T08:28:45.000Z</time>
      </trkpt>
      <trkpt lat="47.32503" lon="-2.30414">
        <ele>-12.60000038147</ele>
        <time>2021-08-29T08:28:46.000Z</time>
      </trkpt>
      <trkpt lat="47.32517" lon="-2.30406">
        <ele>-12.60000038147</ele>
        <time>2021-08-29T08:28:49.000Z</time>
      </trkpt>
      <trkpt lat="47.32537" lon="-2.30396">
        <ele>-12.60000038147</ele>
        <time>2021-08-29T08:28:53.000Z</time>
      </trkpt>
      <trkpt lat="47.32542" lon="-2.30383">
        <ele>-12.60000038147</ele>
        <time>2021-08-29T08:28:55.000Z</time>
      </trkpt>
      <trkpt lat="47.32538" lon="-2.30362">
        <ele>-12.60000038147</ele>
        <time>2021-08-29T08:28:58.000Z</time>
      </trkpt>
      <trkpt lat="47.32528" lon="-2.30306">
        <ele>-12.60000038147</ele>
        <time>2021-08-29T08:29:05.000Z</time>
      </trkpt>
      <trkpt lat="47.3252" lon="-2.30262">
        <ele>-12.199999809265</ele>
        <time>2021-08-29T08:29:11.000Z</time>
      </trkpt>
      <trkpt lat="47.32518" lon="-2.30254">
        <ele>-11.800000190735</ele>
        <time>2021-08-29T08:29:12.000Z</time>
      </trkpt>
      <trkpt lat="47.32517" lon="-2.30246">
        <ele>-11.39999961853</ele>
        <time>2021-08-29T08:29:13.000Z</time>
      </trkpt>
      <trkpt lat="47.32515" lon="-2.30238">
        <ele>-11</ele>
        <time>2021-08-29T08:29:14.000Z</time>
      </trkpt>
      <trkpt lat="47.32514" lon="-2.30229">
        <ele>-10.60000038147</ele>
        <time>2021-08-29T08:29:15.000Z</time>
      </trkpt>
      <trkpt lat="47.32511" lon="-2.30206">
        <ele>-10.60000038147</ele>
        <time>2021-08-29T08:29:18.000Z</time>
      </trkpt>
      <trkpt lat="47.32505" lon="-2.30169">
        <ele>-10.60000038147</ele>
        <time>2021-08-29T08:29:23.000Z</time>
      </trkpt>
      <trkpt lat="47.32503" lon="-2.30162">
        <ele>-10.60000038147</ele>
        <time>2021-08-29T08:29:24.000Z</time>
      </trkpt>
      <trkpt lat="47.325" lon="-2.3014">
        <ele>-10.60000038147</ele>
        <time>2021-08-29T08:29:27.000Z</time>
      </trkpt>
      <trkpt lat="47.32499" lon="-2.30125">
        <ele>-10.60000038147</ele>
        <time>2021-08-29T08:29:29.000Z</time>
      </trkpt>
      <trkpt lat="47.32493" lon="-2.30088">
        <ele>-10.60000038147</ele>
        <time>2021-08-29T08:29:34.000Z</time>
      </trkpt>
      <trkpt lat="47.32493" lon="-2.3008">
        <ele>-10.60000038147</ele>
        <time>2021-08-29T08:29:35.000Z</time>
      </trkpt>
      <trkpt lat="47.32487" lon="-2.30044">
        <ele>-10.60000038147</ele>
        <time>2021-08-29T08:29:40.000Z</time>
      </trkpt>
      <trkpt lat="47.32485" lon="-2.30037">
        <ele>-10.60000038147</ele>
        <time>2021-08-29T08:29:41.000Z</time>
      </trkpt>
      <trkpt lat="47.32475" lon="-2.30005">
        <ele>-10.60000038147</ele>
        <time>2021-08-29T08:29:45.000Z</time>
      </trkpt>
      <trkpt lat="47.32468" lon="-2.29991">
        <ele>-10.60000038147</ele>
        <time>2021-08-29T08:29:47.000Z</time>
      </trkpt>
      <trkpt lat="47.32459" lon="-2.29978">
        <ele>-10.60000038147</ele>
        <time>2021-08-29T08:29:49.000Z</time>
      </trkpt>
      <trkpt lat="47.32448" lon="-2.29959">
        <ele>-10.60000038147</ele>
        <time>2021-08-29T08:29:52.000Z</time>
      </trkpt>
      <trkpt lat="47.32442" lon="-2.29943">
        <ele>-10.60000038147</ele>
        <time>2021-08-29T08:29:56.000Z</time>
      </trkpt>
      <trkpt lat="47.32447" lon="-2.29924">
        <ele>-10.60000038147</ele>
        <time>2021-08-29T08:30:00.000Z</time>
      </trkpt>
      <trkpt lat="47.32444" lon="-2.29904">
        <ele>-10.60000038147</ele>
        <time>2021-08-29T08:30:03.000Z</time>
      </trkpt>
      <trkpt lat="47.32444" lon="-2.29896">
        <ele>-10.60000038147</ele>
        <time>2021-08-29T08:30:04.000Z</time>
      </trkpt>
      <trkpt lat="47.32442" lon="-2.29874">
        <ele>-10.60000038147</ele>
        <time>2021-08-29T08:30:07.000Z</time>
      </trkpt>
      <trkpt lat="47.32444" lon="-2.29859">
        <ele>-10.60000038147</ele>
        <time>2021-08-29T08:30:09.000Z</time>
      </trkpt>
      <trkpt lat="47.32455" lon="-2.29847">
        <ele>-10.60000038147</ele>
        <time>2021-08-29T08:30:12.000Z</time>
      </trkpt>
      <trkpt lat="47.3246" lon="-2.29842">
        <ele>-10.60000038147</ele>
        <time>2021-08-29T08:30:13.000Z</time>
      </trkpt>
      <trkpt lat="47.3248" lon="-2.29824">
        <ele>-10.60000038147</ele>
        <time>2021-08-29T08:30:17.000Z</time>
      </trkpt>
      <trkpt lat="47.32523" lon="-2.29785">
        <ele>-10.60000038147</ele>
        <time>2021-08-29T08:30:25.000Z</time>
      </trkpt>
      <trkpt lat="47.3256" lon="-2.29746">
        <ele>-10.60000038147</ele>
        <time>2021-08-29T08:30:32.000Z</time>
      </trkpt>
      <trkpt lat="47.32586" lon="-2.29704">
        <ele>-10.60000038147</ele>
        <time>2021-08-29T08:30:38.000Z</time>
      </trkpt>
      <trkpt lat="47.32617" lon="-2.29654">
        <ele>-10.60000038147</ele>
        <time>2021-08-29T08:30:45.000Z</time>
      </trkpt>
      <trkpt lat="47.32644" lon="-2.29608">
        <ele>-11</ele>
        <time>2021-08-29T08:30:51.000Z</time>
      </trkpt>
      <trkpt lat="47.32648" lon="-2.296">
        <ele>-11.39999961853</ele>
        <time>2021-08-29T08:30:52.000Z</time>
      </trkpt>
      <trkpt lat="47.32652" lon="-2.29591">
        <ele>-11.800000190735</ele>
        <time>2021-08-29T08:30:53.000Z</time>
      </trkpt>
      <trkpt lat="47.32656" lon="-2.29582">
        <ele>-12.199999809265</ele>
        <time>2021-08-29T08:30:54.000Z</time>
      </trkpt>
      <trkpt lat="47.3266" lon="-2.29573">
        <ele>-12.800000190735</ele>
        <time>2021-08-29T08:30:55.000Z</time>
      </trkpt>
      <trkpt lat="47.32665" lon="-2.29554">
        <ele>-12.800000190735</ele>
        <time>2021-08-29T08:30:57.000Z</time>
      </trkpt>
      <trkpt lat="47.32669" lon="-2.29534">
        <ele>-13.199999809265</ele>
        <time>2021-08-29T08:30:59.000Z</time>
      </trkpt>
      <trkpt lat="47.3267" lon="-2.29524">
        <ele>-13.60000038147</ele>
        <time>2021-08-29T08:31:00.000Z</time>
      </trkpt>
      <trkpt lat="47.32672" lon="-2.29514">
        <ele>-14</ele>
        <time>2021-08-29T08:31:01.000Z</time>
      </trkpt>
      <trkpt lat="47.32674" lon="-2.29504">
        <ele>-14.60000038147</ele>
        <time>2021-08-29T08:31:02.000Z</time>
      </trkpt>
      <trkpt lat="47.32675" lon="-2.29494">
        <ele>-15</ele>
        <time>2021-08-29T08:31:03.000Z</time>
      </trkpt>
      <trkpt lat="47.32691" lon="-2.29437">
        <ele>-15</ele>
        <time>2021-08-29T08:31:09.000Z</time>
      </trkpt>
      <trkpt lat="47.32698" lon="-2.29422">
        <ele>-15</ele>
        <time>2021-08-29T08:31:11.000Z</time>
      </trkpt>
      <trkpt lat="47.32702" lon="-2.29417">
        <ele>-15.39999961853</ele>
        <time>2021-08-29T08:31:12.000Z</time>
      </trkpt>
      <trkpt lat="47.32707" lon="-2.29415">
        <ele>-15.800000190735</ele>
        <time>2021-08-29T08:31:13.000Z</time>
      </trkpt>
      <trkpt lat="47.32712" lon="-2.29413">
        <ele>-16.200000762939</ele>
        <time>2021-08-29T08:31:14.000Z</time>
      </trkpt>
      <trkpt lat="47.32718" lon="-2.2941">
        <ele>-16.799999237061</ele>
        <time>2021-08-29T08:31:15.000Z</time>
      </trkpt>
      <trkpt lat="47.32723" lon="-2.29407">
        <ele>-17.200000762939</ele>
        <time>2021-08-29T08:31:16.000Z</time>
      </trkpt>
      <trkpt lat="47.32732" lon="-2.29398">
        <ele>-17.200000762939</ele>
        <time>2021-08-29T08:31:18.000Z</time>
      </trkpt>
      <trkpt lat="47.32762" lon="-2.29372">
        <ele>-17.200000762939</ele>
        <time>2021-08-29T08:31:24.000Z</time>
      </trkpt>
      <trkpt lat="47.32777" lon="-2.29355">
        <ele>-17.200000762939</ele>
        <time>2021-08-29T08:31:27.000Z</time>
      </trkpt>
      <trkpt lat="47.32786" lon="-2.29344">
        <ele>-17.200000762939</ele>
        <time>2021-08-29T08:31:29.000Z</time>
      </trkpt>
      <trkpt lat="47.3279" lon="-2.29337">
        <ele>-17.200000762939</ele>
        <time>2021-08-29T08:31:30.000Z</time>
      </trkpt>
      <trkpt lat="47.32799" lon="-2.29313">
        <ele>-17.200000762939</ele>
        <time>2021-08-29T08:31:33.000Z</time>
      </trkpt>
      <trkpt lat="47.3281" lon="-2.29276">
        <ele>-17.200000762939</ele>
        <time>2021-08-29T08:31:37.000Z</time>
      </trkpt>
      <trkpt lat="47.32812" lon="-2.29257">
        <ele>-17.200000762939</ele>
        <time>2021-08-29T08:31:39.000Z</time>
      </trkpt>
      <trkpt lat="47.32812" lon="-2.2924">
        <ele>-17.200000762939</ele>
        <time>2021-08-29T08:31:41.000Z</time>
      </trkpt>
      <trkpt lat="47.32807" lon="-2.29224">
        <ele>-17.200000762939</ele>
        <time>2021-08-29T08:31:43.000Z</time>
      </trkpt>
      <trkpt lat="47.32792" lon="-2.29183">
        <ele>-17.200000762939</ele>
        <time>2021-08-29T08:31:48.000Z</time>
      </trkpt>
      <trkpt lat="47.32791" lon="-2.29176">
        <ele>-17.200000762939</ele>
        <time>2021-08-29T08:31:49.000Z</time>
      </trkpt>
      <trkpt lat="47.32793" lon="-2.29169">
        <ele>-17.60000038147</ele>
        <time>2021-08-29T08:31:50.000Z</time>
      </trkpt>
      <trkpt lat="47.32796" lon="-2.29164">
        <ele>-18</ele>
        <time>2021-08-29T08:31:51.000Z</time>
      </trkpt>
      <trkpt lat="47.32801" lon="-2.29161">
        <ele>-18.39999961853</ele>
        <time>2021-08-29T08:31:52.000Z</time>
      </trkpt>
      <trkpt lat="47.32806" lon="-2.2916">
        <ele>-18.799999237061</ele>
        <time>2021-08-29T08:31:53.000Z</time>
      </trkpt>
      <trkpt lat="47.32811" lon="-2.29159">
        <ele>-19.200000762939</ele>
        <time>2021-08-29T08:31:54.000Z</time>
      </trkpt>
      <trkpt lat="47.32824" lon="-2.29159">
        <ele>-19.200000762939</ele>
        <time>2021-08-29T08:31:56.000Z</time>
      </trkpt>
      <trkpt lat="47.3283" lon="-2.29158">
        <ele>-19.200000762939</ele>
        <time>2021-08-29T08:31:57.000Z</time>
      </trkpt>
      <trkpt lat="47.32861" lon="-2.29149">
        <ele>-19.200000762939</ele>
        <time>2021-08-29T08:32:02.000Z</time>
      </trkpt>
      <trkpt lat="47.32903" lon="-2.29134">
        <ele>-19.200000762939</ele>
        <time>2021-08-29T08:32:09.000Z</time>
      </trkpt>
      <trkpt lat="47.32939" lon="-2.2912">
        <ele>-19.200000762939</ele>
        <time>2021-08-29T08:32:15.000Z</time>
      </trkpt>
      <trkpt lat="47.32975" lon="-2.29107">
        <ele>-19.200000762939</ele>
        <time>2021-08-29T08:32:21.000Z</time>
      </trkpt>
      <trkpt lat="47.33022" lon="-2.29092">
        <ele>-19.200000762939</ele>
        <time>2021-08-29T08:32:29.000Z</time>
      </trkpt>
      <trkpt lat="47.33034" lon="-2.29087">
        <ele>-18.799999237061</ele>
        <time>2021-08-29T08:32:31.000Z</time>
      </trkpt>
      <trkpt lat="47.3304" lon="-2.29086">
        <ele>-18.39999961853</ele>
        <time>2021-08-29T08:32:32.000Z</time>
      </trkpt>
      <trkpt lat="47.33045" lon="-2.29084">
        <ele>-18</ele>
        <time>2021-08-29T08:32:33.000Z</time>
      </trkpt>
      <trkpt lat="47.33051" lon="-2.29082">
        <ele>-17.60000038147</ele>
        <time>2021-08-29T08:32:34.000Z</time>
      </trkpt>
      <trkpt lat="47.33056" lon="-2.2908">
        <ele>-17.200000762939</ele>
        <time>2021-08-29T08:32:35.000Z</time>
      </trkpt>
      <trkpt lat="47.33062" lon="-2.29078">
        <ele>-17.200000762939</ele>
        <time>2021-08-29T08:32:36.000Z</time>
      </trkpt>
      <trkpt lat="47.33103" lon="-2.29062">
        <ele>-17.200000762939</ele>
        <time>2021-08-29T08:32:43.000Z</time>
      </trkpt>
      <trkpt lat="47.33147" lon="-2.29051">
        <ele>-17.200000762939</ele>
        <time>2021-08-29T08:32:50.000Z</time>
      </trkpt>
      <trkpt lat="47.33193" lon="-2.29057">
        <ele>-17.200000762939</ele>
        <time>2021-08-29T08:32:57.000Z</time>
      </trkpt>
      <trkpt lat="47.33236" lon="-2.29073">
        <ele>-17.200000762939</ele>
        <time>2021-08-29T08:33:04.000Z</time>
      </trkpt>
      <trkpt lat="47.33254" lon="-2.29081">
        <ele>-17.60000038147</ele>
        <time>2021-08-29T08:33:07.000Z</time>
      </trkpt>
      <trkpt lat="47.33257" lon="-2.29086">
        <ele>-18.39999961853</ele>
        <time>2021-08-29T08:33:08.000Z</time>
      </trkpt>
      <trkpt lat="47.3326" lon="-2.29093">
        <ele>-19</ele>
        <time>2021-08-29T08:33:09.000Z</time>
      </trkpt>
      <trkpt lat="47.33261" lon="-2.29104">
        <ele>-19.39999961853</ele>
        <time>2021-08-29T08:33:10.000Z</time>
      </trkpt>
      <trkpt lat="47.33261" lon="-2.29124">
        <ele>-19.39999961853</ele>
        <time>2021-08-29T08:33:12.000Z</time>
      </trkpt>
      <trkpt lat="47.33261" lon="-2.29135">
        <ele>-19.39999961853</ele>
        <time>2021-08-29T08:33:13.000Z</time>
      </trkpt>
      <trkpt lat="47.33258" lon="-2.2919">
        <ele>-19.39999961853</ele>
        <time>2021-08-29T08:33:18.000Z</time>
      </trkpt>
      <trkpt lat="47.33253" lon="-2.29274">
        <ele>-19.39999961853</ele>
        <time>2021-08-29T08:33:26.000Z</time>
      </trkpt>
      <trkpt lat="47.33247" lon="-2.29358">
        <ele>-19.39999961853</ele>
        <time>2021-08-29T08:33:34.000Z</time>
      </trkpt>
      <trkpt lat="47.33244" lon="-2.2941">
        <ele>-19.39999961853</ele>
        <time>2021-08-29T08:33:39.000Z</time>
      </trkpt>
      <trkpt lat="47.33242" lon="-2.29461">
        <ele>-19.39999961853</ele>
        <time>2021-08-29T08:33:44.000Z</time>
      </trkpt>
      <trkpt lat="47.33241" lon="-2.29525">
        <ele>-19.39999961853</ele>
        <time>2021-08-29T08:33:50.000Z</time>
      </trkpt>
      <trkpt lat="47.33241" lon="-2.29577">
        <ele>-19.39999961853</ele>
        <time>2021-08-29T08:33:56.000Z</time>
      </trkpt>
      <trkpt lat="47.33244" lon="-2.29582">
        <ele>-19.39999961853</ele>
        <time>2021-08-29T08:33:57.000Z</time>
      </trkpt>
      <trkpt lat="47.33253" lon="-2.29582">
        <ele>-19.39999961853</ele>
        <time>2021-08-29T08:33:59.000Z</time>
      </trkpt>
      <trkpt lat="47.33272" lon="-2.29566">
        <ele>-19.39999961853</ele>
        <time>2021-08-29T08:34:03.000Z</time>
      </trkpt>
      <trkpt lat="47.33288" lon="-2.29554">
        <ele>-19.39999961853</ele>
        <time>2021-08-29T08:34:06.000Z</time>
      </trkpt>
      <trkpt lat="47.333" lon="-2.29546">
        <ele>-19.39999961853</ele>
        <time>2021-08-29T08:34:08.000Z</time>
      </trkpt>
      <trkpt lat="47.33347" lon="-2.29522">
        <ele>-19.39999961853</ele>
        <time>2021-08-29T08:34:15.000Z</time>
      </trkpt>
      <trkpt lat="47.33367" lon="-2.29517">
        <ele>-19.799999237061</ele>
        <time>2021-08-29T08:34:18.000Z</time>
      </trkpt>
      <trkpt lat="47.33374" lon="-2.29515">
        <ele>-20.200000762939</ele>
        <time>2021-08-29T08:34:19.000Z</time>
      </trkpt>
      <trkpt lat="47.33381" lon="-2.29512">
        <ele>-20.60000038147</ele>
        <time>2021-08-29T08:34:20.000Z</time>
      </trkpt>
      <trkpt lat="47.33388" lon="-2.29508">
        <ele>-21</ele>
        <time>2021-08-29T08:34:21.000Z</time>
      </trkpt>
      <trkpt lat="47.33396" lon="-2.29503">
        <ele>-21.39999961853</ele>
        <time>2021-08-29T08:34:22.000Z</time>
      </trkpt>
      <trkpt lat="47.33417" lon="-2.2949">
        <ele>-21.39999961853</ele>
        <time>2021-08-29T08:34:25.000Z</time>
      </trkpt>
      <trkpt lat="47.33453" lon="-2.29466">
        <ele>-21.39999961853</ele>
        <time>2021-08-29T08:34:31.000Z</time>
      </trkpt>
      <trkpt lat="47.33494" lon="-2.29441">
        <ele>-21.39999961853</ele>
        <time>2021-08-29T08:34:38.000Z</time>
      </trkpt>
      <trkpt lat="47.33546" lon="-2.29405">
        <ele>-21.39999961853</ele>
        <time>2021-08-29T08:34:47.000Z</time>
      </trkpt>
      <trkpt lat="47.33602" lon="-2.29374">
        <ele>-21.39999961853</ele>
        <time>2021-08-29T08:34:56.000Z</time>
      </trkpt>
      <trkpt lat="47.33631" lon="-2.2936">
        <ele>-21.39999961853</ele>
        <time>2021-08-29T08:35:01.000Z</time>
      </trkpt>
      <trkpt lat="47.33643" lon="-2.29354">
        <ele>-21.39999961853</ele>
        <time>2021-08-29T08:35:03.000Z</time>
      </trkpt>
      <trkpt lat="47.33684" lon="-2.29331">
        <ele>-21.39999961853</ele>
        <time>2021-08-29T08:35:10.000Z</time>
      </trkpt>
      <trkpt lat="47.33733" lon="-2.29308">
        <ele>-21.39999961853</ele>
        <time>2021-08-29T08:35:18.000Z</time>
      </trkpt>
      <trkpt lat="47.33764" lon="-2.29294">
        <ele>-21.39999961853</ele>
        <time>2021-08-29T08:35:23.000Z</time>
      </trkpt>
      <trkpt lat="47.33792" lon="-2.2928">
        <ele>-22</ele>
        <time>2021-08-29T08:35:28.000Z</time>
      </trkpt>
      <trkpt lat="47.33797" lon="-2.29276">
        <ele>-22.39999961853</ele>
        <time>2021-08-29T08:35:29.000Z</time>
      </trkpt>
      <trkpt lat="47.33802" lon="-2.29273">
        <ele>-22.799999237061</ele>
        <time>2021-08-29T08:35:30.000Z</time>
      </trkpt>
      <trkpt lat="47.33807" lon="-2.29269">
        <ele>-23.200000762939</ele>
        <time>2021-08-29T08:35:31.000Z</time>
      </trkpt>
      <trkpt lat="47.33813" lon="-2.29265">
        <ele>-23.60000038147</ele>
        <time>2021-08-29T08:35:32.000Z</time>
      </trkpt>
      <trkpt lat="47.33835" lon="-2.2925">
        <ele>-23.60000038147</ele>
        <time>2021-08-29T08:35:36.000Z</time>
      </trkpt>
      <trkpt lat="47.33879" lon="-2.29233">
        <ele>-23.60000038147</ele>
        <time>2021-08-29T08:35:43.000Z</time>
      </trkpt>
      <trkpt lat="47.33918" lon="-2.29224">
        <ele>-23.60000038147</ele>
        <time>2021-08-29T08:35:49.000Z</time>
      </trkpt>
      <trkpt lat="47.33963" lon="-2.2922">
        <ele>-23.60000038147</ele>
        <time>2021-08-29T08:35:56.000Z</time>
      </trkpt>
      <trkpt lat="47.34001" lon="-2.29211">
        <ele>-23.60000038147</ele>
        <time>2021-08-29T08:36:02.000Z</time>
      </trkpt>
      <trkpt lat="47.34042" lon="-2.2919">
        <ele>-23.60000038147</ele>
        <time>2021-08-29T08:36:09.000Z</time>
      </trkpt>
      <trkpt lat="47.3407" lon="-2.29168">
        <ele>-23.60000038147</ele>
        <time>2021-08-29T08:36:14.000Z</time>
      </trkpt>
      <trkpt lat="47.34075" lon="-2.29163">
        <ele>-23.60000038147</ele>
        <time>2021-08-29T08:36:15.000Z</time>
      </trkpt>
      <trkpt lat="47.3412" lon="-2.2913">
        <ele>-23.60000038147</ele>
        <time>2021-08-29T08:36:23.000Z</time>
      </trkpt>
      <trkpt lat="47.34167" lon="-2.29097">
        <ele>-23.60000038147</ele>
        <time>2021-08-29T08:36:31.000Z</time>
      </trkpt>
      <trkpt lat="47.34217" lon="-2.29078">
        <ele>-23.60000038147</ele>
        <time>2021-08-29T08:36:39.000Z</time>
      </trkpt>
      <trkpt lat="47.34243" lon="-2.29073">
        <ele>-23.60000038147</ele>
        <time>2021-08-29T08:36:43.000Z</time>
      </trkpt>
      <trkpt lat="47.34256" lon="-2.29072">
        <ele>-23.60000038147</ele>
        <time>2021-08-29T08:36:45.000Z</time>
      </trkpt>
      <trkpt lat="47.34304" lon="-2.29066">
        <ele>-23.60000038147</ele>
        <time>2021-08-29T08:36:53.000Z</time>
      </trkpt>
      <trkpt lat="47.34313" lon="-2.29063">
        <ele>-23.60000038147</ele>
        <time>2021-08-29T08:36:55.000Z</time>
      </trkpt>
      <trkpt lat="47.34316" lon="-2.29054">
        <ele>-23.60000038147</ele>
        <time>2021-08-29T08:36:57.000Z</time>
      </trkpt>
      <trkpt lat="47.34311" lon="-2.29028">
        <ele>-23.60000038147</ele>
        <time>2021-08-29T08:37:01.000Z</time>
      </trkpt>
      <trkpt lat="47.343" lon="-2.2898">
        <ele>-23.60000038147</ele>
        <time>2021-08-29T08:37:06.000Z</time>
      </trkpt>
      <trkpt lat="47.34282" lon="-2.28911">
        <ele>-23.60000038147</ele>
        <time>2021-08-29T08:37:13.000Z</time>
      </trkpt>
      <trkpt lat="47.34264" lon="-2.28849">
        <ele>-23.60000038147</ele>
        <time>2021-08-29T08:37:20.000Z</time>
      </trkpt>
      <trkpt lat="47.34258" lon="-2.28834">
        <ele>-23.60000038147</ele>
        <time>2021-08-29T08:37:22.000Z</time>
      </trkpt>
      <trkpt lat="47.3425" lon="-2.28829">
        <ele>-23.60000038147</ele>
        <time>2021-08-29T08:37:24.000Z</time>
      </trkpt>
      <trkpt lat="47.34241" lon="-2.28837">
        <ele>-23.60000038147</ele>
        <time>2021-08-29T08:37:26.000Z</time>
      </trkpt>
      <trkpt lat="47.34237" lon="-2.28841">
        <ele>-23.60000038147</ele>
        <time>2021-08-29T08:37:27.000Z</time>
      </trkpt>
      <trkpt lat="47.34213" lon="-2.28858">
        <ele>-23.60000038147</ele>
        <time>2021-08-29T08:37:31.000Z</time>
      </trkpt>
      <trkpt lat="47.34187" lon="-2.28878">
        <ele>-23.60000038147</ele>
        <time>2021-08-29T08:37:36.000Z</time>
      </trkpt>
      <trkpt lat="47.34178" lon="-2.28868">
        <ele>-23.60000038147</ele>
        <time>2021-08-29T08:37:39.000Z</time>
      </trkpt>
      <trkpt lat="47.34178" lon="-2.28847">
        <ele>-23.60000038147</ele>
        <time>2021-08-29T08:37:42.000Z</time>
      </trkpt>
      <trkpt lat="47.34178" lon="-2.28801">
        <ele>-23.60000038147</ele>
        <time>2021-08-29T08:37:47.000Z</time>
      </trkpt>
      <trkpt lat="47.34176" lon="-2.28736">
        <ele>-23.60000038147</ele>
        <time>2021-08-29T08:37:54.000Z</time>
      </trkpt>
      <trkpt lat="47.34172" lon="-2.28705">
        <ele>-23.60000038147</ele>
        <time>2021-08-29T08:37:58.000Z</time>
      </trkpt>
      <trkpt lat="47.3417" lon="-2.28698">
        <ele>-23.60000038147</ele>
        <time>2021-08-29T08:37:59.000Z</time>
      </trkpt>
      <trkpt lat="47.34158" lon="-2.28687">
        <ele>-23.60000038147</ele>
        <time>2021-08-29T08:38:02.000Z</time>
      </trkpt>
      <trkpt lat="47.34133" lon="-2.28689">
        <ele>-23.60000038147</ele>
        <time>2021-08-29T08:38:06.000Z</time>
      </trkpt>
      <trkpt lat="47.3412" lon="-2.28696">
        <ele>-23.60000038147</ele>
        <time>2021-08-29T08:38:08.000Z</time>
      </trkpt>
      <trkpt lat="47.3411" lon="-2.28709">
        <ele>-23.60000038147</ele>
        <time>2021-08-29T08:38:10.000Z</time>
      </trkpt>
      <trkpt lat="47.34093" lon="-2.28731">
        <ele>-23.60000038147</ele>
        <time>2021-08-29T08:38:14.000Z</time>
      </trkpt>
      <trkpt lat="47.34076" lon="-2.28729">
        <ele>-23.60000038147</ele>
        <time>2021-08-29T08:38:17.000Z</time>
      </trkpt>
      <trkpt lat="47.34064" lon="-2.28724">
        <ele>-23.60000038147</ele>
        <time>2021-08-29T08:38:19.000Z</time>
      </trkpt>
      <trkpt lat="47.34047" lon="-2.28717">
        <ele>-23.60000038147</ele>
        <time>2021-08-29T08:38:22.000Z</time>
      </trkpt>
      <trkpt lat="47.34019" lon="-2.28704">
        <ele>-23.60000038147</ele>
        <time>2021-08-29T08:38:28.000Z</time>
      </trkpt>
      <trkpt lat="47.34015" lon="-2.28702">
        <ele>-23.60000038147</ele>
        <time>2021-08-29T08:38:29.000Z</time>
      </trkpt>
      <trkpt lat="47.34001" lon="-2.28685">
        <ele>-23.60000038147</ele>
        <time>2021-08-29T08:38:34.000Z</time>
      </trkpt>
      <trkpt lat="47.33994" lon="-2.2866">
        <ele>-23.60000038147</ele>
        <time>2021-08-29T08:38:39.000Z</time>
      </trkpt>
      <trkpt lat="47.3399" lon="-2.2864">
        <ele>-23.60000038147</ele>
        <time>2021-08-29T08:38:43.000Z</time>
      </trkpt>
      <trkpt lat="47.33995" lon="-2.28633">
        <ele>-23.60000038147</ele>
        <time>2021-08-29T08:38:45.000Z</time>
      </trkpt>
      <trkpt lat="47.34001" lon="-2.28633">
        <ele>-24</ele>
        <time>2021-08-29T08:38:47.000Z</time>
      </trkpt>
      <trkpt lat="47.34003" lon="-2.28634">
        <ele>-24.39999961853</ele>
        <time>2021-08-29T08:38:48.000Z</time>
      </trkpt>
      <trkpt lat="47.34005" lon="-2.28635">
        <ele>-24.799999237061</ele>
        <time>2021-08-29T08:38:49.000Z</time>
      </trkpt>
      <trkpt lat="47.34006" lon="-2.28636">
        <ele>-25.200000762939</ele>
        <time>2021-08-29T08:38:50.000Z</time>
      </trkpt>
      <trkpt lat="47.34006" lon="-2.28636">
        <ele>-25.60000038147</ele>
        <time>2021-08-29T08:38:51.000Z</time>
      </trkpt>
      <trkpt lat="47.34006" lon="-2.28636">
        <ele>-25.60000038147</ele>
        <time>2021-08-29T08:38:52.000Z</time>
      </trkpt>
      <trkpt lat="47.34007" lon="-2.28635">
        <ele>-25.60000038147</ele>
        <time>2021-08-29T08:49:58.000Z</time>
      </trkpt>
      <trkpt lat="47.34007" lon="-2.28634">
        <ele>-25.60000038147</ele>
        <time>2021-08-29T08:50:00.000Z</time>
      </trkpt>
      <trkpt lat="47.34006" lon="-2.28633">
        <ele>-25.60000038147</ele>
        <time>2021-08-29T08:50:22.000Z</time>
      </trkpt>
      <trkpt lat="47.34001" lon="-2.28636">
        <ele>-25.60000038147</ele>
        <time>2021-08-29T08:50:25.000Z</time>
      </trkpt>
      <trkpt lat="47.33989" lon="-2.28643">
        <ele>-25.60000038147</ele>
        <time>2021-08-29T08:50:31.000Z</time>
      </trkpt>
      <trkpt lat="47.33979" lon="-2.28637">
        <ele>-25.60000038147</ele>
        <time>2021-08-29T08:50:36.000Z</time>
      </trkpt>
      <trkpt lat="47.33966" lon="-2.28619">
        <ele>-25.60000038147</ele>
        <time>2021-08-29T08:50:42.000Z</time>
      </trkpt>
      <trkpt lat="47.33955" lon="-2.28603">
        <ele>-25.60000038147</ele>
        <time>2021-08-29T08:50:47.000Z</time>
      </trkpt>
      <trkpt lat="47.33939" lon="-2.28582">
        <ele>-25.60000038147</ele>
        <time>2021-08-29T08:50:54.000Z</time>
      </trkpt>
      <trkpt lat="47.33925" lon="-2.28564">
        <ele>-25.60000038147</ele>
        <time>2021-08-29T08:50:59.000Z</time>
      </trkpt>
      <trkpt lat="47.33921" lon="-2.28559">
        <ele>-25.60000038147</ele>
        <time>2021-08-29T08:51:00.000Z</time>
      </trkpt>
      <trkpt lat="47.33895" lon="-2.28528">
        <ele>-25.60000038147</ele>
        <time>2021-08-29T08:51:07.000Z</time>
      </trkpt>
      <trkpt lat="47.3387" lon="-2.28496">
        <ele>-25.60000038147</ele>
        <time>2021-08-29T08:51:14.000Z</time>
      </trkpt>
      <trkpt lat="47.33843" lon="-2.28463">
        <ele>-25.60000038147</ele>
        <time>2021-08-29T08:51:21.000Z</time>
      </trkpt>
      <trkpt lat="47.33839" lon="-2.2846">
        <ele>-25.60000038147</ele>
        <time>2021-08-29T08:51:22.000Z</time>
      </trkpt>
      <trkpt lat="47.33823" lon="-2.28455">
        <ele>-25.60000038147</ele>
        <time>2021-08-29T08:51:25.000Z</time>
      </trkpt>
      <trkpt lat="47.33802" lon="-2.28467">
        <ele>-25.60000038147</ele>
        <time>2021-08-29T08:51:29.000Z</time>
      </trkpt>
      <trkpt lat="47.33778" lon="-2.28487">
        <ele>-25.60000038147</ele>
        <time>2021-08-29T08:51:34.000Z</time>
      </trkpt>
      <trkpt lat="47.33773" lon="-2.28491">
        <ele>-25.60000038147</ele>
        <time>2021-08-29T08:51:35.000Z</time>
      </trkpt>
      <trkpt lat="47.33741" lon="-2.2852">
        <ele>-25.60000038147</ele>
        <time>2021-08-29T08:51:42.000Z</time>
      </trkpt>
      <trkpt lat="47.33725" lon="-2.28538">
        <ele>-25.60000038147</ele>
        <time>2021-08-29T08:51:47.000Z</time>
      </trkpt>
      <trkpt lat="47.33711" lon="-2.28549">
        <ele>-25.60000038147</ele>
        <time>2021-08-29T08:51:53.000Z</time>
      </trkpt>
      <trkpt lat="47.33707" lon="-2.2855">
        <ele>-25.60000038147</ele>
        <time>2021-08-29T08:51:56.000Z</time>
      </trkpt>
      <trkpt lat="47.33707" lon="-2.2855">
        <ele>-25.60000038147</ele>
        <time>2021-08-29T08:51:58.000Z</time>
      </trkpt>
      <trkpt lat="47.33707" lon="-2.2855">
        <ele>-25.60000038147</ele>
        <time>2021-08-29T08:52:00.000Z</time>
      </trkpt>
      <trkpt lat="47.33706" lon="-2.28547">
        <ele>-25.60000038147</ele>
        <time>2021-08-29T08:52:27.000Z</time>
      </trkpt>
      <trkpt lat="47.33704" lon="-2.28544">
        <ele>-25.60000038147</ele>
        <time>2021-08-29T08:52:28.000Z</time>
      </trkpt>
      <trkpt lat="47.33696" lon="-2.28523">
        <ele>-25.60000038147</ele>
        <time>2021-08-29T08:52:33.000Z</time>
      </trkpt>
      <trkpt lat="47.33689" lon="-2.28496">
        <ele>-25.60000038147</ele>
        <time>2021-08-29T08:52:39.000Z</time>
      </trkpt>
      <trkpt lat="47.33679" lon="-2.28469">
        <ele>-25.60000038147</ele>
        <time>2021-08-29T08:52:47.000Z</time>
      </trkpt>
      <trkpt lat="47.33667" lon="-2.28443">
        <ele>-25.60000038147</ele>
        <time>2021-08-29T08:52:52.000Z</time>
      </trkpt>
      <trkpt lat="47.33665" lon="-2.28437">
        <ele>-25.60000038147</ele>
        <time>2021-08-29T08:52:53.000Z</time>
      </trkpt>
      <trkpt lat="47.33649" lon="-2.28411">
        <ele>-25.60000038147</ele>
        <time>2021-08-29T08:52:58.000Z</time>
      </trkpt>
      <trkpt lat="47.33633" lon="-2.28386">
        <ele>-25.60000038147</ele>
        <time>2021-08-29T08:53:03.000Z</time>
      </trkpt>
      <trkpt lat="47.3363" lon="-2.28381">
        <ele>-25.60000038147</ele>
        <time>2021-08-29T08:53:04.000Z</time>
      </trkpt>
      <trkpt lat="47.33611" lon="-2.28356">
        <ele>-25.60000038147</ele>
        <time>2021-08-29T08:53:09.000Z</time>
      </trkpt>
      <trkpt lat="47.33594" lon="-2.28332">
        <ele>-25.60000038147</ele>
        <time>2021-08-29T08:53:13.000Z</time>
      </trkpt>
      <trkpt lat="47.33591" lon="-2.28326">
        <ele>-25.60000038147</ele>
        <time>2021-08-29T08:53:14.000Z</time>
      </trkpt>
      <trkpt lat="47.33588" lon="-2.28321">
        <ele>-25.60000038147</ele>
        <time>2021-08-29T08:53:15.000Z</time>
      </trkpt>
      <trkpt lat="47.33572" lon="-2.28298">
        <ele>-25.60000038147</ele>
        <time>2021-08-29T08:53:19.000Z</time>
      </trkpt>
      <trkpt lat="47.33555" lon="-2.28262">
        <ele>-25.60000038147</ele>
        <time>2021-08-29T08:53:24.000Z</time>
      </trkpt>
      <trkpt lat="47.33538" lon="-2.2824">
        <ele>-25.60000038147</ele>
        <time>2021-08-29T08:53:28.000Z</time>
      </trkpt>
      <trkpt lat="47.33533" lon="-2.28238">
        <ele>-25.60000038147</ele>
        <time>2021-08-29T08:53:29.000Z</time>
      </trkpt>
      <trkpt lat="47.33519" lon="-2.28239">
        <ele>-25.60000038147</ele>
        <time>2021-08-29T08:53:32.000Z</time>
      </trkpt>
      <trkpt lat="47.33505" lon="-2.28249">
        <ele>-25.60000038147</ele>
        <time>2021-08-29T08:53:35.000Z</time>
      </trkpt>
      <trkpt lat="47.33501" lon="-2.28251">
        <ele>-25.60000038147</ele>
        <time>2021-08-29T08:53:36.000Z</time>
      </trkpt>
      <trkpt lat="47.33491" lon="-2.28254">
        <ele>-25.60000038147</ele>
        <time>2021-08-29T08:53:39.000Z</time>
      </trkpt>
      <trkpt lat="47.33487" lon="-2.28251">
        <ele>-25.60000038147</ele>
        <time>2021-08-29T08:53:40.000Z</time>
      </trkpt>
      <trkpt lat="47.33474" lon="-2.28245">
        <ele>-25.60000038147</ele>
        <time>2021-08-29T08:53:44.000Z</time>
      </trkpt>
      <trkpt lat="47.33471" lon="-2.2824">
        <ele>-25.60000038147</ele>
        <time>2021-08-29T08:53:48.000Z</time>
      </trkpt>
      <trkpt lat="47.33471" lon="-2.28241">
        <ele>-25.60000038147</ele>
        <time>2021-08-29T08:53:49.000Z</time>
      </trkpt>
      <trkpt lat="47.33468" lon="-2.28213">
        <ele>-25.60000038147</ele>
        <time>2021-08-29T08:54:22.000Z</time>
      </trkpt>
      <trkpt lat="47.33467" lon="-2.28206">
        <ele>-25.60000038147</ele>
        <time>2021-08-29T08:54:24.000Z</time>
      </trkpt>
      <trkpt lat="47.33465" lon="-2.28202">
        <ele>-25.60000038147</ele>
        <time>2021-08-29T08:54:25.000Z</time>
      </trkpt>
      <trkpt lat="47.33463" lon="-2.28189">
        <ele>-25.60000038147</ele>
        <time>2021-08-29T08:54:28.000Z</time>
      </trkpt>
      <trkpt lat="47.33462" lon="-2.28169">
        <ele>-25.60000038147</ele>
        <time>2021-08-29T08:54:32.000Z</time>
      </trkpt>
      <trkpt lat="47.3346" lon="-2.28149">
        <ele>-25.60000038147</ele>
        <time>2021-08-29T08:54:37.000Z</time>
      </trkpt>
      <trkpt lat="47.3346" lon="-2.28145">
        <ele>-25.60000038147</ele>
        <time>2021-08-29T08:54:38.000Z</time>
      </trkpt>
      <trkpt lat="47.33456" lon="-2.28127">
        <ele>-25.60000038147</ele>
        <time>2021-08-29T08:54:42.000Z</time>
      </trkpt>
      <trkpt lat="47.33455" lon="-2.28105">
        <ele>-25.60000038147</ele>
        <time>2021-08-29T08:54:47.000Z</time>
      </trkpt>
      <trkpt lat="47.33451" lon="-2.28069">
        <ele>-25.60000038147</ele>
        <time>2021-08-29T08:54:53.000Z</time>
      </trkpt>
      <trkpt lat="47.33446" lon="-2.28021">
        <ele>-25.200000762939</ele>
        <time>2021-08-29T08:55:00.000Z</time>
      </trkpt>
      <trkpt lat="47.33445" lon="-2.28014">
        <ele>-24.799999237061</ele>
        <time>2021-08-29T08:55:01.000Z</time>
      </trkpt>
      <trkpt lat="47.33444" lon="-2.28007">
        <ele>-24.39999961853</ele>
        <time>2021-08-29T08:55:02.000Z</time>
      </trkpt>
      <trkpt lat="47.33442" lon="-2.27999">
        <ele>-24</ele>
        <time>2021-08-29T08:55:03.000Z</time>
      </trkpt>
      <trkpt lat="47.33441" lon="-2.27992">
        <ele>-23.60000038147</ele>
        <time>2021-08-29T08:55:04.000Z</time>
      </trkpt>
      <trkpt lat="47.33435" lon="-2.27963">
        <ele>-23.60000038147</ele>
        <time>2021-08-29T08:55:08.000Z</time>
      </trkpt>
      <trkpt lat="47.33429" lon="-2.27927">
        <ele>-23.60000038147</ele>
        <time>2021-08-29T08:55:13.000Z</time>
      </trkpt>
      <trkpt lat="47.33428" lon="-2.27912">
        <ele>-23.60000038147</ele>
        <time>2021-08-29T08:55:15.000Z</time>
      </trkpt>
      <trkpt lat="47.33425" lon="-2.27871">
        <ele>-23.60000038147</ele>
        <time>2021-08-29T08:55:21.000Z</time>
      </trkpt>
      <trkpt lat="47.33423" lon="-2.27861">
        <ele>-24</ele>
        <time>2021-08-29T08:55:23.000Z</time>
      </trkpt>
      <trkpt lat="47.33422" lon="-2.27855">
        <ele>-24.39999961853</ele>
        <time>2021-08-29T08:55:24.000Z</time>
      </trkpt>
      <trkpt lat="47.33422" lon="-2.2785">
        <ele>-24.799999237061</ele>
        <time>2021-08-29T08:55:25.000Z</time>
      </trkpt>
      <trkpt lat="47.33421" lon="-2.27844">
        <ele>-25.200000762939</ele>
        <time>2021-08-29T08:55:26.000Z</time>
      </trkpt>
      <trkpt lat="47.33421" lon="-2.27838">
        <ele>-25.60000038147</ele>
        <time>2021-08-29T08:55:27.000Z</time>
      </trkpt>
      <trkpt lat="47.33417" lon="-2.27807">
        <ele>-25.60000038147</ele>
        <time>2021-08-29T08:55:32.000Z</time>
      </trkpt>
      <trkpt lat="47.33416" lon="-2.27801">
        <ele>-25.60000038147</ele>
        <time>2021-08-29T08:55:33.000Z</time>
      </trkpt>
      <trkpt lat="47.33411" lon="-2.27756">
        <ele>-25.60000038147</ele>
        <time>2021-08-29T08:55:39.000Z</time>
      </trkpt>
      <trkpt lat="47.33409" lon="-2.27733">
        <ele>-25.60000038147</ele>
        <time>2021-08-29T08:55:42.000Z</time>
      </trkpt>
      <trkpt lat="47.33406" lon="-2.27702">
        <ele>-25.60000038147</ele>
        <time>2021-08-29T08:55:46.000Z</time>
      </trkpt>
      <trkpt lat="47.33407" lon="-2.27664">
        <ele>-25.60000038147</ele>
        <time>2021-08-29T08:55:51.000Z</time>
      </trkpt>
      <trkpt lat="47.33408" lon="-2.27643">
        <ele>-25.60000038147</ele>
        <time>2021-08-29T08:55:54.000Z</time>
      </trkpt>
      <trkpt lat="47.33413" lon="-2.27631">
        <ele>-25.60000038147</ele>
        <time>2021-08-29T08:55:56.000Z</time>
      </trkpt>
      <trkpt lat="47.33425" lon="-2.27618">
        <ele>-25.60000038147</ele>
        <time>2021-08-29T08:55:59.000Z</time>
      </trkpt>
      <trkpt lat="47.3343" lon="-2.27612">
        <ele>-25.60000038147</ele>
        <time>2021-08-29T08:56:00.000Z</time>
      </trkpt>
      <trkpt lat="47.33464" lon="-2.27578">
        <ele>-25.60000038147</ele>
        <time>2021-08-29T08:56:07.000Z</time>
      </trkpt>
      <trkpt lat="47.33476" lon="-2.27564">
        <ele>-25.60000038147</ele>
        <time>2021-08-29T08:56:10.000Z</time>
      </trkpt>
      <trkpt lat="47.33488" lon="-2.27554">
        <ele>-25.60000038147</ele>
        <time>2021-08-29T08:56:13.000Z</time>
      </trkpt>
      <trkpt lat="47.33497" lon="-2.27551">
        <ele>-25.60000038147</ele>
        <time>2021-08-29T08:56:16.000Z</time>
      </trkpt>
      <trkpt lat="47.33497" lon="-2.2755">
        <ele>-25.60000038147</ele>
        <time>2021-08-29T08:56:17.000Z</time>
      </trkpt>
      <trkpt lat="47.33497" lon="-2.27544">
        <ele>-25.60000038147</ele>
        <time>2021-08-29T08:56:19.000Z</time>
      </trkpt>
      <trkpt lat="47.33491" lon="-2.27525">
        <ele>-25.60000038147</ele>
        <time>2021-08-29T08:56:24.000Z</time>
      </trkpt>
      <trkpt lat="47.3349" lon="-2.27521">
        <ele>-25.60000038147</ele>
        <time>2021-08-29T08:56:25.000Z</time>
      </trkpt>
      <trkpt lat="47.33485" lon="-2.27488">
        <ele>-25.60000038147</ele>
        <time>2021-08-29T08:56:31.000Z</time>
      </trkpt>
      <trkpt lat="47.33479" lon="-2.27448">
        <ele>-25.200000762939</ele>
        <time>2021-08-29T08:56:38.000Z</time>
      </trkpt>
      <trkpt lat="47.33478" lon="-2.27443">
        <ele>-24.799999237061</ele>
        <time>2021-08-29T08:56:39.000Z</time>
      </trkpt>
      <trkpt lat="47.33477" lon="-2.27437">
        <ele>-24.39999961853</ele>
        <time>2021-08-29T08:56:40.000Z</time>
      </trkpt>
      <trkpt lat="47.33476" lon="-2.27431">
        <ele>-23.799999237061</ele>
        <time>2021-08-29T08:56:41.000Z</time>
      </trkpt>
      <trkpt lat="47.33475" lon="-2.27425">
        <ele>-23.39999961853</ele>
        <time>2021-08-29T08:56:42.000Z</time>
      </trkpt>
      <trkpt lat="47.33473" lon="-2.27407">
        <ele>-23.39999961853</ele>
        <time>2021-08-29T08:56:45.000Z</time>
      </trkpt>
      <trkpt lat="47.33466" lon="-2.27363">
        <ele>-23.39999961853</ele>
        <time>2021-08-29T08:56:52.000Z</time>
      </trkpt>
      <trkpt lat="47.33464" lon="-2.27351">
        <ele>-23.39999961853</ele>
        <time>2021-08-29T08:56:54.000Z</time>
      </trkpt>
      <trkpt lat="47.33457" lon="-2.27322">
        <ele>-23.39999961853</ele>
        <time>2021-08-29T08:56:58.000Z</time>
      </trkpt>
      <trkpt lat="47.33448" lon="-2.2727">
        <ele>-23.39999961853</ele>
        <time>2021-08-29T08:57:05.000Z</time>
      </trkpt>
      <trkpt lat="47.33437" lon="-2.27211">
        <ele>-23.39999961853</ele>
        <time>2021-08-29T08:57:13.000Z</time>
      </trkpt>
      <trkpt lat="47.33428" lon="-2.2716">
        <ele>-23.39999961853</ele>
        <time>2021-08-29T08:57:20.000Z</time>
      </trkpt>
      <trkpt lat="47.33417" lon="-2.2712">
        <ele>-23.39999961853</ele>
        <time>2021-08-29T08:57:26.000Z</time>
      </trkpt>
      <trkpt lat="47.33415" lon="-2.27113">
        <ele>-23.39999961853</ele>
        <time>2021-08-29T08:57:27.000Z</time>
      </trkpt>
      <trkpt lat="47.33405" lon="-2.27088">
        <ele>-23.39999961853</ele>
        <time>2021-08-29T08:57:31.000Z</time>
      </trkpt>
      <trkpt lat="47.33387" lon="-2.27047">
        <ele>-23.39999961853</ele>
        <time>2021-08-29T08:57:38.000Z</time>
      </trkpt>
      <trkpt lat="47.33369" lon="-2.27007">
        <ele>-23.39999961853</ele>
        <time>2021-08-29T08:57:45.000Z</time>
      </trkpt>
      <trkpt lat="47.33355" lon="-2.26999">
        <ele>-23.799999237061</ele>
        <time>2021-08-29T08:57:49.000Z</time>
      </trkpt>
      <trkpt lat="47.33351" lon="-2.27001">
        <ele>-24.200000762939</ele>
        <time>2021-08-29T08:57:50.000Z</time>
      </trkpt>
      <trkpt lat="47.33347" lon="-2.27002">
        <ele>-24.60000038147</ele>
        <time>2021-08-29T08:57:51.000Z</time>
      </trkpt>
      <trkpt lat="47.33343" lon="-2.27005">
        <ele>-25</ele>
        <time>2021-08-29T08:57:52.000Z</time>
      </trkpt>
      <trkpt lat="47.33339" lon="-2.27007">
        <ele>-25.39999961853</ele>
        <time>2021-08-29T08:57:53.000Z</time>
      </trkpt>
      <trkpt lat="47.3333" lon="-2.27008">
        <ele>-25.39999961853</ele>
        <time>2021-08-29T08:57:55.000Z</time>
      </trkpt>
      <trkpt lat="47.33317" lon="-2.27009">
        <ele>-25.39999961853</ele>
        <time>2021-08-29T08:57:58.000Z</time>
      </trkpt>
      <trkpt lat="47.33313" lon="-2.27008">
        <ele>-25.39999961853</ele>
        <time>2021-08-29T08:57:59.000Z</time>
      </trkpt>
      <trkpt lat="47.33309" lon="-2.27006">
        <ele>-25.39999961853</ele>
        <time>2021-08-29T08:58:00.000Z</time>
      </trkpt>
      <trkpt lat="47.33297" lon="-2.26998">
        <ele>-25.39999961853</ele>
        <time>2021-08-29T08:58:03.000Z</time>
      </trkpt>
      <trkpt lat="47.33288" lon="-2.26994">
        <ele>-25.39999961853</ele>
        <time>2021-08-29T08:58:05.000Z</time>
      </trkpt>
      <trkpt lat="47.33272" lon="-2.26989">
        <ele>-25.39999961853</ele>
        <time>2021-08-29T08:58:10.000Z</time>
      </trkpt>
      <trkpt lat="47.33253" lon="-2.26986">
        <ele>-25.39999961853</ele>
        <time>2021-08-29T08:58:15.000Z</time>
      </trkpt>
      <trkpt lat="47.33249" lon="-2.26986">
        <ele>-25.39999961853</ele>
        <time>2021-08-29T08:58:16.000Z</time>
      </trkpt>
      <trkpt lat="47.33235" lon="-2.26986">
        <ele>-25.39999961853</ele>
        <time>2021-08-29T08:58:19.000Z</time>
      </trkpt>
      <trkpt lat="47.33231" lon="-2.26987">
        <ele>-25.39999961853</ele>
        <time>2021-08-29T08:58:20.000Z</time>
      </trkpt>
      <trkpt lat="47.33219" lon="-2.26994">
        <ele>-25.39999961853</ele>
        <time>2021-08-29T08:58:23.000Z</time>
      </trkpt>
      <trkpt lat="47.33213" lon="-2.27">
        <ele>-25.39999961853</ele>
        <time>2021-08-29T08:58:25.000Z</time>
      </trkpt>
      <trkpt lat="47.33199" lon="-2.27022">
        <ele>-25.39999961853</ele>
        <time>2021-08-29T08:58:30.000Z</time>
      </trkpt>
      <trkpt lat="47.33187" lon="-2.27043">
        <ele>-25.39999961853</ele>
        <time>2021-08-29T08:58:34.000Z</time>
      </trkpt>
      <trkpt lat="47.3318" lon="-2.27052">
        <ele>-25.39999961853</ele>
        <time>2021-08-29T08:58:36.000Z</time>
      </trkpt>
      <trkpt lat="47.33178" lon="-2.27058">
        <ele>-25.39999961853</ele>
        <time>2021-08-29T08:58:37.000Z</time>
      </trkpt>
      <trkpt lat="47.33167" lon="-2.27083">
        <ele>-25.39999961853</ele>
        <time>2021-08-29T08:58:41.000Z</time>
      </trkpt>
      <trkpt lat="47.33148" lon="-2.27129">
        <ele>-25.39999961853</ele>
        <time>2021-08-29T08:58:48.000Z</time>
      </trkpt>
      <trkpt lat="47.33144" lon="-2.27142">
        <ele>-25.39999961853</ele>
        <time>2021-08-29T08:58:50.000Z</time>
      </trkpt>
      <trkpt lat="47.33138" lon="-2.27162">
        <ele>-25.39999961853</ele>
        <time>2021-08-29T08:58:54.000Z</time>
      </trkpt>
      <trkpt lat="47.33121" lon="-2.27196">
        <ele>-25.39999961853</ele>
        <time>2021-08-29T08:58:59.000Z</time>
      </trkpt>
      <trkpt lat="47.3311" lon="-2.27217">
        <ele>-25.39999961853</ele>
        <time>2021-08-29T08:59:02.000Z</time>
      </trkpt>
      <trkpt lat="47.33101" lon="-2.27229">
        <ele>-25.39999961853</ele>
        <time>2021-08-29T08:59:04.000Z</time>
      </trkpt>
      <trkpt lat="47.33089" lon="-2.27257">
        <ele>-25.39999961853</ele>
        <time>2021-08-29T08:59:08.000Z</time>
      </trkpt>
      <trkpt lat="47.33086" lon="-2.27263">
        <ele>-25.39999961853</ele>
        <time>2021-08-29T08:59:09.000Z</time>
      </trkpt>
      <trkpt lat="47.33077" lon="-2.27282">
        <ele>-25.39999961853</ele>
        <time>2021-08-29T08:59:12.000Z</time>
      </trkpt>
      <trkpt lat="47.33073" lon="-2.27297">
        <ele>-25.39999961853</ele>
        <time>2021-08-29T08:59:14.000Z</time>
      </trkpt>
      <trkpt lat="47.33066" lon="-2.2731">
        <ele>-25.39999961853</ele>
        <time>2021-08-29T08:59:16.000Z</time>
      </trkpt>
      <trkpt lat="47.33056" lon="-2.27331">
        <ele>-25.39999961853</ele>
        <time>2021-08-29T08:59:19.000Z</time>
      </trkpt>
      <trkpt lat="47.3305" lon="-2.27344">
        <ele>-25.39999961853</ele>
        <time>2021-08-29T08:59:21.000Z</time>
      </trkpt>
      <trkpt lat="47.3304" lon="-2.27365">
        <ele>-25.39999961853</ele>
        <time>2021-08-29T08:59:24.000Z</time>
      </trkpt>
      <trkpt lat="47.33019" lon="-2.27422">
        <ele>-25.39999961853</ele>
        <time>2021-08-29T08:59:32.000Z</time>
      </trkpt>
      <trkpt lat="47.33012" lon="-2.27443">
        <ele>-25.39999961853</ele>
        <time>2021-08-29T08:59:35.000Z</time>
      </trkpt>
      <trkpt lat="47.33008" lon="-2.27457">
        <ele>-25.39999961853</ele>
        <time>2021-08-29T08:59:37.000Z</time>
      </trkpt>
      <trkpt lat="47.32993" lon="-2.27504">
        <ele>-25.39999961853</ele>
        <time>2021-08-29T08:59:44.000Z</time>
      </trkpt>
      <trkpt lat="47.3298" lon="-2.27543">
        <ele>-25.39999961853</ele>
        <time>2021-08-29T08:59:50.000Z</time>
      </trkpt>
      <trkpt lat="47.32978" lon="-2.2755">
        <ele>-25.39999961853</ele>
        <time>2021-08-29T08:59:51.000Z</time>
      </trkpt>
      <trkpt lat="47.32975" lon="-2.27563">
        <ele>-25.39999961853</ele>
        <time>2021-08-29T08:59:53.000Z</time>
      </trkpt>
      <trkpt lat="47.32968" lon="-2.27583">
        <ele>-25.39999961853</ele>
        <time>2021-08-29T08:59:56.000Z</time>
      </trkpt>
      <trkpt lat="47.3296" lon="-2.27625">
        <ele>-25.39999961853</ele>
        <time>2021-08-29T09:00:02.000Z</time>
      </trkpt>
      <trkpt lat="47.32958" lon="-2.27631">
        <ele>-25.39999961853</ele>
        <time>2021-08-29T09:00:03.000Z</time>
      </trkpt>
      <trkpt lat="47.32957" lon="-2.27651">
        <ele>-25.39999961853</ele>
        <time>2021-08-29T09:00:06.000Z</time>
      </trkpt>
      <trkpt lat="47.32958" lon="-2.27664">
        <ele>-25.39999961853</ele>
        <time>2021-08-29T09:00:08.000Z</time>
      </trkpt>
      <trkpt lat="47.3296" lon="-2.27692">
        <ele>-25.39999961853</ele>
        <time>2021-08-29T09:00:12.000Z</time>
      </trkpt>
      <trkpt lat="47.32968" lon="-2.27726">
        <ele>-25.39999961853</ele>
        <time>2021-08-29T09:00:17.000Z</time>
      </trkpt>
      <trkpt lat="47.32976" lon="-2.27752">
        <ele>-25.39999961853</ele>
        <time>2021-08-29T09:00:21.000Z</time>
      </trkpt>
      <trkpt lat="47.3298" lon="-2.27763">
        <ele>-25.39999961853</ele>
        <time>2021-08-29T09:00:23.000Z</time>
      </trkpt>
      <trkpt lat="47.32997" lon="-2.27792">
        <ele>-25.39999961853</ele>
        <time>2021-08-29T09:00:29.000Z</time>
      </trkpt>
      <trkpt lat="47.33" lon="-2.27796">
        <ele>-25.39999961853</ele>
        <time>2021-08-29T09:00:33.000Z</time>
      </trkpt>
      <trkpt lat="47.33005" lon="-2.27804">
        <ele>-25.39999961853</ele>
        <time>2021-08-29T09:00:56.000Z</time>
      </trkpt>
      <trkpt lat="47.33012" lon="-2.2781">
        <ele>-25.39999961853</ele>
        <time>2021-08-29T09:00:59.000Z</time>
      </trkpt>
      <trkpt lat="47.3303" lon="-2.27828">
        <ele>-25.39999961853</ele>
        <time>2021-08-29T09:01:05.000Z</time>
      </trkpt>
      <trkpt lat="47.33052" lon="-2.27842">
        <ele>-25.39999961853</ele>
        <time>2021-08-29T09:01:11.000Z</time>
      </trkpt>
      <trkpt lat="47.33074" lon="-2.27853">
        <ele>-25.39999961853</ele>
        <time>2021-08-29T09:01:17.000Z</time>
      </trkpt>
      <trkpt lat="47.33089" lon="-2.27866">
        <ele>-25.39999961853</ele>
        <time>2021-08-29T09:01:22.000Z</time>
      </trkpt>
      <trkpt lat="47.33107" lon="-2.27888">
        <ele>-25.39999961853</ele>
        <time>2021-08-29T09:01:28.000Z</time>
      </trkpt>
      <trkpt lat="47.33108" lon="-2.27904">
        <ele>-25.39999961853</ele>
        <time>2021-08-29T09:01:31.000Z</time>
      </trkpt>
      <trkpt lat="47.33103" lon="-2.27914">
        <ele>-25.39999961853</ele>
        <time>2021-08-29T09:01:33.000Z</time>
      </trkpt>
      <trkpt lat="47.331" lon="-2.27919">
        <ele>-25.39999961853</ele>
        <time>2021-08-29T09:01:34.000Z</time>
      </trkpt>
      <trkpt lat="47.33085" lon="-2.27942">
        <ele>-25.39999961853</ele>
        <time>2021-08-29T09:01:40.000Z</time>
      </trkpt>
      <trkpt lat="47.33083" lon="-2.27943">
        <ele>-25.39999961853</ele>
        <time>2021-08-29T09:01:44.000Z</time>
      </trkpt>
      <trkpt lat="47.33071" lon="-2.27964">
        <ele>-25.39999961853</ele>
        <time>2021-08-29T09:02:08.000Z</time>
      </trkpt>
      <trkpt lat="47.33071" lon="-2.27965">
        <ele>-25.39999961853</ele>
        <time>2021-08-29T09:02:10.000Z</time>
      </trkpt>
      <trkpt lat="47.33068" lon="-2.2797">
        <ele>-25.39999961853</ele>
        <time>2021-08-29T09:02:18.000Z</time>
      </trkpt>
      <trkpt lat="47.33063" lon="-2.27981">
        <ele>-25.39999961853</ele>
        <time>2021-08-29T09:02:23.000Z</time>
      </trkpt>
      <trkpt lat="47.33057" lon="-2.27997">
        <ele>-25.39999961853</ele>
        <time>2021-08-29T09:02:27.000Z</time>
      </trkpt>
      <trkpt lat="47.33042" lon="-2.28014">
        <ele>-25.39999961853</ele>
        <time>2021-08-29T09:02:32.000Z</time>
      </trkpt>
      <trkpt lat="47.33026" lon="-2.28039">
        <ele>-25.39999961853</ele>
        <time>2021-08-29T09:02:38.000Z</time>
      </trkpt>
      <trkpt lat="47.33007" lon="-2.28069">
        <ele>-25.39999961853</ele>
        <time>2021-08-29T09:02:45.000Z</time>
      </trkpt>
      <trkpt lat="47.32989" lon="-2.28075">
        <ele>-25.39999961853</ele>
        <time>2021-08-29T09:02:49.000Z</time>
      </trkpt>
      <trkpt lat="47.32985" lon="-2.28074">
        <ele>-25.39999961853</ele>
        <time>2021-08-29T09:02:50.000Z</time>
      </trkpt>
      <trkpt lat="47.32966" lon="-2.28071">
        <ele>-25.39999961853</ele>
        <time>2021-08-29T09:02:54.000Z</time>
      </trkpt>
      <trkpt lat="47.32949" lon="-2.28082">
        <ele>-25.39999961853</ele>
        <time>2021-08-29T09:02:58.000Z</time>
      </trkpt>
      <trkpt lat="47.32913" lon="-2.28095">
        <ele>-25.39999961853</ele>
        <time>2021-08-29T09:03:05.000Z</time>
      </trkpt>
      <trkpt lat="47.32886" lon="-2.28108">
        <ele>-25.39999961853</ele>
        <time>2021-08-29T09:03:11.000Z</time>
      </trkpt>
      <trkpt lat="47.3286" lon="-2.28121">
        <ele>-25.39999961853</ele>
        <time>2021-08-29T09:03:17.000Z</time>
      </trkpt>
      <trkpt lat="47.32852" lon="-2.28125">
        <ele>-25.799999237061</ele>
        <time>2021-08-29T09:03:19.000Z</time>
      </trkpt>
      <trkpt lat="47.32848" lon="-2.28127">
        <ele>-26.200000762939</ele>
        <time>2021-08-29T09:03:20.000Z</time>
      </trkpt>
      <trkpt lat="47.32844" lon="-2.2813">
        <ele>-26.799999237061</ele>
        <time>2021-08-29T09:03:21.000Z</time>
      </trkpt>
      <trkpt lat="47.3284" lon="-2.28132">
        <ele>-27.200000762939</ele>
        <time>2021-08-29T09:03:22.000Z</time>
      </trkpt>
      <trkpt lat="47.32835" lon="-2.28135">
        <ele>-27.60000038147</ele>
        <time>2021-08-29T09:03:23.000Z</time>
      </trkpt>
      <trkpt lat="47.32831" lon="-2.28137">
        <ele>-27.60000038147</ele>
        <time>2021-08-29T09:03:24.000Z</time>
      </trkpt>
      <trkpt lat="47.32797" lon="-2.28154">
        <ele>-27.60000038147</ele>
        <time>2021-08-29T09:03:32.000Z</time>
      </trkpt>
      <trkpt lat="47.32772" lon="-2.28167">
        <ele>-27.60000038147</ele>
        <time>2021-08-29T09:03:38.000Z</time>
      </trkpt>
      <trkpt lat="47.32769" lon="-2.2817">
        <ele>-27.60000038147</ele>
        <time>2021-08-29T09:03:39.000Z</time>
      </trkpt>
      <trkpt lat="47.32758" lon="-2.28185">
        <ele>-27.60000038147</ele>
        <time>2021-08-29T09:03:44.000Z</time>
      </trkpt>
      <trkpt lat="47.32756" lon="-2.28192">
        <ele>-27.60000038147</ele>
        <time>2021-08-29T09:03:48.000Z</time>
      </trkpt>
      <trkpt lat="47.32757" lon="-2.28197">
        <ele>-27.60000038147</ele>
        <time>2021-08-29T09:03:55.000Z</time>
      </trkpt>
      <trkpt lat="47.32758" lon="-2.282">
        <ele>-27.60000038147</ele>
        <time>2021-08-29T09:03:58.000Z</time>
      </trkpt>
      <trkpt lat="47.32758" lon="-2.282">
        <ele>-27.60000038147</ele>
        <time>2021-08-29T09:03:59.000Z</time>
      </trkpt>
      <trkpt lat="47.32758" lon="-2.28209">
        <ele>-27.60000038147</ele>
        <time>2021-08-29T09:04:34.000Z</time>
      </trkpt>
      <trkpt lat="47.32758" lon="-2.28216">
        <ele>-27.60000038147</ele>
        <time>2021-08-29T09:04:37.000Z</time>
      </trkpt>
      <trkpt lat="47.32754" lon="-2.28235">
        <ele>-27.60000038147</ele>
        <time>2021-08-29T09:04:43.000Z</time>
      </trkpt>
      <trkpt lat="47.32743" lon="-2.28255">
        <ele>-27.60000038147</ele>
        <time>2021-08-29T09:04:48.000Z</time>
      </trkpt>
      <trkpt lat="47.3274" lon="-2.28259">
        <ele>-27.200000762939</ele>
        <time>2021-08-29T09:04:49.000Z</time>
      </trkpt>
      <trkpt lat="47.32736" lon="-2.28263">
        <ele>-26.200000762939</ele>
        <time>2021-08-29T09:04:50.000Z</time>
      </trkpt>
      <trkpt lat="47.32733" lon="-2.28266">
        <ele>-25.799999237061</ele>
        <time>2021-08-29T09:04:51.000Z</time>
      </trkpt>
      <trkpt lat="47.3273" lon="-2.2827">
        <ele>-25.39999961853</ele>
        <time>2021-08-29T09:04:52.000Z</time>
      </trkpt>
      <trkpt lat="47.3272" lon="-2.28283">
        <ele>-25.39999961853</ele>
        <time>2021-08-29T09:04:55.000Z</time>
      </trkpt>
      <trkpt lat="47.3269" lon="-2.28317">
        <ele>-25.39999961853</ele>
        <time>2021-08-29T09:05:03.000Z</time>
      </trkpt>
      <trkpt lat="47.32657" lon="-2.28343">
        <ele>-25.39999961853</ele>
        <time>2021-08-29T09:05:10.000Z</time>
      </trkpt>
      <trkpt lat="47.32635" lon="-2.28345">
        <ele>-25.39999961853</ele>
        <time>2021-08-29T09:05:14.000Z</time>
      </trkpt>
      <trkpt lat="47.32621" lon="-2.28328">
        <ele>-25.39999961853</ele>
        <time>2021-08-29T09:05:17.000Z</time>
      </trkpt>
      <trkpt lat="47.32614" lon="-2.28302">
        <ele>-25.39999961853</ele>
        <time>2021-08-29T09:05:20.000Z</time>
      </trkpt>
      <trkpt lat="47.32611" lon="-2.28293">
        <ele>-25.39999961853</ele>
        <time>2021-08-29T09:05:21.000Z</time>
      </trkpt>
      <trkpt lat="47.32597" lon="-2.28224">
        <ele>-25.39999961853</ele>
        <time>2021-08-29T09:05:28.000Z</time>
      </trkpt>
      <trkpt lat="47.32582" lon="-2.28145">
        <ele>-25.39999961853</ele>
        <time>2021-08-29T09:05:36.000Z</time>
      </trkpt>
      <trkpt lat="47.3258" lon="-2.28135">
        <ele>-25.39999961853</ele>
        <time>2021-08-29T09:05:37.000Z</time>
      </trkpt>
      <trkpt lat="47.32565" lon="-2.28067">
        <ele>-25.39999961853</ele>
        <time>2021-08-29T09:05:44.000Z</time>
      </trkpt>
      <trkpt lat="47.32549" lon="-2.27991">
        <ele>-25.39999961853</ele>
        <time>2021-08-29T09:05:52.000Z</time>
      </trkpt>
      <trkpt lat="47.32546" lon="-2.27982">
        <ele>-25.39999961853</ele>
        <time>2021-08-29T09:05:53.000Z</time>
      </trkpt>
      <trkpt lat="47.32532" lon="-2.27915">
        <ele>-25.39999961853</ele>
        <time>2021-08-29T09:06:00.000Z</time>
      </trkpt>
      <trkpt lat="47.32516" lon="-2.27851">
        <ele>-25.39999961853</ele>
        <time>2021-08-29T09:06:07.000Z</time>
      </trkpt>
      <trkpt lat="47.32502" lon="-2.27832">
        <ele>-25.39999961853</ele>
        <time>2021-08-29T09:06:10.000Z</time>
      </trkpt>
      <trkpt lat="47.32483" lon="-2.2783">
        <ele>-25.39999961853</ele>
        <time>2021-08-29T09:06:13.000Z</time>
      </trkpt>
      <trkpt lat="47.32475" lon="-2.2783">
        <ele>-25.39999961853</ele>
        <time>2021-08-29T09:06:14.000Z</time>
      </trkpt>
      <trkpt lat="47.32441" lon="-2.27832">
        <ele>-25.39999961853</ele>
        <time>2021-08-29T09:06:19.000Z</time>
      </trkpt>
      <trkpt lat="47.32392" lon="-2.27835">
        <ele>-25.39999961853</ele>
        <time>2021-08-29T09:06:26.000Z</time>
      </trkpt>
      <trkpt lat="47.32339" lon="-2.27837">
        <ele>-25.39999961853</ele>
        <time>2021-08-29T09:06:34.000Z</time>
      </trkpt>
      <trkpt lat="47.32328" lon="-2.27837">
        <ele>-25.39999961853</ele>
        <time>2021-08-29T09:06:36.000Z</time>
      </trkpt>
      <trkpt lat="47.32321" lon="-2.27829">
        <ele>-25.39999961853</ele>
        <time>2021-08-29T09:06:38.000Z</time>
      </trkpt>
      <trkpt lat="47.32323" lon="-2.27814">
        <ele>-25.39999961853</ele>
        <time>2021-08-29T09:06:41.000Z</time>
      </trkpt>
      <trkpt lat="47.32333" lon="-2.27787">
        <ele>-25.39999961853</ele>
        <time>2021-08-29T09:06:46.000Z</time>
      </trkpt>
      <trkpt lat="47.32334" lon="-2.2778">
        <ele>-25.39999961853</ele>
        <time>2021-08-29T09:06:47.000Z</time>
      </trkpt>
      <trkpt lat="47.32343" lon="-2.27743">
        <ele>-25.39999961853</ele>
        <time>2021-08-29T09:06:52.000Z</time>
      </trkpt>
      <trkpt lat="47.3235" lon="-2.27675">
        <ele>-25.39999961853</ele>
        <time>2021-08-29T09:07:00.000Z</time>
      </trkpt>
      <trkpt lat="47.32358" lon="-2.27634">
        <ele>-25.39999961853</ele>
        <time>2021-08-29T09:07:05.000Z</time>
      </trkpt>
      <trkpt lat="47.32358" lon="-2.27625">
        <ele>-25.39999961853</ele>
        <time>2021-08-29T09:07:06.000Z</time>
      </trkpt>
      <trkpt lat="47.32362" lon="-2.2759">
        <ele>-25.39999961853</ele>
        <time>2021-08-29T09:07:10.000Z</time>
      </trkpt>
      <trkpt lat="47.32364" lon="-2.27581">
        <ele>-25.39999961853</ele>
        <time>2021-08-29T09:07:11.000Z</time>
      </trkpt>
      <trkpt lat="47.32364" lon="-2.27546">
        <ele>-25.39999961853</ele>
        <time>2021-08-29T09:07:15.000Z</time>
      </trkpt>
      <trkpt lat="47.32362" lon="-2.27538">
        <ele>-25.39999961853</ele>
        <time>2021-08-29T09:07:16.000Z</time>
      </trkpt>
      <trkpt lat="47.32356" lon="-2.27514">
        <ele>-25.39999961853</ele>
        <time>2021-08-29T09:07:19.000Z</time>
      </trkpt>
      <trkpt lat="47.32351" lon="-2.2751">
        <ele>-25.39999961853</ele>
        <time>2021-08-29T09:07:20.000Z</time>
      </trkpt>
      <trkpt lat="47.32334" lon="-2.27509">
        <ele>-25.39999961853</ele>
        <time>2021-08-29T09:07:23.000Z</time>
      </trkpt>
      <trkpt lat="47.32293" lon="-2.27505">
        <ele>-25.39999961853</ele>
        <time>2021-08-29T09:07:30.000Z</time>
      </trkpt>
      <trkpt lat="47.32256" lon="-2.27502">
        <ele>-25.39999961853</ele>
        <time>2021-08-29T09:07:37.000Z</time>
      </trkpt>
      <trkpt lat="47.32251" lon="-2.27503">
        <ele>-25.39999961853</ele>
        <time>2021-08-29T09:07:38.000Z</time>
      </trkpt>
      <trkpt lat="47.32241" lon="-2.27492">
        <ele>-25.39999961853</ele>
        <time>2021-08-29T09:07:41.000Z</time>
      </trkpt>
      <trkpt lat="47.32241" lon="-2.27472">
        <ele>-25.39999961853</ele>
        <time>2021-08-29T09:07:44.000Z</time>
      </trkpt>
      <trkpt lat="47.32243" lon="-2.27457">
        <ele>-25.39999961853</ele>
        <time>2021-08-29T09:07:46.000Z</time>
      </trkpt>
      <trkpt lat="47.32248" lon="-2.27425">
        <ele>-25.39999961853</ele>
        <time>2021-08-29T09:07:50.000Z</time>
      </trkpt>
      <trkpt lat="47.3225" lon="-2.27408">
        <ele>-25.39999961853</ele>
        <time>2021-08-29T09:07:52.000Z</time>
      </trkpt>
      <trkpt lat="47.32252" lon="-2.27383">
        <ele>-25.39999961853</ele>
        <time>2021-08-29T09:07:55.000Z</time>
      </trkpt>
      <trkpt lat="47.32252" lon="-2.27374">
        <ele>-25.39999961853</ele>
        <time>2021-08-29T09:07:56.000Z</time>
      </trkpt>
      <trkpt lat="47.32251" lon="-2.27365">
        <ele>-25</ele>
        <time>2021-08-29T09:07:57.000Z</time>
      </trkpt>
      <trkpt lat="47.32251" lon="-2.27356">
        <ele>-24.60000038147</ele>
        <time>2021-08-29T09:07:58.000Z</time>
      </trkpt>
      <trkpt lat="47.3225" lon="-2.27347">
        <ele>-24.200000762939</ele>
        <time>2021-08-29T09:07:59.000Z</time>
      </trkpt>
      <trkpt lat="47.3225" lon="-2.27338">
        <ele>-23.799999237061</ele>
        <time>2021-08-29T09:08:00.000Z</time>
      </trkpt>
      <trkpt lat="47.32251" lon="-2.27329">
        <ele>-23.39999961853</ele>
        <time>2021-08-29T09:08:01.000Z</time>
      </trkpt>
      <trkpt lat="47.32259" lon="-2.27307">
        <ele>-23.39999961853</ele>
        <time>2021-08-29T09:08:04.000Z</time>
      </trkpt>
      <trkpt lat="47.32274" lon="-2.27297">
        <ele>-23.39999961853</ele>
        <time>2021-08-29T09:08:07.000Z</time>
      </trkpt>
      <trkpt lat="47.3228" lon="-2.27294">
        <ele>-23.39999961853</ele>
        <time>2021-08-29T09:08:08.000Z</time>
      </trkpt>
      <trkpt lat="47.32319" lon="-2.2727">
        <ele>-23.39999961853</ele>
        <time>2021-08-29T09:08:15.000Z</time>
      </trkpt>
      <trkpt lat="47.32351" lon="-2.27239">
        <ele>-23.39999961853</ele>
        <time>2021-08-29T09:08:22.000Z</time>
      </trkpt>
      <trkpt lat="47.32363" lon="-2.27208">
        <ele>-23</ele>
        <time>2021-08-29T09:08:27.000Z</time>
      </trkpt>
      <trkpt lat="47.32365" lon="-2.27201">
        <ele>-22.39999961853</ele>
        <time>2021-08-29T09:08:28.000Z</time>
      </trkpt>
      <trkpt lat="47.32367" lon="-2.27194">
        <ele>-22</ele>
        <time>2021-08-29T09:08:29.000Z</time>
      </trkpt>
      <trkpt lat="47.3237" lon="-2.27187">
        <ele>-21.39999961853</ele>
        <time>2021-08-29T09:08:30.000Z</time>
      </trkpt>
      <trkpt lat="47.32372" lon="-2.2718">
        <ele>-21</ele>
        <time>2021-08-29T09:08:31.000Z</time>
      </trkpt>
      <trkpt lat="47.32378" lon="-2.27155">
        <ele>-21</ele>
        <time>2021-08-29T09:08:34.000Z</time>
      </trkpt>
      <trkpt lat="47.32381" lon="-2.27118">
        <ele>-21</ele>
        <time>2021-08-29T09:08:38.000Z</time>
      </trkpt>
      <trkpt lat="47.32381" lon="-2.27108">
        <ele>-21</ele>
        <time>2021-08-29T09:08:39.000Z</time>
      </trkpt>
      <trkpt lat="47.32378" lon="-2.27065">
        <ele>-21</ele>
        <time>2021-08-29T09:08:44.000Z</time>
      </trkpt>
      <trkpt lat="47.32378" lon="-2.27057">
        <ele>-21</ele>
        <time>2021-08-29T09:08:45.000Z</time>
      </trkpt>
      <trkpt lat="47.3238" lon="-2.27032">
        <ele>-21</ele>
        <time>2021-08-29T09:08:48.000Z</time>
      </trkpt>
      <trkpt lat="47.32385" lon="-2.2702">
        <ele>-21</ele>
        <time>2021-08-29T09:08:50.000Z</time>
      </trkpt>
      <trkpt lat="47.32401" lon="-2.27019">
        <ele>-21.39999961853</ele>
        <time>2021-08-29T09:08:53.000Z</time>
      </trkpt>
      <trkpt lat="47.32407" lon="-2.2702">
        <ele>-21.799999237061</ele>
        <time>2021-08-29T09:08:54.000Z</time>
      </trkpt>
      <trkpt lat="47.32413" lon="-2.27021">
        <ele>-22.200000762939</ele>
        <time>2021-08-29T09:08:55.000Z</time>
      </trkpt>
      <trkpt lat="47.32419" lon="-2.27022">
        <ele>-22.60000038147</ele>
        <time>2021-08-29T09:08:56.000Z</time>
      </trkpt>
      <trkpt lat="47.32424" lon="-2.27023">
        <ele>-23.200000762939</ele>
        <time>2021-08-29T09:08:57.000Z</time>
      </trkpt>
      <trkpt lat="47.32436" lon="-2.27023">
        <ele>-23.200000762939</ele>
        <time>2021-08-29T09:08:59.000Z</time>
      </trkpt>
      <trkpt lat="47.32442" lon="-2.2702">
        <ele>-23.200000762939</ele>
        <time>2021-08-29T09:09:00.000Z</time>
      </trkpt>
      <trkpt lat="47.3245" lon="-2.27007">
        <ele>-23.200000762939</ele>
        <time>2021-08-29T09:09:02.000Z</time>
      </trkpt>
      <trkpt lat="47.3245" lon="-2.2698">
        <ele>-23.200000762939</ele>
        <time>2021-08-29T09:09:05.000Z</time>
      </trkpt>
      <trkpt lat="47.32445" lon="-2.26955">
        <ele>-23.200000762939</ele>
        <time>2021-08-29T09:09:08.000Z</time>
      </trkpt>
      <trkpt lat="47.3244" lon="-2.26929">
        <ele>-23.200000762939</ele>
        <time>2021-08-29T09:09:11.000Z</time>
      </trkpt>
      <trkpt lat="47.32425" lon="-2.26846">
        <ele>-23.200000762939</ele>
        <time>2021-08-29T09:09:20.000Z</time>
      </trkpt>
      <trkpt lat="47.32424" lon="-2.26836">
        <ele>-23.200000762939</ele>
        <time>2021-08-29T09:09:21.000Z</time>
      </trkpt>
      <trkpt lat="47.32421" lon="-2.26777">
        <ele>-23.200000762939</ele>
        <time>2021-08-29T09:09:27.000Z</time>
      </trkpt>
      <trkpt lat="47.32421" lon="-2.26748">
        <ele>-23.200000762939</ele>
        <time>2021-08-29T09:09:30.000Z</time>
      </trkpt>
      <trkpt lat="47.3242" lon="-2.26699">
        <ele>-23.200000762939</ele>
        <time>2021-08-29T09:09:35.000Z</time>
      </trkpt>
      <trkpt lat="47.32413" lon="-2.26658">
        <ele>-23.200000762939</ele>
        <time>2021-08-29T09:09:39.000Z</time>
      </trkpt>
      <trkpt lat="47.32411" lon="-2.26649">
        <ele>-23.200000762939</ele>
        <time>2021-08-29T09:09:40.000Z</time>
      </trkpt>
      <trkpt lat="47.32407" lon="-2.2664">
        <ele>-23.200000762939</ele>
        <time>2021-08-29T09:09:41.000Z</time>
      </trkpt>
      <trkpt lat="47.32395" lon="-2.26604">
        <ele>-23.200000762939</ele>
        <time>2021-08-29T09:09:45.000Z</time>
      </trkpt>
      <trkpt lat="47.32382" lon="-2.26548">
        <ele>-23.200000762939</ele>
        <time>2021-08-29T09:09:51.000Z</time>
      </trkpt>
      <trkpt lat="47.32379" lon="-2.2654">
        <ele>-23.200000762939</ele>
        <time>2021-08-29T09:09:52.000Z</time>
      </trkpt>
      <trkpt lat="47.32371" lon="-2.26529">
        <ele>-23.200000762939</ele>
        <time>2021-08-29T09:09:54.000Z</time>
      </trkpt>
      <trkpt lat="47.32365" lon="-2.26527">
        <ele>-23.60000038147</ele>
        <time>2021-08-29T09:09:55.000Z</time>
      </trkpt>
      <trkpt lat="47.32359" lon="-2.2653">
        <ele>-24</ele>
        <time>2021-08-29T09:09:56.000Z</time>
      </trkpt>
      <trkpt lat="47.32353" lon="-2.26533">
        <ele>-24.39999961853</ele>
        <time>2021-08-29T09:09:57.000Z</time>
      </trkpt>
      <trkpt lat="47.32347" lon="-2.26537">
        <ele>-24.799999237061</ele>
        <time>2021-08-29T09:09:58.000Z</time>
      </trkpt>
      <trkpt lat="47.32342" lon="-2.2654">
        <ele>-25.200000762939</ele>
        <time>2021-08-29T09:09:59.000Z</time>
      </trkpt>
      <trkpt lat="47.32326" lon="-2.26553">
        <ele>-25.200000762939</ele>
        <time>2021-08-29T09:10:02.000Z</time>
      </trkpt>
      <trkpt lat="47.32321" lon="-2.26559">
        <ele>-25.200000762939</ele>
        <time>2021-08-29T09:10:03.000Z</time>
      </trkpt>
      <trkpt lat="47.32303" lon="-2.26585">
        <ele>-25.200000762939</ele>
        <time>2021-08-29T09:10:07.000Z</time>
      </trkpt>
      <trkpt lat="47.32292" lon="-2.26596">
        <ele>-25.200000762939</ele>
        <time>2021-08-29T09:10:09.000Z</time>
      </trkpt>
      <trkpt lat="47.32274" lon="-2.26607">
        <ele>-25.200000762939</ele>
        <time>2021-08-29T09:10:12.000Z</time>
      </trkpt>
      <trkpt lat="47.32255" lon="-2.26608">
        <ele>-25.200000762939</ele>
        <time>2021-08-29T09:10:15.000Z</time>
      </trkpt>
      <trkpt lat="47.3225" lon="-2.26609">
        <ele>-25.200000762939</ele>
        <time>2021-08-29T09:10:16.000Z</time>
      </trkpt>
      <trkpt lat="47.32214" lon="-2.2661">
        <ele>-25.200000762939</ele>
        <time>2021-08-29T09:10:22.000Z</time>
      </trkpt>
      <trkpt lat="47.32207" lon="-2.26611">
        <ele>-25.200000762939</ele>
        <time>2021-08-29T09:10:23.000Z</time>
      </trkpt>
      <trkpt lat="47.32201" lon="-2.26611">
        <ele>-24.799999237061</ele>
        <time>2021-08-29T09:10:24.000Z</time>
      </trkpt>
      <trkpt lat="47.32195" lon="-2.26611">
        <ele>-24.39999961853</ele>
        <time>2021-08-29T09:10:25.000Z</time>
      </trkpt>
      <trkpt lat="47.32188" lon="-2.26611">
        <ele>-24</ele>
        <time>2021-08-29T09:10:26.000Z</time>
      </trkpt>
      <trkpt lat="47.32182" lon="-2.26611">
        <ele>-23.60000038147</ele>
        <time>2021-08-29T09:10:27.000Z</time>
      </trkpt>
      <trkpt lat="47.32175" lon="-2.2661">
        <ele>-23.200000762939</ele>
        <time>2021-08-29T09:10:28.000Z</time>
      </trkpt>
      <trkpt lat="47.32162" lon="-2.26609">
        <ele>-23.200000762939</ele>
        <time>2021-08-29T09:10:30.000Z</time>
      </trkpt>
      <trkpt lat="47.32149" lon="-2.26605">
        <ele>-23.200000762939</ele>
        <time>2021-08-29T09:10:32.000Z</time>
      </trkpt>
      <trkpt lat="47.3213" lon="-2.26598">
        <ele>-23.200000762939</ele>
        <time>2021-08-29T09:10:35.000Z</time>
      </trkpt>
      <trkpt lat="47.321" lon="-2.26585">
        <ele>-23.200000762939</ele>
        <time>2021-08-29T09:10:40.000Z</time>
      </trkpt>
      <trkpt lat="47.32087" lon="-2.26585">
        <ele>-22.799999237061</ele>
        <time>2021-08-29T09:10:42.000Z</time>
      </trkpt>
      <trkpt lat="47.3208" lon="-2.26586">
        <ele>-22.39999961853</ele>
        <time>2021-08-29T09:10:43.000Z</time>
      </trkpt>
      <trkpt lat="47.32074" lon="-2.26587">
        <ele>-22</ele>
        <time>2021-08-29T09:10:44.000Z</time>
      </trkpt>
      <trkpt lat="47.32067" lon="-2.26589">
        <ele>-21.60000038147</ele>
        <time>2021-08-29T09:10:45.000Z</time>
      </trkpt>
      <trkpt lat="47.32061" lon="-2.26591">
        <ele>-21.200000762939</ele>
        <time>2021-08-29T09:10:46.000Z</time>
      </trkpt>
      <trkpt lat="47.32041" lon="-2.26601">
        <ele>-21.200000762939</ele>
        <time>2021-08-29T09:10:49.000Z</time>
      </trkpt>
      <trkpt lat="47.32006" lon="-2.26625">
        <ele>-21.200000762939</ele>
        <time>2021-08-29T09:10:55.000Z</time>
      </trkpt>
      <trkpt lat="47.3196" lon="-2.26656">
        <ele>-21.200000762939</ele>
        <time>2021-08-29T09:11:03.000Z</time>
      </trkpt>
      <trkpt lat="47.3193" lon="-2.26683">
        <ele>-21.200000762939</ele>
        <time>2021-08-29T09:11:09.000Z</time>
      </trkpt>
      <trkpt lat="47.31914" lon="-2.26696">
        <ele>-20.60000038147</ele>
        <time>2021-08-29T09:11:12.000Z</time>
      </trkpt>
      <trkpt lat="47.31908" lon="-2.26701">
        <ele>-20.200000762939</ele>
        <time>2021-08-29T09:11:13.000Z</time>
      </trkpt>
      <trkpt lat="47.31903" lon="-2.26706">
        <ele>-19.799999237061</ele>
        <time>2021-08-29T09:11:14.000Z</time>
      </trkpt>
      <trkpt lat="47.31898" lon="-2.26711">
        <ele>-19.39999961853</ele>
        <time>2021-08-29T09:11:15.000Z</time>
      </trkpt>
      <trkpt lat="47.31892" lon="-2.26715">
        <ele>-19</ele>
        <time>2021-08-29T09:11:16.000Z</time>
      </trkpt>
      <trkpt lat="47.31886" lon="-2.26721">
        <ele>-19</ele>
        <time>2021-08-29T09:11:17.000Z</time>
      </trkpt>
      <trkpt lat="47.31843" lon="-2.26745">
        <ele>-19</ele>
        <time>2021-08-29T09:11:24.000Z</time>
      </trkpt>
      <trkpt lat="47.31825" lon="-2.26733">
        <ele>-19</ele>
        <time>2021-08-29T09:11:27.000Z</time>
      </trkpt>
      <trkpt lat="47.3181" lon="-2.26703">
        <ele>-19</ele>
        <time>2021-08-29T09:11:31.000Z</time>
      </trkpt>
      <trkpt lat="47.31795" lon="-2.26697">
        <ele>-19</ele>
        <time>2021-08-29T09:11:34.000Z</time>
      </trkpt>
      <trkpt lat="47.3178" lon="-2.26703">
        <ele>-19</ele>
        <time>2021-08-29T09:11:36.000Z</time>
      </trkpt>
      <trkpt lat="47.31773" lon="-2.26705">
        <ele>-19</ele>
        <time>2021-08-29T09:11:37.000Z</time>
      </trkpt>
      <trkpt lat="47.31752" lon="-2.26713">
        <ele>-19.39999961853</ele>
        <time>2021-08-29T09:11:40.000Z</time>
      </trkpt>
      <trkpt lat="47.31744" lon="-2.26715">
        <ele>-19.799999237061</ele>
        <time>2021-08-29T09:11:41.000Z</time>
      </trkpt>
      <trkpt lat="47.31737" lon="-2.26717">
        <ele>-20.39999961853</ele>
        <time>2021-08-29T09:11:42.000Z</time>
      </trkpt>
      <trkpt lat="47.3173" lon="-2.26719">
        <ele>-20.799999237061</ele>
        <time>2021-08-29T09:11:43.000Z</time>
      </trkpt>
      <trkpt lat="47.31722" lon="-2.26721">
        <ele>-21.200000762939</ele>
        <time>2021-08-29T09:11:44.000Z</time>
      </trkpt>
      <trkpt lat="47.31687" lon="-2.26727">
        <ele>-21.60000038147</ele>
        <time>2021-08-29T09:11:49.000Z</time>
      </trkpt>
      <trkpt lat="47.3168" lon="-2.26728">
        <ele>-22</ele>
        <time>2021-08-29T09:11:50.000Z</time>
      </trkpt>
      <trkpt lat="47.31674" lon="-2.2673">
        <ele>-22.39999961853</ele>
        <time>2021-08-29T09:11:51.000Z</time>
      </trkpt>
      <trkpt lat="47.31667" lon="-2.26731">
        <ele>-23.200000762939</ele>
        <time>2021-08-29T09:11:52.000Z</time>
      </trkpt>
      <trkpt lat="47.31648" lon="-2.26737">
        <ele>-23.200000762939</ele>
        <time>2021-08-29T09:11:55.000Z</time>
      </trkpt>
      <trkpt lat="47.31642" lon="-2.26741">
        <ele>-23.200000762939</ele>
        <time>2021-08-29T09:11:56.000Z</time>
      </trkpt>
      <trkpt lat="47.31619" lon="-2.26759">
        <ele>-23.200000762939</ele>
        <time>2021-08-29T09:12:00.000Z</time>
      </trkpt>
      <trkpt lat="47.31599" lon="-2.26759">
        <ele>-23.200000762939</ele>
        <time>2021-08-29T09:12:03.000Z</time>
      </trkpt>
      <trkpt lat="47.31586" lon="-2.26757">
        <ele>-23.200000762939</ele>
        <time>2021-08-29T09:12:05.000Z</time>
      </trkpt>
      <trkpt lat="47.31573" lon="-2.26758">
        <ele>-23.200000762939</ele>
        <time>2021-08-29T09:12:07.000Z</time>
      </trkpt>
      <trkpt lat="47.31567" lon="-2.26762">
        <ele>-23.200000762939</ele>
        <time>2021-08-29T09:12:08.000Z</time>
      </trkpt>
      <trkpt lat="47.31562" lon="-2.26767">
        <ele>-23.60000038147</ele>
        <time>2021-08-29T09:12:09.000Z</time>
      </trkpt>
      <trkpt lat="47.31557" lon="-2.26774">
        <ele>-24.200000762939</ele>
        <time>2021-08-29T09:12:10.000Z</time>
      </trkpt>
      <trkpt lat="47.31554" lon="-2.26783">
        <ele>-24.60000038147</ele>
        <time>2021-08-29T09:12:11.000Z</time>
      </trkpt>
      <trkpt lat="47.3155" lon="-2.26791">
        <ele>-25</ele>
        <time>2021-08-29T09:12:12.000Z</time>
      </trkpt>
      <trkpt lat="47.31547" lon="-2.268">
        <ele>-25.39999961853</ele>
        <time>2021-08-29T09:12:13.000Z</time>
      </trkpt>
      <trkpt lat="47.31537" lon="-2.26833">
        <ele>-25.39999961853</ele>
        <time>2021-08-29T09:12:17.000Z</time>
      </trkpt>
      <trkpt lat="47.31522" lon="-2.26873">
        <ele>-25.39999961853</ele>
        <time>2021-08-29T09:12:22.000Z</time>
      </trkpt>
      <trkpt lat="47.31507" lon="-2.26914">
        <ele>-25.39999961853</ele>
        <time>2021-08-29T09:12:28.000Z</time>
      </trkpt>
      <trkpt lat="47.31495" lon="-2.26953">
        <ele>-25.39999961853</ele>
        <time>2021-08-29T09:12:34.000Z</time>
      </trkpt>
      <trkpt lat="47.31493" lon="-2.26959">
        <ele>-25.39999961853</ele>
        <time>2021-08-29T09:12:35.000Z</time>
      </trkpt>
      <trkpt lat="47.31481" lon="-2.26983">
        <ele>-25.39999961853</ele>
        <time>2021-08-29T09:12:40.000Z</time>
      </trkpt>
      <trkpt lat="47.31474" lon="-2.26991">
        <ele>-25.39999961853</ele>
        <time>2021-08-29T09:12:42.000Z</time>
      </trkpt>
      <trkpt lat="47.31459" lon="-2.27002">
        <ele>-25.39999961853</ele>
        <time>2021-08-29T09:12:45.000Z</time>
      </trkpt>
      <trkpt lat="47.31454" lon="-2.27006">
        <ele>-25</ele>
        <time>2021-08-29T09:12:46.000Z</time>
      </trkpt>
      <trkpt lat="47.31449" lon="-2.2701">
        <ele>-24.39999961853</ele>
        <time>2021-08-29T09:12:47.000Z</time>
      </trkpt>
      <trkpt lat="47.31444" lon="-2.27014">
        <ele>-24</ele>
        <time>2021-08-29T09:12:48.000Z</time>
      </trkpt>
      <trkpt lat="47.3144" lon="-2.27018">
        <ele>-23.60000038147</ele>
        <time>2021-08-29T09:12:49.000Z</time>
      </trkpt>
      <trkpt lat="47.31435" lon="-2.27021">
        <ele>-23.200000762939</ele>
        <time>2021-08-29T09:12:50.000Z</time>
      </trkpt>
      <trkpt lat="47.31425" lon="-2.27029">
        <ele>-23.200000762939</ele>
        <time>2021-08-29T09:12:52.000Z</time>
      </trkpt>
      <trkpt lat="47.31389" lon="-2.27053">
        <ele>-23.200000762939</ele>
        <time>2021-08-29T09:12:59.000Z</time>
      </trkpt>
      <trkpt lat="47.31356" lon="-2.27069">
        <ele>-23.200000762939</ele>
        <time>2021-08-29T09:13:05.000Z</time>
      </trkpt>
      <trkpt lat="47.31338" lon="-2.27074">
        <ele>-22.799999237061</ele>
        <time>2021-08-29T09:13:08.000Z</time>
      </trkpt>
      <trkpt lat="47.31333" lon="-2.27076">
        <ele>-22.200000762939</ele>
        <time>2021-08-29T09:13:09.000Z</time>
      </trkpt>
      <trkpt lat="47.31327" lon="-2.27078">
        <ele>-21.799999237061</ele>
        <time>2021-08-29T09:13:10.000Z</time>
      </trkpt>
      <trkpt lat="47.31321" lon="-2.27079">
        <ele>-21.39999961853</ele>
        <time>2021-08-29T09:13:11.000Z</time>
      </trkpt>
      <trkpt lat="47.31316" lon="-2.27081">
        <ele>-21</ele>
        <time>2021-08-29T09:13:12.000Z</time>
      </trkpt>
      <trkpt lat="47.31285" lon="-2.27095">
        <ele>-21</ele>
        <time>2021-08-29T09:13:18.000Z</time>
      </trkpt>
      <trkpt lat="47.31276" lon="-2.27105">
        <ele>-21</ele>
        <time>2021-08-29T09:13:20.000Z</time>
      </trkpt>
      <trkpt lat="47.31274" lon="-2.27113">
        <ele>-21</ele>
        <time>2021-08-29T09:13:21.000Z</time>
      </trkpt>
      <trkpt lat="47.31274" lon="-2.27138">
        <ele>-21</ele>
        <time>2021-08-29T09:13:24.000Z</time>
      </trkpt>
      <trkpt lat="47.31277" lon="-2.27156">
        <ele>-21</ele>
        <time>2021-08-29T09:13:26.000Z</time>
      </trkpt>
      <trkpt lat="47.31283" lon="-2.27184">
        <ele>-21</ele>
        <time>2021-08-29T09:13:29.000Z</time>
      </trkpt>
      <trkpt lat="47.31301" lon="-2.2726">
        <ele>-21</ele>
        <time>2021-08-29T09:13:37.000Z</time>
      </trkpt>
      <trkpt lat="47.31305" lon="-2.27269">
        <ele>-21.39999961853</ele>
        <time>2021-08-29T09:13:38.000Z</time>
      </trkpt>
      <trkpt lat="47.31309" lon="-2.27278">
        <ele>-21.799999237061</ele>
        <time>2021-08-29T09:13:39.000Z</time>
      </trkpt>
      <trkpt lat="47.31314" lon="-2.27286">
        <ele>-22.39999961853</ele>
        <time>2021-08-29T09:13:40.000Z</time>
      </trkpt>
      <trkpt lat="47.31318" lon="-2.27294">
        <ele>-22.799999237061</ele>
        <time>2021-08-29T09:13:41.000Z</time>
      </trkpt>
      <trkpt lat="47.31323" lon="-2.27301">
        <ele>-23.200000762939</ele>
        <time>2021-08-29T09:13:42.000Z</time>
      </trkpt>
      <trkpt lat="47.31328" lon="-2.27309">
        <ele>-23.200000762939</ele>
        <time>2021-08-29T09:13:43.000Z</time>
      </trkpt>
      <trkpt lat="47.31366" lon="-2.27357">
        <ele>-23.200000762939</ele>
        <time>2021-08-29T09:13:50.000Z</time>
      </trkpt>
      <trkpt lat="47.3139" lon="-2.2739">
        <ele>-24</ele>
        <time>2021-08-29T09:13:55.000Z</time>
      </trkpt>
      <trkpt lat="47.31396" lon="-2.27396">
        <ele>-24.39999961853</ele>
        <time>2021-08-29T09:13:56.000Z</time>
      </trkpt>
      <trkpt lat="47.31401" lon="-2.27401">
        <ele>-24.799999237061</ele>
        <time>2021-08-29T09:13:57.000Z</time>
      </trkpt>
      <trkpt lat="47.31407" lon="-2.27406">
        <ele>-25.200000762939</ele>
        <time>2021-08-29T09:13:58.000Z</time>
      </trkpt>
      <trkpt lat="47.31438" lon="-2.27431">
        <ele>-25.200000762939</ele>
        <time>2021-08-29T09:14:04.000Z</time>
      </trkpt>
      <trkpt lat="47.31452" lon="-2.27445">
        <ele>-25.200000762939</ele>
        <time>2021-08-29T09:14:07.000Z</time>
      </trkpt>
      <trkpt lat="47.3146" lon="-2.27458">
        <ele>-25.200000762939</ele>
        <time>2021-08-29T09:14:09.000Z</time>
      </trkpt>
      <trkpt lat="47.31466" lon="-2.27474">
        <ele>-25.200000762939</ele>
        <time>2021-08-29T09:14:11.000Z</time>
      </trkpt>
      <trkpt lat="47.31474" lon="-2.27493">
        <ele>-25.200000762939</ele>
        <time>2021-08-29T09:14:14.000Z</time>
      </trkpt>
      <trkpt lat="47.31485" lon="-2.27531">
        <ele>-25.200000762939</ele>
        <time>2021-08-29T09:14:20.000Z</time>
      </trkpt>
      <trkpt lat="47.31487" lon="-2.27536">
        <ele>-25.200000762939</ele>
        <time>2021-08-29T09:14:21.000Z</time>
      </trkpt>
      <trkpt lat="47.31491" lon="-2.27547">
        <ele>-25.200000762939</ele>
        <time>2021-08-29T09:14:23.000Z</time>
      </trkpt>
      <trkpt lat="47.31494" lon="-2.27559">
        <ele>-25.200000762939</ele>
        <time>2021-08-29T09:14:25.000Z</time>
      </trkpt>
      <trkpt lat="47.31505" lon="-2.27599">
        <ele>-25.200000762939</ele>
        <time>2021-08-29T09:14:31.000Z</time>
      </trkpt>
      <trkpt lat="47.31505" lon="-2.27629">
        <ele>-25.200000762939</ele>
        <time>2021-08-29T09:14:35.000Z</time>
      </trkpt>
      <trkpt lat="47.31498" lon="-2.27651">
        <ele>-25.200000762939</ele>
        <time>2021-08-29T09:14:38.000Z</time>
      </trkpt>
      <trkpt lat="47.31494" lon="-2.27659">
        <ele>-25.200000762939</ele>
        <time>2021-08-29T09:14:39.000Z</time>
      </trkpt>
      <trkpt lat="47.3148" lon="-2.27687">
        <ele>-25.200000762939</ele>
        <time>2021-08-29T09:14:43.000Z</time>
      </trkpt>
      <trkpt lat="47.31468" lon="-2.277">
        <ele>-25.200000762939</ele>
        <time>2021-08-29T09:14:45.000Z</time>
      </trkpt>
      <trkpt lat="47.31431" lon="-2.27731">
        <ele>-25.200000762939</ele>
        <time>2021-08-29T09:14:51.000Z</time>
      </trkpt>
      <trkpt lat="47.31392" lon="-2.2775">
        <ele>-25.200000762939</ele>
        <time>2021-08-29T09:14:57.000Z</time>
      </trkpt>
      <trkpt lat="47.31353" lon="-2.27764">
        <ele>-25.200000762939</ele>
        <time>2021-08-29T09:15:03.000Z</time>
      </trkpt>
      <trkpt lat="47.31296" lon="-2.27772">
        <ele>-25.200000762939</ele>
        <time>2021-08-29T09:15:12.000Z</time>
      </trkpt>
      <trkpt lat="47.31245" lon="-2.2778">
        <ele>-25.200000762939</ele>
        <time>2021-08-29T09:15:20.000Z</time>
      </trkpt>
      <trkpt lat="47.31239" lon="-2.27779">
        <ele>-25.200000762939</ele>
        <time>2021-08-29T09:15:21.000Z</time>
      </trkpt>
      <trkpt lat="47.31226" lon="-2.27765">
        <ele>-25.200000762939</ele>
        <time>2021-08-29T09:15:24.000Z</time>
      </trkpt>
      <trkpt lat="47.31221" lon="-2.27749">
        <ele>-25.200000762939</ele>
        <time>2021-08-29T09:15:26.000Z</time>
      </trkpt>
      <trkpt lat="47.31214" lon="-2.27735">
        <ele>-25.200000762939</ele>
        <time>2021-08-29T09:15:28.000Z</time>
      </trkpt>
      <trkpt lat="47.312" lon="-2.27729">
        <ele>-25.200000762939</ele>
        <time>2021-08-29T09:15:31.000Z</time>
      </trkpt>
      <trkpt lat="47.31181" lon="-2.27742">
        <ele>-25.200000762939</ele>
        <time>2021-08-29T09:15:34.000Z</time>
      </trkpt>
      <trkpt lat="47.31175" lon="-2.27744">
        <ele>-25.200000762939</ele>
        <time>2021-08-29T09:15:35.000Z</time>
      </trkpt>
      <trkpt lat="47.31154" lon="-2.27744">
        <ele>-25.200000762939</ele>
        <time>2021-08-29T09:15:38.000Z</time>
      </trkpt>
      <trkpt lat="47.31141" lon="-2.27758">
        <ele>-25.200000762939</ele>
        <time>2021-08-29T09:15:41.000Z</time>
      </trkpt>
      <trkpt lat="47.31143" lon="-2.27783">
        <ele>-25.200000762939</ele>
        <time>2021-08-29T09:15:44.000Z</time>
      </trkpt>
      <trkpt lat="47.31144" lon="-2.27792">
        <ele>-25.200000762939</ele>
        <time>2021-08-29T09:15:45.000Z</time>
      </trkpt>
      <trkpt lat="47.31151" lon="-2.27841">
        <ele>-25.200000762939</ele>
        <time>2021-08-29T09:15:50.000Z</time>
      </trkpt>
      <trkpt lat="47.3115" lon="-2.27852">
        <ele>-25.200000762939</ele>
        <time>2021-08-29T09:15:51.000Z</time>
      </trkpt>
      <trkpt lat="47.31142" lon="-2.27872">
        <ele>-25.200000762939</ele>
        <time>2021-08-29T09:15:53.000Z</time>
      </trkpt>
      <trkpt lat="47.31127" lon="-2.27897">
        <ele>-25.200000762939</ele>
        <time>2021-08-29T09:15:56.000Z</time>
      </trkpt>
      <trkpt lat="47.31122" lon="-2.27905">
        <ele>-25.200000762939</ele>
        <time>2021-08-29T09:15:57.000Z</time>
      </trkpt>
      <trkpt lat="47.31084" lon="-2.27968">
        <ele>-25.200000762939</ele>
        <time>2021-08-29T09:16:05.000Z</time>
      </trkpt>
      <trkpt lat="47.31055" lon="-2.28017">
        <ele>-25.200000762939</ele>
        <time>2021-08-29T09:16:12.000Z</time>
      </trkpt>
      <trkpt lat="47.31023" lon="-2.28051">
        <ele>-25.200000762939</ele>
        <time>2021-08-29T09:16:18.000Z</time>
      </trkpt>
      <trkpt lat="47.30986" lon="-2.28077">
        <ele>-25.200000762939</ele>
        <time>2021-08-29T09:16:24.000Z</time>
      </trkpt>
      <trkpt lat="47.30948" lon="-2.28112">
        <ele>-25.200000762939</ele>
        <time>2021-08-29T09:16:30.000Z</time>
      </trkpt>
      <trkpt lat="47.30919" lon="-2.28152">
        <ele>-25.200000762939</ele>
        <time>2021-08-29T09:16:36.000Z</time>
      </trkpt>
      <trkpt lat="47.30888" lon="-2.28201">
        <ele>-25.200000762939</ele>
        <time>2021-08-29T09:16:43.000Z</time>
      </trkpt>
      <trkpt lat="47.30867" lon="-2.28228">
        <ele>-25.200000762939</ele>
        <time>2021-08-29T09:16:47.000Z</time>
      </trkpt>
      <trkpt lat="47.30855" lon="-2.28239">
        <ele>-25.200000762939</ele>
        <time>2021-08-29T09:16:49.000Z</time>
      </trkpt>
      <trkpt lat="47.30849" lon="-2.28242">
        <ele>-25.200000762939</ele>
        <time>2021-08-29T09:16:50.000Z</time>
      </trkpt>
      <trkpt lat="47.30829" lon="-2.2825">
        <ele>-25.200000762939</ele>
        <time>2021-08-29T09:16:53.000Z</time>
      </trkpt>
      <trkpt lat="47.30821" lon="-2.28251">
        <ele>-25.200000762939</ele>
        <time>2021-08-29T09:16:54.000Z</time>
      </trkpt>
      <trkpt lat="47.30814" lon="-2.28252">
        <ele>-25.200000762939</ele>
        <time>2021-08-29T09:16:55.000Z</time>
      </trkpt>
      <trkpt lat="47.30799" lon="-2.28252">
        <ele>-25.200000762939</ele>
        <time>2021-08-29T09:16:57.000Z</time>
      </trkpt>
      <trkpt lat="47.30792" lon="-2.2825">
        <ele>-25.200000762939</ele>
        <time>2021-08-29T09:16:58.000Z</time>
      </trkpt>
      <trkpt lat="47.30764" lon="-2.28231">
        <ele>-25.200000762939</ele>
        <time>2021-08-29T09:17:02.000Z</time>
      </trkpt>
      <trkpt lat="47.30751" lon="-2.28216">
        <ele>-25.200000762939</ele>
        <time>2021-08-29T09:17:04.000Z</time>
      </trkpt>
      <trkpt lat="47.30746" lon="-2.28208">
        <ele>-25.200000762939</ele>
        <time>2021-08-29T09:17:05.000Z</time>
      </trkpt>
      <trkpt lat="47.30741" lon="-2.28199">
        <ele>-25.200000762939</ele>
        <time>2021-08-29T09:17:06.000Z</time>
      </trkpt>
      <trkpt lat="47.30704" lon="-2.28149">
        <ele>-25.200000762939</ele>
        <time>2021-08-29T09:17:13.000Z</time>
      </trkpt>
      <trkpt lat="47.30692" lon="-2.28157">
        <ele>-25.200000762939</ele>
        <time>2021-08-29T09:17:15.000Z</time>
      </trkpt>
      <trkpt lat="47.30685" lon="-2.28175">
        <ele>-25.200000762939</ele>
        <time>2021-08-29T09:17:17.000Z</time>
      </trkpt>
      <trkpt lat="47.30681" lon="-2.28196">
        <ele>-25.200000762939</ele>
        <time>2021-08-29T09:17:19.000Z</time>
      </trkpt>
      <trkpt lat="47.30678" lon="-2.28214">
        <ele>-25.200000762939</ele>
        <time>2021-08-29T09:17:21.000Z</time>
      </trkpt>
      <trkpt lat="47.30671" lon="-2.2825">
        <ele>-25.200000762939</ele>
        <time>2021-08-29T09:17:25.000Z</time>
      </trkpt>
      <trkpt lat="47.30667" lon="-2.28256">
        <ele>-25.200000762939</ele>
        <time>2021-08-29T09:17:26.000Z</time>
      </trkpt>
      <trkpt lat="47.30655" lon="-2.28264">
        <ele>-25.200000762939</ele>
        <time>2021-08-29T09:17:28.000Z</time>
      </trkpt>
      <trkpt lat="47.30638" lon="-2.28272">
        <ele>-25.200000762939</ele>
        <time>2021-08-29T09:17:31.000Z</time>
      </trkpt>
      <trkpt lat="47.30607" lon="-2.28283">
        <ele>-25.200000762939</ele>
        <time>2021-08-29T09:17:35.000Z</time>
      </trkpt>
      <trkpt lat="47.3056" lon="-2.28305">
        <ele>-25.200000762939</ele>
        <time>2021-08-29T09:17:41.000Z</time>
      </trkpt>
      <trkpt lat="47.30508" lon="-2.28336">
        <ele>-25.200000762939</ele>
        <time>2021-08-29T09:17:48.000Z</time>
      </trkpt>
      <trkpt lat="47.3048" lon="-2.28355">
        <ele>-24.799999237061</ele>
        <time>2021-08-29T09:17:52.000Z</time>
      </trkpt>
      <trkpt lat="47.30473" lon="-2.28361">
        <ele>-24.39999961853</ele>
        <time>2021-08-29T09:17:53.000Z</time>
      </trkpt>
      <trkpt lat="47.30466" lon="-2.28365">
        <ele>-24</ele>
        <time>2021-08-29T09:17:54.000Z</time>
      </trkpt>
      <trkpt lat="47.30459" lon="-2.2837">
        <ele>-23.39999961853</ele>
        <time>2021-08-29T09:17:55.000Z</time>
      </trkpt>
      <trkpt lat="47.30451" lon="-2.28375">
        <ele>-23</ele>
        <time>2021-08-29T09:17:56.000Z</time>
      </trkpt>
      <trkpt lat="47.30443" lon="-2.2838">
        <ele>-23</ele>
        <time>2021-08-29T09:17:57.000Z</time>
      </trkpt>
      <trkpt lat="47.3039" lon="-2.28416">
        <ele>-23</ele>
        <time>2021-08-29T09:18:04.000Z</time>
      </trkpt>
      <trkpt lat="47.30369" lon="-2.28433">
        <ele>-23</ele>
        <time>2021-08-29T09:18:07.000Z</time>
      </trkpt>
      <trkpt lat="47.30325" lon="-2.28481">
        <ele>-23</ele>
        <time>2021-08-29T09:18:14.000Z</time>
      </trkpt>
      <trkpt lat="47.30299" lon="-2.28502">
        <ele>-23</ele>
        <time>2021-08-29T09:18:18.000Z</time>
      </trkpt>
      <trkpt lat="47.30285" lon="-2.2851">
        <ele>-23</ele>
        <time>2021-08-29T09:18:20.000Z</time>
      </trkpt>
      <trkpt lat="47.30251" lon="-2.28519">
        <ele>-22.60000038147</ele>
        <time>2021-08-29T09:18:25.000Z</time>
      </trkpt>
      <trkpt lat="47.30244" lon="-2.28519">
        <ele>-21.799999237061</ele>
        <time>2021-08-29T09:18:26.000Z</time>
      </trkpt>
      <trkpt lat="47.30236" lon="-2.28517">
        <ele>-21.200000762939</ele>
        <time>2021-08-29T09:18:27.000Z</time>
      </trkpt>
      <trkpt lat="47.30229" lon="-2.28515">
        <ele>-20.799999237061</ele>
        <time>2021-08-29T09:18:28.000Z</time>
      </trkpt>
      <trkpt lat="47.30222" lon="-2.28513">
        <ele>-20.799999237061</ele>
        <time>2021-08-29T09:18:29.000Z</time>
      </trkpt>
      <trkpt lat="47.30181" lon="-2.28494">
        <ele>-20.799999237061</ele>
        <time>2021-08-29T09:18:35.000Z</time>
      </trkpt>
      <trkpt lat="47.30149" lon="-2.28474">
        <ele>-20.799999237061</ele>
        <time>2021-08-29T09:18:40.000Z</time>
      </trkpt>
      <trkpt lat="47.30143" lon="-2.2847">
        <ele>-20.799999237061</ele>
        <time>2021-08-29T09:18:41.000Z</time>
      </trkpt>
      <trkpt lat="47.30111" lon="-2.2844">
        <ele>-20.39999961853</ele>
        <time>2021-08-29T09:18:47.000Z</time>
      </trkpt>
      <trkpt lat="47.30106" lon="-2.28435">
        <ele>-20</ele>
        <time>2021-08-29T09:18:48.000Z</time>
      </trkpt>
      <trkpt lat="47.30101" lon="-2.2843">
        <ele>-19.60000038147</ele>
        <time>2021-08-29T09:18:49.000Z</time>
      </trkpt>
      <trkpt lat="47.30096" lon="-2.28425">
        <ele>-19.200000762939</ele>
        <time>2021-08-29T09:18:50.000Z</time>
      </trkpt>
      <trkpt lat="47.30091" lon="-2.2842">
        <ele>-18.799999237061</ele>
        <time>2021-08-29T09:18:51.000Z</time>
      </trkpt>
      <trkpt lat="47.30085" lon="-2.28416">
        <ele>-18.799999237061</ele>
        <time>2021-08-29T09:18:52.000Z</time>
      </trkpt>
      <trkpt lat="47.30079" lon="-2.28412">
        <ele>-18.799999237061</ele>
        <time>2021-08-29T09:18:53.000Z</time>
      </trkpt>
      <trkpt lat="47.30061" lon="-2.28415">
        <ele>-18.799999237061</ele>
        <time>2021-08-29T09:18:56.000Z</time>
      </trkpt>
      <trkpt lat="47.30055" lon="-2.28418">
        <ele>-18.799999237061</ele>
        <time>2021-08-29T09:18:57.000Z</time>
      </trkpt>
      <trkpt lat="47.30011" lon="-2.28434">
        <ele>-18.799999237061</ele>
        <time>2021-08-29T09:19:05.000Z</time>
      </trkpt>
      <trkpt lat="47.29981" lon="-2.28445">
        <ele>-18.799999237061</ele>
        <time>2021-08-29T09:19:11.000Z</time>
      </trkpt>
      <trkpt lat="47.29976" lon="-2.28448">
        <ele>-18.799999237061</ele>
        <time>2021-08-29T09:19:12.000Z</time>
      </trkpt>
      <trkpt lat="47.29957" lon="-2.28465">
        <ele>-18.799999237061</ele>
        <time>2021-08-29T09:19:16.000Z</time>
      </trkpt>
      <trkpt lat="47.29947" lon="-2.2848">
        <ele>-18.799999237061</ele>
        <time>2021-08-29T09:19:19.000Z</time>
      </trkpt>
      <trkpt lat="47.29944" lon="-2.28485">
        <ele>-18.799999237061</ele>
        <time>2021-08-29T09:19:20.000Z</time>
      </trkpt>
      <trkpt lat="47.29942" lon="-2.28488">
        <ele>-18.799999237061</ele>
        <time>2021-08-29T09:19:21.000Z</time>
      </trkpt>
      <trkpt lat="47.29934" lon="-2.28486">
        <ele>-18.39999961853</ele>
        <time>2021-08-29T09:19:24.000Z</time>
      </trkpt>
      <trkpt lat="47.29933" lon="-2.28483">
        <ele>-18</ele>
        <time>2021-08-29T09:19:25.000Z</time>
      </trkpt>
      <trkpt lat="47.29932" lon="-2.28479">
        <ele>-17.60000038147</ele>
        <time>2021-08-29T09:19:26.000Z</time>
      </trkpt>
      <trkpt lat="47.29932" lon="-2.28475">
        <ele>-17.200000762939</ele>
        <time>2021-08-29T09:19:27.000Z</time>
      </trkpt>
      <trkpt lat="47.29932" lon="-2.2847">
        <ele>-16.799999237061</ele>
        <time>2021-08-29T09:19:28.000Z</time>
      </trkpt>
      <trkpt lat="47.29932" lon="-2.28465">
        <ele>-16.799999237061</ele>
        <time>2021-08-29T09:19:29.000Z</time>
      </trkpt>
      <trkpt lat="47.29936" lon="-2.28443">
        <ele>-16.799999237061</ele>
        <time>2021-08-29T09:19:33.000Z</time>
      </trkpt>
      <trkpt lat="47.29941" lon="-2.28432">
        <ele>-16.799999237061</ele>
        <time>2021-08-29T09:19:35.000Z</time>
      </trkpt>
      <trkpt lat="47.29944" lon="-2.2842">
        <ele>-16.799999237061</ele>
        <time>2021-08-29T09:19:37.000Z</time>
      </trkpt>
      <trkpt lat="47.29944" lon="-2.28384">
        <ele>-16.799999237061</ele>
        <time>2021-08-29T09:19:42.000Z</time>
      </trkpt>
      <trkpt lat="47.29946" lon="-2.28358">
        <ele>-16.799999237061</ele>
        <time>2021-08-29T09:19:45.000Z</time>
      </trkpt>
      <trkpt lat="47.29947" lon="-2.28349">
        <ele>-16.799999237061</ele>
        <time>2021-08-29T09:19:46.000Z</time>
      </trkpt>
      <trkpt lat="47.29948" lon="-2.28325">
        <ele>-16.799999237061</ele>
        <time>2021-08-29T09:19:49.000Z</time>
      </trkpt>
      <trkpt lat="47.29948" lon="-2.28309">
        <ele>-16.799999237061</ele>
        <time>2021-08-29T09:19:51.000Z</time>
      </trkpt>
      <trkpt lat="47.29948" lon="-2.28301">
        <ele>-16.799999237061</ele>
        <time>2021-08-29T09:19:52.000Z</time>
      </trkpt>
      <trkpt lat="47.29946" lon="-2.28266">
        <ele>-16.799999237061</ele>
        <time>2021-08-29T09:19:56.000Z</time>
      </trkpt>
      <trkpt lat="47.29946" lon="-2.2821">
        <ele>-16.799999237061</ele>
        <time>2021-08-29T09:20:02.000Z</time>
      </trkpt>
      <trkpt lat="47.29947" lon="-2.28201">
        <ele>-16.799999237061</ele>
        <time>2021-08-29T09:20:03.000Z</time>
      </trkpt>
      <trkpt lat="47.29953" lon="-2.28178">
        <ele>-16.799999237061</ele>
        <time>2021-08-29T09:20:06.000Z</time>
      </trkpt>
      <trkpt lat="47.29955" lon="-2.28169">
        <ele>-16.39999961853</ele>
        <time>2021-08-29T09:20:07.000Z</time>
      </trkpt>
      <trkpt lat="47.29957" lon="-2.28161">
        <ele>-16</ele>
        <time>2021-08-29T09:20:08.000Z</time>
      </trkpt>
      <trkpt lat="47.2996" lon="-2.28151">
        <ele>-15.39999961853</ele>
        <time>2021-08-29T09:20:09.000Z</time>
      </trkpt>
      <trkpt lat="47.29962" lon="-2.28142">
        <ele>-15</ele>
        <time>2021-08-29T09:20:10.000Z</time>
      </trkpt>
      <trkpt lat="47.29965" lon="-2.28132">
        <ele>-14.60000038147</ele>
        <time>2021-08-29T09:20:11.000Z</time>
      </trkpt>
      <trkpt lat="47.29968" lon="-2.28121">
        <ele>-14.60000038147</ele>
        <time>2021-08-29T09:20:12.000Z</time>
      </trkpt>
      <trkpt lat="47.29988" lon="-2.2805">
        <ele>-14.60000038147</ele>
        <time>2021-08-29T09:20:20.000Z</time>
      </trkpt>
      <trkpt lat="47.29989" lon="-2.28035">
        <ele>-14.60000038147</ele>
        <time>2021-08-29T09:20:23.000Z</time>
      </trkpt>
      <trkpt lat="47.29981" lon="-2.28037">
        <ele>-14.60000038147</ele>
        <time>2021-08-29T09:20:26.000Z</time>
      </trkpt>
      <trkpt lat="47.29979" lon="-2.28039">
        <ele>-14.60000038147</ele>
        <time>2021-08-29T09:20:27.000Z</time>
      </trkpt>
      <trkpt lat="47.29967" lon="-2.28046">
        <ele>-14.60000038147</ele>
        <time>2021-08-29T09:20:30.000Z</time>
      </trkpt>
      <trkpt lat="47.29963" lon="-2.28047">
        <ele>-14.60000038147</ele>
        <time>2021-08-29T09:20:31.000Z</time>
      </trkpt>
      <trkpt lat="47.29944" lon="-2.28041">
        <ele>-14.60000038147</ele>
        <time>2021-08-29T09:20:35.000Z</time>
      </trkpt>
      <trkpt lat="47.29931" lon="-2.28016">
        <ele>-14.60000038147</ele>
        <time>2021-08-29T09:20:39.000Z</time>
      </trkpt>
      <trkpt lat="47.29927" lon="-2.28001">
        <ele>-14.60000038147</ele>
        <time>2021-08-29T09:20:41.000Z</time>
      </trkpt>
      <trkpt lat="47.29922" lon="-2.27978">
        <ele>-14.60000038147</ele>
        <time>2021-08-29T09:20:44.000Z</time>
      </trkpt>
      <trkpt lat="47.29927" lon="-2.27943">
        <ele>-14.60000038147</ele>
        <time>2021-08-29T09:20:48.000Z</time>
      </trkpt>
      <trkpt lat="47.29935" lon="-2.27883">
        <ele>-14.60000038147</ele>
        <time>2021-08-29T09:20:55.000Z</time>
      </trkpt>
      <trkpt lat="47.29944" lon="-2.27821">
        <ele>-14.60000038147</ele>
        <time>2021-08-29T09:21:03.000Z</time>
      </trkpt>
      <trkpt lat="47.29951" lon="-2.2777">
        <ele>-14.60000038147</ele>
        <time>2021-08-29T09:21:09.000Z</time>
      </trkpt>
      <trkpt lat="47.29952" lon="-2.27741">
        <ele>-14.60000038147</ele>
        <time>2021-08-29T09:21:12.000Z</time>
      </trkpt>
      <trkpt lat="47.29954" lon="-2.27712">
        <ele>-14.60000038147</ele>
        <time>2021-08-29T09:21:15.000Z</time>
      </trkpt>
      <trkpt lat="47.2996" lon="-2.27648">
        <ele>-14.60000038147</ele>
        <time>2021-08-29T09:21:22.000Z</time>
      </trkpt>
      <trkpt lat="47.29962" lon="-2.2763">
        <ele>-15</ele>
        <time>2021-08-29T09:21:24.000Z</time>
      </trkpt>
      <trkpt lat="47.29962" lon="-2.27622">
        <ele>-15.60000038147</ele>
        <time>2021-08-29T09:21:25.000Z</time>
      </trkpt>
      <trkpt lat="47.2996" lon="-2.27613">
        <ele>-16</ele>
        <time>2021-08-29T09:21:26.000Z</time>
      </trkpt>
      <trkpt lat="47.29958" lon="-2.27606">
        <ele>-16.39999961853</ele>
        <time>2021-08-29T09:21:27.000Z</time>
      </trkpt>
      <trkpt lat="47.29954" lon="-2.276">
        <ele>-16.799999237061</ele>
        <time>2021-08-29T09:21:28.000Z</time>
      </trkpt>
      <trkpt lat="47.29947" lon="-2.27593">
        <ele>-16.799999237061</ele>
        <time>2021-08-29T09:21:30.000Z</time>
      </trkpt>
      <trkpt lat="47.29935" lon="-2.27591">
        <ele>-16.799999237061</ele>
        <time>2021-08-29T09:21:33.000Z</time>
      </trkpt>
      <trkpt lat="47.29924" lon="-2.27593">
        <ele>-16.799999237061</ele>
        <time>2021-08-29T09:21:35.000Z</time>
      </trkpt>
      <trkpt lat="47.29887" lon="-2.27613">
        <ele>-16.799999237061</ele>
        <time>2021-08-29T09:21:41.000Z</time>
      </trkpt>
      <trkpt lat="47.29865" lon="-2.2762">
        <ele>-16.799999237061</ele>
        <time>2021-08-29T09:21:44.000Z</time>
      </trkpt>
      <trkpt lat="47.29852" lon="-2.27619">
        <ele>-16.799999237061</ele>
        <time>2021-08-29T09:21:46.000Z</time>
      </trkpt>
      <trkpt lat="47.29838" lon="-2.27614">
        <ele>-16.799999237061</ele>
        <time>2021-08-29T09:21:48.000Z</time>
      </trkpt>
      <trkpt lat="47.29824" lon="-2.27607">
        <ele>-16.799999237061</ele>
        <time>2021-08-29T09:21:50.000Z</time>
      </trkpt>
      <trkpt lat="47.29795" lon="-2.27595">
        <ele>-16.799999237061</ele>
        <time>2021-08-29T09:21:54.000Z</time>
      </trkpt>
      <trkpt lat="47.29781" lon="-2.27594">
        <ele>-16.799999237061</ele>
        <time>2021-08-29T09:21:56.000Z</time>
      </trkpt>
      <trkpt lat="47.29755" lon="-2.276">
        <ele>-16.799999237061</ele>
        <time>2021-08-29T09:22:00.000Z</time>
      </trkpt>
      <trkpt lat="47.29719" lon="-2.27615">
        <ele>-16.799999237061</ele>
        <time>2021-08-29T09:22:06.000Z</time>
      </trkpt>
      <trkpt lat="47.29695" lon="-2.27618">
        <ele>-16.799999237061</ele>
        <time>2021-08-29T09:22:10.000Z</time>
      </trkpt>
      <trkpt lat="47.29684" lon="-2.27616">
        <ele>-16.39999961853</ele>
        <time>2021-08-29T09:22:12.000Z</time>
      </trkpt>
      <trkpt lat="47.29679" lon="-2.27616">
        <ele>-16</ele>
        <time>2021-08-29T09:22:13.000Z</time>
      </trkpt>
      <trkpt lat="47.29673" lon="-2.27615">
        <ele>-15.60000038147</ele>
        <time>2021-08-29T09:22:14.000Z</time>
      </trkpt>
      <trkpt lat="47.29668" lon="-2.27614">
        <ele>-15.199999809265</ele>
        <time>2021-08-29T09:22:15.000Z</time>
      </trkpt>
      <trkpt lat="47.29662" lon="-2.27612">
        <ele>-14.800000190735</ele>
        <time>2021-08-29T09:22:16.000Z</time>
      </trkpt>
      <trkpt lat="47.29656" lon="-2.2761">
        <ele>-14.800000190735</ele>
        <time>2021-08-29T09:22:17.000Z</time>
      </trkpt>
      <trkpt lat="47.29651" lon="-2.27607">
        <ele>-14.800000190735</ele>
        <time>2021-08-29T09:22:18.000Z</time>
      </trkpt>
      <trkpt lat="47.29608" lon="-2.27581">
        <ele>-14.800000190735</ele>
        <time>2021-08-29T09:22:26.000Z</time>
      </trkpt>
      <trkpt lat="47.29586" lon="-2.27567">
        <ele>-14.39999961853</ele>
        <time>2021-08-29T09:22:30.000Z</time>
      </trkpt>
      <trkpt lat="47.29581" lon="-2.27563">
        <ele>-14</ele>
        <time>2021-08-29T09:22:31.000Z</time>
      </trkpt>
      <trkpt lat="47.29576" lon="-2.2756">
        <ele>-13.60000038147</ele>
        <time>2021-08-29T09:22:32.000Z</time>
      </trkpt>
      <trkpt lat="47.29571" lon="-2.27557">
        <ele>-13</ele>
        <time>2021-08-29T09:22:33.000Z</time>
      </trkpt>
      <trkpt lat="47.29566" lon="-2.27555">
        <ele>-12.60000038147</ele>
        <time>2021-08-29T09:22:34.000Z</time>
      </trkpt>
      <trkpt lat="47.29554" lon="-2.2755">
        <ele>-12.60000038147</ele>
        <time>2021-08-29T09:22:36.000Z</time>
      </trkpt>
      <trkpt lat="47.29543" lon="-2.27546">
        <ele>-12.60000038147</ele>
        <time>2021-08-29T09:22:38.000Z</time>
      </trkpt>
      <trkpt lat="47.29502" lon="-2.27531">
        <ele>-12.60000038147</ele>
        <time>2021-08-29T09:22:45.000Z</time>
      </trkpt>
      <trkpt lat="47.29484" lon="-2.27526">
        <ele>-12.199999809265</ele>
        <time>2021-08-29T09:22:48.000Z</time>
      </trkpt>
      <trkpt lat="47.29477" lon="-2.27524">
        <ele>-11.800000190735</ele>
        <time>2021-08-29T09:22:49.000Z</time>
      </trkpt>
      <trkpt lat="47.29471" lon="-2.27523">
        <ele>-11.39999961853</ele>
        <time>2021-08-29T09:22:50.000Z</time>
      </trkpt>
      <trkpt lat="47.29464" lon="-2.27521">
        <ele>-11</ele>
        <time>2021-08-29T09:22:51.000Z</time>
      </trkpt>
      <trkpt lat="47.29458" lon="-2.27519">
        <ele>-10.60000038147</ele>
        <time>2021-08-29T09:22:52.000Z</time>
      </trkpt>
      <trkpt lat="47.29418" lon="-2.27516">
        <ele>-10.60000038147</ele>
        <time>2021-08-29T09:22:58.000Z</time>
      </trkpt>
      <trkpt lat="47.29373" lon="-2.27525">
        <ele>-10.60000038147</ele>
        <time>2021-08-29T09:23:05.000Z</time>
      </trkpt>
      <trkpt lat="47.29322" lon="-2.27534">
        <ele>-10.60000038147</ele>
        <time>2021-08-29T09:23:13.000Z</time>
      </trkpt>
      <trkpt lat="47.29292" lon="-2.27533">
        <ele>-10.60000038147</ele>
        <time>2021-08-29T09:23:18.000Z</time>
      </trkpt>
      <trkpt lat="47.29282" lon="-2.27537">
        <ele>-10.60000038147</ele>
        <time>2021-08-29T09:23:20.000Z</time>
      </trkpt>
      <trkpt lat="47.29277" lon="-2.27538">
        <ele>-10.60000038147</ele>
        <time>2021-08-29T09:23:21.000Z</time>
      </trkpt>
      <trkpt lat="47.29259" lon="-2.27535">
        <ele>-10.60000038147</ele>
        <time>2021-08-29T09:23:24.000Z</time>
      </trkpt>
      <trkpt lat="47.29253" lon="-2.27533">
        <ele>-10.199999809265</ele>
        <time>2021-08-29T09:23:25.000Z</time>
      </trkpt>
      <trkpt lat="47.29246" lon="-2.27531">
        <ele>-9.8000001907349</ele>
        <time>2021-08-29T09:23:26.000Z</time>
      </trkpt>
      <trkpt lat="47.29239" lon="-2.2753">
        <ele>-9.3999996185303</ele>
        <time>2021-08-29T09:23:27.000Z</time>
      </trkpt>
      <trkpt lat="47.29233" lon="-2.2753">
        <ele>-9</ele>
        <time>2021-08-29T09:23:28.000Z</time>
      </trkpt>
      <trkpt lat="47.29226" lon="-2.2753">
        <ele>-8.6000003814697</ele>
        <time>2021-08-29T09:23:29.000Z</time>
      </trkpt>
      <trkpt lat="47.29178" lon="-2.2753">
        <ele>-8.6000003814697</ele>
        <time>2021-08-29T09:23:36.000Z</time>
      </trkpt>
      <trkpt lat="47.29133" lon="-2.27532">
        <ele>-8.6000003814697</ele>
        <time>2021-08-29T09:23:43.000Z</time>
      </trkpt>
      <trkpt lat="47.2911" lon="-2.2753">
        <ele>-8.6000003814697</ele>
        <time>2021-08-29T09:23:47.000Z</time>
      </trkpt>
      <trkpt lat="47.29104" lon="-2.27528">
        <ele>-8.6000003814697</ele>
        <time>2021-08-29T09:23:48.000Z</time>
      </trkpt>
      <trkpt lat="47.29096" lon="-2.27516">
        <ele>-8.6000003814697</ele>
        <time>2021-08-29T09:23:51.000Z</time>
      </trkpt>
      <trkpt lat="47.29094" lon="-2.27512">
        <ele>-9</ele>
        <time>2021-08-29T09:23:52.000Z</time>
      </trkpt>
      <trkpt lat="47.29093" lon="-2.27507">
        <ele>-9.3999996185303</ele>
        <time>2021-08-29T09:23:53.000Z</time>
      </trkpt>
      <trkpt lat="47.29092" lon="-2.27501">
        <ele>-9.8000001907349</ele>
        <time>2021-08-29T09:23:54.000Z</time>
      </trkpt>
      <trkpt lat="47.29091" lon="-2.27494">
        <ele>-10.199999809265</ele>
        <time>2021-08-29T09:23:55.000Z</time>
      </trkpt>
      <trkpt lat="47.29091" lon="-2.27487">
        <ele>-10.60000038147</ele>
        <time>2021-08-29T09:23:56.000Z</time>
      </trkpt>
      <trkpt lat="47.29094" lon="-2.27462">
        <ele>-10.60000038147</ele>
        <time>2021-08-29T09:23:59.000Z</time>
      </trkpt>
      <trkpt lat="47.29096" lon="-2.27445">
        <ele>-10.60000038147</ele>
        <time>2021-08-29T09:24:01.000Z</time>
      </trkpt>
      <trkpt lat="47.29098" lon="-2.27429">
        <ele>-10.60000038147</ele>
        <time>2021-08-29T09:24:03.000Z</time>
      </trkpt>
      <trkpt lat="47.29098" lon="-2.27407">
        <ele>-10.60000038147</ele>
        <time>2021-08-29T09:24:06.000Z</time>
      </trkpt>
      <trkpt lat="47.29097" lon="-2.274">
        <ele>-10.60000038147</ele>
        <time>2021-08-29T09:24:07.000Z</time>
      </trkpt>
      <trkpt lat="47.29095" lon="-2.27386">
        <ele>-10.60000038147</ele>
        <time>2021-08-29T09:24:09.000Z</time>
      </trkpt>
      <trkpt lat="47.29092" lon="-2.27368">
        <ele>-10.60000038147</ele>
        <time>2021-08-29T09:24:12.000Z</time>
      </trkpt>
      <trkpt lat="47.2909" lon="-2.2736">
        <ele>-10.60000038147</ele>
        <time>2021-08-29T09:24:14.000Z</time>
      </trkpt>
      <trkpt lat="47.29088" lon="-2.27359">
        <ele>-11</ele>
        <time>2021-08-29T09:24:15.000Z</time>
      </trkpt>
      <trkpt lat="47.29087" lon="-2.27356">
        <ele>-11.39999961853</ele>
        <time>2021-08-29T09:24:16.000Z</time>
      </trkpt>
      <trkpt lat="47.29085" lon="-2.27352">
        <ele>-11.800000190735</ele>
        <time>2021-08-29T09:24:17.000Z</time>
      </trkpt>
      <trkpt lat="47.29085" lon="-2.27348">
        <ele>-12.199999809265</ele>
        <time>2021-08-29T09:24:18.000Z</time>
      </trkpt>
      <trkpt lat="47.29086" lon="-2.27343">
        <ele>-12.60000038147</ele>
        <time>2021-08-29T09:24:19.000Z</time>
      </trkpt>
      <trkpt lat="47.29087" lon="-2.27339">
        <ele>-12.60000038147</ele>
        <time>2021-08-29T09:24:20.000Z</time>
      </trkpt>
      <trkpt lat="47.29088" lon="-2.27334">
        <ele>-12.60000038147</ele>
        <time>2021-08-29T09:24:21.000Z</time>
      </trkpt>
      <trkpt lat="47.29092" lon="-2.27317">
        <ele>-12.60000038147</ele>
        <time>2021-08-29T09:24:25.000Z</time>
      </trkpt>
      <trkpt lat="47.29098" lon="-2.27287">
        <ele>-12.60000038147</ele>
        <time>2021-08-29T09:24:31.000Z</time>
      </trkpt>
      <trkpt lat="47.29101" lon="-2.27264">
        <ele>-12.60000038147</ele>
        <time>2021-08-29T09:24:36.000Z</time>
      </trkpt>
      <trkpt lat="47.29107" lon="-2.27235">
        <ele>-12.60000038147</ele>
        <time>2021-08-29T09:24:41.000Z</time>
      </trkpt>
      <trkpt lat="47.29111" lon="-2.27223">
        <ele>-12.60000038147</ele>
        <time>2021-08-29T09:24:45.000Z</time>
      </trkpt>
      <trkpt lat="47.29114" lon="-2.27215">
        <ele>-12.60000038147</ele>
        <time>2021-08-29T09:24:48.000Z</time>
      </trkpt>
      <trkpt lat="47.29113" lon="-2.27212">
        <ele>-12.60000038147</ele>
        <time>2021-08-29T09:24:50.000Z</time>
      </trkpt>
      <trkpt lat="47.29105" lon="-2.27207">
        <ele>-12.60000038147</ele>
        <time>2021-08-29T09:24:54.000Z</time>
      </trkpt>
      <trkpt lat="47.2909" lon="-2.27207">
        <ele>-12.60000038147</ele>
        <time>2021-08-29T09:24:59.000Z</time>
      </trkpt>
      <trkpt lat="47.29075" lon="-2.272">
        <ele>-12.60000038147</ele>
        <time>2021-08-29T09:25:03.000Z</time>
      </trkpt>
      <trkpt lat="47.29065" lon="-2.27187">
        <ele>-12.199999809265</ele>
        <time>2021-08-29T09:25:07.000Z</time>
      </trkpt>
      <trkpt lat="47.29064" lon="-2.27183">
        <ele>-11.60000038147</ele>
        <time>2021-08-29T09:25:08.000Z</time>
      </trkpt>
      <trkpt lat="47.29062" lon="-2.27178">
        <ele>-11.199999809265</ele>
        <time>2021-08-29T09:25:09.000Z</time>
      </trkpt>
      <trkpt lat="47.2906" lon="-2.27173">
        <ele>-10.800000190735</ele>
        <time>2021-08-29T09:25:10.000Z</time>
      </trkpt>
      <trkpt lat="47.29058" lon="-2.27169">
        <ele>-10.199999809265</ele>
        <time>2021-08-29T09:25:11.000Z</time>
      </trkpt>
      <trkpt lat="47.29052" lon="-2.2716">
        <ele>-10.199999809265</ele>
        <time>2021-08-29T09:25:13.000Z</time>
      </trkpt>
      <trkpt lat="47.29031" lon="-2.27139">
        <ele>-10.199999809265</ele>
        <time>2021-08-29T09:25:19.000Z</time>
      </trkpt>
      <trkpt lat="47.29025" lon="-2.27125">
        <ele>-10.199999809265</ele>
        <time>2021-08-29T09:25:22.000Z</time>
      </trkpt>
      <trkpt lat="47.29025" lon="-2.2712">
        <ele>-10.199999809265</ele>
        <time>2021-08-29T09:25:23.000Z</time>
      </trkpt>
      <trkpt lat="47.29031" lon="-2.27109">
        <ele>-10.199999809265</ele>
        <time>2021-08-29T09:25:26.000Z</time>
      </trkpt>
      <trkpt lat="47.29045" lon="-2.271">
        <ele>-10.199999809265</ele>
        <time>2021-08-29T09:25:31.000Z</time>
      </trkpt>
      <trkpt lat="47.29053" lon="-2.27075">
        <ele>-10.199999809265</ele>
        <time>2021-08-29T09:25:35.000Z</time>
      </trkpt>
      <trkpt lat="47.29055" lon="-2.27069">
        <ele>-10.199999809265</ele>
        <time>2021-08-29T09:25:36.000Z</time>
      </trkpt>
      <trkpt lat="47.29057" lon="-2.27042">
        <ele>-10.199999809265</ele>
        <time>2021-08-29T09:25:40.000Z</time>
      </trkpt>
      <trkpt lat="47.29055" lon="-2.27034">
        <ele>-10.199999809265</ele>
        <time>2021-08-29T09:25:41.000Z</time>
      </trkpt>
      <trkpt lat="47.29052" lon="-2.27019">
        <ele>-10.199999809265</ele>
        <time>2021-08-29T09:25:43.000Z</time>
      </trkpt>
      <trkpt lat="47.2905" lon="-2.26994">
        <ele>-10.199999809265</ele>
        <time>2021-08-29T09:25:46.000Z</time>
      </trkpt>
      <trkpt lat="47.29051" lon="-2.26985">
        <ele>-10.199999809265</ele>
        <time>2021-08-29T09:25:47.000Z</time>
      </trkpt>
      <trkpt lat="47.29055" lon="-2.26908">
        <ele>-10.199999809265</ele>
        <time>2021-08-29T09:25:55.000Z</time>
      </trkpt>
      <trkpt lat="47.29058" lon="-2.26846">
        <ele>-10.199999809265</ele>
        <time>2021-08-29T09:26:02.000Z</time>
      </trkpt>
      <trkpt lat="47.29059" lon="-2.26778">
        <ele>-10.199999809265</ele>
        <time>2021-08-29T09:26:10.000Z</time>
      </trkpt>
      <trkpt lat="47.29054" lon="-2.26724">
        <ele>-10.199999809265</ele>
        <time>2021-08-29T09:26:17.000Z</time>
      </trkpt>
      <trkpt lat="47.29049" lon="-2.26688">
        <ele>-9.8000001907349</ele>
        <time>2021-08-29T09:26:22.000Z</time>
      </trkpt>
      <trkpt lat="47.29048" lon="-2.26682">
        <ele>-9.3999996185303</ele>
        <time>2021-08-29T09:26:23.000Z</time>
      </trkpt>
      <trkpt lat="47.29048" lon="-2.26675">
        <ele>-8.8000001907349</ele>
        <time>2021-08-29T09:26:24.000Z</time>
      </trkpt>
      <trkpt lat="47.29047" lon="-2.26668">
        <ele>-8.3999996185303</ele>
        <time>2021-08-29T09:26:25.000Z</time>
      </trkpt>
      <trkpt lat="47.29047" lon="-2.26662">
        <ele>-8</ele>
        <time>2021-08-29T09:26:26.000Z</time>
      </trkpt>
      <trkpt lat="47.29046" lon="-2.26641">
        <ele>-7.5999999046326</ele>
        <time>2021-08-29T09:26:29.000Z</time>
      </trkpt>
      <trkpt lat="47.29045" lon="-2.26634">
        <ele>-7.1999998092651</ele>
        <time>2021-08-29T09:26:30.000Z</time>
      </trkpt>
      <trkpt lat="47.29045" lon="-2.26628">
        <ele>-6.8000001907349</ele>
        <time>2021-08-29T09:26:31.000Z</time>
      </trkpt>
      <trkpt lat="47.29044" lon="-2.26621">
        <ele>-6.4000000953674</ele>
        <time>2021-08-29T09:26:32.000Z</time>
      </trkpt>
      <trkpt lat="47.29044" lon="-2.26614">
        <ele>-6</ele>
        <time>2021-08-29T09:26:33.000Z</time>
      </trkpt>
      <trkpt lat="47.29041" lon="-2.26585">
        <ele>-6</ele>
        <time>2021-08-29T09:26:38.000Z</time>
      </trkpt>
      <trkpt lat="47.2904" lon="-2.26579">
        <ele>-6</ele>
        <time>2021-08-29T09:26:39.000Z</time>
      </trkpt>
      <trkpt lat="47.29035" lon="-2.26552">
        <ele>-6</ele>
        <time>2021-08-29T09:26:43.000Z</time>
      </trkpt>
      <trkpt lat="47.29023" lon="-2.265">
        <ele>-6</ele>
        <time>2021-08-29T09:26:50.000Z</time>
      </trkpt>
      <trkpt lat="47.29018" lon="-2.26461">
        <ele>-6</ele>
        <time>2021-08-29T09:26:55.000Z</time>
      </trkpt>
      <trkpt lat="47.29013" lon="-2.26425">
        <ele>-5.5999999046326</ele>
        <time>2021-08-29T09:27:00.000Z</time>
      </trkpt>
      <trkpt lat="47.29012" lon="-2.26418">
        <ele>-5.1999998092651</ele>
        <time>2021-08-29T09:27:01.000Z</time>
      </trkpt>
      <trkpt lat="47.29012" lon="-2.26413">
        <ele>-4.5999999046326</ele>
        <time>2021-08-29T09:27:02.000Z</time>
      </trkpt>
      <trkpt lat="47.29011" lon="-2.26407">
        <ele>-4.1999998092651</ele>
        <time>2021-08-29T09:27:03.000Z</time>
      </trkpt>
      <trkpt lat="47.29011" lon="-2.26402">
        <ele>-3.7999999523163</ele>
        <time>2021-08-29T09:27:04.000Z</time>
      </trkpt>
      <trkpt lat="47.2901" lon="-2.26396">
        <ele>-3.4000000953674</ele>
        <time>2021-08-29T09:27:05.000Z</time>
      </trkpt>
      <trkpt lat="47.29008" lon="-2.26392">
        <ele>-2.4000000953674</ele>
        <time>2021-08-29T09:27:06.000Z</time>
      </trkpt>
      <trkpt lat="47.29005" lon="-2.26389">
        <ele>-2</ele>
        <time>2021-08-29T09:27:07.000Z</time>
      </trkpt>
      <trkpt lat="47.29002" lon="-2.26387">
        <ele>-1.6000000238419</ele>
        <time>2021-08-29T09:27:08.000Z</time>
      </trkpt>
      <trkpt lat="47.28991" lon="-2.26376">
        <ele>-1.6000000238419</ele>
        <time>2021-08-29T09:27:12.000Z</time>
      </trkpt>
      <trkpt lat="47.2898" lon="-2.26367">
        <ele>-1.6000000238419</ele>
        <time>2021-08-29T09:27:15.000Z</time>
      </trkpt>
      <trkpt lat="47.28976" lon="-2.26367">
        <ele>-1.6000000238419</ele>
        <time>2021-08-29T09:27:16.000Z</time>
      </trkpt>
      <trkpt lat="47.28957" lon="-2.26372">
        <ele>-1.6000000238419</ele>
        <time>2021-08-29T09:27:21.000Z</time>
      </trkpt>
      <trkpt lat="47.28941" lon="-2.26375">
        <ele>-1.6000000238419</ele>
        <time>2021-08-29T09:27:25.000Z</time>
      </trkpt>
      <trkpt lat="47.28937" lon="-2.26374">
        <ele>-1.2000000476837</ele>
        <time>2021-08-29T09:27:26.000Z</time>
      </trkpt>
      <trkpt lat="47.28933" lon="-2.26374">
        <ele>-0.80000001192093</ele>
        <time>2021-08-29T09:27:27.000Z</time>
      </trkpt>
      <trkpt lat="47.28928" lon="-2.26373">
        <ele>-0.40000000596046</ele>
        <time>2021-08-29T09:27:28.000Z</time>
      </trkpt>
      <trkpt lat="47.28924" lon="-2.26372">
        <ele>28</ele>
        <time>2021-08-29T09:27:29.000Z</time>
      </trkpt>
      <trkpt lat="47.2892" lon="-2.26371">
        <ele>0.40000000596046</ele>
        <time>2021-08-29T09:27:30.000Z</time>
      </trkpt>
      <trkpt lat="47.28911" lon="-2.26369">
        <ele>0.40000000596046</ele>
        <time>2021-08-29T09:27:32.000Z</time>
      </trkpt>
      <trkpt lat="47.2888" lon="-2.26362">
        <ele>0.40000000596046</ele>
        <time>2021-08-29T09:27:38.000Z</time>
      </trkpt>
      <trkpt lat="47.28869" lon="-2.26363">
        <ele>0.40000000596046</ele>
        <time>2021-08-29T09:27:40.000Z</time>
      </trkpt>
      <trkpt lat="47.28852" lon="-2.26367">
        <ele>0.40000000596046</ele>
        <time>2021-08-29T09:27:43.000Z</time>
      </trkpt>
      <trkpt lat="47.28836" lon="-2.26372">
        <ele>0.40000000596046</ele>
        <time>2021-08-29T09:27:46.000Z</time>
      </trkpt>
      <trkpt lat="47.28827" lon="-2.26368">
        <ele>0.40000000596046</ele>
        <time>2021-08-29T09:27:48.000Z</time>
      </trkpt>
      <trkpt lat="47.28822" lon="-2.26367">
        <ele>0.40000000596046</ele>
        <time>2021-08-29T09:27:49.000Z</time>
      </trkpt>
      <trkpt lat="47.28802" lon="-2.26366">
        <ele>0.40000000596046</ele>
        <time>2021-08-29T09:27:53.000Z</time>
      </trkpt>
      <trkpt lat="47.28788" lon="-2.26365">
        <ele>0.40000000596046</ele>
        <time>2021-08-29T09:27:56.000Z</time>
      </trkpt>
      <trkpt lat="47.2878" lon="-2.26363">
        <ele>0.40000000596046</ele>
        <time>2021-08-29T09:27:58.000Z</time>
      </trkpt>
      <trkpt lat="47.28769" lon="-2.26362">
        <ele>0.40000000596046</ele>
        <time>2021-08-29T09:28:01.000Z</time>
      </trkpt>
      <trkpt lat="47.28762" lon="-2.26361">
        <ele>0.40000000596046</ele>
        <time>2021-08-29T09:28:03.000Z</time>
      </trkpt>
      <trkpt lat="47.28759" lon="-2.26361">
        <ele>25.3</ele>
        <time>2021-08-29T09:28:04.000Z</time>
      </trkpt>
      <trkpt lat="47.28755" lon="-2.26361">
        <ele>-0.40000000596046</ele>
        <time>2021-08-29T09:28:05.000Z</time>
      </trkpt>
      <trkpt lat="47.28751" lon="-2.26361">
        <ele>-0.80000001192093</ele>
        <time>2021-08-29T09:28:06.000Z</time>
      </trkpt>
      <trkpt lat="47.28748" lon="-2.26361">
        <ele>-1.2000000476837</ele>
        <time>2021-08-29T09:28:07.000Z</time>
      </trkpt>
      <trkpt lat="47.28745" lon="-2.2636">
        <ele>-1.6000000238419</ele>
        <time>2021-08-29T09:28:08.000Z</time>
      </trkpt>
      <trkpt lat="47.28737" lon="-2.26359">
        <ele>-1.6000000238419</ele>
        <time>2021-08-29T09:28:10.000Z</time>
      </trkpt>
      <trkpt lat="47.28733" lon="-2.26359">
        <ele>-1.6000000238419</ele>
        <time>2021-08-29T09:28:11.000Z</time>
      </trkpt>
      <trkpt lat="47.28726" lon="-2.26363">
        <ele>-1.6000000238419</ele>
        <time>2021-08-29T09:28:13.000Z</time>
      </trkpt>
      <trkpt lat="47.28719" lon="-2.26374">
        <ele>-2</ele>
        <time>2021-08-29T09:28:15.000Z</time>
      </trkpt>
      <trkpt lat="47.28718" lon="-2.2638">
        <ele>-2.4000000953674</ele>
        <time>2021-08-29T09:28:16.000Z</time>
      </trkpt>
      <trkpt lat="47.28718" lon="-2.26386">
        <ele>-2.7999999523163</ele>
        <time>2021-08-29T09:28:17.000Z</time>
      </trkpt>
      <trkpt lat="47.28717" lon="-2.26391">
        <ele>-3.2000000476837</ele>
        <time>2021-08-29T09:28:18.000Z</time>
      </trkpt>
      <trkpt lat="47.28714" lon="-2.26394">
        <ele>-3.5999999046326</ele>
        <time>2021-08-29T09:28:19.000Z</time>
      </trkpt>
      <trkpt lat="47.28711" lon="-2.26394">
        <ele>-3.5999999046326</ele>
        <time>2021-08-29T09:28:20.000Z</time>
      </trkpt>
      <trkpt lat="47.28703" lon="-2.2639">
        <ele>-3.5999999046326</ele>
        <time>2021-08-29T09:28:22.000Z</time>
      </trkpt>
      <trkpt lat="47.28699" lon="-2.26386">
        <ele>-3.5999999046326</ele>
        <time>2021-08-29T09:28:23.000Z</time>
      </trkpt>
      <trkpt lat="47.28679" lon="-2.26367">
        <ele>-3.5999999046326</ele>
        <time>2021-08-29T09:28:28.000Z</time>
      </trkpt>
      <trkpt lat="47.28674" lon="-2.26362">
        <ele>-3.5999999046326</ele>
        <time>2021-08-29T09:28:29.000Z</time>
      </trkpt>
      <trkpt lat="47.28662" lon="-2.26345">
        <ele>-3.5999999046326</ele>
        <time>2021-08-29T09:28:32.000Z</time>
      </trkpt>
      <trkpt lat="47.28659" lon="-2.26338">
        <ele>-3.5999999046326</ele>
        <time>2021-08-29T09:28:33.000Z</time>
      </trkpt>
      <trkpt lat="47.28645" lon="-2.26297">
        <ele>-3.5999999046326</ele>
        <time>2021-08-29T09:28:39.000Z</time>
      </trkpt>
      <trkpt lat="47.28632" lon="-2.2626">
        <ele>-3.5999999046326</ele>
        <time>2021-08-29T09:28:45.000Z</time>
      </trkpt>
      <trkpt lat="47.28629" lon="-2.26253">
        <ele>-3.5999999046326</ele>
        <time>2021-08-29T09:28:46.000Z</time>
      </trkpt>
      <trkpt lat="47.28619" lon="-2.26234">
        <ele>-3.5999999046326</ele>
        <time>2021-08-29T09:28:49.000Z</time>
      </trkpt>
      <trkpt lat="47.28615" lon="-2.26228">
        <ele>-3.5999999046326</ele>
        <time>2021-08-29T09:28:50.000Z</time>
      </trkpt>
      <trkpt lat="47.28605" lon="-2.26207">
        <ele>-3.5999999046326</ele>
        <time>2021-08-29T09:28:53.000Z</time>
      </trkpt>
      <trkpt lat="47.28601" lon="-2.2619">
        <ele>-3.5999999046326</ele>
        <time>2021-08-29T09:28:55.000Z</time>
      </trkpt>
      <trkpt lat="47.28599" lon="-2.26163">
        <ele>-3.5999999046326</ele>
        <time>2021-08-29T09:28:58.000Z</time>
      </trkpt>
      <trkpt lat="47.28599" lon="-2.26146">
        <ele>-3.5999999046326</ele>
        <time>2021-08-29T09:29:00.000Z</time>
      </trkpt>
      <trkpt lat="47.28601" lon="-2.26088">
        <ele>-3.5999999046326</ele>
        <time>2021-08-29T09:29:07.000Z</time>
      </trkpt>
      <trkpt lat="47.28603" lon="-2.26053">
        <ele>-3.2000000476837</ele>
        <time>2021-08-29T09:29:12.000Z</time>
      </trkpt>
      <trkpt lat="47.28603" lon="-2.26046">
        <ele>-2.7999999523163</ele>
        <time>2021-08-29T09:29:13.000Z</time>
      </trkpt>
      <trkpt lat="47.28603" lon="-2.26039">
        <ele>-2.4000000953674</ele>
        <time>2021-08-29T09:29:14.000Z</time>
      </trkpt>
      <trkpt lat="47.28603" lon="-2.26032">
        <ele>-2</ele>
        <time>2021-08-29T09:29:15.000Z</time>
      </trkpt>
      <trkpt lat="47.28604" lon="-2.26026">
        <ele>-1.6000000238419</ele>
        <time>2021-08-29T09:29:16.000Z</time>
      </trkpt>
      <trkpt lat="47.28605" lon="-2.25992">
        <ele>-1.6000000238419</ele>
        <time>2021-08-29T09:29:21.000Z</time>
      </trkpt>
      <trkpt lat="47.28602" lon="-2.25977">
        <ele>-1.6000000238419</ele>
        <time>2021-08-29T09:29:24.000Z</time>
      </trkpt>
      <trkpt lat="47.2859" lon="-2.25976">
        <ele>-1.6000000238419</ele>
        <time>2021-08-29T09:29:27.000Z</time>
      </trkpt>
      <trkpt lat="47.28586" lon="-2.25976">
        <ele>-1.6000000238419</ele>
        <time>2021-08-29T09:29:28.000Z</time>
      </trkpt>
      <trkpt lat="47.28551" lon="-2.25977">
        <ele>-1.6000000238419</ele>
        <time>2021-08-29T09:29:35.000Z</time>
      </trkpt>
      <trkpt lat="47.2852" lon="-2.25975">
        <ele>-1.6000000238419</ele>
        <time>2021-08-29T09:29:41.000Z</time>
      </trkpt>
      <trkpt lat="47.28482" lon="-2.25968">
        <ele>-1.6000000238419</ele>
        <time>2021-08-29T09:29:48.000Z</time>
      </trkpt>
      <trkpt lat="47.28449" lon="-2.25965">
        <ele>-1.6000000238419</ele>
        <time>2021-08-29T09:29:54.000Z</time>
      </trkpt>
      <trkpt lat="47.28434" lon="-2.25964">
        <ele>-1.6000000238419</ele>
        <time>2021-08-29T09:29:57.000Z</time>
      </trkpt>
      <trkpt lat="47.28425" lon="-2.25961">
        <ele>-1.6000000238419</ele>
        <time>2021-08-29T09:29:59.000Z</time>
      </trkpt>
      <trkpt lat="47.28402" lon="-2.2595">
        <ele>-1.6000000238419</ele>
        <time>2021-08-29T09:30:05.000Z</time>
      </trkpt>
      <trkpt lat="47.284" lon="-2.25946">
        <ele>-1.2000000476837</ele>
        <time>2021-08-29T09:30:06.000Z</time>
      </trkpt>
      <trkpt lat="47.28399" lon="-2.2594">
        <ele>-0.80000001192093</ele>
        <time>2021-08-29T09:30:07.000Z</time>
      </trkpt>
      <trkpt lat="47.284" lon="-2.25934">
        <ele>-0.40000000596046</ele>
        <time>2021-08-29T09:30:08.000Z</time>
      </trkpt>
      <trkpt lat="47.284" lon="-2.25927">
        <ele>28</ele>
        <time>2021-08-29T09:30:09.000Z</time>
      </trkpt>
      <trkpt lat="47.284" lon="-2.25921">
        <ele>0.40000000596046</ele>
        <time>2021-08-29T09:30:10.000Z</time>
      </trkpt>
      <trkpt lat="47.28404" lon="-2.25894">
        <ele>0.40000000596046</ele>
        <time>2021-08-29T09:30:14.000Z</time>
      </trkpt>
      <trkpt lat="47.28408" lon="-2.25859">
        <ele>0.40000000596046</ele>
        <time>2021-08-29T09:30:20.000Z</time>
      </trkpt>
      <trkpt lat="47.28413" lon="-2.25831">
        <ele>0.40000000596046</ele>
        <time>2021-08-29T09:30:26.000Z</time>
      </trkpt>
      <trkpt lat="47.28412" lon="-2.25828">
        <ele>0.40000000596046</ele>
        <time>2021-08-29T09:30:27.000Z</time>
      </trkpt>
      <trkpt lat="47.28403" lon="-2.25823">
        <ele>0.40000000596046</ele>
        <time>2021-08-29T09:30:30.000Z</time>
      </trkpt>
      <trkpt lat="47.2839" lon="-2.25819">
        <ele>0.40000000596046</ele>
        <time>2021-08-29T09:30:33.000Z</time>
      </trkpt>
      <trkpt lat="47.2838" lon="-2.25813">
        <ele>0.40000000596046</ele>
        <time>2021-08-29T09:30:36.000Z</time>
      </trkpt>
      <trkpt lat="47.28378" lon="-2.25803">
        <ele>0.40000000596046</ele>
        <time>2021-08-29T09:30:40.000Z</time>
      </trkpt>
      <trkpt lat="47.28377" lon="-2.25796">
        <ele>0.40000000596046</ele>
        <time>2021-08-29T09:30:42.000Z</time>
      </trkpt>
      <trkpt lat="47.28377" lon="-2.25785">
        <ele>0.40000000596046</ele>
        <time>2021-08-29T09:30:44.000Z</time>
      </trkpt>
      <trkpt lat="47.28377" lon="-2.25779">
        <ele>0.40000000596046</ele>
        <time>2021-08-29T09:30:45.000Z</time>
      </trkpt>
      <trkpt lat="47.28379" lon="-2.2575">
        <ele>0.40000000596046</ele>
        <time>2021-08-29T09:30:50.000Z</time>
      </trkpt>
      <trkpt lat="47.28381" lon="-2.25732">
        <ele>0.40000000596046</ele>
        <time>2021-08-29T09:30:55.000Z</time>
      </trkpt>
      <trkpt lat="47.28381" lon="-2.25723">
        <ele>0.40000000596046</ele>
        <time>2021-08-29T09:30:59.000Z</time>
      </trkpt>
      <trkpt lat="47.28381" lon="-2.257">
        <ele>0.40000000596046</ele>
        <time>2021-08-29T09:31:03.000Z</time>
      </trkpt>
      <trkpt lat="47.28379" lon="-2.25672">
        <ele>0.40000000596046</ele>
        <time>2021-08-29T09:31:07.000Z</time>
      </trkpt>
      <trkpt lat="47.2838" lon="-2.25658">
        <ele>0.40000000596046</ele>
        <time>2021-08-29T09:31:09.000Z</time>
      </trkpt>
      <trkpt lat="47.2838" lon="-2.25645">
        <ele>0.40000000596046</ele>
        <time>2021-08-29T09:31:11.000Z</time>
      </trkpt>
      <trkpt lat="47.28377" lon="-2.25638">
        <ele>0.40000000596046</ele>
        <time>2021-08-29T09:31:13.000Z</time>
      </trkpt>
      <trkpt lat="47.28365" lon="-2.25625">
        <ele>0.40000000596046</ele>
        <time>2021-08-29T09:31:17.000Z</time>
      </trkpt>
      <trkpt lat="47.28363" lon="-2.25603">
        <ele>0.40000000596046</ele>
        <time>2021-08-29T09:31:20.000Z</time>
      </trkpt>
      <trkpt lat="47.28364" lon="-2.25594">
        <ele>0.40000000596046</ele>
        <time>2021-08-29T09:31:21.000Z</time>
      </trkpt>
      <trkpt lat="47.28365" lon="-2.25565">
        <ele>0.40000000596046</ele>
        <time>2021-08-29T09:31:24.000Z</time>
      </trkpt>
      <trkpt lat="47.28372" lon="-2.25481">
        <ele>0.40000000596046</ele>
        <time>2021-08-29T09:31:32.000Z</time>
      </trkpt>
      <trkpt lat="47.28377" lon="-2.25414">
        <ele>0.40000000596046</ele>
        <time>2021-08-29T09:31:39.000Z</time>
      </trkpt>
      <trkpt lat="47.28383" lon="-2.25353">
        <ele>0.40000000596046</ele>
        <time>2021-08-29T09:31:46.000Z</time>
      </trkpt>
      <trkpt lat="47.28388" lon="-2.25319">
        <ele>0.40000000596046</ele>
        <time>2021-08-29T09:31:50.000Z</time>
      </trkpt>
      <trkpt lat="47.28387" lon="-2.25314">
        <ele>0.40000000596046</ele>
        <time>2021-08-29T09:31:51.000Z</time>
      </trkpt>
      <trkpt lat="47.28378" lon="-2.25313">
        <ele>0.40000000596046</ele>
        <time>2021-08-29T09:31:54.000Z</time>
      </trkpt>
      <trkpt lat="47.28375" lon="-2.25315">
        <ele>0.40000000596046</ele>
        <time>2021-08-29T09:31:55.000Z</time>
      </trkpt>
      <trkpt lat="47.28358" lon="-2.25328">
        <ele>0.40000000596046</ele>
        <time>2021-08-29T09:32:00.000Z</time>
      </trkpt>
      <trkpt lat="47.2834" lon="-2.25338">
        <ele>0.40000000596046</ele>
        <time>2021-08-29T09:32:04.000Z</time>
      </trkpt>
      <trkpt lat="47.28331" lon="-2.25345">
        <ele>0.40000000596046</ele>
        <time>2021-08-29T09:32:06.000Z</time>
      </trkpt>
      <trkpt lat="47.28321" lon="-2.2535">
        <ele>0.40000000596046</ele>
        <time>2021-08-29T09:32:08.000Z</time>
      </trkpt>
      <trkpt lat="47.28304" lon="-2.25355">
        <ele>0.40000000596046</ele>
        <time>2021-08-29T09:32:11.000Z</time>
      </trkpt>
      <trkpt lat="47.28284" lon="-2.2536">
        <ele>0.40000000596046</ele>
        <time>2021-08-29T09:32:15.000Z</time>
      </trkpt>
      <trkpt lat="47.28279" lon="-2.2536">
        <ele>0.40000000596046</ele>
        <time>2021-08-29T09:32:16.000Z</time>
      </trkpt>
      <trkpt lat="47.28274" lon="-2.2536">
        <ele>23.8</ele>
        <time>2021-08-29T09:32:17.000Z</time>
      </trkpt>
      <trkpt lat="47.2827" lon="-2.2536">
        <ele>-0.40000000596046</ele>
        <time>2021-08-29T09:32:18.000Z</time>
      </trkpt>
      <trkpt lat="47.28266" lon="-2.25361">
        <ele>-0.80000001192093</ele>
        <time>2021-08-29T09:32:19.000Z</time>
      </trkpt>
      <trkpt lat="47.28262" lon="-2.25363">
        <ele>-1.2000000476837</ele>
        <time>2021-08-29T09:32:20.000Z</time>
      </trkpt>
      <trkpt lat="47.28257" lon="-2.25367">
        <ele>-1.6000000238419</ele>
        <time>2021-08-29T09:32:21.000Z</time>
      </trkpt>
      <trkpt lat="47.28244" lon="-2.25378">
        <ele>-1.6000000238419</ele>
        <time>2021-08-29T09:32:24.000Z</time>
      </trkpt>
      <trkpt lat="47.28238" lon="-2.25382">
        <ele>-2.5999999046326</ele>
        <time>2021-08-29T09:32:25.000Z</time>
      </trkpt>
      <trkpt lat="47.28232" lon="-2.25387">
        <ele>-3</ele>
        <time>2021-08-29T09:32:26.000Z</time>
      </trkpt>
      <trkpt lat="47.28226" lon="-2.25392">
        <ele>-3.4000000953674</ele>
        <time>2021-08-29T09:32:27.000Z</time>
      </trkpt>
      <trkpt lat="47.2822" lon="-2.25397">
        <ele>-3.7999999523163</ele>
        <time>2021-08-29T09:32:28.000Z</time>
      </trkpt>
      <trkpt lat="47.28208" lon="-2.25407">
        <ele>-4.1999998092651</ele>
        <time>2021-08-29T09:32:30.000Z</time>
      </trkpt>
      <trkpt lat="47.28202" lon="-2.25411">
        <ele>-4.5999999046326</ele>
        <time>2021-08-29T09:32:31.000Z</time>
      </trkpt>
      <trkpt lat="47.28195" lon="-2.25417">
        <ele>-5</ele>
        <time>2021-08-29T09:32:32.000Z</time>
      </trkpt>
      <trkpt lat="47.28188" lon="-2.25423">
        <ele>-5.4000000953674</ele>
        <time>2021-08-29T09:32:33.000Z</time>
      </trkpt>
      <trkpt lat="47.28181" lon="-2.25427">
        <ele>-5.8000001907349</ele>
        <time>2021-08-29T09:32:34.000Z</time>
      </trkpt>
      <trkpt lat="47.28175" lon="-2.25432">
        <ele>-5.8000001907349</ele>
        <time>2021-08-29T09:32:35.000Z</time>
      </trkpt>
      <trkpt lat="47.28162" lon="-2.2544">
        <ele>-5.8000001907349</ele>
        <time>2021-08-29T09:32:37.000Z</time>
      </trkpt>
      <trkpt lat="47.28149" lon="-2.25446">
        <ele>-5.8000001907349</ele>
        <time>2021-08-29T09:32:39.000Z</time>
      </trkpt>
      <trkpt lat="47.28144" lon="-2.25451">
        <ele>-6.1999998092651</ele>
        <time>2021-08-29T09:32:40.000Z</time>
      </trkpt>
      <trkpt lat="47.28139" lon="-2.25454">
        <ele>-6.8000001907349</ele>
        <time>2021-08-29T09:32:41.000Z</time>
      </trkpt>
      <trkpt lat="47.28135" lon="-2.25456">
        <ele>-7.1999998092651</ele>
        <time>2021-08-29T09:32:42.000Z</time>
      </trkpt>
      <trkpt lat="47.2813" lon="-2.25458">
        <ele>-7.5999999046326</ele>
        <time>2021-08-29T09:32:43.000Z</time>
      </trkpt>
      <trkpt lat="47.28127" lon="-2.25459">
        <ele>-8.1999998092651</ele>
        <time>2021-08-29T09:32:44.000Z</time>
      </trkpt>
      <trkpt lat="47.28124" lon="-2.25461">
        <ele>-8.1999998092651</ele>
        <time>2021-08-29T09:32:45.000Z</time>
      </trkpt>
      <trkpt lat="47.28122" lon="-2.25462">
        <ele>-8.6000003814697</ele>
        <time>2021-08-29T09:32:46.000Z</time>
      </trkpt>
      <trkpt lat="47.28121" lon="-2.25462">
        <ele>-9</ele>
        <time>2021-08-29T09:32:47.000Z</time>
      </trkpt>
      <trkpt lat="47.2812" lon="-2.25462">
        <ele>-9.6000003814697</ele>
        <time>2021-08-29T09:32:48.000Z</time>
      </trkpt>
      <trkpt lat="47.28119" lon="-2.25463">
        <ele>-10.39999961853</ele>
        <time>2021-08-29T09:32:53.000Z</time>
      </trkpt>
      <trkpt lat="47.28117" lon="-2.25465">
        <ele>-10.39999961853</ele>
        <time>2021-08-29T09:32:54.000Z</time>
      </trkpt>
      <trkpt lat="47.28113" lon="-2.25468">
        <ele>-10.39999961853</ele>
        <time>2021-08-29T09:32:57.000Z</time>
      </trkpt>
      <trkpt lat="47.28112" lon="-2.2547">
        <ele>-10.39999961853</ele>
        <time>2021-08-29T09:32:58.000Z</time>
      </trkpt>
      <trkpt lat="47.28106" lon="-2.25474">
        <ele>-10.39999961853</ele>
        <time>2021-08-29T09:33:01.000Z</time>
      </trkpt>
      <trkpt lat="47.28095" lon="-2.25468">
        <ele>-10.39999961853</ele>
        <time>2021-08-29T09:33:06.000Z</time>
      </trkpt>
      <trkpt lat="47.28091" lon="-2.2546">
        <ele>-10.800000190735</ele>
        <time>2021-08-29T09:33:08.000Z</time>
      </trkpt>
      <trkpt lat="47.28089" lon="-2.25455">
        <ele>-11.199999809265</ele>
        <time>2021-08-29T09:33:09.000Z</time>
      </trkpt>
      <trkpt lat="47.28087" lon="-2.25449">
        <ele>-11.60000038147</ele>
        <time>2021-08-29T09:33:10.000Z</time>
      </trkpt>
      <trkpt lat="47.28086" lon="-2.25443">
        <ele>-12</ele>
        <time>2021-08-29T09:33:11.000Z</time>
      </trkpt>
      <trkpt lat="47.28085" lon="-2.25436">
        <ele>-12.39999961853</ele>
        <time>2021-08-29T09:33:12.000Z</time>
      </trkpt>
      <trkpt lat="47.28081" lon="-2.25405">
        <ele>-12.39999961853</ele>
        <time>2021-08-29T09:33:16.000Z</time>
      </trkpt>
      <trkpt lat="47.28079" lon="-2.25355">
        <ele>-12.39999961853</ele>
        <time>2021-08-29T09:33:23.000Z</time>
      </trkpt>
      <trkpt lat="47.2808" lon="-2.25313">
        <ele>-12.39999961853</ele>
        <time>2021-08-29T09:33:29.000Z</time>
      </trkpt>
      <trkpt lat="47.2808" lon="-2.25307">
        <ele>-12.39999961853</ele>
        <time>2021-08-29T09:33:30.000Z</time>
      </trkpt>
      <trkpt lat="47.28081" lon="-2.25272">
        <ele>-12.39999961853</ele>
        <time>2021-08-29T09:33:35.000Z</time>
      </trkpt>
      <trkpt lat="47.28084" lon="-2.2526">
        <ele>-12.39999961853</ele>
        <time>2021-08-29T09:33:37.000Z</time>
      </trkpt>
      <trkpt lat="47.28096" lon="-2.25221">
        <ele>-12.39999961853</ele>
        <time>2021-08-29T09:33:44.000Z</time>
      </trkpt>
      <trkpt lat="47.28098" lon="-2.25195">
        <ele>-12.39999961853</ele>
        <time>2021-08-29T09:33:48.000Z</time>
      </trkpt>
      <trkpt lat="47.28098" lon="-2.25188">
        <ele>-12.39999961853</ele>
        <time>2021-08-29T09:33:49.000Z</time>
      </trkpt>
      <trkpt lat="47.28095" lon="-2.25166">
        <ele>-12.39999961853</ele>
        <time>2021-08-29T09:33:54.000Z</time>
      </trkpt>
      <trkpt lat="47.28086" lon="-2.25153">
        <ele>-12.39999961853</ele>
        <time>2021-08-29T09:33:59.000Z</time>
      </trkpt>
      <trkpt lat="47.28075" lon="-2.25142">
        <ele>-12.39999961853</ele>
        <time>2021-08-29T09:34:04.000Z</time>
      </trkpt>
      <trkpt lat="47.2806" lon="-2.25129">
        <ele>-12.39999961853</ele>
        <time>2021-08-29T09:34:11.000Z</time>
      </trkpt>
      <trkpt lat="47.28036" lon="-2.2511">
        <ele>-12.39999961853</ele>
        <time>2021-08-29T09:34:18.000Z</time>
      </trkpt>
      <trkpt lat="47.28011" lon="-2.25091">
        <ele>-12.39999961853</ele>
        <time>2021-08-29T09:34:24.000Z</time>
      </trkpt>
      <trkpt lat="47.28006" lon="-2.25087">
        <ele>-12.39999961853</ele>
        <time>2021-08-29T09:34:25.000Z</time>
      </trkpt>
      <trkpt lat="47.2799" lon="-2.25073">
        <ele>-12.39999961853</ele>
        <time>2021-08-29T09:34:29.000Z</time>
      </trkpt>
      <trkpt lat="47.27981" lon="-2.25072">
        <ele>-12.39999961853</ele>
        <time>2021-08-29T09:34:31.000Z</time>
      </trkpt>
      <trkpt lat="47.27972" lon="-2.25073">
        <ele>-12.39999961853</ele>
        <time>2021-08-29T09:34:33.000Z</time>
      </trkpt>
      <trkpt lat="47.27947" lon="-2.25073">
        <ele>-12.39999961853</ele>
        <time>2021-08-29T09:34:38.000Z</time>
      </trkpt>
      <trkpt lat="47.27918" lon="-2.25077">
        <ele>-12.39999961853</ele>
        <time>2021-08-29T09:34:43.000Z</time>
      </trkpt>
      <trkpt lat="47.27913" lon="-2.25079">
        <ele>-12.39999961853</ele>
        <time>2021-08-29T09:34:44.000Z</time>
      </trkpt>
      <trkpt lat="47.27898" lon="-2.25081">
        <ele>-12.39999961853</ele>
        <time>2021-08-29T09:34:47.000Z</time>
      </trkpt>
      <trkpt lat="47.27889" lon="-2.25076">
        <ele>-12.39999961853</ele>
        <time>2021-08-29T09:34:49.000Z</time>
      </trkpt>
      <trkpt lat="47.27882" lon="-2.25067">
        <ele>-12.39999961853</ele>
        <time>2021-08-29T09:34:51.000Z</time>
      </trkpt>
      <trkpt lat="47.27878" lon="-2.25064">
        <ele>-12.39999961853</ele>
        <time>2021-08-29T09:34:52.000Z</time>
      </trkpt>
      <trkpt lat="47.27869" lon="-2.25058">
        <ele>-12.39999961853</ele>
        <time>2021-08-29T09:34:54.000Z</time>
      </trkpt>
      <trkpt lat="47.27837" lon="-2.25044">
        <ele>-12.39999961853</ele>
        <time>2021-08-29T09:35:00.000Z</time>
      </trkpt>
      <trkpt lat="47.27809" lon="-2.25026">
        <ele>-12.39999961853</ele>
        <time>2021-08-29T09:35:06.000Z</time>
      </trkpt>
      <trkpt lat="47.27801" lon="-2.25024">
        <ele>-12.39999961853</ele>
        <time>2021-08-29T09:35:08.000Z</time>
      </trkpt>
      <trkpt lat="47.27786" lon="-2.25023">
        <ele>-12.39999961853</ele>
        <time>2021-08-29T09:35:11.000Z</time>
      </trkpt>
      <trkpt lat="47.2778" lon="-2.25024">
        <ele>-12.39999961853</ele>
        <time>2021-08-29T09:35:12.000Z</time>
      </trkpt>
      <trkpt lat="47.27763" lon="-2.25032">
        <ele>-12.39999961853</ele>
        <time>2021-08-29T09:35:16.000Z</time>
      </trkpt>
      <trkpt lat="47.27741" lon="-2.25049">
        <ele>-12.39999961853</ele>
        <time>2021-08-29T09:35:21.000Z</time>
      </trkpt>
      <trkpt lat="47.27733" lon="-2.25057">
        <ele>-12.39999961853</ele>
        <time>2021-08-29T09:35:23.000Z</time>
      </trkpt>
      <trkpt lat="47.27717" lon="-2.25069">
        <ele>-12.39999961853</ele>
        <time>2021-08-29T09:35:27.000Z</time>
      </trkpt>
      <trkpt lat="47.27709" lon="-2.25075">
        <ele>-12.39999961853</ele>
        <time>2021-08-29T09:35:29.000Z</time>
      </trkpt>
      <trkpt lat="47.27692" lon="-2.25084">
        <ele>-12.39999961853</ele>
        <time>2021-08-29T09:35:33.000Z</time>
      </trkpt>
      <trkpt lat="47.27683" lon="-2.25088">
        <ele>-12.39999961853</ele>
        <time>2021-08-29T09:35:37.000Z</time>
      </trkpt>
      <trkpt lat="47.27671" lon="-2.25095">
        <ele>-12.39999961853</ele>
        <time>2021-08-29T09:35:43.000Z</time>
      </trkpt>
      <trkpt lat="47.27653" lon="-2.25101">
        <ele>-12.39999961853</ele>
        <time>2021-08-29T09:35:48.000Z</time>
      </trkpt>
      <trkpt lat="47.2763" lon="-2.25102">
        <ele>-12.39999961853</ele>
        <time>2021-08-29T09:35:55.000Z</time>
      </trkpt>
      <trkpt lat="47.27615" lon="-2.25093">
        <ele>-12.39999961853</ele>
        <time>2021-08-29T09:36:00.000Z</time>
      </trkpt>
      <trkpt lat="47.2759" lon="-2.25079">
        <ele>-12.39999961853</ele>
        <time>2021-08-29T09:36:07.000Z</time>
      </trkpt>
      <trkpt lat="47.27562" lon="-2.25067">
        <ele>-12.39999961853</ele>
        <time>2021-08-29T09:36:14.000Z</time>
      </trkpt>
      <trkpt lat="47.27552" lon="-2.25061">
        <ele>-12.39999961853</ele>
        <time>2021-08-29T09:36:16.000Z</time>
      </trkpt>
      <trkpt lat="47.27543" lon="-2.25046">
        <ele>-12.39999961853</ele>
        <time>2021-08-29T09:36:18.000Z</time>
      </trkpt>
      <trkpt lat="47.27532" lon="-2.2503">
        <ele>-12.39999961853</ele>
        <time>2021-08-29T09:36:20.000Z</time>
      </trkpt>
      <trkpt lat="47.27515" lon="-2.25014">
        <ele>-12.39999961853</ele>
        <time>2021-08-29T09:36:23.000Z</time>
      </trkpt>
      <trkpt lat="47.27499" lon="-2.24998">
        <ele>-12.39999961853</ele>
        <time>2021-08-29T09:36:26.000Z</time>
      </trkpt>
      <trkpt lat="47.27488" lon="-2.24988">
        <ele>-12.39999961853</ele>
        <time>2021-08-29T09:36:28.000Z</time>
      </trkpt>
      <trkpt lat="47.27483" lon="-2.24983">
        <ele>-12.39999961853</ele>
        <time>2021-08-29T09:36:29.000Z</time>
      </trkpt>
      <trkpt lat="47.27454" lon="-2.24962">
        <ele>-12.39999961853</ele>
        <time>2021-08-29T09:36:35.000Z</time>
      </trkpt>
      <trkpt lat="47.27449" lon="-2.2496">
        <ele>-12.39999961853</ele>
        <time>2021-08-29T09:36:36.000Z</time>
      </trkpt>
      <trkpt lat="47.27443" lon="-2.24959">
        <ele>-12.39999961853</ele>
        <time>2021-08-29T09:36:37.000Z</time>
      </trkpt>
      <trkpt lat="47.27425" lon="-2.24961">
        <ele>-12.39999961853</ele>
        <time>2021-08-29T09:36:40.000Z</time>
      </trkpt>
      <trkpt lat="47.27414" lon="-2.24967">
        <ele>-12.39999961853</ele>
        <time>2021-08-29T09:36:42.000Z</time>
      </trkpt>
      <trkpt lat="47.27401" lon="-2.24971">
        <ele>-12.39999961853</ele>
        <time>2021-08-29T09:36:44.000Z</time>
      </trkpt>
      <trkpt lat="47.27395" lon="-2.24973">
        <ele>-12.39999961853</ele>
        <time>2021-08-29T09:36:45.000Z</time>
      </trkpt>
      <trkpt lat="47.27384" lon="-2.24978">
        <ele>-12.39999961853</ele>
        <time>2021-08-29T09:36:47.000Z</time>
      </trkpt>
      <trkpt lat="47.27376" lon="-2.24986">
        <ele>-12.39999961853</ele>
        <time>2021-08-29T09:36:49.000Z</time>
      </trkpt>
      <trkpt lat="47.27369" lon="-2.24992">
        <ele>-12.39999961853</ele>
        <time>2021-08-29T09:36:51.000Z</time>
      </trkpt>
      <trkpt lat="47.27365" lon="-2.24998">
        <ele>-12.39999961853</ele>
        <time>2021-08-29T09:36:53.000Z</time>
      </trkpt>
      <trkpt lat="47.27355" lon="-2.25014">
        <ele>-12.39999961853</ele>
        <time>2021-08-29T09:36:59.000Z</time>
      </trkpt>
      <trkpt lat="47.27341" lon="-2.25035">
        <ele>-12.39999961853</ele>
        <time>2021-08-29T09:37:05.000Z</time>
      </trkpt>
      <trkpt lat="47.27343" lon="-2.25058">
        <ele>-12.39999961853</ele>
        <time>2021-08-29T09:37:09.000Z</time>
      </trkpt>
      <trkpt lat="47.27358" lon="-2.25099">
        <ele>-12.39999961853</ele>
        <time>2021-08-29T09:37:15.000Z</time>
      </trkpt>
      <trkpt lat="47.27382" lon="-2.25153">
        <ele>-12.39999961853</ele>
        <time>2021-08-29T09:37:23.000Z</time>
      </trkpt>
      <trkpt lat="47.2739" lon="-2.25172">
        <ele>-12.39999961853</ele>
        <time>2021-08-29T09:37:26.000Z</time>
      </trkpt>
      <trkpt lat="47.2739" lon="-2.25185">
        <ele>-12.39999961853</ele>
        <time>2021-08-29T09:37:28.000Z</time>
      </trkpt>
      <trkpt lat="47.27386" lon="-2.25205">
        <ele>-12.39999961853</ele>
        <time>2021-08-29T09:37:31.000Z</time>
      </trkpt>
      <trkpt lat="47.27386" lon="-2.2522">
        <ele>-12.39999961853</ele>
        <time>2021-08-29T09:37:35.000Z</time>
      </trkpt>
      <trkpt lat="47.27386" lon="-2.25224">
        <ele>-12.39999961853</ele>
        <time>2021-08-29T09:37:36.000Z</time>
      </trkpt>
      <trkpt lat="47.27391" lon="-2.25243">
        <ele>-12.39999961853</ele>
        <time>2021-08-29T09:37:41.000Z</time>
      </trkpt>
      <trkpt lat="47.27394" lon="-2.25266">
        <ele>-12.39999961853</ele>
        <time>2021-08-29T09:37:45.000Z</time>
      </trkpt>
      <trkpt lat="47.27395" lon="-2.25292">
        <ele>-12.39999961853</ele>
        <time>2021-08-29T09:37:50.000Z</time>
      </trkpt>
      <trkpt lat="47.27402" lon="-2.25322">
        <ele>-12.39999961853</ele>
        <time>2021-08-29T09:37:55.000Z</time>
      </trkpt>
      <trkpt lat="47.27403" lon="-2.2534">
        <ele>-12</ele>
        <time>2021-08-29T09:37:58.000Z</time>
      </trkpt>
      <trkpt lat="47.27403" lon="-2.25346">
        <ele>-11.60000038147</ele>
        <time>2021-08-29T09:37:59.000Z</time>
      </trkpt>
      <trkpt lat="47.27404" lon="-2.25352">
        <ele>-11.199999809265</ele>
        <time>2021-08-29T09:38:00.000Z</time>
      </trkpt>
      <trkpt lat="47.27407" lon="-2.25357">
        <ele>-10.800000190735</ele>
        <time>2021-08-29T09:38:01.000Z</time>
      </trkpt>
      <trkpt lat="47.27409" lon="-2.25363">
        <ele>-10.39999961853</ele>
        <time>2021-08-29T09:38:02.000Z</time>
      </trkpt>
      <trkpt lat="47.27412" lon="-2.25369">
        <ele>-10.39999961853</ele>
        <time>2021-08-29T09:38:03.000Z</time>
      </trkpt>
      <trkpt lat="47.27425" lon="-2.25408">
        <ele>-10.39999961853</ele>
        <time>2021-08-29T09:38:09.000Z</time>
      </trkpt>
      <trkpt lat="47.27432" lon="-2.25419">
        <ele>-10.39999961853</ele>
        <time>2021-08-29T09:38:11.000Z</time>
      </trkpt>
      <trkpt lat="47.27443" lon="-2.25428">
        <ele>-10.39999961853</ele>
        <time>2021-08-29T09:38:13.000Z</time>
      </trkpt>
      <trkpt lat="47.2745" lon="-2.25432">
        <ele>-10.39999961853</ele>
        <time>2021-08-29T09:38:14.000Z</time>
      </trkpt>
      <trkpt lat="47.27462" lon="-2.25439">
        <ele>-10.39999961853</ele>
        <time>2021-08-29T09:38:16.000Z</time>
      </trkpt>
      <trkpt lat="47.27468" lon="-2.2544">
        <ele>-10.39999961853</ele>
        <time>2021-08-29T09:38:17.000Z</time>
      </trkpt>
      <trkpt lat="47.27494" lon="-2.25439">
        <ele>-10.800000190735</ele>
        <time>2021-08-29T09:38:22.000Z</time>
      </trkpt>
      <trkpt lat="47.27498" lon="-2.25441">
        <ele>-11.199999809265</ele>
        <time>2021-08-29T09:38:23.000Z</time>
      </trkpt>
      <trkpt lat="47.27503" lon="-2.25444">
        <ele>-11.800000190735</ele>
        <time>2021-08-29T09:38:24.000Z</time>
      </trkpt>
      <trkpt lat="47.27507" lon="-2.25448">
        <ele>-12.199999809265</ele>
        <time>2021-08-29T09:38:25.000Z</time>
      </trkpt>
      <trkpt lat="47.27512" lon="-2.25453">
        <ele>-12.60000038147</ele>
        <time>2021-08-29T09:38:26.000Z</time>
      </trkpt>
      <trkpt lat="47.27535" lon="-2.25482">
        <ele>-12.60000038147</ele>
        <time>2021-08-29T09:38:32.000Z</time>
      </trkpt>
      <trkpt lat="47.27541" lon="-2.25493">
        <ele>-12.60000038147</ele>
        <time>2021-08-29T09:38:34.000Z</time>
      </trkpt>
      <trkpt lat="47.27546" lon="-2.25505">
        <ele>-12.60000038147</ele>
        <time>2021-08-29T09:38:36.000Z</time>
      </trkpt>
      <trkpt lat="47.27559" lon="-2.2554">
        <ele>-12.60000038147</ele>
        <time>2021-08-29T09:38:42.000Z</time>
      </trkpt>
      <trkpt lat="47.27563" lon="-2.2557">
        <ele>-12.60000038147</ele>
        <time>2021-08-29T09:38:47.000Z</time>
      </trkpt>
      <trkpt lat="47.27564" lon="-2.25615">
        <ele>-12.60000038147</ele>
        <time>2021-08-29T09:38:54.000Z</time>
      </trkpt>
      <trkpt lat="47.27564" lon="-2.2563">
        <ele>-12.60000038147</ele>
        <time>2021-08-29T09:38:58.000Z</time>
      </trkpt>
      <trkpt lat="47.27564" lon="-2.25653">
        <ele>-12.60000038147</ele>
        <time>2021-08-29T09:39:04.000Z</time>
      </trkpt>
      <trkpt lat="47.27555" lon="-2.25675">
        <ele>-12.60000038147</ele>
        <time>2021-08-29T09:39:08.000Z</time>
      </trkpt>
      <trkpt lat="47.27553" lon="-2.25681">
        <ele>-12.199999809265</ele>
        <time>2021-08-29T09:39:09.000Z</time>
      </trkpt>
      <trkpt lat="47.2755" lon="-2.25686">
        <ele>-11.800000190735</ele>
        <time>2021-08-29T09:39:10.000Z</time>
      </trkpt>
      <trkpt lat="47.27548" lon="-2.25691">
        <ele>-11.39999961853</ele>
        <time>2021-08-29T09:39:11.000Z</time>
      </trkpt>
      <trkpt lat="47.27545" lon="-2.25696">
        <ele>-11</ele>
        <time>2021-08-29T09:39:12.000Z</time>
      </trkpt>
      <trkpt lat="47.27542" lon="-2.25701">
        <ele>-10.60000038147</ele>
        <time>2021-08-29T09:39:13.000Z</time>
      </trkpt>
      <trkpt lat="47.2754" lon="-2.25706">
        <ele>-10.60000038147</ele>
        <time>2021-08-29T09:39:14.000Z</time>
      </trkpt>
      <trkpt lat="47.27531" lon="-2.25721">
        <ele>-10.60000038147</ele>
        <time>2021-08-29T09:39:17.000Z</time>
      </trkpt>
      <trkpt lat="47.27521" lon="-2.25735">
        <ele>-10.60000038147</ele>
        <time>2021-08-29T09:39:20.000Z</time>
      </trkpt>
      <trkpt lat="47.27504" lon="-2.25761">
        <ele>-10.60000038147</ele>
        <time>2021-08-29T09:39:26.000Z</time>
      </trkpt>
      <trkpt lat="47.27501" lon="-2.25765">
        <ele>-10.199999809265</ele>
        <time>2021-08-29T09:39:27.000Z</time>
      </trkpt>
      <trkpt lat="47.27497" lon="-2.25769">
        <ele>-9.3999996185303</ele>
        <time>2021-08-29T09:39:28.000Z</time>
      </trkpt>
      <trkpt lat="47.27494" lon="-2.25772">
        <ele>-9</ele>
        <time>2021-08-29T09:39:29.000Z</time>
      </trkpt>
      <trkpt lat="47.2749" lon="-2.25776">
        <ele>-8.6000003814697</ele>
        <time>2021-08-29T09:39:30.000Z</time>
      </trkpt>
      <trkpt lat="47.27486" lon="-2.2578">
        <ele>-8.6000003814697</ele>
        <time>2021-08-29T09:39:31.000Z</time>
      </trkpt>
      <trkpt lat="47.27455" lon="-2.25804">
        <ele>-8.6000003814697</ele>
        <time>2021-08-29T09:39:38.000Z</time>
      </trkpt>
      <trkpt lat="47.27445" lon="-2.2582">
        <ele>-8.6000003814697</ele>
        <time>2021-08-29T09:39:41.000Z</time>
      </trkpt>
      <trkpt lat="47.27439" lon="-2.25832">
        <ele>-8.6000003814697</ele>
        <time>2021-08-29T09:39:43.000Z</time>
      </trkpt>
      <trkpt lat="47.27417" lon="-2.2587">
        <ele>-8.6000003814697</ele>
        <time>2021-08-29T09:39:50.000Z</time>
      </trkpt>
      <trkpt lat="47.2741" lon="-2.25885">
        <ele>-8.6000003814697</ele>
        <time>2021-08-29T09:39:53.000Z</time>
      </trkpt>
      <trkpt lat="47.27403" lon="-2.259">
        <ele>-8.6000003814697</ele>
        <time>2021-08-29T09:39:56.000Z</time>
      </trkpt>
      <trkpt lat="47.27394" lon="-2.25914">
        <ele>-8.6000003814697</ele>
        <time>2021-08-29T09:39:59.000Z</time>
      </trkpt>
      <trkpt lat="47.27383" lon="-2.25927">
        <ele>-8.6000003814697</ele>
        <time>2021-08-29T09:40:02.000Z</time>
      </trkpt>
      <trkpt lat="47.27376" lon="-2.25936">
        <ele>-8.6000003814697</ele>
        <time>2021-08-29T09:40:04.000Z</time>
      </trkpt>
      <trkpt lat="47.27368" lon="-2.2595">
        <ele>-8.6000003814697</ele>
        <time>2021-08-29T09:40:07.000Z</time>
      </trkpt>
      <trkpt lat="47.27361" lon="-2.25955">
        <ele>-8.6000003814697</ele>
        <time>2021-08-29T09:40:09.000Z</time>
      </trkpt>
      <trkpt lat="47.2735" lon="-2.25961">
        <ele>-8.6000003814697</ele>
        <time>2021-08-29T09:40:12.000Z</time>
      </trkpt>
      <trkpt lat="47.27323" lon="-2.25976">
        <ele>-8.6000003814697</ele>
        <time>2021-08-29T09:40:19.000Z</time>
      </trkpt>
      <trkpt lat="47.27299" lon="-2.25993">
        <ele>-8.6000003814697</ele>
        <time>2021-08-29T09:40:26.000Z</time>
      </trkpt>
      <trkpt lat="47.27292" lon="-2.26002">
        <ele>-8.6000003814697</ele>
        <time>2021-08-29T09:40:30.000Z</time>
      </trkpt>
      <trkpt lat="47.27293" lon="-2.26007">
        <ele>-8.6000003814697</ele>
        <time>2021-08-29T09:40:31.000Z</time>
      </trkpt>
      <trkpt lat="47.27303" lon="-2.26024">
        <ele>-8.6000003814697</ele>
        <time>2021-08-29T09:40:35.000Z</time>
      </trkpt>
      <trkpt lat="47.27322" lon="-2.26058">
        <ele>-8.6000003814697</ele>
        <time>2021-08-29T09:40:41.000Z</time>
      </trkpt>
      <trkpt lat="47.27341" lon="-2.26101">
        <ele>-8.6000003814697</ele>
        <time>2021-08-29T09:40:49.000Z</time>
      </trkpt>
      <trkpt lat="47.27347" lon="-2.26119">
        <ele>-8.6000003814697</ele>
        <time>2021-08-29T09:40:54.000Z</time>
      </trkpt>
      <trkpt lat="47.27337" lon="-2.2613">
        <ele>-8.6000003814697</ele>
        <time>2021-08-29T09:40:58.000Z</time>
      </trkpt>
      <trkpt lat="47.27325" lon="-2.26135">
        <ele>-8.1999998092651</ele>
        <time>2021-08-29T09:41:00.000Z</time>
      </trkpt>
      <trkpt lat="47.2732" lon="-2.26137">
        <ele>-7.8000001907349</ele>
        <time>2021-08-29T09:41:01.000Z</time>
      </trkpt>
      <trkpt lat="47.27315" lon="-2.2614">
        <ele>-7.1999998092651</ele>
        <time>2021-08-29T09:41:02.000Z</time>
      </trkpt>
      <trkpt lat="47.27309" lon="-2.26142">
        <ele>-6.8000001907349</ele>
        <time>2021-08-29T09:41:03.000Z</time>
      </trkpt>
      <trkpt lat="47.27304" lon="-2.26144">
        <ele>-6.4000000953674</ele>
        <time>2021-08-29T09:41:04.000Z</time>
      </trkpt>
      <trkpt lat="47.2727" lon="-2.26156">
        <ele>-6.4000000953674</ele>
        <time>2021-08-29T09:41:10.000Z</time>
      </trkpt>
      <trkpt lat="47.27231" lon="-2.26177">
        <ele>-6.4000000953674</ele>
        <time>2021-08-29T09:41:17.000Z</time>
      </trkpt>
      <trkpt lat="47.27209" lon="-2.26191">
        <ele>-6.4000000953674</ele>
        <time>2021-08-29T09:41:21.000Z</time>
      </trkpt>
      <trkpt lat="47.27194" lon="-2.26205">
        <ele>-6.4000000953674</ele>
        <time>2021-08-29T09:41:24.000Z</time>
      </trkpt>
      <trkpt lat="47.27157" lon="-2.26247">
        <ele>-6.4000000953674</ele>
        <time>2021-08-29T09:41:32.000Z</time>
      </trkpt>
      <trkpt lat="47.27137" lon="-2.26274">
        <ele>-6</ele>
        <time>2021-08-29T09:41:37.000Z</time>
      </trkpt>
      <trkpt lat="47.27133" lon="-2.26279">
        <ele>-5.5999999046326</ele>
        <time>2021-08-29T09:41:38.000Z</time>
      </trkpt>
      <trkpt lat="47.2713" lon="-2.26284">
        <ele>-5.1999998092651</ele>
        <time>2021-08-29T09:41:39.000Z</time>
      </trkpt>
      <trkpt lat="47.27126" lon="-2.26289">
        <ele>-4.8000001907349</ele>
        <time>2021-08-29T09:41:40.000Z</time>
      </trkpt>
      <trkpt lat="47.27122" lon="-2.26295">
        <ele>-4.4000000953674</ele>
        <time>2021-08-29T09:41:41.000Z</time>
      </trkpt>
      <trkpt lat="47.27105" lon="-2.26318">
        <ele>-4.4000000953674</ele>
        <time>2021-08-29T09:41:45.000Z</time>
      </trkpt>
      <trkpt lat="47.27101" lon="-2.26324">
        <ele>-4.4000000953674</ele>
        <time>2021-08-29T09:41:46.000Z</time>
      </trkpt>
      <trkpt lat="47.27088" lon="-2.26342">
        <ele>-4</ele>
        <time>2021-08-29T09:41:49.000Z</time>
      </trkpt>
      <trkpt lat="47.27083" lon="-2.26348">
        <ele>-3.5999999046326</ele>
        <time>2021-08-29T09:41:50.000Z</time>
      </trkpt>
      <trkpt lat="47.27079" lon="-2.26354">
        <ele>-3.2000000476837</ele>
        <time>2021-08-29T09:41:51.000Z</time>
      </trkpt>
      <trkpt lat="47.27075" lon="-2.2636">
        <ele>-2.7999999523163</ele>
        <time>2021-08-29T09:41:52.000Z</time>
      </trkpt>
      <trkpt lat="47.27071" lon="-2.26366">
        <ele>-2.2000000476837</ele>
        <time>2021-08-29T09:41:53.000Z</time>
      </trkpt>
      <trkpt lat="47.27046" lon="-2.26404">
        <ele>-2.2000000476837</ele>
        <time>2021-08-29T09:41:59.000Z</time>
      </trkpt>
      <trkpt lat="47.27015" lon="-2.26447">
        <ele>-2.2000000476837</ele>
        <time>2021-08-29T09:42:06.000Z</time>
      </trkpt>
      <trkpt lat="47.26998" lon="-2.26471">
        <ele>-2.2000000476837</ele>
        <time>2021-08-29T09:42:10.000Z</time>
      </trkpt>
      <trkpt lat="47.26993" lon="-2.26477">
        <ele>-2.2000000476837</ele>
        <time>2021-08-29T09:42:11.000Z</time>
      </trkpt>
      <trkpt lat="47.26975" lon="-2.26496">
        <ele>-2.2000000476837</ele>
        <time>2021-08-29T09:42:15.000Z</time>
      </trkpt>
      <trkpt lat="47.26968" lon="-2.26505">
        <ele>-2.2000000476837</ele>
        <time>2021-08-29T09:42:17.000Z</time>
      </trkpt>
      <trkpt lat="47.26968" lon="-2.26524">
        <ele>-2.2000000476837</ele>
        <time>2021-08-29T09:42:20.000Z</time>
      </trkpt>
      <trkpt lat="47.26972" lon="-2.2654">
        <ele>-2.2000000476837</ele>
        <time>2021-08-29T09:42:22.000Z</time>
      </trkpt>
      <trkpt lat="47.2698" lon="-2.26564">
        <ele>-2.2000000476837</ele>
        <time>2021-08-29T09:42:25.000Z</time>
      </trkpt>
      <trkpt lat="47.26984" lon="-2.2657">
        <ele>-2.2000000476837</ele>
        <time>2021-08-29T09:42:26.000Z</time>
      </trkpt>
      <trkpt lat="47.26994" lon="-2.2658">
        <ele>-2.2000000476837</ele>
        <time>2021-08-29T09:42:28.000Z</time>
      </trkpt>
      <trkpt lat="47.26998" lon="-2.26586">
        <ele>-2.2000000476837</ele>
        <time>2021-08-29T09:42:29.000Z</time>
      </trkpt>
      <trkpt lat="47.27003" lon="-2.26592">
        <ele>-2.7999999523163</ele>
        <time>2021-08-29T09:42:30.000Z</time>
      </trkpt>
      <trkpt lat="47.27008" lon="-2.26598">
        <ele>-3.2000000476837</ele>
        <time>2021-08-29T09:42:31.000Z</time>
      </trkpt>
      <trkpt lat="47.27013" lon="-2.26604">
        <ele>-3.5999999046326</ele>
        <time>2021-08-29T09:42:32.000Z</time>
      </trkpt>
      <trkpt lat="47.27018" lon="-2.2661">
        <ele>-4</ele>
        <time>2021-08-29T09:42:33.000Z</time>
      </trkpt>
      <trkpt lat="47.27023" lon="-2.26616">
        <ele>-4.4000000953674</ele>
        <time>2021-08-29T09:42:34.000Z</time>
      </trkpt>
      <trkpt lat="47.27036" lon="-2.26635">
        <ele>-4.4000000953674</ele>
        <time>2021-08-29T09:42:37.000Z</time>
      </trkpt>
      <trkpt lat="47.27039" lon="-2.26649">
        <ele>-4.8000001907349</ele>
        <time>2021-08-29T09:42:39.000Z</time>
      </trkpt>
      <trkpt lat="47.27038" lon="-2.26655">
        <ele>-5.1999998092651</ele>
        <time>2021-08-29T09:42:40.000Z</time>
      </trkpt>
      <trkpt lat="47.27038" lon="-2.26661">
        <ele>-5.8000001907349</ele>
        <time>2021-08-29T09:42:41.000Z</time>
      </trkpt>
      <trkpt lat="47.27037" lon="-2.26667">
        <ele>-6.1999998092651</ele>
        <time>2021-08-29T09:42:42.000Z</time>
      </trkpt>
      <trkpt lat="47.27038" lon="-2.26672">
        <ele>-6.5999999046326</ele>
        <time>2021-08-29T09:42:43.000Z</time>
      </trkpt>
      <trkpt lat="47.2704" lon="-2.26698">
        <ele>-6.5999999046326</ele>
        <time>2021-08-29T09:42:48.000Z</time>
      </trkpt>
      <trkpt lat="47.27039" lon="-2.26725">
        <ele>-6.5999999046326</ele>
        <time>2021-08-29T09:42:53.000Z</time>
      </trkpt>
      <trkpt lat="47.27036" lon="-2.26737">
        <ele>-6.5999999046326</ele>
        <time>2021-08-29T09:42:57.000Z</time>
      </trkpt>
      <trkpt lat="47.27035" lon="-2.2674">
        <ele>-6.5999999046326</ele>
        <time>2021-08-29T09:42:58.000Z</time>
      </trkpt>
      <trkpt lat="47.27023" lon="-2.26755">
        <ele>-6.5999999046326</ele>
        <time>2021-08-29T09:43:05.000Z</time>
      </trkpt>
      <trkpt lat="47.27018" lon="-2.26766">
        <ele>-6.5999999046326</ele>
        <time>2021-08-29T09:43:09.000Z</time>
      </trkpt>
      <trkpt lat="47.27016" lon="-2.26771">
        <ele>-6.5999999046326</ele>
        <time>2021-08-29T09:43:10.000Z</time>
      </trkpt>
      <trkpt lat="47.27009" lon="-2.2678">
        <ele>-6.5999999046326</ele>
        <time>2021-08-29T09:43:13.000Z</time>
      </trkpt>
      <trkpt lat="47.27007" lon="-2.26782">
        <ele>-6.5999999046326</ele>
        <time>2021-08-29T09:43:14.000Z</time>
      </trkpt>
      <trkpt lat="47.27001" lon="-2.26784">
        <ele>-6.5999999046326</ele>
        <time>2021-08-29T09:43:18.000Z</time>
      </trkpt>
      <trkpt lat="47.26997" lon="-2.26788">
        <ele>-6.5999999046326</ele>
        <time>2021-08-29T09:43:22.000Z</time>
      </trkpt>
      <trkpt lat="47.26994" lon="-2.26792">
        <ele>-6.5999999046326</ele>
        <time>2021-08-29T09:43:24.000Z</time>
      </trkpt>
      <trkpt lat="47.26977" lon="-2.26808">
        <ele>-6.5999999046326</ele>
        <time>2021-08-29T09:43:29.000Z</time>
      </trkpt>
      <trkpt lat="47.26966" lon="-2.26825">
        <ele>-6.5999999046326</ele>
        <time>2021-08-29T09:43:33.000Z</time>
      </trkpt>
      <trkpt lat="47.26966" lon="-2.26831">
        <ele>-6.5999999046326</ele>
        <time>2021-08-29T09:43:34.000Z</time>
      </trkpt>
      <trkpt lat="47.26966" lon="-2.26849">
        <ele>-6.1999998092651</ele>
        <time>2021-08-29T09:43:37.000Z</time>
      </trkpt>
      <trkpt lat="47.26967" lon="-2.26855">
        <ele>-5.8000001907349</ele>
        <time>2021-08-29T09:43:38.000Z</time>
      </trkpt>
      <trkpt lat="47.26964" lon="-2.26863">
        <ele>-5.4000000953674</ele>
        <time>2021-08-29T09:43:39.000Z</time>
      </trkpt>
      <trkpt lat="47.26964" lon="-2.26869">
        <ele>-5</ele>
        <time>2021-08-29T09:43:40.000Z</time>
      </trkpt>
      <trkpt lat="47.26964" lon="-2.26875">
        <ele>-4.5999999046326</ele>
        <time>2021-08-29T09:43:41.000Z</time>
      </trkpt>
      <trkpt lat="47.26969" lon="-2.269">
        <ele>-4.5999999046326</ele>
        <time>2021-08-29T09:43:45.000Z</time>
      </trkpt>
      <trkpt lat="47.2697" lon="-2.26907">
        <ele>-4.5999999046326</ele>
        <time>2021-08-29T09:43:46.000Z</time>
      </trkpt>
      <trkpt lat="47.26967" lon="-2.26931">
        <ele>-4.5999999046326</ele>
        <time>2021-08-29T09:43:50.000Z</time>
      </trkpt>
      <trkpt lat="47.26958" lon="-2.26979">
        <ele>-4.5999999046326</ele>
        <time>2021-08-29T09:43:57.000Z</time>
      </trkpt>
      <trkpt lat="47.26959" lon="-2.26995">
        <ele>-4.5999999046326</ele>
        <time>2021-08-29T09:44:02.000Z</time>
      </trkpt>
      <trkpt lat="47.26963" lon="-2.26999">
        <ele>-4.5999999046326</ele>
        <time>2021-08-29T09:44:08.000Z</time>
      </trkpt>
      <trkpt lat="47.26967" lon="-2.27004">
        <ele>-4.5999999046326</ele>
        <time>2021-08-29T09:44:43.000Z</time>
      </trkpt>
      <trkpt lat="47.26976" lon="-2.27013">
        <ele>-4.5999999046326</ele>
        <time>2021-08-29T09:44:46.000Z</time>
      </trkpt>
      <trkpt lat="47.2699" lon="-2.27029">
        <ele>-4</ele>
        <time>2021-08-29T09:44:50.000Z</time>
      </trkpt>
      <trkpt lat="47.26993" lon="-2.27033">
        <ele>-3.5999999046326</ele>
        <time>2021-08-29T09:44:51.000Z</time>
      </trkpt>
      <trkpt lat="47.26996" lon="-2.27039">
        <ele>-3.2000000476837</ele>
        <time>2021-08-29T09:44:52.000Z</time>
      </trkpt>
      <trkpt lat="47.26999" lon="-2.27046">
        <ele>-2.7999999523163</ele>
        <time>2021-08-29T09:44:53.000Z</time>
      </trkpt>
      <trkpt lat="47.27002" lon="-2.27054">
        <ele>-2.4000000953674</ele>
        <time>2021-08-29T09:44:54.000Z</time>
      </trkpt>
      <trkpt lat="47.27007" lon="-2.27065">
        <ele>-2.4000000953674</ele>
        <time>2021-08-29T09:44:56.000Z</time>
      </trkpt>
      <trkpt lat="47.27013" lon="-2.27091">
        <ele>-2.4000000953674</ele>
        <time>2021-08-29T09:45:02.000Z</time>
      </trkpt>
      <trkpt lat="47.2702" lon="-2.27116">
        <ele>-2.4000000953674</ele>
        <time>2021-08-29T09:45:09.000Z</time>
      </trkpt>
      <trkpt lat="47.27028" lon="-2.27129">
        <ele>-2.7999999523163</ele>
        <time>2021-08-29T09:45:15.000Z</time>
      </trkpt>
      <trkpt lat="47.27029" lon="-2.27131">
        <ele>-3.2000000476837</ele>
        <time>2021-08-29T09:45:16.000Z</time>
      </trkpt>
      <trkpt lat="47.27031" lon="-2.27133">
        <ele>-3.5999999046326</ele>
        <time>2021-08-29T09:45:17.000Z</time>
      </trkpt>
      <trkpt lat="47.27031" lon="-2.27133">
        <ele>-4</ele>
        <time>2021-08-29T09:45:18.000Z</time>
      </trkpt>
      <trkpt lat="47.27033" lon="-2.27139">
        <ele>-4.4000000953674</ele>
        <time>2021-08-29T09:45:32.000Z</time>
      </trkpt>
      <trkpt lat="47.27033" lon="-2.27143">
        <ele>-4.4000000953674</ele>
        <time>2021-08-29T09:45:33.000Z</time>
      </trkpt>
      <trkpt lat="47.27026" lon="-2.27154">
        <ele>-4.4000000953674</ele>
        <time>2021-08-29T09:45:38.000Z</time>
      </trkpt>
      <trkpt lat="47.27024" lon="-2.27155">
        <ele>-4.4000000953674</ele>
        <time>2021-08-29T09:45:39.000Z</time>
      </trkpt>
      <trkpt lat="47.27023" lon="-2.27159">
        <ele>-4.4000000953674</ele>
        <time>2021-08-29T09:45:41.000Z</time>
      </trkpt>
      <trkpt lat="47.27022" lon="-2.27162">
        <ele>-4.4000000953674</ele>
        <time>2021-08-29T09:45:43.000Z</time>
      </trkpt>
      <trkpt lat="47.27018" lon="-2.27171">
        <ele>-4.4000000953674</ele>
        <time>2021-08-29T09:45:51.000Z</time>
      </trkpt>
      <trkpt lat="47.27017" lon="-2.27171">
        <ele>-4.4000000953674</ele>
        <time>2021-08-29T09:45:52.000Z</time>
      </trkpt>
      <trkpt lat="47.27012" lon="-2.27167">
        <ele>-4</ele>
        <time>2021-08-29T09:45:57.000Z</time>
      </trkpt>
      <trkpt lat="47.27011" lon="-2.27166">
        <ele>-3.5999999046326</ele>
        <time>2021-08-29T09:45:58.000Z</time>
      </trkpt>
      <trkpt lat="47.2701" lon="-2.27165">
        <ele>-3.2000000476837</ele>
        <time>2021-08-29T09:45:59.000Z</time>
      </trkpt>
      <trkpt lat="47.27008" lon="-2.27165">
        <ele>-2.5999999046326</ele>
        <time>2021-08-29T09:46:00.000Z</time>
      </trkpt>
      <trkpt lat="47.27007" lon="-2.27166">
        <ele>-2.2000000476837</ele>
        <time>2021-08-29T09:46:01.000Z</time>
      </trkpt>
      <trkpt lat="47.27006" lon="-2.27166">
        <ele>-2.2000000476837</ele>
        <time>2021-08-29T09:46:02.000Z</time>
      </trkpt>
      <trkpt lat="47.26997" lon="-2.27171">
        <ele>-2.2000000476837</ele>
        <time>2021-08-29T09:46:07.000Z</time>
      </trkpt>
      <trkpt lat="47.26992" lon="-2.27174">
        <ele>-1.7999999523163</ele>
        <time>2021-08-29T09:46:11.000Z</time>
      </trkpt>
      <trkpt lat="47.2699" lon="-2.27173">
        <ele>-1.3999999761581</ele>
        <time>2021-08-29T09:46:12.000Z</time>
      </trkpt>
      <trkpt lat="47.26988" lon="-2.27173">
        <ele>-1</ele>
        <time>2021-08-29T09:46:13.000Z</time>
      </trkpt>
      <trkpt lat="47.26987" lon="-2.27172">
        <ele>-0.60000002384186</ele>
        <time>2021-08-29T09:46:14.000Z</time>
      </trkpt>
      <trkpt lat="47.26987" lon="-2.27172">
        <ele>-0.20000000298023</ele>
        <time>2021-08-29T09:46:15.000Z</time>
      </trkpt>
      <trkpt lat="47.26985" lon="-2.27172">
        <ele>-0.20000000298023</ele>
        <time>2021-08-29T09:46:17.000Z</time>
      </trkpt>
      <trkpt lat="47.26981" lon="-2.27184">
        <ele>-0.20000000298023</ele>
        <time>2021-08-29T09:46:35.000Z</time>
      </trkpt>
      <trkpt lat="47.26975" lon="-2.27191">
        <ele>-0.20000000298023</ele>
        <time>2021-08-29T09:46:40.000Z</time>
      </trkpt>
      <trkpt lat="47.26973" lon="-2.27195">
        <ele>-0.20000000298023</ele>
        <time>2021-08-29T09:46:42.000Z</time>
      </trkpt>
      <trkpt lat="47.26975" lon="-2.27204">
        <ele>-0.20000000298023</ele>
        <time>2021-08-29T09:46:44.000Z</time>
      </trkpt>
      <trkpt lat="47.26976" lon="-2.2723">
        <ele>-0.20000000298023</ele>
        <time>2021-08-29T09:46:50.000Z</time>
      </trkpt>
      <trkpt lat="47.26969" lon="-2.27246">
        <ele>-0.20000000298023</ele>
        <time>2021-08-29T09:46:55.000Z</time>
      </trkpt>
      <trkpt lat="47.26966" lon="-2.27247">
        <ele>-0.20000000298023</ele>
        <time>2021-08-29T09:46:56.000Z</time>
      </trkpt>
      <trkpt lat="47.26953" lon="-2.27251">
        <ele>-0.20000000298023</ele>
        <time>2021-08-29T09:47:00.000Z</time>
      </trkpt>
      <trkpt lat="47.26943" lon="-2.27256">
        <ele>-0.20000000298023</ele>
        <time>2021-08-29T09:47:03.000Z</time>
      </trkpt>
      <trkpt lat="47.2694" lon="-2.27261">
        <ele>-0.20000000298023</ele>
        <time>2021-08-29T09:47:05.000Z</time>
      </trkpt>
      <trkpt lat="47.26937" lon="-2.27275">
        <ele>-0.20000000298023</ele>
        <time>2021-08-29T09:47:09.000Z</time>
      </trkpt>
      <trkpt lat="47.26938" lon="-2.27283">
        <ele>-0.20000000298023</ele>
        <time>2021-08-29T09:47:11.000Z</time>
      </trkpt>
      <trkpt lat="47.26936" lon="-2.27303">
        <ele>-0.20000000298023</ele>
        <time>2021-08-29T09:47:16.000Z</time>
      </trkpt>
      <trkpt lat="47.26929" lon="-2.27323">
        <ele>-0.20000000298023</ele>
        <time>2021-08-29T09:47:21.000Z</time>
      </trkpt>
      <trkpt lat="47.26923" lon="-2.2735">
        <ele>-0.20000000298023</ele>
        <time>2021-08-29T09:47:26.000Z</time>
      </trkpt>
      <trkpt lat="47.26912" lon="-2.27372">
        <ele>-0.20000000298023</ele>
        <time>2021-08-29T09:47:31.000Z</time>
      </trkpt>
      <trkpt lat="47.26893" lon="-2.27386">
        <ele>-0.20000000298023</ele>
        <time>2021-08-29T09:47:36.000Z</time>
      </trkpt>
      <trkpt lat="47.26862" lon="-2.27401">
        <ele>0.60000002384186</ele>
        <time>2021-08-29T09:47:43.000Z</time>
      </trkpt>
      <trkpt lat="47.26858" lon="-2.27402">
        <ele>1</ele>
        <time>2021-08-29T09:47:44.000Z</time>
      </trkpt>
      <trkpt lat="47.26852" lon="-2.27404">
        <ele>1.3999999761581</ele>
        <time>2021-08-29T09:47:45.000Z</time>
      </trkpt>
      <trkpt lat="47.26848" lon="-2.27406">
        <ele>1.7999999523163</ele>
        <time>2021-08-29T09:47:46.000Z</time>
      </trkpt>
      <trkpt lat="47.26831" lon="-2.27412">
        <ele>1.7999999523163</ele>
        <time>2021-08-29T09:47:50.000Z</time>
      </trkpt>
      <trkpt lat="47.26806" lon="-2.27416">
        <ele>1.7999999523163</ele>
        <time>2021-08-29T09:47:55.000Z</time>
      </trkpt>
      <trkpt lat="47.26801" lon="-2.27416">
        <ele>2.2000000476837</ele>
        <time>2021-08-29T09:47:56.000Z</time>
      </trkpt>
      <trkpt lat="47.26796" lon="-2.27417">
        <ele>2.5999999046326</ele>
        <time>2021-08-29T09:47:57.000Z</time>
      </trkpt>
      <trkpt lat="47.26792" lon="-2.27417">
        <ele>3</ele>
        <time>2021-08-29T09:47:58.000Z</time>
      </trkpt>
      <trkpt lat="47.26787" lon="-2.27417">
        <ele>3.5999999046326</ele>
        <time>2021-08-29T09:47:59.000Z</time>
      </trkpt>
      <trkpt lat="47.26783" lon="-2.27417">
        <ele>4</ele>
        <time>2021-08-29T09:48:00.000Z</time>
      </trkpt>
      <trkpt lat="47.26768" lon="-2.27415">
        <ele>4</ele>
        <time>2021-08-29T09:48:04.000Z</time>
      </trkpt>
      <trkpt lat="47.26758" lon="-2.27414">
        <ele>4</ele>
        <time>2021-08-29T09:48:09.000Z</time>
      </trkpt>
      <trkpt lat="47.26756" lon="-2.27415">
        <ele>4</ele>
        <time>2021-08-29T09:48:12.000Z</time>
      </trkpt>
      <trkpt lat="47.26753" lon="-2.2742">
        <ele>4</ele>
        <time>2021-08-29T09:49:06.000Z</time>
      </trkpt>
      <trkpt lat="47.26755" lon="-2.27438">
        <ele>4</ele>
        <time>2021-08-29T09:49:10.000Z</time>
      </trkpt>
      <trkpt lat="47.26754" lon="-2.27486">
        <ele>4</ele>
        <time>2021-08-29T09:49:18.000Z</time>
      </trkpt>
      <trkpt lat="47.26753" lon="-2.27534">
        <ele>4</ele>
        <time>2021-08-29T09:49:25.000Z</time>
      </trkpt>
      <trkpt lat="47.26757" lon="-2.27587">
        <ele>4</ele>
        <time>2021-08-29T09:49:31.000Z</time>
      </trkpt>
      <trkpt lat="47.26767" lon="-2.27651">
        <ele>4</ele>
        <time>2021-08-29T09:49:38.000Z</time>
      </trkpt>
      <trkpt lat="47.26773" lon="-2.27688">
        <ele>4</ele>
        <time>2021-08-29T09:49:43.000Z</time>
      </trkpt>
      <trkpt lat="47.26777" lon="-2.27702">
        <ele>4</ele>
        <time>2021-08-29T09:49:47.000Z</time>
      </trkpt>
      <trkpt lat="47.26777" lon="-2.27706">
        <ele>4</ele>
        <time>2021-08-29T09:49:49.000Z</time>
      </trkpt>
      <trkpt lat="47.26773" lon="-2.27703">
        <ele>4</ele>
        <time>2021-08-29T09:49:51.000Z</time>
      </trkpt>
      <trkpt lat="47.2677" lon="-2.27683">
        <ele>4</ele>
        <time>2021-08-29T09:49:55.000Z</time>
      </trkpt>
      <trkpt lat="47.26766" lon="-2.27664">
        <ele>4</ele>
        <time>2021-08-29T09:49:58.000Z</time>
      </trkpt>
      <trkpt lat="47.26761" lon="-2.27654">
        <ele>4</ele>
        <time>2021-08-29T09:50:00.000Z</time>
      </trkpt>
      <trkpt lat="47.26748" lon="-2.27652">
        <ele>4</ele>
        <time>2021-08-29T09:50:03.000Z</time>
      </trkpt>
      <trkpt lat="47.26738" lon="-2.27651">
        <ele>4</ele>
        <time>2021-08-29T09:50:05.000Z</time>
      </trkpt>
      <trkpt lat="47.26722" lon="-2.27647">
        <ele>4</ele>
        <time>2021-08-29T09:50:08.000Z</time>
      </trkpt>
      <trkpt lat="47.26706" lon="-2.27643">
        <ele>4</ele>
        <time>2021-08-29T09:50:11.000Z</time>
      </trkpt>
      <trkpt lat="47.26685" lon="-2.27634">
        <ele>4</ele>
        <time>2021-08-29T09:50:15.000Z</time>
      </trkpt>
      <trkpt lat="47.26653" lon="-2.27622">
        <ele>4</ele>
        <time>2021-08-29T09:50:21.000Z</time>
      </trkpt>
      <trkpt lat="47.26619" lon="-2.27606">
        <ele>4</ele>
        <time>2021-08-29T09:50:27.000Z</time>
      </trkpt>
      <trkpt lat="47.26608" lon="-2.27599">
        <ele>4</ele>
        <time>2021-08-29T09:50:29.000Z</time>
      </trkpt>
      <trkpt lat="47.26563" lon="-2.27583">
        <ele>4</ele>
        <time>2021-08-29T09:50:36.000Z</time>
      </trkpt>
      <trkpt lat="47.26533" lon="-2.27582">
        <ele>4</ele>
        <time>2021-08-29T09:50:41.000Z</time>
      </trkpt>
      <trkpt lat="47.26506" lon="-2.27578">
        <ele>4</ele>
        <time>2021-08-29T09:50:46.000Z</time>
      </trkpt>
      <trkpt lat="47.26501" lon="-2.27579">
        <ele>4</ele>
        <time>2021-08-29T09:50:47.000Z</time>
      </trkpt>
      <trkpt lat="47.26468" lon="-2.27594">
        <ele>4</ele>
        <time>2021-08-29T09:50:53.000Z</time>
      </trkpt>
      <trkpt lat="47.26444" lon="-2.2759">
        <ele>4</ele>
        <time>2021-08-29T09:50:57.000Z</time>
      </trkpt>
      <trkpt lat="47.26411" lon="-2.27581">
        <ele>4</ele>
        <time>2021-08-29T09:51:03.000Z</time>
      </trkpt>
      <trkpt lat="47.26401" lon="-2.27577">
        <ele>4</ele>
        <time>2021-08-29T09:51:05.000Z</time>
      </trkpt>
      <trkpt lat="47.26396" lon="-2.27574">
        <ele>4</ele>
        <time>2021-08-29T09:51:06.000Z</time>
      </trkpt>
      <trkpt lat="47.26369" lon="-2.27559">
        <ele>4</ele>
        <time>2021-08-29T09:51:11.000Z</time>
      </trkpt>
      <trkpt lat="47.26342" lon="-2.27542">
        <ele>4.4000000953674</ele>
        <time>2021-08-29T09:51:16.000Z</time>
      </trkpt>
      <trkpt lat="47.26337" lon="-2.27538">
        <ele>4.8000001907349</ele>
        <time>2021-08-29T09:51:17.000Z</time>
      </trkpt>
      <trkpt lat="47.26332" lon="-2.27535">
        <ele>5.1999998092651</ele>
        <time>2021-08-29T09:51:18.000Z</time>
      </trkpt>
      <trkpt lat="47.26327" lon="-2.27532">
        <ele>5.5999999046326</ele>
        <time>2021-08-29T09:51:19.000Z</time>
      </trkpt>
      <trkpt lat="47.26321" lon="-2.27529">
        <ele>6</ele>
        <time>2021-08-29T09:51:20.000Z</time>
      </trkpt>
      <trkpt lat="47.26296" lon="-2.27513">
        <ele>6</ele>
        <time>2021-08-29T09:51:25.000Z</time>
      </trkpt>
      <trkpt lat="47.26266" lon="-2.2749">
        <ele>6</ele>
        <time>2021-08-29T09:51:31.000Z</time>
      </trkpt>
      <trkpt lat="47.26241" lon="-2.27481">
        <ele>6.4000000953674</ele>
        <time>2021-08-29T09:51:36.000Z</time>
      </trkpt>
      <trkpt lat="47.26237" lon="-2.27483">
        <ele>6.8000001907349</ele>
        <time>2021-08-29T09:51:37.000Z</time>
      </trkpt>
      <trkpt lat="47.26233" lon="-2.27485">
        <ele>7.1999998092651</ele>
        <time>2021-08-29T09:51:38.000Z</time>
      </trkpt>
      <trkpt lat="47.26229" lon="-2.27488">
        <ele>7.5999999046326</ele>
        <time>2021-08-29T09:51:39.000Z</time>
      </trkpt>
      <trkpt lat="47.26225" lon="-2.27491">
        <ele>8</ele>
        <time>2021-08-29T09:51:40.000Z</time>
      </trkpt>
      <trkpt lat="47.26217" lon="-2.27501">
        <ele>8</ele>
        <time>2021-08-29T09:51:42.000Z</time>
      </trkpt>
      <trkpt lat="47.26213" lon="-2.27505">
        <ele>8.6000003814697</ele>
        <time>2021-08-29T09:51:43.000Z</time>
      </trkpt>
      <trkpt lat="47.26208" lon="-2.27509">
        <ele>9</ele>
        <time>2021-08-29T09:51:44.000Z</time>
      </trkpt>
      <trkpt lat="47.26203" lon="-2.27514">
        <ele>9.3999996185303</ele>
        <time>2021-08-29T09:51:45.000Z</time>
      </trkpt>
      <trkpt lat="47.26198" lon="-2.27517">
        <ele>9.8000001907349</ele>
        <time>2021-08-29T09:51:46.000Z</time>
      </trkpt>
      <trkpt lat="47.26194" lon="-2.27522">
        <ele>10.199999809265</ele>
        <time>2021-08-29T09:51:47.000Z</time>
      </trkpt>
      <trkpt lat="47.2619" lon="-2.27526">
        <ele>10.199999809265</ele>
        <time>2021-08-29T09:51:48.000Z</time>
      </trkpt>
      <trkpt lat="47.26182" lon="-2.27534">
        <ele>10.199999809265</ele>
        <time>2021-08-29T09:51:50.000Z</time>
      </trkpt>
      <trkpt lat="47.2615" lon="-2.27569">
        <ele>10.199999809265</ele>
        <time>2021-08-29T09:51:58.000Z</time>
      </trkpt>
      <trkpt lat="47.26142" lon="-2.27579">
        <ele>10.199999809265</ele>
        <time>2021-08-29T09:52:00.000Z</time>
      </trkpt>
      <trkpt lat="47.2614" lon="-2.27593">
        <ele>10.199999809265</ele>
        <time>2021-08-29T09:52:02.000Z</time>
      </trkpt>
      <trkpt lat="47.26145" lon="-2.27613">
        <ele>10.60000038147</ele>
        <time>2021-08-29T09:52:05.000Z</time>
      </trkpt>
      <trkpt lat="47.26147" lon="-2.2762">
        <ele>11</ele>
        <time>2021-08-29T09:52:06.000Z</time>
      </trkpt>
      <trkpt lat="47.26148" lon="-2.27627">
        <ele>11.39999961853</ele>
        <time>2021-08-29T09:52:07.000Z</time>
      </trkpt>
      <trkpt lat="47.26149" lon="-2.27634">
        <ele>12</ele>
        <time>2021-08-29T09:52:08.000Z</time>
      </trkpt>
      <trkpt lat="47.2615" lon="-2.27641">
        <ele>12.39999961853</ele>
        <time>2021-08-29T09:52:09.000Z</time>
      </trkpt>
      <trkpt lat="47.26153" lon="-2.27655">
        <ele>12.39999961853</ele>
        <time>2021-08-29T09:52:11.000Z</time>
      </trkpt>
      <trkpt lat="47.26154" lon="-2.27661">
        <ele>12.39999961853</ele>
        <time>2021-08-29T09:52:12.000Z</time>
      </trkpt>
      <trkpt lat="47.26166" lon="-2.27695">
        <ele>12.39999961853</ele>
        <time>2021-08-29T09:52:17.000Z</time>
      </trkpt>
      <trkpt lat="47.26186" lon="-2.27758">
        <ele>12.39999961853</ele>
        <time>2021-08-29T09:52:25.000Z</time>
      </trkpt>
      <trkpt lat="47.26198" lon="-2.27791">
        <ele>12.800000190735</ele>
        <time>2021-08-29T09:52:29.000Z</time>
      </trkpt>
      <trkpt lat="47.26202" lon="-2.27799">
        <ele>13.199999809265</ele>
        <time>2021-08-29T09:52:30.000Z</time>
      </trkpt>
      <trkpt lat="47.26205" lon="-2.27808">
        <ele>13.60000038147</ele>
        <time>2021-08-29T09:52:31.000Z</time>
      </trkpt>
      <trkpt lat="47.26209" lon="-2.27815">
        <ele>14</ele>
        <time>2021-08-29T09:52:32.000Z</time>
      </trkpt>
      <trkpt lat="47.26213" lon="-2.27823">
        <ele>14.39999961853</ele>
        <time>2021-08-29T09:52:33.000Z</time>
      </trkpt>
      <trkpt lat="47.26238" lon="-2.27873">
        <ele>14.39999961853</ele>
        <time>2021-08-29T09:52:40.000Z</time>
      </trkpt>
      <trkpt lat="47.26261" lon="-2.2792">
        <ele>14.39999961853</ele>
        <time>2021-08-29T09:52:47.000Z</time>
      </trkpt>
      <trkpt lat="47.2627" lon="-2.27938">
        <ele>14</ele>
        <time>2021-08-29T09:52:50.000Z</time>
      </trkpt>
      <trkpt lat="47.26273" lon="-2.27944">
        <ele>13.60000038147</ele>
        <time>2021-08-29T09:52:51.000Z</time>
      </trkpt>
      <trkpt lat="47.26276" lon="-2.2795">
        <ele>13.199999809265</ele>
        <time>2021-08-29T09:52:52.000Z</time>
      </trkpt>
      <trkpt lat="47.26279" lon="-2.27956">
        <ele>12.800000190735</ele>
        <time>2021-08-29T09:52:53.000Z</time>
      </trkpt>
      <trkpt lat="47.26281" lon="-2.2796">
        <ele>12.39999961853</ele>
        <time>2021-08-29T09:52:54.000Z</time>
      </trkpt>
      <trkpt lat="47.26282" lon="-2.27963">
        <ele>12.39999961853</ele>
        <time>2021-08-29T09:52:55.000Z</time>
      </trkpt>
      <trkpt lat="47.26289" lon="-2.27968">
        <ele>12.39999961853</ele>
        <time>2021-08-29T09:52:59.000Z</time>
      </trkpt>
      <trkpt lat="47.26297" lon="-2.27984">
        <ele>12.39999961853</ele>
        <time>2021-08-29T09:53:03.000Z</time>
      </trkpt>
      <trkpt lat="47.26307" lon="-2.2801">
        <ele>12.39999961853</ele>
        <time>2021-08-29T09:53:07.000Z</time>
      </trkpt>
      <trkpt lat="47.26325" lon="-2.28064">
        <ele>12.39999961853</ele>
        <time>2021-08-29T09:53:14.000Z</time>
      </trkpt>
      <trkpt lat="47.26329" lon="-2.28081">
        <ele>12.39999961853</ele>
        <time>2021-08-29T09:53:16.000Z</time>
      </trkpt>
      <trkpt lat="47.26334" lon="-2.28115">
        <ele>12.39999961853</ele>
        <time>2021-08-29T09:53:20.000Z</time>
      </trkpt>
      <trkpt lat="47.2634" lon="-2.28158">
        <ele>12.39999961853</ele>
        <time>2021-08-29T09:53:25.000Z</time>
      </trkpt>
      <trkpt lat="47.26343" lon="-2.28175">
        <ele>12.39999961853</ele>
        <time>2021-08-29T09:53:27.000Z</time>
      </trkpt>
      <trkpt lat="47.26349" lon="-2.28208">
        <ele>12.800000190735</ele>
        <time>2021-08-29T09:53:31.000Z</time>
      </trkpt>
      <trkpt lat="47.26351" lon="-2.28216">
        <ele>13.199999809265</ele>
        <time>2021-08-29T09:53:32.000Z</time>
      </trkpt>
      <trkpt lat="47.26353" lon="-2.28224">
        <ele>13.60000038147</ele>
        <time>2021-08-29T09:53:33.000Z</time>
      </trkpt>
      <trkpt lat="47.26355" lon="-2.28232">
        <ele>14</ele>
        <time>2021-08-29T09:53:34.000Z</time>
      </trkpt>
      <trkpt lat="47.26357" lon="-2.2824">
        <ele>14.39999961853</ele>
        <time>2021-08-29T09:53:35.000Z</time>
      </trkpt>
      <trkpt lat="47.26368" lon="-2.2828">
        <ele>14.39999961853</ele>
        <time>2021-08-29T09:53:40.000Z</time>
      </trkpt>
      <trkpt lat="47.26384" lon="-2.2833">
        <ele>14.39999961853</ele>
        <time>2021-08-29T09:53:46.000Z</time>
      </trkpt>
      <trkpt lat="47.26406" lon="-2.28377">
        <ele>14.39999961853</ele>
        <time>2021-08-29T09:53:52.000Z</time>
      </trkpt>
      <trkpt lat="47.26431" lon="-2.2843">
        <ele>14.39999961853</ele>
        <time>2021-08-29T09:53:59.000Z</time>
      </trkpt>
      <trkpt lat="47.26463" lon="-2.28495">
        <ele>14.39999961853</ele>
        <time>2021-08-29T09:54:08.000Z</time>
      </trkpt>
      <trkpt lat="47.26467" lon="-2.28502">
        <ele>14.39999961853</ele>
        <time>2021-08-29T09:54:09.000Z</time>
      </trkpt>
      <trkpt lat="47.26471" lon="-2.2851">
        <ele>14</ele>
        <time>2021-08-29T09:54:10.000Z</time>
      </trkpt>
      <trkpt lat="47.26474" lon="-2.28518">
        <ele>13.60000038147</ele>
        <time>2021-08-29T09:54:11.000Z</time>
      </trkpt>
      <trkpt lat="47.26479" lon="-2.28525">
        <ele>13.199999809265</ele>
        <time>2021-08-29T09:54:12.000Z</time>
      </trkpt>
      <trkpt lat="47.26483" lon="-2.28533">
        <ele>12.800000190735</ele>
        <time>2021-08-29T09:54:13.000Z</time>
      </trkpt>
      <trkpt lat="47.26487" lon="-2.2854">
        <ele>12.39999961853</ele>
        <time>2021-08-29T09:54:14.000Z</time>
      </trkpt>
      <trkpt lat="47.2649" lon="-2.28547">
        <ele>12.39999961853</ele>
        <time>2021-08-29T09:54:15.000Z</time>
      </trkpt>
      <trkpt lat="47.26503" lon="-2.28587">
        <ele>12.39999961853</ele>
        <time>2021-08-29T09:54:20.000Z</time>
      </trkpt>
      <trkpt lat="47.26503" lon="-2.28596">
        <ele>12</ele>
        <time>2021-08-29T09:54:21.000Z</time>
      </trkpt>
      <trkpt lat="47.26503" lon="-2.28604">
        <ele>11.60000038147</ele>
        <time>2021-08-29T09:54:22.000Z</time>
      </trkpt>
      <trkpt lat="47.26504" lon="-2.28611">
        <ele>11</ele>
        <time>2021-08-29T09:54:23.000Z</time>
      </trkpt>
      <trkpt lat="47.26506" lon="-2.2862">
        <ele>10.60000038147</ele>
        <time>2021-08-29T09:54:24.000Z</time>
      </trkpt>
      <trkpt lat="47.2651" lon="-2.28626">
        <ele>10.199999809265</ele>
        <time>2021-08-29T09:54:25.000Z</time>
      </trkpt>
      <trkpt lat="47.26524" lon="-2.28645">
        <ele>10.199999809265</ele>
        <time>2021-08-29T09:54:28.000Z</time>
      </trkpt>
      <trkpt lat="47.26529" lon="-2.28651">
        <ele>10.199999809265</ele>
        <time>2021-08-29T09:54:29.000Z</time>
      </trkpt>
      <trkpt lat="47.26565" lon="-2.28689">
        <ele>10.199999809265</ele>
        <time>2021-08-29T09:54:35.000Z</time>
      </trkpt>
      <trkpt lat="47.26598" lon="-2.28724">
        <ele>10.199999809265</ele>
        <time>2021-08-29T09:54:41.000Z</time>
      </trkpt>
      <trkpt lat="47.26603" lon="-2.28729">
        <ele>9.8000001907349</ele>
        <time>2021-08-29T09:54:42.000Z</time>
      </trkpt>
      <trkpt lat="47.26608" lon="-2.28735">
        <ele>9</ele>
        <time>2021-08-29T09:54:43.000Z</time>
      </trkpt>
      <trkpt lat="47.26612" lon="-2.28741">
        <ele>8.6000003814697</ele>
        <time>2021-08-29T09:54:44.000Z</time>
      </trkpt>
      <trkpt lat="47.26617" lon="-2.28746">
        <ele>8.1999998092651</ele>
        <time>2021-08-29T09:54:45.000Z</time>
      </trkpt>
      <trkpt lat="47.26627" lon="-2.28757">
        <ele>8.1999998092651</ele>
        <time>2021-08-29T09:54:47.000Z</time>
      </trkpt>
      <trkpt lat="47.2666" lon="-2.28789">
        <ele>8.1999998092651</ele>
        <time>2021-08-29T09:54:53.000Z</time>
      </trkpt>
      <trkpt lat="47.26705" lon="-2.28837">
        <ele>8.1999998092651</ele>
        <time>2021-08-29T09:55:01.000Z</time>
      </trkpt>
      <trkpt lat="47.26711" lon="-2.28843">
        <ele>8.1999998092651</ele>
        <time>2021-08-29T09:55:02.000Z</time>
      </trkpt>
      <trkpt lat="47.26752" lon="-2.28879">
        <ele>7.8000001907349</ele>
        <time>2021-08-29T09:55:09.000Z</time>
      </trkpt>
      <trkpt lat="47.26758" lon="-2.28884">
        <ele>7.4000000953674</ele>
        <time>2021-08-29T09:55:10.000Z</time>
      </trkpt>
      <trkpt lat="47.26764" lon="-2.2889">
        <ele>6.8000001907349</ele>
        <time>2021-08-29T09:55:11.000Z</time>
      </trkpt>
      <trkpt lat="47.2677" lon="-2.28895">
        <ele>6.4000000953674</ele>
        <time>2021-08-29T09:55:12.000Z</time>
      </trkpt>
      <trkpt lat="47.26776" lon="-2.289">
        <ele>6</ele>
        <time>2021-08-29T09:55:13.000Z</time>
      </trkpt>
      <trkpt lat="47.26782" lon="-2.28905">
        <ele>6</ele>
        <time>2021-08-29T09:55:14.000Z</time>
      </trkpt>
      <trkpt lat="47.26794" lon="-2.28912">
        <ele>6</ele>
        <time>2021-08-29T09:55:16.000Z</time>
      </trkpt>
      <trkpt lat="47.2683" lon="-2.28932">
        <ele>6</ele>
        <time>2021-08-29T09:55:23.000Z</time>
      </trkpt>
      <trkpt lat="47.26844" lon="-2.2894">
        <ele>6</ele>
        <time>2021-08-29T09:55:26.000Z</time>
      </trkpt>
      <trkpt lat="47.26852" lon="-2.28944">
        <ele>5.5999999046326</ele>
        <time>2021-08-29T09:55:28.000Z</time>
      </trkpt>
      <trkpt lat="47.26856" lon="-2.28946">
        <ele>5.1999998092651</ele>
        <time>2021-08-29T09:55:29.000Z</time>
      </trkpt>
      <trkpt lat="47.2686" lon="-2.28947">
        <ele>4.8000001907349</ele>
        <time>2021-08-29T09:55:30.000Z</time>
      </trkpt>
      <trkpt lat="47.26864" lon="-2.28949">
        <ele>4.4000000953674</ele>
        <time>2021-08-29T09:55:31.000Z</time>
      </trkpt>
      <trkpt lat="47.26868" lon="-2.28951">
        <ele>3.7999999523163</ele>
        <time>2021-08-29T09:55:32.000Z</time>
      </trkpt>
      <trkpt lat="47.26878" lon="-2.28956">
        <ele>3.7999999523163</ele>
        <time>2021-08-29T09:55:34.000Z</time>
      </trkpt>
      <trkpt lat="47.26908" lon="-2.28968">
        <ele>3.7999999523163</ele>
        <time>2021-08-29T09:55:40.000Z</time>
      </trkpt>
      <trkpt lat="47.26913" lon="-2.28971">
        <ele>3.7999999523163</ele>
        <time>2021-08-29T09:55:41.000Z</time>
      </trkpt>
      <trkpt lat="47.26923" lon="-2.2898">
        <ele>3.7999999523163</ele>
        <time>2021-08-29T09:55:44.000Z</time>
      </trkpt>
      <trkpt lat="47.26925" lon="-2.28983">
        <ele>3.7999999523163</ele>
        <time>2021-08-29T09:55:46.000Z</time>
      </trkpt>
      <trkpt lat="47.26925" lon="-2.2899">
        <ele>3.7999999523163</ele>
        <time>2021-08-29T09:57:28.000Z</time>
      </trkpt>
      <trkpt lat="47.26913" lon="-2.28998">
        <ele>3.7999999523163</ele>
        <time>2021-08-29T09:57:34.000Z</time>
      </trkpt>
      <trkpt lat="47.26893" lon="-2.2901">
        <ele>3.7999999523163</ele>
        <time>2021-08-29T09:57:39.000Z</time>
      </trkpt>
      <trkpt lat="47.26866" lon="-2.29035">
        <ele>3.7999999523163</ele>
        <time>2021-08-29T09:57:45.000Z</time>
      </trkpt>
      <trkpt lat="47.2683" lon="-2.29069">
        <ele>3.7999999523163</ele>
        <time>2021-08-29T09:57:52.000Z</time>
      </trkpt>
      <trkpt lat="47.26797" lon="-2.29103">
        <ele>3.7999999523163</ele>
        <time>2021-08-29T09:57:59.000Z</time>
      </trkpt>
      <trkpt lat="47.26778" lon="-2.29122">
        <ele>4.1999998092651</ele>
        <time>2021-08-29T09:58:03.000Z</time>
      </trkpt>
      <trkpt lat="47.26774" lon="-2.29127">
        <ele>4.8000001907349</ele>
        <time>2021-08-29T09:58:04.000Z</time>
      </trkpt>
      <trkpt lat="47.26769" lon="-2.29131">
        <ele>5.1999998092651</ele>
        <time>2021-08-29T09:58:05.000Z</time>
      </trkpt>
      <trkpt lat="47.26764" lon="-2.29136">
        <ele>5.5999999046326</ele>
        <time>2021-08-29T09:58:06.000Z</time>
      </trkpt>
      <trkpt lat="47.26759" lon="-2.2914">
        <ele>6</ele>
        <time>2021-08-29T09:58:07.000Z</time>
      </trkpt>
      <trkpt lat="47.26741" lon="-2.29157">
        <ele>6.4000000953674</ele>
        <time>2021-08-29T09:58:11.000Z</time>
      </trkpt>
      <trkpt lat="47.26737" lon="-2.29161">
        <ele>6.8000001907349</ele>
        <time>2021-08-29T09:58:12.000Z</time>
      </trkpt>
      <trkpt lat="47.26733" lon="-2.29166">
        <ele>7.1999998092651</ele>
        <time>2021-08-29T09:58:13.000Z</time>
      </trkpt>
      <trkpt lat="47.26729" lon="-2.2917">
        <ele>7.5999999046326</ele>
        <time>2021-08-29T09:58:14.000Z</time>
      </trkpt>
      <trkpt lat="47.26724" lon="-2.29175">
        <ele>8</ele>
        <time>2021-08-29T09:58:15.000Z</time>
      </trkpt>
      <trkpt lat="47.26703" lon="-2.29196">
        <ele>8</ele>
        <time>2021-08-29T09:58:20.000Z</time>
      </trkpt>
      <trkpt lat="47.26696" lon="-2.29203">
        <ele>8.3999996185303</ele>
        <time>2021-08-29T09:58:22.000Z</time>
      </trkpt>
      <trkpt lat="47.26692" lon="-2.29207">
        <ele>8.8000001907349</ele>
        <time>2021-08-29T09:58:23.000Z</time>
      </trkpt>
      <trkpt lat="47.26688" lon="-2.29211">
        <ele>9.1999998092651</ele>
        <time>2021-08-29T09:58:24.000Z</time>
      </trkpt>
      <trkpt lat="47.26684" lon="-2.29215">
        <ele>9.8000001907349</ele>
        <time>2021-08-29T09:58:25.000Z</time>
      </trkpt>
      <trkpt lat="47.2668" lon="-2.29219">
        <ele>10.199999809265</ele>
        <time>2021-08-29T09:58:26.000Z</time>
      </trkpt>
      <trkpt lat="47.26652" lon="-2.29247">
        <ele>10.199999809265</ele>
        <time>2021-08-29T09:58:33.000Z</time>
      </trkpt>
      <trkpt lat="47.26615" lon="-2.29276">
        <ele>10.199999809265</ele>
        <time>2021-08-29T09:58:41.000Z</time>
      </trkpt>
      <trkpt lat="47.26605" lon="-2.29281">
        <ele>10.60000038147</ele>
        <time>2021-08-29T09:58:43.000Z</time>
      </trkpt>
      <trkpt lat="47.266" lon="-2.29284">
        <ele>11</ele>
        <time>2021-08-29T09:58:44.000Z</time>
      </trkpt>
      <trkpt lat="47.26595" lon="-2.29287">
        <ele>11.39999961853</ele>
        <time>2021-08-29T09:58:45.000Z</time>
      </trkpt>
      <trkpt lat="47.2659" lon="-2.29291">
        <ele>12</ele>
        <time>2021-08-29T09:58:46.000Z</time>
      </trkpt>
      <trkpt lat="47.26585" lon="-2.29294">
        <ele>12.39999961853</ele>
        <time>2021-08-29T09:58:47.000Z</time>
      </trkpt>
      <trkpt lat="47.26575" lon="-2.293">
        <ele>12.39999961853</ele>
        <time>2021-08-29T09:58:49.000Z</time>
      </trkpt>
      <trkpt lat="47.26529" lon="-2.29327">
        <ele>12.39999961853</ele>
        <time>2021-08-29T09:58:58.000Z</time>
      </trkpt>
      <trkpt lat="47.2649" lon="-2.29339">
        <ele>12.800000190735</ele>
        <time>2021-08-29T09:59:05.000Z</time>
      </trkpt>
      <trkpt lat="47.26484" lon="-2.29339">
        <ele>13.199999809265</ele>
        <time>2021-08-29T09:59:06.000Z</time>
      </trkpt>
      <trkpt lat="47.26478" lon="-2.29338">
        <ele>13.60000038147</ele>
        <time>2021-08-29T09:59:07.000Z</time>
      </trkpt>
      <trkpt lat="47.26472" lon="-2.29337">
        <ele>14</ele>
        <time>2021-08-29T09:59:08.000Z</time>
      </trkpt>
      <trkpt lat="47.26467" lon="-2.29335">
        <ele>14.39999961853</ele>
        <time>2021-08-29T09:59:09.000Z</time>
      </trkpt>
      <trkpt lat="47.26461" lon="-2.29332">
        <ele>14.39999961853</ele>
        <time>2021-08-29T09:59:10.000Z</time>
      </trkpt>
      <trkpt lat="47.26426" lon="-2.29315">
        <ele>14.39999961853</ele>
        <time>2021-08-29T09:59:16.000Z</time>
      </trkpt>
      <trkpt lat="47.2638" lon="-2.29291">
        <ele>14.39999961853</ele>
        <time>2021-08-29T09:59:24.000Z</time>
      </trkpt>
      <trkpt lat="47.26345" lon="-2.29275">
        <ele>14.39999961853</ele>
        <time>2021-08-29T09:59:30.000Z</time>
      </trkpt>
      <trkpt lat="47.26313" lon="-2.29273">
        <ele>14.39999961853</ele>
        <time>2021-08-29T09:59:35.000Z</time>
      </trkpt>
      <trkpt lat="47.26286" lon="-2.29281">
        <ele>14.39999961853</ele>
        <time>2021-08-29T09:59:39.000Z</time>
      </trkpt>
      <trkpt lat="47.26273" lon="-2.29288">
        <ele>14.39999961853</ele>
        <time>2021-08-29T09:59:41.000Z</time>
      </trkpt>
      <trkpt lat="47.26233" lon="-2.2932">
        <ele>14</ele>
        <time>2021-08-29T09:59:47.000Z</time>
      </trkpt>
      <trkpt lat="47.26227" lon="-2.29325">
        <ele>13.39999961853</ele>
        <time>2021-08-29T09:59:48.000Z</time>
      </trkpt>
      <trkpt lat="47.26221" lon="-2.2933">
        <ele>12.800000190735</ele>
        <time>2021-08-29T09:59:49.000Z</time>
      </trkpt>
      <trkpt lat="47.26215" lon="-2.29335">
        <ele>12.39999961853</ele>
        <time>2021-08-29T09:59:50.000Z</time>
      </trkpt>
      <trkpt lat="47.26209" lon="-2.2934">
        <ele>11.800000190735</ele>
        <time>2021-08-29T09:59:51.000Z</time>
      </trkpt>
      <trkpt lat="47.26196" lon="-2.2935">
        <ele>11.800000190735</ele>
        <time>2021-08-29T09:59:53.000Z</time>
      </trkpt>
      <trkpt lat="47.26168" lon="-2.29364">
        <ele>11.800000190735</ele>
        <time>2021-08-29T09:59:57.000Z</time>
      </trkpt>
      <trkpt lat="47.26145" lon="-2.29362">
        <ele>11.39999961853</ele>
        <time>2021-08-29T10:00:00.000Z</time>
      </trkpt>
      <trkpt lat="47.26139" lon="-2.2936">
        <ele>11</ele>
        <time>2021-08-29T10:00:01.000Z</time>
      </trkpt>
      <trkpt lat="47.26135" lon="-2.29359">
        <ele>10.39999961853</ele>
        <time>2021-08-29T10:00:02.000Z</time>
      </trkpt>
      <trkpt lat="47.26131" lon="-2.2936">
        <ele>9.8000001907349</ele>
        <time>2021-08-29T10:00:03.000Z</time>
      </trkpt>
      <trkpt lat="47.26128" lon="-2.29363">
        <ele>9.1999998092651</ele>
        <time>2021-08-29T10:00:04.000Z</time>
      </trkpt>
      <trkpt lat="47.26126" lon="-2.29369">
        <ele>7.8000001907349</ele>
        <time>2021-08-29T10:00:05.000Z</time>
      </trkpt>
      <trkpt lat="47.26125" lon="-2.29375">
        <ele>7.1999998092651</ele>
        <time>2021-08-29T10:00:06.000Z</time>
      </trkpt>
      <trkpt lat="47.26125" lon="-2.29383">
        <ele>7.1999998092651</ele>
        <time>2021-08-29T10:00:07.000Z</time>
      </trkpt>
      <trkpt lat="47.26124" lon="-2.29392">
        <ele>7.1999998092651</ele>
        <time>2021-08-29T10:00:08.000Z</time>
      </trkpt>
      <trkpt lat="47.26121" lon="-2.29436">
        <ele>7.1999998092651</ele>
        <time>2021-08-29T10:00:13.000Z</time>
      </trkpt>
      <trkpt lat="47.26126" lon="-2.29473">
        <ele>7.1999998092651</ele>
        <time>2021-08-29T10:00:17.000Z</time>
      </trkpt>
      <trkpt lat="47.2614" lon="-2.29506">
        <ele>7.1999998092651</ele>
        <time>2021-08-29T10:00:21.000Z</time>
      </trkpt>
      <trkpt lat="47.26159" lon="-2.29529">
        <ele>7.1999998092651</ele>
        <time>2021-08-29T10:00:25.000Z</time>
      </trkpt>
      <trkpt lat="47.2617" lon="-2.29535">
        <ele>7.1999998092651</ele>
        <time>2021-08-29T10:00:27.000Z</time>
      </trkpt>
      <trkpt lat="47.26175" lon="-2.29539">
        <ele>7.1999998092651</ele>
        <time>2021-08-29T10:00:28.000Z</time>
      </trkpt>
      <trkpt lat="47.26184" lon="-2.29547">
        <ele>7.1999998092651</ele>
        <time>2021-08-29T10:00:30.000Z</time>
      </trkpt>
      <trkpt lat="47.26192" lon="-2.29567">
        <ele>7.1999998092651</ele>
        <time>2021-08-29T10:00:34.000Z</time>
      </trkpt>
      <trkpt lat="47.26181" lon="-2.29575">
        <ele>7.1999998092651</ele>
        <time>2021-08-29T10:00:37.000Z</time>
      </trkpt>
      <trkpt lat="47.26177" lon="-2.29576">
        <ele>7.1999998092651</ele>
        <time>2021-08-29T10:00:38.000Z</time>
      </trkpt>
      <trkpt lat="47.26154" lon="-2.29585">
        <ele>7.1999998092651</ele>
        <time>2021-08-29T10:00:42.000Z</time>
      </trkpt>
      <trkpt lat="47.2612" lon="-2.29604">
        <ele>6.8000001907349</ele>
        <time>2021-08-29T10:00:47.000Z</time>
      </trkpt>
      <trkpt lat="47.26113" lon="-2.29607">
        <ele>6.1999998092651</ele>
        <time>2021-08-29T10:00:48.000Z</time>
      </trkpt>
      <trkpt lat="47.26107" lon="-2.2961">
        <ele>5.8000001907349</ele>
        <time>2021-08-29T10:00:49.000Z</time>
      </trkpt>
      <trkpt lat="47.261" lon="-2.29612">
        <ele>5.1999998092651</ele>
        <time>2021-08-29T10:00:50.000Z</time>
      </trkpt>
      <trkpt lat="47.26094" lon="-2.29614">
        <ele>4.8000001907349</ele>
        <time>2021-08-29T10:00:51.000Z</time>
      </trkpt>
      <trkpt lat="47.26088" lon="-2.29616">
        <ele>4.8000001907349</ele>
        <time>2021-08-29T10:00:52.000Z</time>
      </trkpt>
      <trkpt lat="47.26081" lon="-2.29618">
        <ele>4.1999998092651</ele>
        <time>2021-08-29T10:00:53.000Z</time>
      </trkpt>
      <trkpt lat="47.26075" lon="-2.29618">
        <ele>3.7999999523163</ele>
        <time>2021-08-29T10:00:54.000Z</time>
      </trkpt>
      <trkpt lat="47.26068" lon="-2.29619">
        <ele>2.7999999523163</ele>
        <time>2021-08-29T10:00:55.000Z</time>
      </trkpt>
      <trkpt lat="47.26061" lon="-2.2962">
        <ele>2.4000000953674</ele>
        <time>2021-08-29T10:00:56.000Z</time>
      </trkpt>
      <trkpt lat="47.26054" lon="-2.2962">
        <ele>2</ele>
        <time>2021-08-29T10:00:57.000Z</time>
      </trkpt>
      <trkpt lat="47.26047" lon="-2.29621">
        <ele>1.6000000238419</ele>
        <time>2021-08-29T10:00:58.000Z</time>
      </trkpt>
      <trkpt lat="47.2604" lon="-2.29621">
        <ele>1</ele>
        <time>2021-08-29T10:00:59.000Z</time>
      </trkpt>
      <trkpt lat="47.26032" lon="-2.29621">
        <ele>0.60000002384186</ele>
        <time>2021-08-29T10:01:00.000Z</time>
      </trkpt>
      <trkpt lat="47.26025" lon="-2.29621">
        <ele>0.20000000298023</ele>
        <time>2021-08-29T10:01:01.000Z</time>
      </trkpt>
      <trkpt lat="47.26018" lon="-2.29621">
        <ele>-0.20000000298023</ele>
        <time>2021-08-29T10:01:02.000Z</time>
      </trkpt>
      <trkpt lat="47.2601" lon="-2.29622">
        <ele>-0.60000002384186</ele>
        <time>2021-08-29T10:01:03.000Z</time>
      </trkpt>
      <trkpt lat="47.26003" lon="-2.29623">
        <ele>-1.2000000476837</ele>
        <time>2021-08-29T10:01:04.000Z</time>
      </trkpt>
      <trkpt lat="47.25996" lon="-2.29625">
        <ele>-1.6000000238419</ele>
        <time>2021-08-29T10:01:05.000Z</time>
      </trkpt>
      <trkpt lat="47.25989" lon="-2.29627">
        <ele>-2</ele>
        <time>2021-08-29T10:01:06.000Z</time>
      </trkpt>
      <trkpt lat="47.25982" lon="-2.29631">
        <ele>-2</ele>
        <time>2021-08-29T10:01:07.000Z</time>
      </trkpt>
      <trkpt lat="47.25976" lon="-2.29634">
        <ele>-2</ele>
        <time>2021-08-29T10:01:08.000Z</time>
      </trkpt>
      <trkpt lat="47.25964" lon="-2.29639">
        <ele>-2</ele>
        <time>2021-08-29T10:01:10.000Z</time>
      </trkpt>
      <trkpt lat="47.25953" lon="-2.29636">
        <ele>-2</ele>
        <time>2021-08-29T10:01:12.000Z</time>
      </trkpt>
      <trkpt lat="47.25939" lon="-2.29622">
        <ele>-2</ele>
        <time>2021-08-29T10:01:16.000Z</time>
      </trkpt>
      <trkpt lat="47.25937" lon="-2.29623">
        <ele>-2</ele>
        <time>2021-08-29T10:01:18.000Z</time>
      </trkpt>
      <trkpt lat="47.25937" lon="-2.29626">
        <ele>-2</ele>
        <time>2021-08-29T10:01:19.000Z</time>
      </trkpt>
      <trkpt lat="47.25938" lon="-2.2964">
        <ele>-2.4000000953674</ele>
        <time>2021-08-29T10:01:22.000Z</time>
      </trkpt>
      <trkpt lat="47.25938" lon="-2.29646">
        <ele>-2.7999999523163</ele>
        <time>2021-08-29T10:01:23.000Z</time>
      </trkpt>
      <trkpt lat="47.25937" lon="-2.29652">
        <ele>-3.2000000476837</ele>
        <time>2021-08-29T10:01:24.000Z</time>
      </trkpt>
      <trkpt lat="47.25937" lon="-2.29659">
        <ele>-3.5999999046326</ele>
        <time>2021-08-29T10:01:25.000Z</time>
      </trkpt>
      <trkpt lat="47.25935" lon="-2.29666">
        <ele>-4</ele>
        <time>2021-08-29T10:01:26.000Z</time>
      </trkpt>
      <trkpt lat="47.25934" lon="-2.29681">
        <ele>-4</ele>
        <time>2021-08-29T10:01:28.000Z</time>
      </trkpt>
      <trkpt lat="47.25933" lon="-2.29688">
        <ele>-4</ele>
        <time>2021-08-29T10:01:29.000Z</time>
      </trkpt>
      <trkpt lat="47.25929" lon="-2.2972">
        <ele>-4</ele>
        <time>2021-08-29T10:01:34.000Z</time>
      </trkpt>
      <trkpt lat="47.25929" lon="-2.29723">
        <ele>-4.4000000953674</ele>
        <time>2021-08-29T10:01:35.000Z</time>
      </trkpt>
      <trkpt lat="47.25929" lon="-2.29727">
        <ele>-5</ele>
        <time>2021-08-29T10:01:36.000Z</time>
      </trkpt>
      <trkpt lat="47.25929" lon="-2.29729">
        <ele>-5.4000000953674</ele>
        <time>2021-08-29T10:01:37.000Z</time>
      </trkpt>
      <trkpt lat="47.2593" lon="-2.29732">
        <ele>-5.8000001907349</ele>
        <time>2021-08-29T10:01:38.000Z</time>
      </trkpt>
      <trkpt lat="47.25931" lon="-2.29736">
        <ele>-6.1999998092651</ele>
        <time>2021-08-29T10:01:39.000Z</time>
      </trkpt>
      <trkpt lat="47.25938" lon="-2.29755">
        <ele>-6.1999998092651</ele>
        <time>2021-08-29T10:01:43.000Z</time>
      </trkpt>
      <trkpt lat="47.25947" lon="-2.29781">
        <ele>-6.1999998092651</ele>
        <time>2021-08-29T10:01:49.000Z</time>
      </trkpt>
      <trkpt lat="47.25951" lon="-2.29793">
        <ele>-6.1999998092651</ele>
        <time>2021-08-29T10:01:53.000Z</time>
      </trkpt>
      <trkpt lat="47.25951" lon="-2.29798">
        <ele>-6.1999998092651</ele>
        <time>2021-08-29T10:01:54.000Z</time>
      </trkpt>
      <trkpt lat="47.25954" lon="-2.29823">
        <ele>-6.1999998092651</ele>
        <time>2021-08-29T10:02:00.000Z</time>
      </trkpt>
      <trkpt lat="47.25955" lon="-2.29831">
        <ele>-6.5999999046326</ele>
        <time>2021-08-29T10:02:03.000Z</time>
      </trkpt>
      <trkpt lat="47.25955" lon="-2.29832">
        <ele>-7</ele>
        <time>2021-08-29T10:02:04.000Z</time>
      </trkpt>
      <trkpt lat="47.25955" lon="-2.29834">
        <ele>-7.4000000953674</ele>
        <time>2021-08-29T10:02:05.000Z</time>
      </trkpt>
      <trkpt lat="47.25955" lon="-2.29835">
        <ele>-7.8000001907349</ele>
        <time>2021-08-29T10:02:06.000Z</time>
      </trkpt>
      <trkpt lat="47.25957" lon="-2.29843">
        <ele>-8.1999998092651</ele>
        <time>2021-08-29T10:02:16.000Z</time>
      </trkpt>
      <trkpt lat="47.25957" lon="-2.29852">
        <ele>-8.1999998092651</ele>
        <time>2021-08-29T10:02:18.000Z</time>
      </trkpt>
      <trkpt lat="47.25959" lon="-2.29856">
        <ele>-8.1999998092651</ele>
        <time>2021-08-29T10:02:19.000Z</time>
      </trkpt>
      <trkpt lat="47.25968" lon="-2.29884">
        <ele>-8.1999998092651</ele>
        <time>2021-08-29T10:02:24.000Z</time>
      </trkpt>
      <trkpt lat="47.2597" lon="-2.29889">
        <ele>-8.1999998092651</ele>
        <time>2021-08-29T10:02:25.000Z</time>
      </trkpt>
      <trkpt lat="47.25982" lon="-2.29911">
        <ele>-8.1999998092651</ele>
        <time>2021-08-29T10:02:29.000Z</time>
      </trkpt>
      <trkpt lat="47.25985" lon="-2.29915">
        <ele>-8.1999998092651</ele>
        <time>2021-08-29T10:02:30.000Z</time>
      </trkpt>
      <trkpt lat="47.2599" lon="-2.29925">
        <ele>-8.1999998092651</ele>
        <time>2021-08-29T10:02:33.000Z</time>
      </trkpt>
      <trkpt lat="47.2599" lon="-2.29928">
        <ele>-8.1999998092651</ele>
        <time>2021-08-29T10:02:34.000Z</time>
      </trkpt>
      <trkpt lat="47.25987" lon="-2.29939">
        <ele>-8.1999998092651</ele>
        <time>2021-08-29T10:02:37.000Z</time>
      </trkpt>
      <trkpt lat="47.25978" lon="-2.2997">
        <ele>-8.1999998092651</ele>
        <time>2021-08-29T10:02:42.000Z</time>
      </trkpt>
      <trkpt lat="47.25977" lon="-2.29977">
        <ele>-8.1999998092651</ele>
        <time>2021-08-29T10:02:43.000Z</time>
      </trkpt>
      <trkpt lat="47.25975" lon="-2.30004">
        <ele>-8.1999998092651</ele>
        <time>2021-08-29T10:02:47.000Z</time>
      </trkpt>
      <trkpt lat="47.25974" lon="-2.3001">
        <ele>-8.1999998092651</ele>
        <time>2021-08-29T10:02:48.000Z</time>
      </trkpt>
      <trkpt lat="47.25973" lon="-2.30054">
        <ele>-8.1999998092651</ele>
        <time>2021-08-29T10:02:54.000Z</time>
      </trkpt>
      <trkpt lat="47.25969" lon="-2.30113">
        <ele>-8.1999998092651</ele>
        <time>2021-08-29T10:03:02.000Z</time>
      </trkpt>
      <trkpt lat="47.25969" lon="-2.3012">
        <ele>-8.1999998092651</ele>
        <time>2021-08-29T10:03:03.000Z</time>
      </trkpt>
      <trkpt lat="47.2597" lon="-2.30131">
        <ele>-8.1999998092651</ele>
        <time>2021-08-29T10:03:06.000Z</time>
      </trkpt>
      <trkpt lat="47.2598" lon="-2.30131">
        <ele>-8.1999998092651</ele>
        <time>2021-08-29T10:03:10.000Z</time>
      </trkpt>
      <trkpt lat="47.25992" lon="-2.30128">
        <ele>-8.1999998092651</ele>
        <time>2021-08-29T10:03:16.000Z</time>
      </trkpt>
      <trkpt lat="47.26004" lon="-2.30127">
        <ele>-8.1999998092651</ele>
        <time>2021-08-29T10:03:21.000Z</time>
      </trkpt>
      <trkpt lat="47.26023" lon="-2.30132">
        <ele>-8.1999998092651</ele>
        <time>2021-08-29T10:03:27.000Z</time>
      </trkpt>
      <trkpt lat="47.26045" lon="-2.30133">
        <ele>-8.1999998092651</ele>
        <time>2021-08-29T10:03:33.000Z</time>
      </trkpt>
      <trkpt lat="47.26052" lon="-2.30134">
        <ele>-7.8000001907349</ele>
        <time>2021-08-29T10:03:35.000Z</time>
      </trkpt>
      <trkpt lat="47.26056" lon="-2.30136">
        <ele>-7.4000000953674</ele>
        <time>2021-08-29T10:03:36.000Z</time>
      </trkpt>
      <trkpt lat="47.26058" lon="-2.30138">
        <ele>-7</ele>
        <time>2021-08-29T10:03:37.000Z</time>
      </trkpt>
      <trkpt lat="47.26061" lon="-2.3014">
        <ele>-6.5999999046326</ele>
        <time>2021-08-29T10:03:38.000Z</time>
      </trkpt>
      <trkpt lat="47.26064" lon="-2.30143">
        <ele>-6.1999998092651</ele>
        <time>2021-08-29T10:03:39.000Z</time>
      </trkpt>
      <trkpt lat="47.26072" lon="-2.30146">
        <ele>-6.1999998092651</ele>
        <time>2021-08-29T10:03:42.000Z</time>
      </trkpt>
      <trkpt lat="47.26075" lon="-2.30146">
        <ele>-6.1999998092651</ele>
        <time>2021-08-29T10:03:43.000Z</time>
      </trkpt>
      <trkpt lat="47.26093" lon="-2.30153">
        <ele>-6.1999998092651</ele>
        <time>2021-08-29T10:03:49.000Z</time>
      </trkpt>
      <trkpt lat="47.26095" lon="-2.30156">
        <ele>-5.8000001907349</ele>
        <time>2021-08-29T10:03:50.000Z</time>
      </trkpt>
      <trkpt lat="47.26098" lon="-2.30157">
        <ele>-5.4000000953674</ele>
        <time>2021-08-29T10:03:51.000Z</time>
      </trkpt>
      <trkpt lat="47.261" lon="-2.30157">
        <ele>-5</ele>
        <time>2021-08-29T10:03:52.000Z</time>
      </trkpt>
      <trkpt lat="47.26103" lon="-2.30157">
        <ele>-4.5999999046326</ele>
        <time>2021-08-29T10:03:53.000Z</time>
      </trkpt>
      <trkpt lat="47.26105" lon="-2.30156">
        <ele>-4.1999998092651</ele>
        <time>2021-08-29T10:03:54.000Z</time>
      </trkpt>
      <trkpt lat="47.2612" lon="-2.30153">
        <ele>-4.1999998092651</ele>
        <time>2021-08-29T10:03:58.000Z</time>
      </trkpt>
      <trkpt lat="47.26141" lon="-2.3015">
        <ele>-3.7999999523163</ele>
        <time>2021-08-29T10:04:03.000Z</time>
      </trkpt>
      <trkpt lat="47.26145" lon="-2.3015">
        <ele>-3.4000000953674</ele>
        <time>2021-08-29T10:04:04.000Z</time>
      </trkpt>
      <trkpt lat="47.26149" lon="-2.30149">
        <ele>-3</ele>
        <time>2021-08-29T10:04:05.000Z</time>
      </trkpt>
      <trkpt lat="47.26152" lon="-2.30148">
        <ele>-2.5999999046326</ele>
        <time>2021-08-29T10:04:06.000Z</time>
      </trkpt>
      <trkpt lat="47.26156" lon="-2.30146">
        <ele>-2.2000000476837</ele>
        <time>2021-08-29T10:04:07.000Z</time>
      </trkpt>
      <trkpt lat="47.26168" lon="-2.30145">
        <ele>-2.2000000476837</ele>
        <time>2021-08-29T10:04:11.000Z</time>
      </trkpt>
      <trkpt lat="47.2617" lon="-2.30148">
        <ele>-1.6000000238419</ele>
        <time>2021-08-29T10:04:12.000Z</time>
      </trkpt>
      <trkpt lat="47.26172" lon="-2.30153">
        <ele>-1.2000000476837</ele>
        <time>2021-08-29T10:04:13.000Z</time>
      </trkpt>
      <trkpt lat="47.26174" lon="-2.30156">
        <ele>-0.80000001192093</ele>
        <time>2021-08-29T10:04:14.000Z</time>
      </trkpt>
      <trkpt lat="47.26177" lon="-2.30156">
        <ele>-0.40000000596046</ele>
        <time>2021-08-29T10:04:15.000Z</time>
      </trkpt>
      <trkpt lat="47.26181" lon="-2.30156">
        <ele>28.5</ele>
        <time>2021-08-29T10:04:16.000Z</time>
      </trkpt>
      <trkpt lat="47.26185" lon="-2.30153">
        <ele>28.6</ele>
        <time>2021-08-29T10:04:17.000Z</time>
      </trkpt>
      <trkpt lat="47.26188" lon="-2.30151">
        <ele>28.8</ele>
        <time>2021-08-29T10:04:18.000Z</time>
      </trkpt>
      <trkpt lat="47.2621" lon="-2.30142">
        <ele>29.5</ele>
        <time>2021-08-29T10:04:24.000Z</time>
      </trkpt>
      <trkpt lat="47.2623" lon="-2.30135">
        <ele>0.40000000596046</ele>
        <time>2021-08-29T10:04:30.000Z</time>
      </trkpt>
      <trkpt lat="47.26234" lon="-2.30133">
        <ele>0.80000001192093</ele>
        <time>2021-08-29T10:04:31.000Z</time>
      </trkpt>
      <trkpt lat="47.26237" lon="-2.30131">
        <ele>1.2000000476837</ele>
        <time>2021-08-29T10:04:32.000Z</time>
      </trkpt>
      <trkpt lat="47.2624" lon="-2.3013">
        <ele>1.6000000238419</ele>
        <time>2021-08-29T10:04:33.000Z</time>
      </trkpt>
      <trkpt lat="47.26244" lon="-2.3013">
        <ele>2</ele>
        <time>2021-08-29T10:04:34.000Z</time>
      </trkpt>
      <trkpt lat="47.26247" lon="-2.30133">
        <ele>2</ele>
        <time>2021-08-29T10:04:35.000Z</time>
      </trkpt>
      <trkpt lat="47.26256" lon="-2.30152">
        <ele>2</ele>
        <time>2021-08-29T10:04:39.000Z</time>
      </trkpt>
      <trkpt lat="47.26265" lon="-2.30175">
        <ele>2</ele>
        <time>2021-08-29T10:04:43.000Z</time>
      </trkpt>
      <trkpt lat="47.26267" lon="-2.30182">
        <ele>2</ele>
        <time>2021-08-29T10:04:44.000Z</time>
      </trkpt>
      <trkpt lat="47.26275" lon="-2.30233">
        <ele>2</ele>
        <time>2021-08-29T10:04:51.000Z</time>
      </trkpt>
      <trkpt lat="47.26286" lon="-2.30293">
        <ele>2</ele>
        <time>2021-08-29T10:04:59.000Z</time>
      </trkpt>
      <trkpt lat="47.26293" lon="-2.30316">
        <ele>2</ele>
        <time>2021-08-29T10:05:02.000Z</time>
      </trkpt>
      <trkpt lat="47.26303" lon="-2.30342">
        <ele>2</ele>
        <time>2021-08-29T10:05:06.000Z</time>
      </trkpt>
      <trkpt lat="47.2631" lon="-2.30386">
        <ele>2</ele>
        <time>2021-08-29T10:05:12.000Z</time>
      </trkpt>
      <trkpt lat="47.26322" lon="-2.30442">
        <ele>2</ele>
        <time>2021-08-29T10:05:20.000Z</time>
      </trkpt>
      <trkpt lat="47.26323" lon="-2.3045">
        <ele>2</ele>
        <time>2021-08-29T10:05:21.000Z</time>
      </trkpt>
      <trkpt lat="47.2633" lon="-2.30487">
        <ele>2</ele>
        <time>2021-08-29T10:05:26.000Z</time>
      </trkpt>
      <trkpt lat="47.26334" lon="-2.30507">
        <ele>2</ele>
        <time>2021-08-29T10:05:29.000Z</time>
      </trkpt>
      <trkpt lat="47.26338" lon="-2.30527">
        <ele>2</ele>
        <time>2021-08-29T10:05:32.000Z</time>
      </trkpt>
      <trkpt lat="47.26341" lon="-2.30546">
        <ele>1.6000000238419</ele>
        <time>2021-08-29T10:05:35.000Z</time>
      </trkpt>
      <trkpt lat="47.26342" lon="-2.30553">
        <ele>1.2000000476837</ele>
        <time>2021-08-29T10:05:36.000Z</time>
      </trkpt>
      <trkpt lat="47.26342" lon="-2.30559">
        <ele>0.80000001192093</ele>
        <time>2021-08-29T10:05:37.000Z</time>
      </trkpt>
      <trkpt lat="47.26343" lon="-2.30563">
        <ele>0.40000000596046</ele>
        <time>2021-08-29T10:05:38.000Z</time>
      </trkpt>
      <trkpt lat="47.26343" lon="-2.30568">
        <ele>27.7</ele>
        <time>2021-08-29T10:05:39.000Z</time>
      </trkpt>
      <trkpt lat="47.26345" lon="-2.30585">
        <ele>27.4</ele>
        <time>2021-08-29T10:05:42.000Z</time>
      </trkpt>
      <trkpt lat="47.26347" lon="-2.30591">
        <ele>27.2</ele>
        <time>2021-08-29T10:05:43.000Z</time>
      </trkpt>
      <trkpt lat="47.26355" lon="-2.30608">
        <ele>26.9</ele>
        <time>2021-08-29T10:05:46.000Z</time>
      </trkpt>
      <trkpt lat="47.26361" lon="-2.3062">
        <ele>27</ele>
        <time>2021-08-29T10:05:48.000Z</time>
      </trkpt>
      <trkpt lat="47.26372" lon="-2.30641">
        <ele>27</ele>
        <time>2021-08-29T10:05:52.000Z</time>
      </trkpt>
      <trkpt lat="47.2638" lon="-2.30651">
        <ele>26.7</ele>
        <time>2021-08-29T10:05:54.000Z</time>
      </trkpt>
      <trkpt lat="47.26404" lon="-2.3067">
        <ele>26.5</ele>
        <time>2021-08-29T10:05:59.000Z</time>
      </trkpt>
      <trkpt lat="47.26418" lon="-2.30685">
        <ele>26.4</ele>
        <time>2021-08-29T10:06:03.000Z</time>
      </trkpt>
      <trkpt lat="47.26432" lon="-2.30715">
        <ele>26.1</ele>
        <time>2021-08-29T10:06:08.000Z</time>
      </trkpt>
      <trkpt lat="47.2644" lon="-2.30737">
        <ele>-0.40000000596046</ele>
        <time>2021-08-29T10:06:11.000Z</time>
      </trkpt>
      <trkpt lat="47.26443" lon="-2.30744">
        <ele>-0.80000001192093</ele>
        <time>2021-08-29T10:06:12.000Z</time>
      </trkpt>
      <trkpt lat="47.26446" lon="-2.30752">
        <ele>-1.2000000476837</ele>
        <time>2021-08-29T10:06:13.000Z</time>
      </trkpt>
      <trkpt lat="47.26449" lon="-2.3076">
        <ele>-1.6000000238419</ele>
        <time>2021-08-29T10:06:14.000Z</time>
      </trkpt>
      <trkpt lat="47.26452" lon="-2.30768">
        <ele>-2</ele>
        <time>2021-08-29T10:06:15.000Z</time>
      </trkpt>
      <trkpt lat="47.26467" lon="-2.30808">
        <ele>-2.4000000953674</ele>
        <time>2021-08-29T10:06:20.000Z</time>
      </trkpt>
      <trkpt lat="47.2647" lon="-2.30816">
        <ele>-3</ele>
        <time>2021-08-29T10:06:21.000Z</time>
      </trkpt>
      <trkpt lat="47.26473" lon="-2.30823">
        <ele>-3.4000000953674</ele>
        <time>2021-08-29T10:06:22.000Z</time>
      </trkpt>
      <trkpt lat="47.26475" lon="-2.30829">
        <ele>-4</ele>
        <time>2021-08-29T10:06:23.000Z</time>
      </trkpt>
      <trkpt lat="47.26477" lon="-2.30834">
        <ele>-4.4000000953674</ele>
        <time>2021-08-29T10:06:24.000Z</time>
      </trkpt>
      <trkpt lat="47.26479" lon="-2.30838">
        <ele>-4.4000000953674</ele>
        <time>2021-08-29T10:06:25.000Z</time>
      </trkpt>
      <trkpt lat="47.26484" lon="-2.30846">
        <ele>-4.8000001907349</ele>
        <time>2021-08-29T10:06:28.000Z</time>
      </trkpt>
      <trkpt lat="47.26486" lon="-2.30849">
        <ele>-5.1999998092651</ele>
        <time>2021-08-29T10:06:29.000Z</time>
      </trkpt>
      <trkpt lat="47.26488" lon="-2.30853">
        <ele>-5.5999999046326</ele>
        <time>2021-08-29T10:06:30.000Z</time>
      </trkpt>
      <trkpt lat="47.2649" lon="-2.30856">
        <ele>-6</ele>
        <time>2021-08-29T10:06:31.000Z</time>
      </trkpt>
      <trkpt lat="47.26492" lon="-2.30859">
        <ele>-6.4000000953674</ele>
        <time>2021-08-29T10:06:32.000Z</time>
      </trkpt>
      <trkpt lat="47.26494" lon="-2.30863">
        <ele>-7</ele>
        <time>2021-08-29T10:06:33.000Z</time>
      </trkpt>
      <trkpt lat="47.26496" lon="-2.30868">
        <ele>-7.4000000953674</ele>
        <time>2021-08-29T10:06:34.000Z</time>
      </trkpt>
      <trkpt lat="47.26498" lon="-2.30872">
        <ele>-7.8000001907349</ele>
        <time>2021-08-29T10:06:35.000Z</time>
      </trkpt>
      <trkpt lat="47.265" lon="-2.30875">
        <ele>-8.1999998092651</ele>
        <time>2021-08-29T10:06:36.000Z</time>
      </trkpt>
      <trkpt lat="47.26502" lon="-2.30878">
        <ele>-8.6000003814697</ele>
        <time>2021-08-29T10:06:37.000Z</time>
      </trkpt>
      <trkpt lat="47.26505" lon="-2.30878">
        <ele>-8.6000003814697</ele>
        <time>2021-08-29T10:06:38.000Z</time>
      </trkpt>
      <trkpt lat="47.26509" lon="-2.30877">
        <ele>-9</ele>
        <time>2021-08-29T10:06:39.000Z</time>
      </trkpt>
      <trkpt lat="47.26512" lon="-2.30875">
        <ele>-9.3999996185303</ele>
        <time>2021-08-29T10:06:40.000Z</time>
      </trkpt>
      <trkpt lat="47.26516" lon="-2.30872">
        <ele>-10.39999961853</ele>
        <time>2021-08-29T10:06:41.000Z</time>
      </trkpt>
      <trkpt lat="47.26519" lon="-2.30869">
        <ele>-10.800000190735</ele>
        <time>2021-08-29T10:06:42.000Z</time>
      </trkpt>
      <trkpt lat="47.26527" lon="-2.30865">
        <ele>-10.800000190735</ele>
        <time>2021-08-29T10:06:44.000Z</time>
      </trkpt>
      <trkpt lat="47.26529" lon="-2.30861">
        <ele>-10.800000190735</ele>
        <time>2021-08-29T10:06:45.000Z</time>
      </trkpt>
      <trkpt lat="47.26535" lon="-2.30851">
        <ele>-10.800000190735</ele>
        <time>2021-08-29T10:06:48.000Z</time>
      </trkpt>
      <trkpt lat="47.2655" lon="-2.30839">
        <ele>-10.800000190735</ele>
        <time>2021-08-29T10:06:53.000Z</time>
      </trkpt>
      <trkpt lat="47.26553" lon="-2.30836">
        <ele>-10.800000190735</ele>
        <time>2021-08-29T10:06:54.000Z</time>
      </trkpt>
      <trkpt lat="47.26556" lon="-2.30831">
        <ele>-10.39999961853</ele>
        <time>2021-08-29T10:06:55.000Z</time>
      </trkpt>
      <trkpt lat="47.26559" lon="-2.30826">
        <ele>-10</ele>
        <time>2021-08-29T10:06:56.000Z</time>
      </trkpt>
      <trkpt lat="47.26561" lon="-2.30822">
        <ele>-9.6000003814697</ele>
        <time>2021-08-29T10:06:57.000Z</time>
      </trkpt>
      <trkpt lat="47.26563" lon="-2.30818">
        <ele>-9.1999998092651</ele>
        <time>2021-08-29T10:06:58.000Z</time>
      </trkpt>
      <trkpt lat="47.26566" lon="-2.30815">
        <ele>-8.6000003814697</ele>
        <time>2021-08-29T10:06:59.000Z</time>
      </trkpt>
      <trkpt lat="47.26573" lon="-2.30807">
        <ele>-8.6000003814697</ele>
        <time>2021-08-29T10:07:02.000Z</time>
      </trkpt>
      <trkpt lat="47.26591" lon="-2.30789">
        <ele>-8.1999998092651</ele>
        <time>2021-08-29T10:07:07.000Z</time>
      </trkpt>
      <trkpt lat="47.26595" lon="-2.30786">
        <ele>-7.8000001907349</ele>
        <time>2021-08-29T10:07:08.000Z</time>
      </trkpt>
      <trkpt lat="47.26599" lon="-2.30782">
        <ele>-7.4000000953674</ele>
        <time>2021-08-29T10:07:09.000Z</time>
      </trkpt>
      <trkpt lat="47.26602" lon="-2.30779">
        <ele>-7</ele>
        <time>2021-08-29T10:07:10.000Z</time>
      </trkpt>
      <trkpt lat="47.26605" lon="-2.30775">
        <ele>-6.5999999046326</ele>
        <time>2021-08-29T10:07:11.000Z</time>
      </trkpt>
      <trkpt lat="47.26607" lon="-2.3077">
        <ele>-6.5999999046326</ele>
        <time>2021-08-29T10:07:12.000Z</time>
      </trkpt>
      <trkpt lat="47.26608" lon="-2.30765">
        <ele>-6.5999999046326</ele>
        <time>2021-08-29T10:07:13.000Z</time>
      </trkpt>
      <trkpt lat="47.26618" lon="-2.30739">
        <ele>-6.5999999046326</ele>
        <time>2021-08-29T10:07:19.000Z</time>
      </trkpt>
      <trkpt lat="47.26631" lon="-2.30725">
        <ele>-6.5999999046326</ele>
        <time>2021-08-29T10:07:23.000Z</time>
      </trkpt>
      <trkpt lat="47.26638" lon="-2.30709">
        <ele>-6.1999998092651</ele>
        <time>2021-08-29T10:07:26.000Z</time>
      </trkpt>
      <trkpt lat="47.2664" lon="-2.30704">
        <ele>-5.8000001907349</ele>
        <time>2021-08-29T10:07:27.000Z</time>
      </trkpt>
      <trkpt lat="47.26644" lon="-2.30699">
        <ele>-5.4000000953674</ele>
        <time>2021-08-29T10:07:28.000Z</time>
      </trkpt>
      <trkpt lat="47.26648" lon="-2.30696">
        <ele>-5</ele>
        <time>2021-08-29T10:07:29.000Z</time>
      </trkpt>
      <trkpt lat="47.26651" lon="-2.30695">
        <ele>-4.5999999046326</ele>
        <time>2021-08-29T10:07:30.000Z</time>
      </trkpt>
      <trkpt lat="47.26659" lon="-2.30703">
        <ele>-4.5999999046326</ele>
        <time>2021-08-29T10:07:32.000Z</time>
      </trkpt>
      <trkpt lat="47.26665" lon="-2.30715">
        <ele>-4.5999999046326</ele>
        <time>2021-08-29T10:07:34.000Z</time>
      </trkpt>
      <trkpt lat="47.26676" lon="-2.30738">
        <ele>-4.5999999046326</ele>
        <time>2021-08-29T10:07:38.000Z</time>
      </trkpt>
      <trkpt lat="47.2669" lon="-2.30763">
        <ele>-4.1999998092651</ele>
        <time>2021-08-29T10:07:43.000Z</time>
      </trkpt>
      <trkpt lat="47.26692" lon="-2.30768">
        <ele>-3.7999999523163</ele>
        <time>2021-08-29T10:07:44.000Z</time>
      </trkpt>
      <trkpt lat="47.26695" lon="-2.30774">
        <ele>-3.4000000953674</ele>
        <time>2021-08-29T10:07:45.000Z</time>
      </trkpt>
      <trkpt lat="47.26697" lon="-2.30779">
        <ele>-3</ele>
        <time>2021-08-29T10:07:46.000Z</time>
      </trkpt>
      <trkpt lat="47.26699" lon="-2.30785">
        <ele>-2.5999999046326</ele>
        <time>2021-08-29T10:07:47.000Z</time>
      </trkpt>
      <trkpt lat="47.26711" lon="-2.30819">
        <ele>-2.5999999046326</ele>
        <time>2021-08-29T10:07:53.000Z</time>
      </trkpt>
      <trkpt lat="47.26716" lon="-2.30829">
        <ele>-2.2000000476837</ele>
        <time>2021-08-29T10:07:55.000Z</time>
      </trkpt>
      <trkpt lat="47.26718" lon="-2.30834">
        <ele>-1.6000000238419</ele>
        <time>2021-08-29T10:07:56.000Z</time>
      </trkpt>
      <trkpt lat="47.26721" lon="-2.30839">
        <ele>-1.2000000476837</ele>
        <time>2021-08-29T10:07:57.000Z</time>
      </trkpt>
      <trkpt lat="47.26724" lon="-2.30845">
        <ele>-0.80000001192093</ele>
        <time>2021-08-29T10:07:58.000Z</time>
      </trkpt>
      <trkpt lat="47.26726" lon="-2.3085">
        <ele>-0.40000000596046</ele>
        <time>2021-08-29T10:07:59.000Z</time>
      </trkpt>
      <trkpt lat="47.26729" lon="-2.30855">
        <ele>-0.40000000596046</ele>
        <time>2021-08-29T10:08:00.000Z</time>
      </trkpt>
      <trkpt lat="47.26736" lon="-2.30864">
        <ele>-0.40000000596046</ele>
        <time>2021-08-29T10:08:02.000Z</time>
      </trkpt>
      <trkpt lat="47.26744" lon="-2.30867">
        <ele>-0.40000000596046</ele>
        <time>2021-08-29T10:08:04.000Z</time>
      </trkpt>
      <trkpt lat="47.26757" lon="-2.30857">
        <ele>-0.40000000596046</ele>
        <time>2021-08-29T10:08:07.000Z</time>
      </trkpt>
      <trkpt lat="47.26765" lon="-2.30848">
        <ele>-0.40000000596046</ele>
        <time>2021-08-29T10:08:09.000Z</time>
      </trkpt>
      <trkpt lat="47.26781" lon="-2.30831">
        <ele>-0.40000000596046</ele>
        <time>2021-08-29T10:08:13.000Z</time>
      </trkpt>
      <trkpt lat="47.2679" lon="-2.30823">
        <ele>-0.40000000596046</ele>
        <time>2021-08-29T10:08:15.000Z</time>
      </trkpt>
      <trkpt lat="47.268" lon="-2.30811">
        <ele>-0.40000000596046</ele>
        <time>2021-08-29T10:08:18.000Z</time>
      </trkpt>
      <trkpt lat="47.26825" lon="-2.30792">
        <ele>-0.40000000596046</ele>
        <time>2021-08-29T10:08:25.000Z</time>
      </trkpt>
      <trkpt lat="47.26827" lon="-2.30794">
        <ele>-0.40000000596046</ele>
        <time>2021-08-29T10:08:26.000Z</time>
      </trkpt>
      <trkpt lat="47.2683" lon="-2.30802">
        <ele>-0.40000000596046</ele>
        <time>2021-08-29T10:08:28.000Z</time>
      </trkpt>
      <trkpt lat="47.26831" lon="-2.30827">
        <ele>-0.40000000596046</ele>
        <time>2021-08-29T10:08:32.000Z</time>
      </trkpt>
      <trkpt lat="47.26834" lon="-2.30881">
        <ele>-0.40000000596046</ele>
        <time>2021-08-29T10:08:39.000Z</time>
      </trkpt>
      <trkpt lat="47.26844" lon="-2.3095">
        <ele>-0.40000000596046</ele>
        <time>2021-08-29T10:08:48.000Z</time>
      </trkpt>
      <trkpt lat="47.2685" lon="-2.30992">
        <ele>-0.40000000596046</ele>
        <time>2021-08-29T10:08:54.000Z</time>
      </trkpt>
      <trkpt lat="47.26851" lon="-2.31035">
        <ele>-0.40000000596046</ele>
        <time>2021-08-29T10:09:00.000Z</time>
      </trkpt>
      <trkpt lat="47.26851" lon="-2.31042">
        <ele>-0.40000000596046</ele>
        <time>2021-08-29T10:09:01.000Z</time>
      </trkpt>
      <trkpt lat="47.26855" lon="-2.31093">
        <ele>-0.40000000596046</ele>
        <time>2021-08-29T10:09:09.000Z</time>
      </trkpt>
      <trkpt lat="47.26856" lon="-2.31115">
        <ele>-0.40000000596046</ele>
        <time>2021-08-29T10:09:12.000Z</time>
      </trkpt>
      <trkpt lat="47.26855" lon="-2.31138">
        <ele>-0.40000000596046</ele>
        <time>2021-08-29T10:09:15.000Z</time>
      </trkpt>
      <trkpt lat="47.26854" lon="-2.31163">
        <ele>29.9</ele>
        <time>2021-08-29T10:09:18.000Z</time>
      </trkpt>
      <trkpt lat="47.26854" lon="-2.31172">
        <ele>0.40000000596046</ele>
        <time>2021-08-29T10:09:19.000Z</time>
      </trkpt>
      <trkpt lat="47.26854" lon="-2.31182">
        <ele>0.80000001192093</ele>
        <time>2021-08-29T10:09:20.000Z</time>
      </trkpt>
      <trkpt lat="47.26853" lon="-2.31191">
        <ele>1.2000000476837</ele>
        <time>2021-08-29T10:09:21.000Z</time>
      </trkpt>
      <trkpt lat="47.26853" lon="-2.312">
        <ele>1.6000000238419</ele>
        <time>2021-08-29T10:09:22.000Z</time>
      </trkpt>
      <trkpt lat="47.2685" lon="-2.31242">
        <ele>1.6000000238419</ele>
        <time>2021-08-29T10:09:27.000Z</time>
      </trkpt>
      <trkpt lat="47.26843" lon="-2.31298">
        <ele>1.6000000238419</ele>
        <time>2021-08-29T10:09:34.000Z</time>
      </trkpt>
      <trkpt lat="47.26841" lon="-2.31306">
        <ele>1.6000000238419</ele>
        <time>2021-08-29T10:09:35.000Z</time>
      </trkpt>
      <trkpt lat="47.26832" lon="-2.31332">
        <ele>1.6000000238419</ele>
        <time>2021-08-29T10:09:39.000Z</time>
      </trkpt>
      <trkpt lat="47.26828" lon="-2.31337">
        <ele>1.6000000238419</ele>
        <time>2021-08-29T10:09:40.000Z</time>
      </trkpt>
      <trkpt lat="47.26813" lon="-2.31345">
        <ele>1.6000000238419</ele>
        <time>2021-08-29T10:09:43.000Z</time>
      </trkpt>
      <trkpt lat="47.26809" lon="-2.31349">
        <ele>1.6000000238419</ele>
        <time>2021-08-29T10:09:44.000Z</time>
      </trkpt>
      <trkpt lat="47.26777" lon="-2.31371">
        <ele>1.6000000238419</ele>
        <time>2021-08-29T10:09:50.000Z</time>
      </trkpt>
      <trkpt lat="47.2673" lon="-2.31396">
        <ele>1.6000000238419</ele>
        <time>2021-08-29T10:09:58.000Z</time>
      </trkpt>
      <trkpt lat="47.26701" lon="-2.31415">
        <ele>1.6000000238419</ele>
        <time>2021-08-29T10:10:03.000Z</time>
      </trkpt>
      <trkpt lat="47.26675" lon="-2.31429">
        <ele>1.2000000476837</ele>
        <time>2021-08-29T10:10:07.000Z</time>
      </trkpt>
      <trkpt lat="47.26669" lon="-2.31433">
        <ele>0.80000001192093</ele>
        <time>2021-08-29T10:10:08.000Z</time>
      </trkpt>
      <trkpt lat="47.26663" lon="-2.31436">
        <ele>0.40000000596046</ele>
        <time>2021-08-29T10:10:09.000Z</time>
      </trkpt>
      <trkpt lat="47.26656" lon="-2.3144">
        <ele>26.1</ele>
        <time>2021-08-29T10:10:10.000Z</time>
      </trkpt>
      <trkpt lat="47.2665" lon="-2.31444">
        <ele>-0.40000000596046</ele>
        <time>2021-08-29T10:10:11.000Z</time>
      </trkpt>
      <trkpt lat="47.26626" lon="-2.31463">
        <ele>-0.40000000596046</ele>
        <time>2021-08-29T10:10:15.000Z</time>
      </trkpt>
      <trkpt lat="47.26621" lon="-2.31468">
        <ele>-1</ele>
        <time>2021-08-29T10:10:16.000Z</time>
      </trkpt>
      <trkpt lat="47.26615" lon="-2.31473">
        <ele>-1.3999999761581</ele>
        <time>2021-08-29T10:10:17.000Z</time>
      </trkpt>
      <trkpt lat="47.26611" lon="-2.31479">
        <ele>-1.7999999523163</ele>
        <time>2021-08-29T10:10:18.000Z</time>
      </trkpt>
      <trkpt lat="47.26609" lon="-2.31484">
        <ele>-2.2000000476837</ele>
        <time>2021-08-29T10:10:19.000Z</time>
      </trkpt>
      <trkpt lat="47.26609" lon="-2.31491">
        <ele>-2.5999999046326</ele>
        <time>2021-08-29T10:10:20.000Z</time>
      </trkpt>
      <trkpt lat="47.2661" lon="-2.31498">
        <ele>-2.5999999046326</ele>
        <time>2021-08-29T10:10:21.000Z</time>
      </trkpt>
      <trkpt lat="47.26619" lon="-2.31519">
        <ele>-2.5999999046326</ele>
        <time>2021-08-29T10:10:24.000Z</time>
      </trkpt>
      <trkpt lat="47.26622" lon="-2.31526">
        <ele>-2.5999999046326</ele>
        <time>2021-08-29T10:10:25.000Z</time>
      </trkpt>
      <trkpt lat="47.26628" lon="-2.31539">
        <ele>-3.2000000476837</ele>
        <time>2021-08-29T10:10:27.000Z</time>
      </trkpt>
      <trkpt lat="47.26629" lon="-2.31546">
        <ele>-3.5999999046326</ele>
        <time>2021-08-29T10:10:28.000Z</time>
      </trkpt>
      <trkpt lat="47.2663" lon="-2.31553">
        <ele>-4</ele>
        <time>2021-08-29T10:10:29.000Z</time>
      </trkpt>
      <trkpt lat="47.26629" lon="-2.31559">
        <ele>-4.4000000953674</ele>
        <time>2021-08-29T10:10:30.000Z</time>
      </trkpt>
      <trkpt lat="47.26625" lon="-2.31564">
        <ele>-5</ele>
        <time>2021-08-29T10:10:31.000Z</time>
      </trkpt>
      <trkpt lat="47.26615" lon="-2.31572">
        <ele>-5</ele>
        <time>2021-08-29T10:10:33.000Z</time>
      </trkpt>
      <trkpt lat="47.26609" lon="-2.31575">
        <ele>-5</ele>
        <time>2021-08-29T10:10:34.000Z</time>
      </trkpt>
      <trkpt lat="47.26603" lon="-2.31579">
        <ele>-5.4000000953674</ele>
        <time>2021-08-29T10:10:35.000Z</time>
      </trkpt>
      <trkpt lat="47.26596" lon="-2.31584">
        <ele>-5.8000001907349</ele>
        <time>2021-08-29T10:10:36.000Z</time>
      </trkpt>
      <trkpt lat="47.26589" lon="-2.31588">
        <ele>-6.4000000953674</ele>
        <time>2021-08-29T10:10:37.000Z</time>
      </trkpt>
      <trkpt lat="47.26581" lon="-2.31593">
        <ele>-6.8000001907349</ele>
        <time>2021-08-29T10:10:38.000Z</time>
      </trkpt>
      <trkpt lat="47.26573" lon="-2.31599">
        <ele>-7.1999998092651</ele>
        <time>2021-08-29T10:10:39.000Z</time>
      </trkpt>
      <trkpt lat="47.26557" lon="-2.31611">
        <ele>-7.5999999046326</ele>
        <time>2021-08-29T10:10:41.000Z</time>
      </trkpt>
      <trkpt lat="47.26549" lon="-2.31617">
        <ele>-8</ele>
        <time>2021-08-29T10:10:42.000Z</time>
      </trkpt>
      <trkpt lat="47.2654" lon="-2.31622">
        <ele>-8.6000003814697</ele>
        <time>2021-08-29T10:10:43.000Z</time>
      </trkpt>
      <trkpt lat="47.26531" lon="-2.31627">
        <ele>-9</ele>
        <time>2021-08-29T10:10:44.000Z</time>
      </trkpt>
      <trkpt lat="47.26523" lon="-2.31632">
        <ele>-9.3999996185303</ele>
        <time>2021-08-29T10:10:45.000Z</time>
      </trkpt>
      <trkpt lat="47.26505" lon="-2.31641">
        <ele>-9.8000001907349</ele>
        <time>2021-08-29T10:10:47.000Z</time>
      </trkpt>
      <trkpt lat="47.26495" lon="-2.31644">
        <ele>-10.800000190735</ele>
        <time>2021-08-29T10:10:48.000Z</time>
      </trkpt>
      <trkpt lat="47.26486" lon="-2.31646">
        <ele>-11.39999961853</ele>
        <time>2021-08-29T10:10:49.000Z</time>
      </trkpt>
      <trkpt lat="47.26476" lon="-2.31648">
        <ele>-11.800000190735</ele>
        <time>2021-08-29T10:10:50.000Z</time>
      </trkpt>
      <trkpt lat="47.26467" lon="-2.31649">
        <ele>-12.39999961853</ele>
        <time>2021-08-29T10:10:51.000Z</time>
      </trkpt>
      <trkpt lat="47.26457" lon="-2.31651">
        <ele>-13</ele>
        <time>2021-08-29T10:10:52.000Z</time>
      </trkpt>
      <trkpt lat="47.26447" lon="-2.31653">
        <ele>-13.39999961853</ele>
        <time>2021-08-29T10:10:53.000Z</time>
      </trkpt>
      <trkpt lat="47.26438" lon="-2.31656">
        <ele>-14</ele>
        <time>2021-08-29T10:10:54.000Z</time>
      </trkpt>
      <trkpt lat="47.26429" lon="-2.31658">
        <ele>-14.60000038147</ele>
        <time>2021-08-29T10:10:55.000Z</time>
      </trkpt>
      <trkpt lat="47.26419" lon="-2.3166">
        <ele>-15</ele>
        <time>2021-08-29T10:10:56.000Z</time>
      </trkpt>
      <trkpt lat="47.26411" lon="-2.31662">
        <ele>-15.60000038147</ele>
        <time>2021-08-29T10:10:57.000Z</time>
      </trkpt>
      <trkpt lat="47.26403" lon="-2.31665">
        <ele>-16</ele>
        <time>2021-08-29T10:10:58.000Z</time>
      </trkpt>
      <trkpt lat="47.26381" lon="-2.31677">
        <ele>-16.39999961853</ele>
        <time>2021-08-29T10:11:01.000Z</time>
      </trkpt>
      <trkpt lat="47.26373" lon="-2.31681">
        <ele>-16.799999237061</ele>
        <time>2021-08-29T10:11:02.000Z</time>
      </trkpt>
      <trkpt lat="47.26365" lon="-2.31686">
        <ele>-17.200000762939</ele>
        <time>2021-08-29T10:11:03.000Z</time>
      </trkpt>
      <trkpt lat="47.26358" lon="-2.3169">
        <ele>-17.799999237061</ele>
        <time>2021-08-29T10:11:04.000Z</time>
      </trkpt>
      <trkpt lat="47.26351" lon="-2.31694">
        <ele>-18.200000762939</ele>
        <time>2021-08-29T10:11:05.000Z</time>
      </trkpt>
      <trkpt lat="47.26345" lon="-2.31698">
        <ele>-18.60000038147</ele>
        <time>2021-08-29T10:11:06.000Z</time>
      </trkpt>
      <trkpt lat="47.26339" lon="-2.31701">
        <ele>-19</ele>
        <time>2021-08-29T10:11:07.000Z</time>
      </trkpt>
      <trkpt lat="47.26334" lon="-2.31703">
        <ele>-19.39999961853</ele>
        <time>2021-08-29T10:11:08.000Z</time>
      </trkpt>
      <trkpt lat="47.26328" lon="-2.31706">
        <ele>-19.799999237061</ele>
        <time>2021-08-29T10:11:09.000Z</time>
      </trkpt>
      <trkpt lat="47.26322" lon="-2.31709">
        <ele>-20.200000762939</ele>
        <time>2021-08-29T10:11:10.000Z</time>
      </trkpt>
      <trkpt lat="47.26312" lon="-2.31714">
        <ele>-20.60000038147</ele>
        <time>2021-08-29T10:11:12.000Z</time>
      </trkpt>
      <trkpt lat="47.26307" lon="-2.31717">
        <ele>-21</ele>
        <time>2021-08-29T10:11:13.000Z</time>
      </trkpt>
      <trkpt lat="47.26302" lon="-2.31721">
        <ele>-21.60000038147</ele>
        <time>2021-08-29T10:11:14.000Z</time>
      </trkpt>
      <trkpt lat="47.26298" lon="-2.31726">
        <ele>-22</ele>
        <time>2021-08-29T10:11:15.000Z</time>
      </trkpt>
      <trkpt lat="47.26297" lon="-2.31733">
        <ele>-22.39999961853</ele>
        <time>2021-08-29T10:11:16.000Z</time>
      </trkpt>
      <trkpt lat="47.26299" lon="-2.31756">
        <ele>-22.39999961853</ele>
        <time>2021-08-29T10:11:19.000Z</time>
      </trkpt>
      <trkpt lat="47.26301" lon="-2.31771">
        <ele>-22.39999961853</ele>
        <time>2021-08-29T10:11:21.000Z</time>
      </trkpt>
      <trkpt lat="47.26302" lon="-2.31784">
        <ele>-22.39999961853</ele>
        <time>2021-08-29T10:11:23.000Z</time>
      </trkpt>
      <trkpt lat="47.26303" lon="-2.31791">
        <ele>-22.39999961853</ele>
        <time>2021-08-29T10:11:24.000Z</time>
      </trkpt>
      <trkpt lat="47.26303" lon="-2.31798">
        <ele>-22.39999961853</ele>
        <time>2021-08-29T10:11:25.000Z</time>
      </trkpt>
      <trkpt lat="47.26301" lon="-2.31821">
        <ele>-22.39999961853</ele>
        <time>2021-08-29T10:11:28.000Z</time>
      </trkpt>
      <trkpt lat="47.26301" lon="-2.31828">
        <ele>-22.39999961853</ele>
        <time>2021-08-29T10:11:29.000Z</time>
      </trkpt>
      <trkpt lat="47.26298" lon="-2.31877">
        <ele>-22.39999961853</ele>
        <time>2021-08-29T10:11:35.000Z</time>
      </trkpt>
      <trkpt lat="47.26297" lon="-2.31885">
        <ele>-22.39999961853</ele>
        <time>2021-08-29T10:11:36.000Z</time>
      </trkpt>
      <trkpt lat="47.26294" lon="-2.31891">
        <ele>-23.200000762939</ele>
        <time>2021-08-29T10:11:37.000Z</time>
      </trkpt>
      <trkpt lat="47.2629" lon="-2.31895">
        <ele>-23.60000038147</ele>
        <time>2021-08-29T10:11:38.000Z</time>
      </trkpt>
      <trkpt lat="47.26286" lon="-2.31898">
        <ele>-24</ele>
        <time>2021-08-29T10:11:39.000Z</time>
      </trkpt>
      <trkpt lat="47.26282" lon="-2.31902">
        <ele>-24.60000038147</ele>
        <time>2021-08-29T10:11:40.000Z</time>
      </trkpt>
      <trkpt lat="47.26274" lon="-2.31913">
        <ele>-24.60000038147</ele>
        <time>2021-08-29T10:11:42.000Z</time>
      </trkpt>
      <trkpt lat="47.26271" lon="-2.3192">
        <ele>-24.60000038147</ele>
        <time>2021-08-29T10:11:43.000Z</time>
      </trkpt>
      <trkpt lat="47.26262" lon="-2.31938">
        <ele>-24.60000038147</ele>
        <time>2021-08-29T10:11:46.000Z</time>
      </trkpt>
      <trkpt lat="47.26249" lon="-2.31961">
        <ele>-24.60000038147</ele>
        <time>2021-08-29T10:11:50.000Z</time>
      </trkpt>
      <trkpt lat="47.26237" lon="-2.31977">
        <ele>-24.60000038147</ele>
        <time>2021-08-29T10:11:54.000Z</time>
      </trkpt>
      <trkpt lat="47.26233" lon="-2.31978">
        <ele>-24.60000038147</ele>
        <time>2021-08-29T10:11:55.000Z</time>
      </trkpt>
      <trkpt lat="47.26222" lon="-2.31987">
        <ele>-24.60000038147</ele>
        <time>2021-08-29T10:11:59.000Z</time>
      </trkpt>
      <trkpt lat="47.26205" lon="-2.31999">
        <ele>-24.60000038147</ele>
        <time>2021-08-29T10:12:05.000Z</time>
      </trkpt>
      <trkpt lat="47.26201" lon="-2.32013">
        <ele>-24.60000038147</ele>
        <time>2021-08-29T10:12:09.000Z</time>
      </trkpt>
      <trkpt lat="47.26199" lon="-2.32018">
        <ele>-24.60000038147</ele>
        <time>2021-08-29T10:12:11.000Z</time>
      </trkpt>
      <trkpt lat="47.26196" lon="-2.32019">
        <ele>-24.60000038147</ele>
        <time>2021-08-29T10:12:13.000Z</time>
      </trkpt>
      <trkpt lat="47.26191" lon="-2.32018">
        <ele>-24.60000038147</ele>
        <time>2021-08-29T10:12:15.000Z</time>
      </trkpt>
      <trkpt lat="47.26176" lon="-2.32021">
        <ele>-24.60000038147</ele>
        <time>2021-08-29T10:12:19.000Z</time>
      </trkpt>
      <trkpt lat="47.26165" lon="-2.32028">
        <ele>-24.60000038147</ele>
        <time>2021-08-29T10:12:22.000Z</time>
      </trkpt>
      <trkpt lat="47.26159" lon="-2.32038">
        <ele>-24.60000038147</ele>
        <time>2021-08-29T10:12:24.000Z</time>
      </trkpt>
      <trkpt lat="47.26151" lon="-2.3206">
        <ele>-24.60000038147</ele>
        <time>2021-08-29T10:12:27.000Z</time>
      </trkpt>
      <trkpt lat="47.26148" lon="-2.32069">
        <ele>-24.60000038147</ele>
        <time>2021-08-29T10:12:28.000Z</time>
      </trkpt>
      <trkpt lat="47.26132" lon="-2.32122">
        <ele>-24.60000038147</ele>
        <time>2021-08-29T10:12:34.000Z</time>
      </trkpt>
      <trkpt lat="47.26114" lon="-2.32174">
        <ele>-24.60000038147</ele>
        <time>2021-08-29T10:12:40.000Z</time>
      </trkpt>
      <trkpt lat="47.2611" lon="-2.32182">
        <ele>-24.60000038147</ele>
        <time>2021-08-29T10:12:41.000Z</time>
      </trkpt>
      <trkpt lat="47.26079" lon="-2.32235">
        <ele>-24.60000038147</ele>
        <time>2021-08-29T10:12:48.000Z</time>
      </trkpt>
      <trkpt lat="47.26043" lon="-2.32277">
        <ele>-24.60000038147</ele>
        <time>2021-08-29T10:12:55.000Z</time>
      </trkpt>
      <trkpt lat="47.26001" lon="-2.32328">
        <ele>-24.60000038147</ele>
        <time>2021-08-29T10:13:03.000Z</time>
      </trkpt>
      <trkpt lat="47.25995" lon="-2.32336">
        <ele>-24.60000038147</ele>
        <time>2021-08-29T10:13:04.000Z</time>
      </trkpt>
      <trkpt lat="47.25955" lon="-2.32387">
        <ele>-24.60000038147</ele>
        <time>2021-08-29T10:13:12.000Z</time>
      </trkpt>
      <trkpt lat="47.25914" lon="-2.32441">
        <ele>-24.60000038147</ele>
        <time>2021-08-29T10:13:21.000Z</time>
      </trkpt>
      <trkpt lat="47.25898" lon="-2.32459">
        <ele>-24.60000038147</ele>
        <time>2021-08-29T10:13:26.000Z</time>
      </trkpt>
      <trkpt lat="47.25884" lon="-2.32471">
        <ele>-24.60000038147</ele>
        <time>2021-08-29T10:13:32.000Z</time>
      </trkpt>
      <trkpt lat="47.2588" lon="-2.32473">
        <ele>-24.60000038147</ele>
        <time>2021-08-29T10:13:33.000Z</time>
      </trkpt>
      <trkpt lat="47.25865" lon="-2.32476">
        <ele>-24.60000038147</ele>
        <time>2021-08-29T10:13:36.000Z</time>
      </trkpt>
      <trkpt lat="47.25842" lon="-2.32475">
        <ele>-24.60000038147</ele>
        <time>2021-08-29T10:13:40.000Z</time>
      </trkpt>
      <trkpt lat="47.25837" lon="-2.32473">
        <ele>-24.60000038147</ele>
        <time>2021-08-29T10:13:41.000Z</time>
      </trkpt>
      <trkpt lat="47.25807" lon="-2.32456">
        <ele>-24.60000038147</ele>
        <time>2021-08-29T10:13:47.000Z</time>
      </trkpt>
      <trkpt lat="47.25799" lon="-2.32452">
        <ele>-24.60000038147</ele>
        <time>2021-08-29T10:13:49.000Z</time>
      </trkpt>
      <trkpt lat="47.25791" lon="-2.32457">
        <ele>-24.60000038147</ele>
        <time>2021-08-29T10:13:51.000Z</time>
      </trkpt>
      <trkpt lat="47.25779" lon="-2.32452">
        <ele>-24.60000038147</ele>
        <time>2021-08-29T10:13:54.000Z</time>
      </trkpt>
      <trkpt lat="47.25773" lon="-2.3244">
        <ele>-24.60000038147</ele>
        <time>2021-08-29T10:13:56.000Z</time>
      </trkpt>
      <trkpt lat="47.25764" lon="-2.32429">
        <ele>-24.60000038147</ele>
        <time>2021-08-29T10:13:58.000Z</time>
      </trkpt>
      <trkpt lat="47.25744" lon="-2.32426">
        <ele>-24.60000038147</ele>
        <time>2021-08-29T10:14:01.000Z</time>
      </trkpt>
      <trkpt lat="47.25737" lon="-2.32427">
        <ele>-24.60000038147</ele>
        <time>2021-08-29T10:14:02.000Z</time>
      </trkpt>
      <trkpt lat="47.25701" lon="-2.32424">
        <ele>-24.60000038147</ele>
        <time>2021-08-29T10:14:07.000Z</time>
      </trkpt>
      <trkpt lat="47.25669" lon="-2.32421">
        <ele>-24.60000038147</ele>
        <time>2021-08-29T10:14:12.000Z</time>
      </trkpt>
      <trkpt lat="47.25663" lon="-2.32424">
        <ele>-24.60000038147</ele>
        <time>2021-08-29T10:14:13.000Z</time>
      </trkpt>
      <trkpt lat="47.25659" lon="-2.32438">
        <ele>-24.60000038147</ele>
        <time>2021-08-29T10:14:15.000Z</time>
      </trkpt>
      <trkpt lat="47.25666" lon="-2.32463">
        <ele>-24.60000038147</ele>
        <time>2021-08-29T10:14:18.000Z</time>
      </trkpt>
      <trkpt lat="47.25668" lon="-2.32471">
        <ele>-24.60000038147</ele>
        <time>2021-08-29T10:14:19.000Z</time>
      </trkpt>
      <trkpt lat="47.25676" lon="-2.32494">
        <ele>-24</ele>
        <time>2021-08-29T10:14:22.000Z</time>
      </trkpt>
      <trkpt lat="47.25679" lon="-2.32502">
        <ele>-23.60000038147</ele>
        <time>2021-08-29T10:14:23.000Z</time>
      </trkpt>
      <trkpt lat="47.25682" lon="-2.3251">
        <ele>-23.200000762939</ele>
        <time>2021-08-29T10:14:24.000Z</time>
      </trkpt>
      <trkpt lat="47.25684" lon="-2.32518">
        <ele>-22.799999237061</ele>
        <time>2021-08-29T10:14:25.000Z</time>
      </trkpt>
      <trkpt lat="47.25687" lon="-2.32526">
        <ele>-22.39999961853</ele>
        <time>2021-08-29T10:14:26.000Z</time>
      </trkpt>
      <trkpt lat="47.25699" lon="-2.32563">
        <ele>-22.39999961853</ele>
        <time>2021-08-29T10:14:31.000Z</time>
      </trkpt>
      <trkpt lat="47.25702" lon="-2.3257">
        <ele>-22</ele>
        <time>2021-08-29T10:14:32.000Z</time>
      </trkpt>
      <trkpt lat="47.25704" lon="-2.32578">
        <ele>-21.60000038147</ele>
        <time>2021-08-29T10:14:33.000Z</time>
      </trkpt>
      <trkpt lat="47.25706" lon="-2.32586">
        <ele>-21.200000762939</ele>
        <time>2021-08-29T10:14:34.000Z</time>
      </trkpt>
      <trkpt lat="47.25708" lon="-2.32594">
        <ele>-20.799999237061</ele>
        <time>2021-08-29T10:14:35.000Z</time>
      </trkpt>
      <trkpt lat="47.25709" lon="-2.32603">
        <ele>-20.39999961853</ele>
        <time>2021-08-29T10:14:36.000Z</time>
      </trkpt>
      <trkpt lat="47.25708" lon="-2.32612">
        <ele>-20.39999961853</ele>
        <time>2021-08-29T10:14:37.000Z</time>
      </trkpt>
      <trkpt lat="47.257" lon="-2.32624">
        <ele>-20.39999961853</ele>
        <time>2021-08-29T10:14:39.000Z</time>
      </trkpt>
      <trkpt lat="47.25689" lon="-2.32629">
        <ele>-20.39999961853</ele>
        <time>2021-08-29T10:14:41.000Z</time>
      </trkpt>
      <trkpt lat="47.25679" lon="-2.32635">
        <ele>-20.39999961853</ele>
        <time>2021-08-29T10:14:43.000Z</time>
      </trkpt>
      <trkpt lat="47.25674" lon="-2.32638">
        <ele>-20</ele>
        <time>2021-08-29T10:14:44.000Z</time>
      </trkpt>
      <trkpt lat="47.25669" lon="-2.3264">
        <ele>-19.60000038147</ele>
        <time>2021-08-29T10:14:45.000Z</time>
      </trkpt>
      <trkpt lat="47.25665" lon="-2.32643">
        <ele>-19.200000762939</ele>
        <time>2021-08-29T10:14:46.000Z</time>
      </trkpt>
      <trkpt lat="47.25659" lon="-2.32645">
        <ele>-18.799999237061</ele>
        <time>2021-08-29T10:14:47.000Z</time>
      </trkpt>
      <trkpt lat="47.25655" lon="-2.32647">
        <ele>-18.39999961853</ele>
        <time>2021-08-29T10:14:48.000Z</time>
      </trkpt>
      <trkpt lat="47.2565" lon="-2.32649">
        <ele>-18.39999961853</ele>
        <time>2021-08-29T10:14:49.000Z</time>
      </trkpt>
      <trkpt lat="47.25618" lon="-2.32662">
        <ele>-18.39999961853</ele>
        <time>2021-08-29T10:14:56.000Z</time>
      </trkpt>
      <trkpt lat="47.25609" lon="-2.32668">
        <ele>-18.39999961853</ele>
        <time>2021-08-29T10:14:58.000Z</time>
      </trkpt>
      <trkpt lat="47.25604" lon="-2.3268">
        <ele>-18.39999961853</ele>
        <time>2021-08-29T10:15:00.000Z</time>
      </trkpt>
      <trkpt lat="47.25603" lon="-2.32687">
        <ele>-18</ele>
        <time>2021-08-29T10:15:01.000Z</time>
      </trkpt>
      <trkpt lat="47.25603" lon="-2.32693">
        <ele>-17.60000038147</ele>
        <time>2021-08-29T10:15:02.000Z</time>
      </trkpt>
      <trkpt lat="47.25602" lon="-2.327">
        <ele>-17.200000762939</ele>
        <time>2021-08-29T10:15:03.000Z</time>
      </trkpt>
      <trkpt lat="47.25602" lon="-2.32707">
        <ele>-16.60000038147</ele>
        <time>2021-08-29T10:15:04.000Z</time>
      </trkpt>
      <trkpt lat="47.25602" lon="-2.32714">
        <ele>-16.200000762939</ele>
        <time>2021-08-29T10:15:05.000Z</time>
      </trkpt>
      <trkpt lat="47.25601" lon="-2.32751">
        <ele>-16.200000762939</ele>
        <time>2021-08-29T10:15:10.000Z</time>
      </trkpt>
      <trkpt lat="47.25597" lon="-2.328">
        <ele>-16.200000762939</ele>
        <time>2021-08-29T10:15:17.000Z</time>
      </trkpt>
      <trkpt lat="47.25592" lon="-2.32842">
        <ele>-16.200000762939</ele>
        <time>2021-08-29T10:15:23.000Z</time>
      </trkpt>
      <trkpt lat="47.25592" lon="-2.32849">
        <ele>-16.200000762939</ele>
        <time>2021-08-29T10:15:24.000Z</time>
      </trkpt>
      <trkpt lat="47.256" lon="-2.32906">
        <ele>-16.200000762939</ele>
        <time>2021-08-29T10:15:31.000Z</time>
      </trkpt>
      <trkpt lat="47.25608" lon="-2.32955">
        <ele>-16.200000762939</ele>
        <time>2021-08-29T10:15:37.000Z</time>
      </trkpt>
      <trkpt lat="47.2561" lon="-2.32971">
        <ele>-16.200000762939</ele>
        <time>2021-08-29T10:15:39.000Z</time>
      </trkpt>
      <trkpt lat="47.25613" lon="-2.32987">
        <ele>-16.200000762939</ele>
        <time>2021-08-29T10:15:41.000Z</time>
      </trkpt>
      <trkpt lat="47.25621" lon="-2.33018">
        <ele>-16.200000762939</ele>
        <time>2021-08-29T10:15:45.000Z</time>
      </trkpt>
      <trkpt lat="47.25622" lon="-2.33025">
        <ele>-16.200000762939</ele>
        <time>2021-08-29T10:15:46.000Z</time>
      </trkpt>
      <trkpt lat="47.25616" lon="-2.33032">
        <ele>-16.200000762939</ele>
        <time>2021-08-29T10:15:48.000Z</time>
      </trkpt>
      <trkpt lat="47.25607" lon="-2.33033">
        <ele>-16.200000762939</ele>
        <time>2021-08-29T10:15:50.000Z</time>
      </trkpt>
      <trkpt lat="47.25595" lon="-2.33035">
        <ele>-16.200000762939</ele>
        <time>2021-08-29T10:15:52.000Z</time>
      </trkpt>
      <trkpt lat="47.25583" lon="-2.33037">
        <ele>-16.60000038147</ele>
        <time>2021-08-29T10:15:54.000Z</time>
      </trkpt>
      <trkpt lat="47.25577" lon="-2.33037">
        <ele>-17</ele>
        <time>2021-08-29T10:15:55.000Z</time>
      </trkpt>
      <trkpt lat="47.2557" lon="-2.33038">
        <ele>-17.39999961853</ele>
        <time>2021-08-29T10:15:56.000Z</time>
      </trkpt>
      <trkpt lat="47.25564" lon="-2.33039">
        <ele>-18</ele>
        <time>2021-08-29T10:15:57.000Z</time>
      </trkpt>
      <trkpt lat="47.25558" lon="-2.33041">
        <ele>-18.39999961853</ele>
        <time>2021-08-29T10:15:58.000Z</time>
      </trkpt>
      <trkpt lat="47.25551" lon="-2.33042">
        <ele>-18.39999961853</ele>
        <time>2021-08-29T10:15:59.000Z</time>
      </trkpt>
      <trkpt lat="47.25519" lon="-2.33054">
        <ele>-18.39999961853</ele>
        <time>2021-08-29T10:16:04.000Z</time>
      </trkpt>
      <trkpt lat="47.25513" lon="-2.33059">
        <ele>-18.39999961853</ele>
        <time>2021-08-29T10:16:05.000Z</time>
      </trkpt>
      <trkpt lat="47.25502" lon="-2.33074">
        <ele>-18.799999237061</ele>
        <time>2021-08-29T10:16:08.000Z</time>
      </trkpt>
      <trkpt lat="47.255" lon="-2.33076">
        <ele>-19.200000762939</ele>
        <time>2021-08-29T10:16:09.000Z</time>
      </trkpt>
      <trkpt lat="47.25499" lon="-2.33079">
        <ele>-19.60000038147</ele>
        <time>2021-08-29T10:16:10.000Z</time>
      </trkpt>
      <trkpt lat="47.25497" lon="-2.33083">
        <ele>-20</ele>
        <time>2021-08-29T10:16:11.000Z</time>
      </trkpt>
      <trkpt lat="47.25495" lon="-2.33087">
        <ele>-20.39999961853</ele>
        <time>2021-08-29T10:16:12.000Z</time>
      </trkpt>
      <trkpt lat="47.25489" lon="-2.33095">
        <ele>-20.39999961853</ele>
        <time>2021-08-29T10:16:14.000Z</time>
      </trkpt>
      <trkpt lat="47.25484" lon="-2.33097">
        <ele>-20.39999961853</ele>
        <time>2021-08-29T10:16:15.000Z</time>
      </trkpt>
      <trkpt lat="47.25439" lon="-2.33116">
        <ele>-20.39999961853</ele>
        <time>2021-08-29T10:16:23.000Z</time>
      </trkpt>
      <trkpt lat="47.25408" lon="-2.33128">
        <ele>-20.39999961853</ele>
        <time>2021-08-29T10:16:29.000Z</time>
      </trkpt>
      <trkpt lat="47.25395" lon="-2.33135">
        <ele>-20.39999961853</ele>
        <time>2021-08-29T10:16:32.000Z</time>
      </trkpt>
      <trkpt lat="47.25387" lon="-2.3314">
        <ele>-20.39999961853</ele>
        <time>2021-08-29T10:16:34.000Z</time>
      </trkpt>
      <trkpt lat="47.25384" lon="-2.33139">
        <ele>-20.39999961853</ele>
        <time>2021-08-29T10:16:35.000Z</time>
      </trkpt>
      <trkpt lat="47.25377" lon="-2.33126">
        <ele>-20.39999961853</ele>
        <time>2021-08-29T10:16:38.000Z</time>
      </trkpt>
      <trkpt lat="47.25376" lon="-2.33121">
        <ele>-20.39999961853</ele>
        <time>2021-08-29T10:16:39.000Z</time>
      </trkpt>
      <trkpt lat="47.25373" lon="-2.33111">
        <ele>-20.39999961853</ele>
        <time>2021-08-29T10:16:43.000Z</time>
      </trkpt>
      <trkpt lat="47.25373" lon="-2.33111">
        <ele>-20.39999961853</ele>
        <time>2021-08-29T10:16:44.000Z</time>
      </trkpt>
      <trkpt lat="47.25367" lon="-2.33099">
        <ele>-20.39999961853</ele>
        <time>2021-08-29T10:29:41.000Z</time>
      </trkpt>
      <trkpt lat="47.25366" lon="-2.33093">
        <ele>-20.39999961853</ele>
        <time>2021-08-29T10:29:43.000Z</time>
      </trkpt>
      <trkpt lat="47.2536" lon="-2.33077">
        <ele>-20.39999961853</ele>
        <time>2021-08-29T10:29:48.000Z</time>
      </trkpt>
      <trkpt lat="47.2535" lon="-2.33054">
        <ele>-20.39999961853</ele>
        <time>2021-08-29T10:29:54.000Z</time>
      </trkpt>
      <trkpt lat="47.25341" lon="-2.33027">
        <ele>-20.39999961853</ele>
        <time>2021-08-29T10:30:01.000Z</time>
      </trkpt>
      <trkpt lat="47.25329" lon="-2.32994">
        <ele>-20.39999961853</ele>
        <time>2021-08-29T10:30:09.000Z</time>
      </trkpt>
      <trkpt lat="47.25315" lon="-2.32961">
        <ele>-20.39999961853</ele>
        <time>2021-08-29T10:30:16.000Z</time>
      </trkpt>
      <trkpt lat="47.25306" lon="-2.32938">
        <ele>-20.39999961853</ele>
        <time>2021-08-29T10:30:21.000Z</time>
      </trkpt>
      <trkpt lat="47.25306" lon="-2.32932">
        <ele>-20.39999961853</ele>
        <time>2021-08-29T10:30:22.000Z</time>
      </trkpt>
      <trkpt lat="47.25313" lon="-2.32913">
        <ele>-20.39999961853</ele>
        <time>2021-08-29T10:30:26.000Z</time>
      </trkpt>
      <trkpt lat="47.25315" lon="-2.32909">
        <ele>-20.39999961853</ele>
        <time>2021-08-29T10:30:27.000Z</time>
      </trkpt>
      <trkpt lat="47.2532" lon="-2.32905">
        <ele>-20.39999961853</ele>
        <time>2021-08-29T10:30:28.000Z</time>
      </trkpt>
      <trkpt lat="47.25336" lon="-2.32891">
        <ele>-20.39999961853</ele>
        <time>2021-08-29T10:30:32.000Z</time>
      </trkpt>
      <trkpt lat="47.25368" lon="-2.32863">
        <ele>-20.39999961853</ele>
        <time>2021-08-29T10:30:40.000Z</time>
      </trkpt>
      <trkpt lat="47.25396" lon="-2.3283">
        <ele>-20.39999961853</ele>
        <time>2021-08-29T10:30:48.000Z</time>
      </trkpt>
      <trkpt lat="47.2542" lon="-2.32795">
        <ele>-20</ele>
        <time>2021-08-29T10:30:56.000Z</time>
      </trkpt>
      <trkpt lat="47.25423" lon="-2.3279">
        <ele>-19</ele>
        <time>2021-08-29T10:30:57.000Z</time>
      </trkpt>
      <trkpt lat="47.25425" lon="-2.32785">
        <ele>-18.60000038147</ele>
        <time>2021-08-29T10:30:58.000Z</time>
      </trkpt>
      <trkpt lat="47.25427" lon="-2.32779">
        <ele>-18.200000762939</ele>
        <time>2021-08-29T10:30:59.000Z</time>
      </trkpt>
      <trkpt lat="47.2543" lon="-2.32769">
        <ele>-18.200000762939</ele>
        <time>2021-08-29T10:31:01.000Z</time>
      </trkpt>
      <trkpt lat="47.2545" lon="-2.32744">
        <ele>-18.200000762939</ele>
        <time>2021-08-29T10:31:07.000Z</time>
      </trkpt>
      <trkpt lat="47.25472" lon="-2.32714">
        <ele>-18.200000762939</ele>
        <time>2021-08-29T10:31:14.000Z</time>
      </trkpt>
      <trkpt lat="47.25484" lon="-2.32698">
        <ele>-18.200000762939</ele>
        <time>2021-08-29T10:31:18.000Z</time>
      </trkpt>
      <trkpt lat="47.25488" lon="-2.32688">
        <ele>-18.200000762939</ele>
        <time>2021-08-29T10:31:20.000Z</time>
      </trkpt>
      <trkpt lat="47.2549" lon="-2.32662">
        <ele>-18.200000762939</ele>
        <time>2021-08-29T10:31:24.000Z</time>
      </trkpt>
      <trkpt lat="47.25488" lon="-2.3265">
        <ele>-18.200000762939</ele>
        <time>2021-08-29T10:31:26.000Z</time>
      </trkpt>
      <trkpt lat="47.25484" lon="-2.32632">
        <ele>-18.200000762939</ele>
        <time>2021-08-29T10:31:29.000Z</time>
      </trkpt>
      <trkpt lat="47.25476" lon="-2.3259">
        <ele>-18.200000762939</ele>
        <time>2021-08-29T10:31:36.000Z</time>
      </trkpt>
      <trkpt lat="47.25478" lon="-2.32569">
        <ele>-18.200000762939</ele>
        <time>2021-08-29T10:31:40.000Z</time>
      </trkpt>
      <trkpt lat="47.25491" lon="-2.32549">
        <ele>-18.200000762939</ele>
        <time>2021-08-29T10:31:45.000Z</time>
      </trkpt>
      <trkpt lat="47.25513" lon="-2.32527">
        <ele>-18.200000762939</ele>
        <time>2021-08-29T10:31:51.000Z</time>
      </trkpt>
      <trkpt lat="47.25527" lon="-2.32514">
        <ele>-18.200000762939</ele>
        <time>2021-08-29T10:31:55.000Z</time>
      </trkpt>
      <trkpt lat="47.25535" lon="-2.32507">
        <ele>-18.200000762939</ele>
        <time>2021-08-29T10:31:57.000Z</time>
      </trkpt>
      <trkpt lat="47.25564" lon="-2.32478">
        <ele>-18.200000762939</ele>
        <time>2021-08-29T10:32:04.000Z</time>
      </trkpt>
      <trkpt lat="47.25597" lon="-2.32447">
        <ele>-19.200000762939</ele>
        <time>2021-08-29T10:32:11.000Z</time>
      </trkpt>
      <trkpt lat="47.25601" lon="-2.32442">
        <ele>-19.799999237061</ele>
        <time>2021-08-29T10:32:12.000Z</time>
      </trkpt>
      <trkpt lat="47.25606" lon="-2.32436">
        <ele>-20.39999961853</ele>
        <time>2021-08-29T10:32:13.000Z</time>
      </trkpt>
      <trkpt lat="47.25611" lon="-2.32431">
        <ele>-20.799999237061</ele>
        <time>2021-08-29T10:32:14.000Z</time>
      </trkpt>
      <trkpt lat="47.25629" lon="-2.32411">
        <ele>-21.200000762939</ele>
        <time>2021-08-29T10:32:18.000Z</time>
      </trkpt>
      <trkpt lat="47.25633" lon="-2.32407">
        <ele>-21.60000038147</ele>
        <time>2021-08-29T10:32:19.000Z</time>
      </trkpt>
      <trkpt lat="47.25638" lon="-2.32403">
        <ele>-22.200000762939</ele>
        <time>2021-08-29T10:32:20.000Z</time>
      </trkpt>
      <trkpt lat="47.25643" lon="-2.32401">
        <ele>-22.60000038147</ele>
        <time>2021-08-29T10:32:21.000Z</time>
      </trkpt>
      <trkpt lat="47.25648" lon="-2.324">
        <ele>-23</ele>
        <time>2021-08-29T10:32:22.000Z</time>
      </trkpt>
      <trkpt lat="47.25653" lon="-2.324">
        <ele>-23</ele>
        <time>2021-08-29T10:32:23.000Z</time>
      </trkpt>
      <trkpt lat="47.25657" lon="-2.324">
        <ele>-23</ele>
        <time>2021-08-29T10:32:24.000Z</time>
      </trkpt>
      <trkpt lat="47.2567" lon="-2.32409">
        <ele>-23</ele>
        <time>2021-08-29T10:32:27.000Z</time>
      </trkpt>
      <trkpt lat="47.25679" lon="-2.32415">
        <ele>-23</ele>
        <time>2021-08-29T10:32:29.000Z</time>
      </trkpt>
      <trkpt lat="47.25689" lon="-2.32418">
        <ele>-23</ele>
        <time>2021-08-29T10:32:31.000Z</time>
      </trkpt>
      <trkpt lat="47.25721" lon="-2.3242">
        <ele>-23</ele>
        <time>2021-08-29T10:32:37.000Z</time>
      </trkpt>
      <trkpt lat="47.25741" lon="-2.32421">
        <ele>-23.39999961853</ele>
        <time>2021-08-29T10:32:41.000Z</time>
      </trkpt>
      <trkpt lat="47.25745" lon="-2.32421">
        <ele>-23.799999237061</ele>
        <time>2021-08-29T10:32:42.000Z</time>
      </trkpt>
      <trkpt lat="47.2575" lon="-2.32421">
        <ele>-24.200000762939</ele>
        <time>2021-08-29T10:32:43.000Z</time>
      </trkpt>
      <trkpt lat="47.25754" lon="-2.32421">
        <ele>-24.60000038147</ele>
        <time>2021-08-29T10:32:44.000Z</time>
      </trkpt>
      <trkpt lat="47.25759" lon="-2.3242">
        <ele>-25</ele>
        <time>2021-08-29T10:32:45.000Z</time>
      </trkpt>
      <trkpt lat="47.25776" lon="-2.32413">
        <ele>-25</ele>
        <time>2021-08-29T10:32:50.000Z</time>
      </trkpt>
      <trkpt lat="47.25779" lon="-2.32414">
        <ele>-25</ele>
        <time>2021-08-29T10:32:51.000Z</time>
      </trkpt>
      <trkpt lat="47.25786" lon="-2.32421">
        <ele>-25</ele>
        <time>2021-08-29T10:32:53.000Z</time>
      </trkpt>
      <trkpt lat="47.25791" lon="-2.32431">
        <ele>-25</ele>
        <time>2021-08-29T10:32:55.000Z</time>
      </trkpt>
      <trkpt lat="47.25795" lon="-2.32437">
        <ele>-25</ele>
        <time>2021-08-29T10:32:56.000Z</time>
      </trkpt>
      <trkpt lat="47.25802" lon="-2.32448">
        <ele>-25</ele>
        <time>2021-08-29T10:32:58.000Z</time>
      </trkpt>
      <trkpt lat="47.25816" lon="-2.32458">
        <ele>-25</ele>
        <time>2021-08-29T10:33:01.000Z</time>
      </trkpt>
      <trkpt lat="47.25825" lon="-2.32464">
        <ele>-25</ele>
        <time>2021-08-29T10:33:03.000Z</time>
      </trkpt>
      <trkpt lat="47.25851" lon="-2.32474">
        <ele>-25</ele>
        <time>2021-08-29T10:33:09.000Z</time>
      </trkpt>
      <trkpt lat="47.25864" lon="-2.32474">
        <ele>-25</ele>
        <time>2021-08-29T10:33:12.000Z</time>
      </trkpt>
      <trkpt lat="47.25877" lon="-2.32472">
        <ele>-25</ele>
        <time>2021-08-29T10:33:15.000Z</time>
      </trkpt>
      <trkpt lat="47.2589" lon="-2.32467">
        <ele>-25</ele>
        <time>2021-08-29T10:33:18.000Z</time>
      </trkpt>
      <trkpt lat="47.25898" lon="-2.32459">
        <ele>-25</ele>
        <time>2021-08-29T10:33:20.000Z</time>
      </trkpt>
      <trkpt lat="47.25923" lon="-2.32427">
        <ele>-25</ele>
        <time>2021-08-29T10:33:27.000Z</time>
      </trkpt>
      <trkpt lat="47.25954" lon="-2.32383">
        <ele>-25</ele>
        <time>2021-08-29T10:33:36.000Z</time>
      </trkpt>
      <trkpt lat="47.25983" lon="-2.32348">
        <ele>-25</ele>
        <time>2021-08-29T10:33:44.000Z</time>
      </trkpt>
      <trkpt lat="47.26011" lon="-2.32312">
        <ele>-25</ele>
        <time>2021-08-29T10:33:52.000Z</time>
      </trkpt>
      <trkpt lat="47.26036" lon="-2.32283">
        <ele>-25</ele>
        <time>2021-08-29T10:33:59.000Z</time>
      </trkpt>
      <trkpt lat="47.26064" lon="-2.32251">
        <ele>-25</ele>
        <time>2021-08-29T10:34:07.000Z</time>
      </trkpt>
      <trkpt lat="47.26081" lon="-2.3223">
        <ele>-25</ele>
        <time>2021-08-29T10:34:12.000Z</time>
      </trkpt>
      <trkpt lat="47.26091" lon="-2.32216">
        <ele>-25</ele>
        <time>2021-08-29T10:34:15.000Z</time>
      </trkpt>
      <trkpt lat="47.26101" lon="-2.32201">
        <ele>-25</ele>
        <time>2021-08-29T10:34:18.000Z</time>
      </trkpt>
      <trkpt lat="47.26118" lon="-2.32159">
        <ele>-25</ele>
        <time>2021-08-29T10:34:25.000Z</time>
      </trkpt>
      <trkpt lat="47.26132" lon="-2.32117">
        <ele>-25</ele>
        <time>2021-08-29T10:34:32.000Z</time>
      </trkpt>
      <trkpt lat="47.26145" lon="-2.32068">
        <ele>-25</ele>
        <time>2021-08-29T10:34:40.000Z</time>
      </trkpt>
      <trkpt lat="47.26159" lon="-2.32023">
        <ele>-25</ele>
        <time>2021-08-29T10:34:48.000Z</time>
      </trkpt>
      <trkpt lat="47.26167" lon="-2.32016">
        <ele>-25</ele>
        <time>2021-08-29T10:34:51.000Z</time>
      </trkpt>
      <trkpt lat="47.26171" lon="-2.32016">
        <ele>-25</ele>
        <time>2021-08-29T10:34:52.000Z</time>
      </trkpt>
      <trkpt lat="47.26187" lon="-2.32021">
        <ele>-25</ele>
        <time>2021-08-29T10:34:57.000Z</time>
      </trkpt>
      <trkpt lat="47.26196" lon="-2.3202">
        <ele>-25</ele>
        <time>2021-08-29T10:35:02.000Z</time>
      </trkpt>
      <trkpt lat="47.26196" lon="-2.32017">
        <ele>-25</ele>
        <time>2021-08-29T10:35:03.000Z</time>
      </trkpt>
      <trkpt lat="47.26199" lon="-2.32002">
        <ele>-25</ele>
        <time>2021-08-29T10:35:07.000Z</time>
      </trkpt>
      <trkpt lat="47.26206" lon="-2.31994">
        <ele>-25</ele>
        <time>2021-08-29T10:35:10.000Z</time>
      </trkpt>
      <trkpt lat="47.26214" lon="-2.31988">
        <ele>-25</ele>
        <time>2021-08-29T10:35:13.000Z</time>
      </trkpt>
      <trkpt lat="47.26232" lon="-2.31975">
        <ele>-25</ele>
        <time>2021-08-29T10:35:19.000Z</time>
      </trkpt>
      <trkpt lat="47.26239" lon="-2.31968">
        <ele>-25</ele>
        <time>2021-08-29T10:35:21.000Z</time>
      </trkpt>
      <trkpt lat="47.26244" lon="-2.31957">
        <ele>-25</ele>
        <time>2021-08-29T10:35:23.000Z</time>
      </trkpt>
      <trkpt lat="47.26254" lon="-2.31935">
        <ele>-25</ele>
        <time>2021-08-29T10:35:28.000Z</time>
      </trkpt>
      <trkpt lat="47.26268" lon="-2.31915">
        <ele>-25</ele>
        <time>2021-08-29T10:35:34.000Z</time>
      </trkpt>
      <trkpt lat="47.26286" lon="-2.31898">
        <ele>-25</ele>
        <time>2021-08-29T10:35:40.000Z</time>
      </trkpt>
      <trkpt lat="47.26297" lon="-2.31885">
        <ele>-25</ele>
        <time>2021-08-29T10:35:44.000Z</time>
      </trkpt>
      <trkpt lat="47.26299" lon="-2.31857">
        <ele>-25</ele>
        <time>2021-08-29T10:35:49.000Z</time>
      </trkpt>
      <trkpt lat="47.26301" lon="-2.3182">
        <ele>-25</ele>
        <time>2021-08-29T10:35:56.000Z</time>
      </trkpt>
      <trkpt lat="47.26302" lon="-2.31779">
        <ele>-25</ele>
        <time>2021-08-29T10:36:03.000Z</time>
      </trkpt>
      <trkpt lat="47.263" lon="-2.31739">
        <ele>-25</ele>
        <time>2021-08-29T10:36:10.000Z</time>
      </trkpt>
      <trkpt lat="47.26304" lon="-2.31717">
        <ele>-25</ele>
        <time>2021-08-29T10:36:14.000Z</time>
      </trkpt>
      <trkpt lat="47.26316" lon="-2.3171">
        <ele>-25</ele>
        <time>2021-08-29T10:36:18.000Z</time>
      </trkpt>
      <trkpt lat="47.26319" lon="-2.3171">
        <ele>-25</ele>
        <time>2021-08-29T10:36:19.000Z</time>
      </trkpt>
      <trkpt lat="47.26331" lon="-2.31702">
        <ele>-25</ele>
        <time>2021-08-29T10:36:23.000Z</time>
      </trkpt>
      <trkpt lat="47.26332" lon="-2.31699">
        <ele>-25</ele>
        <time>2021-08-29T10:36:25.000Z</time>
      </trkpt>
      <trkpt lat="47.26333" lon="-2.31697">
        <ele>-25</ele>
        <time>2021-08-29T10:36:27.000Z</time>
      </trkpt>
      <trkpt lat="47.26338" lon="-2.31686">
        <ele>-25</ele>
        <time>2021-08-29T10:36:31.000Z</time>
      </trkpt>
      <trkpt lat="47.2635" lon="-2.3168">
        <ele>-24.60000038147</ele>
        <time>2021-08-29T10:36:36.000Z</time>
      </trkpt>
      <trkpt lat="47.26353" lon="-2.31678">
        <ele>-24.200000762939</ele>
        <time>2021-08-29T10:36:37.000Z</time>
      </trkpt>
      <trkpt lat="47.26356" lon="-2.31677">
        <ele>-23.799999237061</ele>
        <time>2021-08-29T10:36:38.000Z</time>
      </trkpt>
      <trkpt lat="47.26358" lon="-2.31677">
        <ele>-23.39999961853</ele>
        <time>2021-08-29T10:36:39.000Z</time>
      </trkpt>
      <trkpt lat="47.26361" lon="-2.31676">
        <ele>-22.799999237061</ele>
        <time>2021-08-29T10:36:40.000Z</time>
      </trkpt>
      <trkpt lat="47.26367" lon="-2.31673">
        <ele>-22.799999237061</ele>
        <time>2021-08-29T10:36:42.000Z</time>
      </trkpt>
      <trkpt lat="47.26387" lon="-2.31663">
        <ele>-22.799999237061</ele>
        <time>2021-08-29T10:36:48.000Z</time>
      </trkpt>
      <trkpt lat="47.26403" lon="-2.31654">
        <ele>-22.799999237061</ele>
        <time>2021-08-29T10:36:54.000Z</time>
      </trkpt>
      <trkpt lat="47.2641" lon="-2.31646">
        <ele>-22.799999237061</ele>
        <time>2021-08-29T10:36:57.000Z</time>
      </trkpt>
      <trkpt lat="47.2641" lon="-2.31642">
        <ele>-22.799999237061</ele>
        <time>2021-08-29T10:36:58.000Z</time>
      </trkpt>
      <trkpt lat="47.2641" lon="-2.31637">
        <ele>-22.39999961853</ele>
        <time>2021-08-29T10:36:59.000Z</time>
      </trkpt>
      <trkpt lat="47.2641" lon="-2.31632">
        <ele>-22</ele>
        <time>2021-08-29T10:37:00.000Z</time>
      </trkpt>
      <trkpt lat="47.2641" lon="-2.31627">
        <ele>-21.60000038147</ele>
        <time>2021-08-29T10:37:01.000Z</time>
      </trkpt>
      <trkpt lat="47.26409" lon="-2.31623">
        <ele>-21.200000762939</ele>
        <time>2021-08-29T10:37:02.000Z</time>
      </trkpt>
      <trkpt lat="47.26409" lon="-2.31619">
        <ele>-20.60000038147</ele>
        <time>2021-08-29T10:37:03.000Z</time>
      </trkpt>
      <trkpt lat="47.26409" lon="-2.31611">
        <ele>-20.60000038147</ele>
        <time>2021-08-29T10:37:05.000Z</time>
      </trkpt>
      <trkpt lat="47.26409" lon="-2.31585">
        <ele>-20.60000038147</ele>
        <time>2021-08-29T10:37:11.000Z</time>
      </trkpt>
      <trkpt lat="47.2641" lon="-2.31562">
        <ele>-20.60000038147</ele>
        <time>2021-08-29T10:37:17.000Z</time>
      </trkpt>
      <trkpt lat="47.26411" lon="-2.31553">
        <ele>-20.60000038147</ele>
        <time>2021-08-29T10:37:20.000Z</time>
      </trkpt>
      <trkpt lat="47.26413" lon="-2.31552">
        <ele>-20.60000038147</ele>
        <time>2021-08-29T10:37:21.000Z</time>
      </trkpt>
      <trkpt lat="47.26416" lon="-2.31552">
        <ele>-20.60000038147</ele>
        <time>2021-08-29T10:37:24.000Z</time>
      </trkpt>
    </trkseg>
  </trk>
</gpx>